<?xml version="1.0" encoding="UTF-8" standalone="no" ?>
<gpx xmlns="http://www.topografix.com/GPX/1/1" xmlns:xsi="http://www.w3.org/2001/XMLSchema-instance" xsi:schemaLocation="http://www.topografix.com/GPX/1/1 http://www.topografix.com/GPX/1/1/gpx.xsd" version="1.1" creator="VisuGPX - https://www.visugpx.com">
  <metadata>
    <name>La rando d'Annette 2020 - 20 km Auffargis - Cernay la ville</name>
    <desc><![CDATA[20 km Auffargis - Cernay la ville
]]></desc>
  </metadata>
  <trk>
    <name><![CDATA[2020-01-11 17:42:32]]></name>
    <trkseg>
      <trkpt lat="48.69313" lon="1.90799">
        <ele>148.4</ele>
        <time>2020-01-11T07:47:43Z</time>
      </trkpt>
      <trkpt lat="48.69313" lon="1.908">
        <ele>145.81</ele>
        <time>2020-01-11T07:47:48Z</time>
      </trkpt>
      <trkpt lat="48.69312" lon="1.90801">
        <ele>138.85</ele>
        <time>2020-01-11T07:47:53Z</time>
      </trkpt>
      <trkpt lat="48.69309" lon="1.90805">
        <ele>136.62</ele>
        <time>2020-01-11T07:48:02Z</time>
      </trkpt>
      <trkpt lat="48.69306" lon="1.90808">
        <ele>135.78</ele>
        <time>2020-01-11T07:48:07Z</time>
      </trkpt>
      <trkpt lat="48.69302" lon="1.9081">
        <ele>135.51</ele>
        <time>2020-01-11T07:48:12Z</time>
      </trkpt>
      <trkpt lat="48.69297" lon="1.90815">
        <ele>135.34</ele>
        <time>2020-01-11T07:48:18Z</time>
      </trkpt>
      <trkpt lat="48.69293" lon="1.90819">
        <ele>135.22</ele>
        <time>2020-01-11T07:48:23Z</time>
      </trkpt>
      <trkpt lat="48.69289" lon="1.90821">
        <ele>135.23</ele>
        <time>2020-01-11T07:48:28Z</time>
      </trkpt>
      <trkpt lat="48.69284" lon="1.90826">
        <ele>135.22</ele>
        <time>2020-01-11T07:48:33Z</time>
      </trkpt>
      <trkpt lat="48.69279" lon="1.9083">
        <ele>135.1</ele>
        <time>2020-01-11T07:48:38Z</time>
      </trkpt>
      <trkpt lat="48.69273" lon="1.90833">
        <ele>134.9</ele>
        <time>2020-01-11T07:48:43Z</time>
      </trkpt>
      <trkpt lat="48.69268" lon="1.9084">
        <ele>134.68</ele>
        <time>2020-01-11T07:48:48Z</time>
      </trkpt>
      <trkpt lat="48.69265" lon="1.90847">
        <ele>134.83</ele>
        <time>2020-01-11T07:48:53Z</time>
      </trkpt>
      <trkpt lat="48.69261" lon="1.90853">
        <ele>134.94</ele>
        <time>2020-01-11T07:48:58Z</time>
      </trkpt>
      <trkpt lat="48.69259" lon="1.9086">
        <ele>135.01</ele>
        <time>2020-01-11T07:49:03Z</time>
      </trkpt>
      <trkpt lat="48.69256" lon="1.9087">
        <ele>135.14</ele>
        <time>2020-01-11T07:49:08Z</time>
      </trkpt>
      <trkpt lat="48.69254" lon="1.90879">
        <ele>135.27</ele>
        <time>2020-01-11T07:49:13Z</time>
      </trkpt>
      <trkpt lat="48.69253" lon="1.90884">
        <ele>135.36</ele>
        <time>2020-01-11T07:49:18Z</time>
      </trkpt>
      <trkpt lat="48.69251" lon="1.90888">
        <ele>135.43</ele>
        <time>2020-01-11T07:49:23Z</time>
      </trkpt>
      <trkpt lat="48.69245" lon="1.90893">
        <ele>135.48</ele>
        <time>2020-01-11T07:49:28Z</time>
      </trkpt>
      <trkpt lat="48.69238" lon="1.90897">
        <ele>135.04</ele>
        <time>2020-01-11T07:49:33Z</time>
      </trkpt>
      <trkpt lat="48.69233" lon="1.90902">
        <ele>134.64</ele>
        <time>2020-01-11T07:49:38Z</time>
      </trkpt>
      <trkpt lat="48.69227" lon="1.90909">
        <ele>134.12</ele>
        <time>2020-01-11T07:49:43Z</time>
      </trkpt>
      <trkpt lat="48.69223" lon="1.90916">
        <ele>133.69</ele>
        <time>2020-01-11T07:49:48Z</time>
      </trkpt>
      <trkpt lat="48.69219" lon="1.90922">
        <ele>133.32</ele>
        <time>2020-01-11T07:49:53Z</time>
      </trkpt>
      <trkpt lat="48.69215" lon="1.9093">
        <ele>133.13</ele>
        <time>2020-01-11T07:49:58Z</time>
      </trkpt>
      <trkpt lat="48.69212" lon="1.90939">
        <ele>132.92</ele>
        <time>2020-01-11T07:50:03Z</time>
      </trkpt>
      <trkpt lat="48.69208" lon="1.90946">
        <ele>132.71</ele>
        <time>2020-01-11T07:50:08Z</time>
      </trkpt>
      <trkpt lat="48.69205" lon="1.90953">
        <ele>132.5</ele>
        <time>2020-01-11T07:50:13Z</time>
      </trkpt>
      <trkpt lat="48.69201" lon="1.9096">
        <ele>132.5</ele>
        <time>2020-01-11T07:50:18Z</time>
      </trkpt>
      <trkpt lat="48.69197" lon="1.90964">
        <ele>132.46</ele>
        <time>2020-01-11T07:50:23Z</time>
      </trkpt>
      <trkpt lat="48.69192" lon="1.90967">
        <ele>132.37</ele>
        <time>2020-01-11T07:50:28Z</time>
      </trkpt>
      <trkpt lat="48.69186" lon="1.90969">
        <ele>132.26</ele>
        <time>2020-01-11T07:50:33Z</time>
      </trkpt>
      <trkpt lat="48.69181" lon="1.90966">
        <ele>132.01</ele>
        <time>2020-01-11T07:50:38Z</time>
      </trkpt>
      <trkpt lat="48.69179" lon="1.9096">
        <ele>131.91</ele>
        <time>2020-01-11T07:50:43Z</time>
      </trkpt>
      <trkpt lat="48.69179" lon="1.90953">
        <ele>131.81</ele>
        <time>2020-01-11T07:50:48Z</time>
      </trkpt>
      <trkpt lat="48.69178" lon="1.90946">
        <ele>131.84</ele>
        <time>2020-01-11T07:50:53Z</time>
      </trkpt>
      <trkpt lat="48.69177" lon="1.90937">
        <ele>131.88</ele>
        <time>2020-01-11T07:50:58Z</time>
      </trkpt>
      <trkpt lat="48.69175" lon="1.90926">
        <ele>131.87</ele>
        <time>2020-01-11T07:51:03Z</time>
      </trkpt>
      <trkpt lat="48.69174" lon="1.90918">
        <ele>132.01</ele>
        <time>2020-01-11T07:51:08Z</time>
      </trkpt>
      <trkpt lat="48.69174" lon="1.90909">
        <ele>132.23</ele>
        <time>2020-01-11T07:51:13Z</time>
      </trkpt>
      <trkpt lat="48.69174" lon="1.90899">
        <ele>132.34</ele>
        <time>2020-01-11T07:51:18Z</time>
      </trkpt>
      <trkpt lat="48.69174" lon="1.9089">
        <ele>132.54</ele>
        <time>2020-01-11T07:51:23Z</time>
      </trkpt>
      <trkpt lat="48.69172" lon="1.90882">
        <ele>132.93</ele>
        <time>2020-01-11T07:51:28Z</time>
      </trkpt>
      <trkpt lat="48.6917" lon="1.90876">
        <ele>133.22</ele>
        <time>2020-01-11T07:51:33Z</time>
      </trkpt>
      <trkpt lat="48.69166" lon="1.90873">
        <ele>133.45</ele>
        <time>2020-01-11T07:51:38Z</time>
      </trkpt>
      <trkpt lat="48.69161" lon="1.90872">
        <ele>133.83</ele>
        <time>2020-01-11T07:51:43Z</time>
      </trkpt>
      <trkpt lat="48.69156" lon="1.9087">
        <ele>134.1</ele>
        <time>2020-01-11T07:51:48Z</time>
      </trkpt>
      <trkpt lat="48.69151" lon="1.90872">
        <ele>134.24</ele>
        <time>2020-01-11T07:51:53Z</time>
      </trkpt>
      <trkpt lat="48.69147" lon="1.90873">
        <ele>134.25</ele>
        <time>2020-01-11T07:51:58Z</time>
      </trkpt>
      <trkpt lat="48.69144" lon="1.90876">
        <ele>134.07</ele>
        <time>2020-01-11T07:52:03Z</time>
      </trkpt>
      <trkpt lat="48.69139" lon="1.9088">
        <ele>133.97</ele>
        <time>2020-01-11T07:52:08Z</time>
      </trkpt>
      <trkpt lat="48.69134" lon="1.90881">
        <ele>134.01</ele>
        <time>2020-01-11T07:52:13Z</time>
      </trkpt>
      <trkpt lat="48.69129" lon="1.90881">
        <ele>134.09</ele>
        <time>2020-01-11T07:52:18Z</time>
      </trkpt>
      <trkpt lat="48.69124" lon="1.90882">
        <ele>134.17</ele>
        <time>2020-01-11T07:52:23Z</time>
      </trkpt>
      <trkpt lat="48.69119" lon="1.9088">
        <ele>134.23</ele>
        <time>2020-01-11T07:52:28Z</time>
      </trkpt>
      <trkpt lat="48.69113" lon="1.9088">
        <ele>134.2</ele>
        <time>2020-01-11T07:52:33Z</time>
      </trkpt>
      <trkpt lat="48.69107" lon="1.9088">
        <ele>134.12</ele>
        <time>2020-01-11T07:52:38Z</time>
      </trkpt>
      <trkpt lat="48.69101" lon="1.90879">
        <ele>134.03</ele>
        <time>2020-01-11T07:52:43Z</time>
      </trkpt>
      <trkpt lat="48.69097" lon="1.90877">
        <ele>133.65</ele>
        <time>2020-01-11T07:52:48Z</time>
      </trkpt>
      <trkpt lat="48.69092" lon="1.90876">
        <ele>133.28</ele>
        <time>2020-01-11T07:52:53Z</time>
      </trkpt>
      <trkpt lat="48.69088" lon="1.90873">
        <ele>132.85</ele>
        <time>2020-01-11T07:52:58Z</time>
      </trkpt>
      <trkpt lat="48.69084" lon="1.90869">
        <ele>132.62</ele>
        <time>2020-01-11T07:53:03Z</time>
      </trkpt>
      <trkpt lat="48.6908" lon="1.90863">
        <ele>132.51</ele>
        <time>2020-01-11T07:53:08Z</time>
      </trkpt>
      <trkpt lat="48.69077" lon="1.90858">
        <ele>132.37</ele>
        <time>2020-01-11T07:53:13Z</time>
      </trkpt>
      <trkpt lat="48.69075" lon="1.90854">
        <ele>132.15</ele>
        <time>2020-01-11T07:53:18Z</time>
      </trkpt>
      <trkpt lat="48.69072" lon="1.9085">
        <ele>132.12</ele>
        <time>2020-01-11T07:53:23Z</time>
      </trkpt>
      <trkpt lat="48.69067" lon="1.90844">
        <ele>131.85</ele>
        <time>2020-01-11T07:53:28Z</time>
      </trkpt>
      <trkpt lat="48.69063" lon="1.90838">
        <ele>131.66</ele>
        <time>2020-01-11T07:53:33Z</time>
      </trkpt>
      <trkpt lat="48.6906" lon="1.90831">
        <ele>131.47</ele>
        <time>2020-01-11T07:53:38Z</time>
      </trkpt>
      <trkpt lat="48.69056" lon="1.90827">
        <ele>131.2</ele>
        <time>2020-01-11T07:53:43Z</time>
      </trkpt>
      <trkpt lat="48.69054" lon="1.90819">
        <ele>131.18</ele>
        <time>2020-01-11T07:53:48Z</time>
      </trkpt>
      <trkpt lat="48.69051" lon="1.90813">
        <ele>131.15</ele>
        <time>2020-01-11T07:53:53Z</time>
      </trkpt>
      <trkpt lat="48.69047" lon="1.90807">
        <ele>131.02</ele>
        <time>2020-01-11T07:53:58Z</time>
      </trkpt>
      <trkpt lat="48.69041" lon="1.908">
        <ele>130.96</ele>
        <time>2020-01-11T07:54:03Z</time>
      </trkpt>
      <trkpt lat="48.69036" lon="1.90798">
        <ele>130.84</ele>
        <time>2020-01-11T07:54:08Z</time>
      </trkpt>
      <trkpt lat="48.69032" lon="1.90793">
        <ele>130.49</ele>
        <time>2020-01-11T07:54:13Z</time>
      </trkpt>
      <trkpt lat="48.69028" lon="1.90784">
        <ele>130.16</ele>
        <time>2020-01-11T07:54:18Z</time>
      </trkpt>
      <trkpt lat="48.69021" lon="1.9078">
        <ele>129.83</ele>
        <time>2020-01-11T07:54:23Z</time>
      </trkpt>
      <trkpt lat="48.69014" lon="1.90776">
        <ele>129.33</ele>
        <time>2020-01-11T07:54:28Z</time>
      </trkpt>
      <trkpt lat="48.69008" lon="1.90774">
        <ele>129.27</ele>
        <time>2020-01-11T07:54:33Z</time>
      </trkpt>
      <trkpt lat="48.69003" lon="1.90773">
        <ele>129.14</ele>
        <time>2020-01-11T07:54:38Z</time>
      </trkpt>
      <trkpt lat="48.68996" lon="1.90773">
        <ele>128.97</ele>
        <time>2020-01-11T07:54:43Z</time>
      </trkpt>
      <trkpt lat="48.6899" lon="1.9077">
        <ele>128.62</ele>
        <time>2020-01-11T07:54:48Z</time>
      </trkpt>
      <trkpt lat="48.68986" lon="1.90768">
        <ele>128.29</ele>
        <time>2020-01-11T07:54:53Z</time>
      </trkpt>
      <trkpt lat="48.68982" lon="1.90765">
        <ele>128.01</ele>
        <time>2020-01-11T07:54:58Z</time>
      </trkpt>
      <trkpt lat="48.68976" lon="1.90763">
        <ele>127.57</ele>
        <time>2020-01-11T07:55:03Z</time>
      </trkpt>
      <trkpt lat="48.6897" lon="1.90763">
        <ele>127.4</ele>
        <time>2020-01-11T07:55:08Z</time>
      </trkpt>
      <trkpt lat="48.68965" lon="1.90762">
        <ele>127.04</ele>
        <time>2020-01-11T07:55:13Z</time>
      </trkpt>
      <trkpt lat="48.68959" lon="1.90763">
        <ele>126.77</ele>
        <time>2020-01-11T07:55:18Z</time>
      </trkpt>
      <trkpt lat="48.68955" lon="1.90762">
        <ele>126.53</ele>
        <time>2020-01-11T07:55:23Z</time>
      </trkpt>
      <trkpt lat="48.6895" lon="1.9076">
        <ele>126.38</ele>
        <time>2020-01-11T07:55:28Z</time>
      </trkpt>
      <trkpt lat="48.68946" lon="1.90759">
        <ele>126.16</ele>
        <time>2020-01-11T07:55:33Z</time>
      </trkpt>
      <trkpt lat="48.68944" lon="1.9076">
        <ele>125.65</ele>
        <time>2020-01-11T07:55:38Z</time>
      </trkpt>
      <trkpt lat="48.6894" lon="1.90762">
        <ele>125.3</ele>
        <time>2020-01-11T07:55:43Z</time>
      </trkpt>
      <trkpt lat="48.68933" lon="1.90764">
        <ele>125.19</ele>
        <time>2020-01-11T07:55:48Z</time>
      </trkpt>
      <trkpt lat="48.68926" lon="1.90768">
        <ele>125.2</ele>
        <time>2020-01-11T07:55:53Z</time>
      </trkpt>
      <trkpt lat="48.68918" lon="1.90765">
        <ele>125.26</ele>
        <time>2020-01-11T07:55:58Z</time>
      </trkpt>
      <trkpt lat="48.68911" lon="1.90763">
        <ele>125.6</ele>
        <time>2020-01-11T07:56:03Z</time>
      </trkpt>
      <trkpt lat="48.68905" lon="1.90762">
        <ele>125.79</ele>
        <time>2020-01-11T07:56:08Z</time>
      </trkpt>
      <trkpt lat="48.689" lon="1.90763">
        <ele>126.02</ele>
        <time>2020-01-11T07:56:13Z</time>
      </trkpt>
      <trkpt lat="48.68893" lon="1.90761">
        <ele>126.16</ele>
        <time>2020-01-11T07:56:18Z</time>
      </trkpt>
      <trkpt lat="48.68887" lon="1.90761">
        <ele>126.29</ele>
        <time>2020-01-11T07:56:23Z</time>
      </trkpt>
      <trkpt lat="48.68882" lon="1.90762">
        <ele>126.55</ele>
        <time>2020-01-11T07:56:28Z</time>
      </trkpt>
      <trkpt lat="48.68877" lon="1.90761">
        <ele>126.83</ele>
        <time>2020-01-11T07:56:33Z</time>
      </trkpt>
      <trkpt lat="48.68872" lon="1.90763">
        <ele>127.45</ele>
        <time>2020-01-11T07:56:38Z</time>
      </trkpt>
      <trkpt lat="48.68867" lon="1.90763">
        <ele>128.13</ele>
        <time>2020-01-11T07:56:43Z</time>
      </trkpt>
      <trkpt lat="48.68863" lon="1.90762">
        <ele>128.76</ele>
        <time>2020-01-11T07:56:48Z</time>
      </trkpt>
      <trkpt lat="48.68859" lon="1.90762">
        <ele>129.44</ele>
        <time>2020-01-11T07:56:53Z</time>
      </trkpt>
      <trkpt lat="48.68853" lon="1.90762">
        <ele>130.02</ele>
        <time>2020-01-11T07:56:58Z</time>
      </trkpt>
      <trkpt lat="48.68849" lon="1.90761">
        <ele>130.49</ele>
        <time>2020-01-11T07:57:03Z</time>
      </trkpt>
      <trkpt lat="48.68844" lon="1.90761">
        <ele>130.8</ele>
        <time>2020-01-11T07:57:08Z</time>
      </trkpt>
      <trkpt lat="48.68839" lon="1.90762">
        <ele>131.28</ele>
        <time>2020-01-11T07:57:13Z</time>
      </trkpt>
      <trkpt lat="48.68834" lon="1.9076">
        <ele>131.87</ele>
        <time>2020-01-11T07:57:18Z</time>
      </trkpt>
      <trkpt lat="48.6883" lon="1.90758">
        <ele>132.36</ele>
        <time>2020-01-11T07:57:23Z</time>
      </trkpt>
      <trkpt lat="48.68826" lon="1.90755">
        <ele>132.74</ele>
        <time>2020-01-11T07:57:28Z</time>
      </trkpt>
      <trkpt lat="48.68822" lon="1.90756">
        <ele>133.2</ele>
        <time>2020-01-11T07:57:33Z</time>
      </trkpt>
      <trkpt lat="48.68819" lon="1.90755">
        <ele>133.62</ele>
        <time>2020-01-11T07:57:38Z</time>
      </trkpt>
      <trkpt lat="48.68814" lon="1.90755">
        <ele>134.14</ele>
        <time>2020-01-11T07:57:43Z</time>
      </trkpt>
      <trkpt lat="48.68811" lon="1.90756">
        <ele>134.95</ele>
        <time>2020-01-11T07:57:48Z</time>
      </trkpt>
      <trkpt lat="48.68807" lon="1.90756">
        <ele>135.83</ele>
        <time>2020-01-11T07:57:53Z</time>
      </trkpt>
      <trkpt lat="48.68802" lon="1.90756">
        <ele>136.42</ele>
        <time>2020-01-11T07:57:58Z</time>
      </trkpt>
      <trkpt lat="48.68797" lon="1.90756">
        <ele>137.4</ele>
        <time>2020-01-11T07:58:03Z</time>
      </trkpt>
      <trkpt lat="48.68792" lon="1.90756">
        <ele>138.14</ele>
        <time>2020-01-11T07:58:08Z</time>
      </trkpt>
      <trkpt lat="48.68787" lon="1.90758">
        <ele>138.58</ele>
        <time>2020-01-11T07:58:13Z</time>
      </trkpt>
      <trkpt lat="48.68782" lon="1.90759">
        <ele>138.85</ele>
        <time>2020-01-11T07:58:18Z</time>
      </trkpt>
      <trkpt lat="48.68779" lon="1.90756">
        <ele>139.39</ele>
        <time>2020-01-11T07:58:23Z</time>
      </trkpt>
      <trkpt lat="48.68775" lon="1.90755">
        <ele>139.79</ele>
        <time>2020-01-11T07:58:28Z</time>
      </trkpt>
      <trkpt lat="48.68771" lon="1.90754">
        <ele>140.32</ele>
        <time>2020-01-11T07:58:33Z</time>
      </trkpt>
      <trkpt lat="48.68768" lon="1.90754">
        <ele>140.82</ele>
        <time>2020-01-11T07:58:38Z</time>
      </trkpt>
      <trkpt lat="48.68763" lon="1.90755">
        <ele>141.28</ele>
        <time>2020-01-11T07:58:43Z</time>
      </trkpt>
      <trkpt lat="48.68759" lon="1.90754">
        <ele>141.79</ele>
        <time>2020-01-11T07:58:48Z</time>
      </trkpt>
      <trkpt lat="48.68756" lon="1.90752">
        <ele>142.64</ele>
        <time>2020-01-11T07:58:53Z</time>
      </trkpt>
      <trkpt lat="48.68752" lon="1.90754">
        <ele>143.72</ele>
        <time>2020-01-11T07:58:58Z</time>
      </trkpt>
      <trkpt lat="48.6875" lon="1.90754">
        <ele>144.32</ele>
        <time>2020-01-11T07:59:03Z</time>
      </trkpt>
      <trkpt lat="48.68748" lon="1.90753">
        <ele>144.84</ele>
        <time>2020-01-11T07:59:08Z</time>
      </trkpt>
      <trkpt lat="48.68745" lon="1.90753">
        <ele>145.61</ele>
        <time>2020-01-11T07:59:13Z</time>
      </trkpt>
      <trkpt lat="48.68743" lon="1.90752">
        <ele>146.41</ele>
        <time>2020-01-11T07:59:18Z</time>
      </trkpt>
      <trkpt lat="48.6874" lon="1.90751">
        <ele>147.28</ele>
        <time>2020-01-11T07:59:23Z</time>
      </trkpt>
      <trkpt lat="48.68738" lon="1.9075">
        <ele>147.97</ele>
        <time>2020-01-11T07:59:28Z</time>
      </trkpt>
      <trkpt lat="48.68736" lon="1.90752">
        <ele>148.81</ele>
        <time>2020-01-11T07:59:33Z</time>
      </trkpt>
      <trkpt lat="48.68734" lon="1.90754">
        <ele>149.54</ele>
        <time>2020-01-11T07:59:38Z</time>
      </trkpt>
      <trkpt lat="48.68732" lon="1.90755">
        <ele>150.41</ele>
        <time>2020-01-11T07:59:43Z</time>
      </trkpt>
      <trkpt lat="48.68731" lon="1.90755">
        <ele>151.41</ele>
        <time>2020-01-11T07:59:48Z</time>
      </trkpt>
      <trkpt lat="48.68729" lon="1.90757">
        <ele>152.21</ele>
        <time>2020-01-11T07:59:53Z</time>
      </trkpt>
      <trkpt lat="48.68727" lon="1.90757">
        <ele>152.9</ele>
        <time>2020-01-11T07:59:58Z</time>
      </trkpt>
      <trkpt lat="48.68725" lon="1.90756">
        <ele>153.6</ele>
        <time>2020-01-11T08:00:03Z</time>
      </trkpt>
      <trkpt lat="48.68722" lon="1.90757">
        <ele>154.46</ele>
        <time>2020-01-11T08:00:08Z</time>
      </trkpt>
      <trkpt lat="48.68718" lon="1.90756">
        <ele>155.49</ele>
        <time>2020-01-11T08:00:13Z</time>
      </trkpt>
      <trkpt lat="48.68715" lon="1.90756">
        <ele>156.44</ele>
        <time>2020-01-11T08:00:18Z</time>
      </trkpt>
      <trkpt lat="48.68711" lon="1.90754">
        <ele>157.1</ele>
        <time>2020-01-11T08:00:23Z</time>
      </trkpt>
      <trkpt lat="48.68709" lon="1.90754">
        <ele>157.44</ele>
        <time>2020-01-11T08:00:28Z</time>
      </trkpt>
      <trkpt lat="48.68708" lon="1.90753">
        <ele>157.58</ele>
        <time>2020-01-11T08:00:33Z</time>
      </trkpt>
      <trkpt lat="48.68707" lon="1.90753">
        <ele>157.53</ele>
        <time>2020-01-11T08:00:38Z</time>
      </trkpt>
      <trkpt lat="48.68705" lon="1.90753">
        <ele>157.54</ele>
        <time>2020-01-11T08:00:43Z</time>
      </trkpt>
      <trkpt lat="48.68704" lon="1.90753">
        <ele>157.54</ele>
        <time>2020-01-11T08:00:48Z</time>
      </trkpt>
      <trkpt lat="48.68702" lon="1.90754">
        <ele>157.6</ele>
        <time>2020-01-11T08:00:53Z</time>
      </trkpt>
      <trkpt lat="48.68697" lon="1.90755">
        <ele>157.67</ele>
        <time>2020-01-11T08:00:58Z</time>
      </trkpt>
      <trkpt lat="48.68694" lon="1.90755">
        <ele>157.95</ele>
        <time>2020-01-11T08:01:03Z</time>
      </trkpt>
      <trkpt lat="48.6869" lon="1.90753">
        <ele>158.08</ele>
        <time>2020-01-11T08:01:08Z</time>
      </trkpt>
      <trkpt lat="48.68687" lon="1.90752">
        <ele>158.23</ele>
        <time>2020-01-11T08:01:13Z</time>
      </trkpt>
      <trkpt lat="48.68684" lon="1.90751">
        <ele>158.22</ele>
        <time>2020-01-11T08:01:18Z</time>
      </trkpt>
      <trkpt lat="48.68679" lon="1.90749">
        <ele>158.24</ele>
        <time>2020-01-11T08:01:23Z</time>
      </trkpt>
      <trkpt lat="48.68672" lon="1.90746">
        <ele>158.22</ele>
        <time>2020-01-11T08:01:28Z</time>
      </trkpt>
      <trkpt lat="48.68665" lon="1.90747">
        <ele>158.17</ele>
        <time>2020-01-11T08:01:33Z</time>
      </trkpt>
      <trkpt lat="48.6866" lon="1.9075">
        <ele>158.06</ele>
        <time>2020-01-11T08:01:38Z</time>
      </trkpt>
      <trkpt lat="48.68655" lon="1.90751">
        <ele>157.99</ele>
        <time>2020-01-11T08:01:43Z</time>
      </trkpt>
      <trkpt lat="48.68651" lon="1.90752">
        <ele>157.95</ele>
        <time>2020-01-11T08:01:48Z</time>
      </trkpt>
      <trkpt lat="48.68646" lon="1.90753">
        <ele>157.74</ele>
        <time>2020-01-11T08:01:53Z</time>
      </trkpt>
      <trkpt lat="48.6864" lon="1.90752">
        <ele>157.72</ele>
        <time>2020-01-11T08:01:58Z</time>
      </trkpt>
      <trkpt lat="48.68633" lon="1.90752">
        <ele>157.36</ele>
        <time>2020-01-11T08:02:03Z</time>
      </trkpt>
      <trkpt lat="48.68628" lon="1.90751">
        <ele>157.18</ele>
        <time>2020-01-11T08:02:08Z</time>
      </trkpt>
      <trkpt lat="48.68623" lon="1.90749">
        <ele>156.98</ele>
        <time>2020-01-11T08:02:13Z</time>
      </trkpt>
      <trkpt lat="48.68618" lon="1.90749">
        <ele>156.9</ele>
        <time>2020-01-11T08:02:18Z</time>
      </trkpt>
      <trkpt lat="48.68613" lon="1.90749">
        <ele>156.69</ele>
        <time>2020-01-11T08:02:23Z</time>
      </trkpt>
      <trkpt lat="48.68613" lon="1.90755">
        <ele>156.32</ele>
        <time>2020-01-11T08:02:28Z</time>
      </trkpt>
      <trkpt lat="48.68614" lon="1.90761">
        <ele>156.13</ele>
        <time>2020-01-11T08:02:33Z</time>
      </trkpt>
      <trkpt lat="48.68614" lon="1.90767">
        <ele>155.79</ele>
        <time>2020-01-11T08:02:38Z</time>
      </trkpt>
      <trkpt lat="48.68615" lon="1.90775">
        <ele>155.28</ele>
        <time>2020-01-11T08:02:43Z</time>
      </trkpt>
      <trkpt lat="48.68615" lon="1.90782">
        <ele>154.9</ele>
        <time>2020-01-11T08:02:48Z</time>
      </trkpt>
      <trkpt lat="48.68616" lon="1.90792">
        <ele>154.48</ele>
        <time>2020-01-11T08:02:53Z</time>
      </trkpt>
      <trkpt lat="48.68616" lon="1.90799">
        <ele>154.06</ele>
        <time>2020-01-11T08:02:58Z</time>
      </trkpt>
      <trkpt lat="48.68616" lon="1.90804">
        <ele>153.52</ele>
        <time>2020-01-11T08:03:03Z</time>
      </trkpt>
      <trkpt lat="48.68613" lon="1.90809">
        <ele>153.01</ele>
        <time>2020-01-11T08:03:08Z</time>
      </trkpt>
      <trkpt lat="48.68611" lon="1.90816">
        <ele>151.92</ele>
        <time>2020-01-11T08:03:13Z</time>
      </trkpt>
      <trkpt lat="48.68609" lon="1.90826">
        <ele>150.81</ele>
        <time>2020-01-11T08:03:18Z</time>
      </trkpt>
      <trkpt lat="48.68607" lon="1.90833">
        <ele>149.75</ele>
        <time>2020-01-11T08:03:23Z</time>
      </trkpt>
      <trkpt lat="48.68605" lon="1.9084">
        <ele>148.68</ele>
        <time>2020-01-11T08:03:28Z</time>
      </trkpt>
      <trkpt lat="48.68603" lon="1.90847">
        <ele>147.22</ele>
        <time>2020-01-11T08:03:33Z</time>
      </trkpt>
      <trkpt lat="48.686" lon="1.90854">
        <ele>145.96</ele>
        <time>2020-01-11T08:03:38Z</time>
      </trkpt>
      <trkpt lat="48.68596" lon="1.90861">
        <ele>144.75</ele>
        <time>2020-01-11T08:03:43Z</time>
      </trkpt>
      <trkpt lat="48.68593" lon="1.90864">
        <ele>143.63</ele>
        <time>2020-01-11T08:03:48Z</time>
      </trkpt>
      <trkpt lat="48.6859" lon="1.90869">
        <ele>142.08</ele>
        <time>2020-01-11T08:03:53Z</time>
      </trkpt>
      <trkpt lat="48.68589" lon="1.90874">
        <ele>141</ele>
        <time>2020-01-11T08:03:58Z</time>
      </trkpt>
      <trkpt lat="48.68587" lon="1.90881">
        <ele>140</ele>
        <time>2020-01-11T08:04:03Z</time>
      </trkpt>
      <trkpt lat="48.68587" lon="1.90887">
        <ele>139.06</ele>
        <time>2020-01-11T08:04:08Z</time>
      </trkpt>
      <trkpt lat="48.68588" lon="1.90894">
        <ele>137.99</ele>
        <time>2020-01-11T08:04:13Z</time>
      </trkpt>
      <trkpt lat="48.68591" lon="1.90901">
        <ele>136.69</ele>
        <time>2020-01-11T08:04:18Z</time>
      </trkpt>
      <trkpt lat="48.68593" lon="1.90907">
        <ele>135.8</ele>
        <time>2020-01-11T08:04:23Z</time>
      </trkpt>
      <trkpt lat="48.68595" lon="1.90912">
        <ele>134.58</ele>
        <time>2020-01-11T08:04:28Z</time>
      </trkpt>
      <trkpt lat="48.68599" lon="1.9092">
        <ele>133.69</ele>
        <time>2020-01-11T08:04:34Z</time>
      </trkpt>
      <trkpt lat="48.68603" lon="1.90925">
        <ele>132.53</ele>
        <time>2020-01-11T08:04:39Z</time>
      </trkpt>
      <trkpt lat="48.68607" lon="1.90931">
        <ele>131.07</ele>
        <time>2020-01-11T08:04:44Z</time>
      </trkpt>
      <trkpt lat="48.68609" lon="1.9094">
        <ele>129.82</ele>
        <time>2020-01-11T08:04:49Z</time>
      </trkpt>
      <trkpt lat="48.68613" lon="1.90947">
        <ele>128.7</ele>
        <time>2020-01-11T08:04:54Z</time>
      </trkpt>
      <trkpt lat="48.68615" lon="1.90955">
        <ele>127.46</ele>
        <time>2020-01-11T08:04:59Z</time>
      </trkpt>
      <trkpt lat="48.68618" lon="1.90964">
        <ele>126.39</ele>
        <time>2020-01-11T08:05:04Z</time>
      </trkpt>
      <trkpt lat="48.68618" lon="1.90974">
        <ele>125.53</ele>
        <time>2020-01-11T08:05:09Z</time>
      </trkpt>
      <trkpt lat="48.68621" lon="1.90982">
        <ele>124.76</ele>
        <time>2020-01-11T08:05:14Z</time>
      </trkpt>
      <trkpt lat="48.68625" lon="1.90987">
        <ele>123.88</ele>
        <time>2020-01-11T08:05:19Z</time>
      </trkpt>
      <trkpt lat="48.68627" lon="1.90994">
        <ele>123.18</ele>
        <time>2020-01-11T08:05:24Z</time>
      </trkpt>
      <trkpt lat="48.68631" lon="1.91">
        <ele>122.59</ele>
        <time>2020-01-11T08:05:29Z</time>
      </trkpt>
      <trkpt lat="48.68635" lon="1.91005">
        <ele>121.66</ele>
        <time>2020-01-11T08:05:34Z</time>
      </trkpt>
      <trkpt lat="48.6864" lon="1.91011">
        <ele>120.78</ele>
        <time>2020-01-11T08:05:39Z</time>
      </trkpt>
      <trkpt lat="48.68645" lon="1.91016">
        <ele>120.25</ele>
        <time>2020-01-11T08:05:44Z</time>
      </trkpt>
      <trkpt lat="48.68649" lon="1.91022">
        <ele>119.61</ele>
        <time>2020-01-11T08:05:49Z</time>
      </trkpt>
      <trkpt lat="48.68652" lon="1.91029">
        <ele>118.73</ele>
        <time>2020-01-11T08:05:54Z</time>
      </trkpt>
      <trkpt lat="48.68655" lon="1.91036">
        <ele>117.8</ele>
        <time>2020-01-11T08:05:59Z</time>
      </trkpt>
      <trkpt lat="48.68657" lon="1.91044">
        <ele>116.99</ele>
        <time>2020-01-11T08:06:04Z</time>
      </trkpt>
      <trkpt lat="48.68661" lon="1.91051">
        <ele>116.11</ele>
        <time>2020-01-11T08:06:09Z</time>
      </trkpt>
      <trkpt lat="48.68666" lon="1.91058">
        <ele>115.63</ele>
        <time>2020-01-11T08:06:14Z</time>
      </trkpt>
      <trkpt lat="48.68667" lon="1.91062">
        <ele>115.01</ele>
        <time>2020-01-11T08:06:19Z</time>
      </trkpt>
      <trkpt lat="48.68663" lon="1.91065">
        <ele>114.82</ele>
        <time>2020-01-11T08:06:24Z</time>
      </trkpt>
      <trkpt lat="48.68659" lon="1.91067">
        <ele>115.15</ele>
        <time>2020-01-11T08:06:29Z</time>
      </trkpt>
      <trkpt lat="48.68653" lon="1.91068">
        <ele>115.56</ele>
        <time>2020-01-11T08:06:34Z</time>
      </trkpt>
      <trkpt lat="48.6865" lon="1.91069">
        <ele>115.81</ele>
        <time>2020-01-11T08:06:39Z</time>
      </trkpt>
      <trkpt lat="48.68646" lon="1.91072">
        <ele>116</ele>
        <time>2020-01-11T08:06:44Z</time>
      </trkpt>
      <trkpt lat="48.68642" lon="1.91072">
        <ele>116.34</ele>
        <time>2020-01-11T08:06:49Z</time>
      </trkpt>
      <trkpt lat="48.68638" lon="1.9107">
        <ele>116.44</ele>
        <time>2020-01-11T08:06:54Z</time>
      </trkpt>
      <trkpt lat="48.68635" lon="1.91068">
        <ele>116.7</ele>
        <time>2020-01-11T08:06:59Z</time>
      </trkpt>
      <trkpt lat="48.6863" lon="1.91064">
        <ele>116.88</ele>
        <time>2020-01-11T08:07:04Z</time>
      </trkpt>
      <trkpt lat="48.68626" lon="1.91061">
        <ele>117.02</ele>
        <time>2020-01-11T08:07:09Z</time>
      </trkpt>
      <trkpt lat="48.68621" lon="1.91058">
        <ele>117.24</ele>
        <time>2020-01-11T08:07:14Z</time>
      </trkpt>
      <trkpt lat="48.68616" lon="1.91052">
        <ele>117.54</ele>
        <time>2020-01-11T08:07:19Z</time>
      </trkpt>
      <trkpt lat="48.68611" lon="1.91047">
        <ele>117.84</ele>
        <time>2020-01-11T08:07:24Z</time>
      </trkpt>
      <trkpt lat="48.68609" lon="1.91043">
        <ele>117.96</ele>
        <time>2020-01-11T08:07:29Z</time>
      </trkpt>
      <trkpt lat="48.68606" lon="1.91039">
        <ele>118.17</ele>
        <time>2020-01-11T08:07:34Z</time>
      </trkpt>
      <trkpt lat="48.68603" lon="1.91038">
        <ele>118.49</ele>
        <time>2020-01-11T08:07:39Z</time>
      </trkpt>
      <trkpt lat="48.68598" lon="1.91035">
        <ele>118.57</ele>
        <time>2020-01-11T08:07:44Z</time>
      </trkpt>
      <trkpt lat="48.68591" lon="1.91031">
        <ele>118.7</ele>
        <time>2020-01-11T08:07:49Z</time>
      </trkpt>
      <trkpt lat="48.68584" lon="1.9103">
        <ele>118.74</ele>
        <time>2020-01-11T08:07:54Z</time>
      </trkpt>
      <trkpt lat="48.68576" lon="1.91027">
        <ele>118.57</ele>
        <time>2020-01-11T08:07:59Z</time>
      </trkpt>
      <trkpt lat="48.68569" lon="1.91026">
        <ele>118.53</ele>
        <time>2020-01-11T08:08:05Z</time>
      </trkpt>
      <trkpt lat="48.68564" lon="1.91027">
        <ele>118.58</ele>
        <time>2020-01-11T08:08:10Z</time>
      </trkpt>
      <trkpt lat="48.6856" lon="1.91028">
        <ele>118.41</ele>
        <time>2020-01-11T08:08:15Z</time>
      </trkpt>
      <trkpt lat="48.68555" lon="1.9103">
        <ele>118.29</ele>
        <time>2020-01-11T08:08:20Z</time>
      </trkpt>
      <trkpt lat="48.68548" lon="1.91027">
        <ele>118.36</ele>
        <time>2020-01-11T08:08:25Z</time>
      </trkpt>
      <trkpt lat="48.68542" lon="1.91025">
        <ele>118.47</ele>
        <time>2020-01-11T08:08:30Z</time>
      </trkpt>
      <trkpt lat="48.6854" lon="1.91027">
        <ele>118.38</ele>
        <time>2020-01-11T08:08:35Z</time>
      </trkpt>
      <trkpt lat="48.68539" lon="1.91027">
        <ele>118.22</ele>
        <time>2020-01-11T08:08:40Z</time>
      </trkpt>
      <trkpt lat="48.68538" lon="1.91028">
        <ele>118.12</ele>
        <time>2020-01-11T08:08:45Z</time>
      </trkpt>
      <trkpt lat="48.68537" lon="1.91031">
        <ele>118.03</ele>
        <time>2020-01-11T08:08:50Z</time>
      </trkpt>
      <trkpt lat="48.68536" lon="1.91035">
        <ele>118</ele>
        <time>2020-01-11T08:08:55Z</time>
      </trkpt>
      <trkpt lat="48.68534" lon="1.91035">
        <ele>117.97</ele>
        <time>2020-01-11T08:09:00Z</time>
      </trkpt>
      <trkpt lat="48.68535" lon="1.91034">
        <ele>117.9</ele>
        <time>2020-01-11T08:09:05Z</time>
      </trkpt>
      <trkpt lat="48.68536" lon="1.91037">
        <ele>117.69</ele>
        <time>2020-01-11T08:09:10Z</time>
      </trkpt>
      <trkpt lat="48.68535" lon="1.91039">
        <ele>117.53</ele>
        <time>2020-01-11T08:09:15Z</time>
      </trkpt>
      <trkpt lat="48.68533" lon="1.91039">
        <ele>117.39</ele>
        <time>2020-01-11T08:09:20Z</time>
      </trkpt>
      <trkpt lat="48.68531" lon="1.91039">
        <ele>117.28</ele>
        <time>2020-01-11T08:09:25Z</time>
      </trkpt>
      <trkpt lat="48.68527" lon="1.9104">
        <ele>117.44</ele>
        <time>2020-01-11T08:09:30Z</time>
      </trkpt>
      <trkpt lat="48.68523" lon="1.91041">
        <ele>117.54</ele>
        <time>2020-01-11T08:09:35Z</time>
      </trkpt>
      <trkpt lat="48.6852" lon="1.9104">
        <ele>117.73</ele>
        <time>2020-01-11T08:09:40Z</time>
      </trkpt>
      <trkpt lat="48.68515" lon="1.91042">
        <ele>117.93</ele>
        <time>2020-01-11T08:09:45Z</time>
      </trkpt>
      <trkpt lat="48.68509" lon="1.91045">
        <ele>118.17</ele>
        <time>2020-01-11T08:09:50Z</time>
      </trkpt>
      <trkpt lat="48.68504" lon="1.91046">
        <ele>118.44</ele>
        <time>2020-01-11T08:09:55Z</time>
      </trkpt>
      <trkpt lat="48.68498" lon="1.91047">
        <ele>118.55</ele>
        <time>2020-01-11T08:10:00Z</time>
      </trkpt>
      <trkpt lat="48.68493" lon="1.91049">
        <ele>118.54</ele>
        <time>2020-01-11T08:10:05Z</time>
      </trkpt>
      <trkpt lat="48.68487" lon="1.9105">
        <ele>118.49</ele>
        <time>2020-01-11T08:10:10Z</time>
      </trkpt>
      <trkpt lat="48.68483" lon="1.91051">
        <ele>118.55</ele>
        <time>2020-01-11T08:10:15Z</time>
      </trkpt>
      <trkpt lat="48.6848" lon="1.91053">
        <ele>118.6</ele>
        <time>2020-01-11T08:10:20Z</time>
      </trkpt>
      <trkpt lat="48.68475" lon="1.91055">
        <ele>118.91</ele>
        <time>2020-01-11T08:10:25Z</time>
      </trkpt>
      <trkpt lat="48.68471" lon="1.91062">
        <ele>118.99</ele>
        <time>2020-01-11T08:10:30Z</time>
      </trkpt>
      <trkpt lat="48.68467" lon="1.91064">
        <ele>119.01</ele>
        <time>2020-01-11T08:10:35Z</time>
      </trkpt>
      <trkpt lat="48.68463" lon="1.91068">
        <ele>119.13</ele>
        <time>2020-01-11T08:10:40Z</time>
      </trkpt>
      <trkpt lat="48.68459" lon="1.91072">
        <ele>119.24</ele>
        <time>2020-01-11T08:10:45Z</time>
      </trkpt>
      <trkpt lat="48.68455" lon="1.91076">
        <ele>119.31</ele>
        <time>2020-01-11T08:10:50Z</time>
      </trkpt>
      <trkpt lat="48.68448" lon="1.91079">
        <ele>119.54</ele>
        <time>2020-01-11T08:10:55Z</time>
      </trkpt>
      <trkpt lat="48.68445" lon="1.91084">
        <ele>119.85</ele>
        <time>2020-01-11T08:11:00Z</time>
      </trkpt>
      <trkpt lat="48.68442" lon="1.9109">
        <ele>120.43</ele>
        <time>2020-01-11T08:11:05Z</time>
      </trkpt>
      <trkpt lat="48.68437" lon="1.91095">
        <ele>120.99</ele>
        <time>2020-01-11T08:11:10Z</time>
      </trkpt>
      <trkpt lat="48.68434" lon="1.91097">
        <ele>121.31</ele>
        <time>2020-01-11T08:11:15Z</time>
      </trkpt>
      <trkpt lat="48.68427" lon="1.91101">
        <ele>121.49</ele>
        <time>2020-01-11T08:11:20Z</time>
      </trkpt>
      <trkpt lat="48.68421" lon="1.91103">
        <ele>121.7</ele>
        <time>2020-01-11T08:11:25Z</time>
      </trkpt>
      <trkpt lat="48.68415" lon="1.91104">
        <ele>121.76</ele>
        <time>2020-01-11T08:11:30Z</time>
      </trkpt>
      <trkpt lat="48.68409" lon="1.91104">
        <ele>121.84</ele>
        <time>2020-01-11T08:11:35Z</time>
      </trkpt>
      <trkpt lat="48.68403" lon="1.91104">
        <ele>122.04</ele>
        <time>2020-01-11T08:11:40Z</time>
      </trkpt>
      <trkpt lat="48.68397" lon="1.91105">
        <ele>122.17</ele>
        <time>2020-01-11T08:11:45Z</time>
      </trkpt>
      <trkpt lat="48.68392" lon="1.91105">
        <ele>122.25</ele>
        <time>2020-01-11T08:11:50Z</time>
      </trkpt>
      <trkpt lat="48.68386" lon="1.91105">
        <ele>122.24</ele>
        <time>2020-01-11T08:11:55Z</time>
      </trkpt>
      <trkpt lat="48.6838" lon="1.91106">
        <ele>122.29</ele>
        <time>2020-01-11T08:12:00Z</time>
      </trkpt>
      <trkpt lat="48.68374" lon="1.91105">
        <ele>122.52</ele>
        <time>2020-01-11T08:12:05Z</time>
      </trkpt>
      <trkpt lat="48.68367" lon="1.91105">
        <ele>122.74</ele>
        <time>2020-01-11T08:12:10Z</time>
      </trkpt>
      <trkpt lat="48.68362" lon="1.91106">
        <ele>122.84</ele>
        <time>2020-01-11T08:12:15Z</time>
      </trkpt>
      <trkpt lat="48.68357" lon="1.91106">
        <ele>123.01</ele>
        <time>2020-01-11T08:12:20Z</time>
      </trkpt>
      <trkpt lat="48.68353" lon="1.91104">
        <ele>123.07</ele>
        <time>2020-01-11T08:12:25Z</time>
      </trkpt>
      <trkpt lat="48.6835" lon="1.91105">
        <ele>123.34</ele>
        <time>2020-01-11T08:12:30Z</time>
      </trkpt>
      <trkpt lat="48.68344" lon="1.91106">
        <ele>123.65</ele>
        <time>2020-01-11T08:12:35Z</time>
      </trkpt>
      <trkpt lat="48.68336" lon="1.91108">
        <ele>124.02</ele>
        <time>2020-01-11T08:12:40Z</time>
      </trkpt>
      <trkpt lat="48.68328" lon="1.91112">
        <ele>124.22</ele>
        <time>2020-01-11T08:12:45Z</time>
      </trkpt>
      <trkpt lat="48.68321" lon="1.91111">
        <ele>124.43</ele>
        <time>2020-01-11T08:12:50Z</time>
      </trkpt>
      <trkpt lat="48.68314" lon="1.91109">
        <ele>124.93</ele>
        <time>2020-01-11T08:12:55Z</time>
      </trkpt>
      <trkpt lat="48.68309" lon="1.91105">
        <ele>125.35</ele>
        <time>2020-01-11T08:13:00Z</time>
      </trkpt>
      <trkpt lat="48.68304" lon="1.91106">
        <ele>125.88</ele>
        <time>2020-01-11T08:13:05Z</time>
      </trkpt>
      <trkpt lat="48.683" lon="1.91109">
        <ele>126.24</ele>
        <time>2020-01-11T08:13:10Z</time>
      </trkpt>
      <trkpt lat="48.68295" lon="1.91111">
        <ele>126.43</ele>
        <time>2020-01-11T08:13:15Z</time>
      </trkpt>
      <trkpt lat="48.68293" lon="1.91111">
        <ele>126.66</ele>
        <time>2020-01-11T08:13:20Z</time>
      </trkpt>
      <trkpt lat="48.68289" lon="1.91114">
        <ele>127.11</ele>
        <time>2020-01-11T08:13:25Z</time>
      </trkpt>
      <trkpt lat="48.68286" lon="1.91115">
        <ele>127.95</ele>
        <time>2020-01-11T08:13:30Z</time>
      </trkpt>
      <trkpt lat="48.6828" lon="1.9112">
        <ele>128.47</ele>
        <time>2020-01-11T08:13:35Z</time>
      </trkpt>
      <trkpt lat="48.68273" lon="1.91128">
        <ele>128.97</ele>
        <time>2020-01-11T08:13:40Z</time>
      </trkpt>
      <trkpt lat="48.68268" lon="1.91132">
        <ele>129.48</ele>
        <time>2020-01-11T08:13:45Z</time>
      </trkpt>
      <trkpt lat="48.68264" lon="1.91135">
        <ele>129.9</ele>
        <time>2020-01-11T08:13:50Z</time>
      </trkpt>
      <trkpt lat="48.68261" lon="1.91137">
        <ele>130.65</ele>
        <time>2020-01-11T08:13:55Z</time>
      </trkpt>
      <trkpt lat="48.68257" lon="1.9114">
        <ele>131.31</ele>
        <time>2020-01-11T08:14:00Z</time>
      </trkpt>
      <trkpt lat="48.68252" lon="1.91143">
        <ele>131.83</ele>
        <time>2020-01-11T08:14:05Z</time>
      </trkpt>
      <trkpt lat="48.68247" lon="1.91146">
        <ele>132.51</ele>
        <time>2020-01-11T08:14:10Z</time>
      </trkpt>
      <trkpt lat="48.68244" lon="1.9115">
        <ele>133.02</ele>
        <time>2020-01-11T08:14:15Z</time>
      </trkpt>
      <trkpt lat="48.68241" lon="1.91153">
        <ele>133.89</ele>
        <time>2020-01-11T08:14:20Z</time>
      </trkpt>
      <trkpt lat="48.68237" lon="1.91157">
        <ele>134.72</ele>
        <time>2020-01-11T08:14:25Z</time>
      </trkpt>
      <trkpt lat="48.68233" lon="1.9116">
        <ele>135.39</ele>
        <time>2020-01-11T08:14:30Z</time>
      </trkpt>
      <trkpt lat="48.68227" lon="1.91167">
        <ele>136.5</ele>
        <time>2020-01-11T08:14:35Z</time>
      </trkpt>
      <trkpt lat="48.68224" lon="1.9117">
        <ele>137.52</ele>
        <time>2020-01-11T08:14:40Z</time>
      </trkpt>
      <trkpt lat="48.68221" lon="1.91177">
        <ele>138.69</ele>
        <time>2020-01-11T08:14:45Z</time>
      </trkpt>
      <trkpt lat="48.6822" lon="1.91183">
        <ele>139.85</ele>
        <time>2020-01-11T08:14:50Z</time>
      </trkpt>
      <trkpt lat="48.6822" lon="1.9119">
        <ele>140.78</ele>
        <time>2020-01-11T08:14:55Z</time>
      </trkpt>
      <trkpt lat="48.68219" lon="1.91194">
        <ele>141.47</ele>
        <time>2020-01-11T08:15:00Z</time>
      </trkpt>
      <trkpt lat="48.68215" lon="1.91201">
        <ele>142.24</ele>
        <time>2020-01-11T08:15:05Z</time>
      </trkpt>
      <trkpt lat="48.68209" lon="1.91209">
        <ele>142.72</ele>
        <time>2020-01-11T08:15:10Z</time>
      </trkpt>
      <trkpt lat="48.68202" lon="1.91213">
        <ele>142.91</ele>
        <time>2020-01-11T08:15:15Z</time>
      </trkpt>
      <trkpt lat="48.68199" lon="1.91218">
        <ele>143.12</ele>
        <time>2020-01-11T08:15:20Z</time>
      </trkpt>
      <trkpt lat="48.68197" lon="1.91223">
        <ele>143.33</ele>
        <time>2020-01-11T08:15:25Z</time>
      </trkpt>
      <trkpt lat="48.68196" lon="1.91225">
        <ele>143.31</ele>
        <time>2020-01-11T08:15:30Z</time>
      </trkpt>
      <trkpt lat="48.68196" lon="1.91226">
        <ele>143.45</ele>
        <time>2020-01-11T08:15:35Z</time>
      </trkpt>
      <trkpt lat="48.68198" lon="1.91226">
        <ele>143.46</ele>
        <time>2020-01-11T08:15:40Z</time>
      </trkpt>
      <trkpt lat="48.68199" lon="1.91225">
        <ele>143.44</ele>
        <time>2020-01-11T08:15:45Z</time>
      </trkpt>
      <trkpt lat="48.68201" lon="1.91226">
        <ele>143.35</ele>
        <time>2020-01-11T08:15:50Z</time>
      </trkpt>
      <trkpt lat="48.68202" lon="1.91227">
        <ele>143.36</ele>
        <time>2020-01-11T08:15:55Z</time>
      </trkpt>
      <trkpt lat="48.68202" lon="1.91228">
        <ele>143.45</ele>
        <time>2020-01-11T08:16:00Z</time>
      </trkpt>
      <trkpt lat="48.68201" lon="1.91231">
        <ele>143.41</ele>
        <time>2020-01-11T08:16:05Z</time>
      </trkpt>
      <trkpt lat="48.682" lon="1.91232">
        <ele>143.3</ele>
        <time>2020-01-11T08:16:10Z</time>
      </trkpt>
      <trkpt lat="48.682" lon="1.91234">
        <ele>143.33</ele>
        <time>2020-01-11T08:16:15Z</time>
      </trkpt>
      <trkpt lat="48.68197" lon="1.91235">
        <ele>143.41</ele>
        <time>2020-01-11T08:16:20Z</time>
      </trkpt>
      <trkpt lat="48.68196" lon="1.91235">
        <ele>143.31</ele>
        <time>2020-01-11T08:16:25Z</time>
      </trkpt>
      <trkpt lat="48.68194" lon="1.91235">
        <ele>143.31</ele>
        <time>2020-01-11T08:16:30Z</time>
      </trkpt>
      <trkpt lat="48.68193" lon="1.91235">
        <ele>143.33</ele>
        <time>2020-01-11T08:16:35Z</time>
      </trkpt>
      <trkpt lat="48.68192" lon="1.91234">
        <ele>143.41</ele>
        <time>2020-01-11T08:16:40Z</time>
      </trkpt>
      <trkpt lat="48.68192" lon="1.91233">
        <ele>143.44</ele>
        <time>2020-01-11T08:16:45Z</time>
      </trkpt>
      <trkpt lat="48.68193" lon="1.91234">
        <ele>143.56</ele>
        <time>2020-01-11T08:16:50Z</time>
      </trkpt>
      <trkpt lat="48.68192" lon="1.91233">
        <ele>143.82</ele>
        <time>2020-01-11T08:16:55Z</time>
      </trkpt>
      <trkpt lat="48.68192" lon="1.91232">
        <ele>143.79</ele>
        <time>2020-01-11T08:17:00Z</time>
      </trkpt>
      <trkpt lat="48.68191" lon="1.91231">
        <ele>143.65</ele>
        <time>2020-01-11T08:17:05Z</time>
      </trkpt>
      <trkpt lat="48.68191" lon="1.91231">
        <ele>143.63</ele>
        <time>2020-01-11T08:17:10Z</time>
      </trkpt>
      <trkpt lat="48.68191" lon="1.9123">
        <ele>143.63</ele>
        <time>2020-01-11T08:17:15Z</time>
      </trkpt>
      <trkpt lat="48.68191" lon="1.91231">
        <ele>143.62</ele>
        <time>2020-01-11T08:17:20Z</time>
      </trkpt>
      <trkpt lat="48.68191" lon="1.91232">
        <ele>143.65</ele>
        <time>2020-01-11T08:17:25Z</time>
      </trkpt>
      <trkpt lat="48.68192" lon="1.91232">
        <ele>143.51</ele>
        <time>2020-01-11T08:17:30Z</time>
      </trkpt>
      <trkpt lat="48.68193" lon="1.91232">
        <ele>143.52</ele>
        <time>2020-01-11T08:17:35Z</time>
      </trkpt>
      <trkpt lat="48.68193" lon="1.91232">
        <ele>143.62</ele>
        <time>2020-01-11T08:17:40Z</time>
      </trkpt>
      <trkpt lat="48.68191" lon="1.91234">
        <ele>143.51</ele>
        <time>2020-01-11T08:17:45Z</time>
      </trkpt>
      <trkpt lat="48.6819" lon="1.91237">
        <ele>143.62</ele>
        <time>2020-01-11T08:17:50Z</time>
      </trkpt>
      <trkpt lat="48.6819" lon="1.91239">
        <ele>143.55</ele>
        <time>2020-01-11T08:17:55Z</time>
      </trkpt>
      <trkpt lat="48.68189" lon="1.9124">
        <ele>143.72</ele>
        <time>2020-01-11T08:18:00Z</time>
      </trkpt>
      <trkpt lat="48.68188" lon="1.91242">
        <ele>143.7</ele>
        <time>2020-01-11T08:18:05Z</time>
      </trkpt>
      <trkpt lat="48.68189" lon="1.91249">
        <ele>143.71</ele>
        <time>2020-01-11T08:18:10Z</time>
      </trkpt>
      <trkpt lat="48.68193" lon="1.91256">
        <ele>143.62</ele>
        <time>2020-01-11T08:18:15Z</time>
      </trkpt>
      <trkpt lat="48.68196" lon="1.91261">
        <ele>143.69</ele>
        <time>2020-01-11T08:18:20Z</time>
      </trkpt>
      <trkpt lat="48.682" lon="1.91268">
        <ele>143.76</ele>
        <time>2020-01-11T08:18:25Z</time>
      </trkpt>
      <trkpt lat="48.68205" lon="1.91273">
        <ele>143.93</ele>
        <time>2020-01-11T08:18:30Z</time>
      </trkpt>
      <trkpt lat="48.68206" lon="1.91279">
        <ele>144.14</ele>
        <time>2020-01-11T08:18:35Z</time>
      </trkpt>
      <trkpt lat="48.68208" lon="1.91285">
        <ele>144.22</ele>
        <time>2020-01-11T08:18:40Z</time>
      </trkpt>
      <trkpt lat="48.68208" lon="1.91293">
        <ele>144.19</ele>
        <time>2020-01-11T08:18:45Z</time>
      </trkpt>
      <trkpt lat="48.68208" lon="1.91298">
        <ele>144.3</ele>
        <time>2020-01-11T08:18:50Z</time>
      </trkpt>
      <trkpt lat="48.68208" lon="1.91306">
        <ele>144.28</ele>
        <time>2020-01-11T08:18:55Z</time>
      </trkpt>
      <trkpt lat="48.68209" lon="1.91315">
        <ele>144.18</ele>
        <time>2020-01-11T08:19:00Z</time>
      </trkpt>
      <trkpt lat="48.68212" lon="1.91321">
        <ele>144.22</ele>
        <time>2020-01-11T08:19:05Z</time>
      </trkpt>
      <trkpt lat="48.68216" lon="1.91328">
        <ele>144.05</ele>
        <time>2020-01-11T08:19:10Z</time>
      </trkpt>
      <trkpt lat="48.68218" lon="1.91335">
        <ele>143.99</ele>
        <time>2020-01-11T08:19:15Z</time>
      </trkpt>
      <trkpt lat="48.68221" lon="1.91341">
        <ele>144.05</ele>
        <time>2020-01-11T08:19:20Z</time>
      </trkpt>
      <trkpt lat="48.68226" lon="1.91348">
        <ele>144.34</ele>
        <time>2020-01-11T08:19:25Z</time>
      </trkpt>
      <trkpt lat="48.68229" lon="1.91357">
        <ele>144.45</ele>
        <time>2020-01-11T08:19:30Z</time>
      </trkpt>
      <trkpt lat="48.68232" lon="1.91365">
        <ele>144.47</ele>
        <time>2020-01-11T08:19:35Z</time>
      </trkpt>
      <trkpt lat="48.68235" lon="1.91374">
        <ele>144.47</ele>
        <time>2020-01-11T08:19:40Z</time>
      </trkpt>
      <trkpt lat="48.68239" lon="1.91379">
        <ele>144.48</ele>
        <time>2020-01-11T08:19:45Z</time>
      </trkpt>
      <trkpt lat="48.68244" lon="1.91386">
        <ele>144.53</ele>
        <time>2020-01-11T08:19:50Z</time>
      </trkpt>
      <trkpt lat="48.68249" lon="1.91393">
        <ele>144.55</ele>
        <time>2020-01-11T08:19:55Z</time>
      </trkpt>
      <trkpt lat="48.68252" lon="1.914">
        <ele>144.55</ele>
        <time>2020-01-11T08:20:00Z</time>
      </trkpt>
      <trkpt lat="48.68255" lon="1.91408">
        <ele>144.54</ele>
        <time>2020-01-11T08:20:05Z</time>
      </trkpt>
      <trkpt lat="48.68257" lon="1.91414">
        <ele>144.65</ele>
        <time>2020-01-11T08:20:10Z</time>
      </trkpt>
      <trkpt lat="48.6826" lon="1.91423">
        <ele>144.96</ele>
        <time>2020-01-11T08:20:15Z</time>
      </trkpt>
      <trkpt lat="48.68261" lon="1.91433">
        <ele>145.15</ele>
        <time>2020-01-11T08:20:20Z</time>
      </trkpt>
      <trkpt lat="48.68262" lon="1.91442">
        <ele>145.22</ele>
        <time>2020-01-11T08:20:25Z</time>
      </trkpt>
      <trkpt lat="48.68262" lon="1.9145">
        <ele>145.26</ele>
        <time>2020-01-11T08:20:30Z</time>
      </trkpt>
      <trkpt lat="48.68263" lon="1.91458">
        <ele>145.25</ele>
        <time>2020-01-11T08:20:35Z</time>
      </trkpt>
      <trkpt lat="48.68266" lon="1.91468">
        <ele>145.12</ele>
        <time>2020-01-11T08:20:40Z</time>
      </trkpt>
      <trkpt lat="48.68268" lon="1.91475">
        <ele>144.99</ele>
        <time>2020-01-11T08:20:45Z</time>
      </trkpt>
      <trkpt lat="48.6827" lon="1.91482">
        <ele>144.95</ele>
        <time>2020-01-11T08:20:50Z</time>
      </trkpt>
      <trkpt lat="48.68272" lon="1.91493">
        <ele>144.88</ele>
        <time>2020-01-11T08:20:55Z</time>
      </trkpt>
      <trkpt lat="48.68275" lon="1.91502">
        <ele>144.82</ele>
        <time>2020-01-11T08:21:00Z</time>
      </trkpt>
      <trkpt lat="48.68278" lon="1.91511">
        <ele>144.67</ele>
        <time>2020-01-11T08:21:05Z</time>
      </trkpt>
      <trkpt lat="48.68279" lon="1.91519">
        <ele>144.98</ele>
        <time>2020-01-11T08:21:10Z</time>
      </trkpt>
      <trkpt lat="48.68278" lon="1.91529">
        <ele>144.91</ele>
        <time>2020-01-11T08:21:15Z</time>
      </trkpt>
      <trkpt lat="48.68277" lon="1.91537">
        <ele>144.67</ele>
        <time>2020-01-11T08:21:20Z</time>
      </trkpt>
      <trkpt lat="48.68274" lon="1.91547">
        <ele>144.62</ele>
        <time>2020-01-11T08:21:25Z</time>
      </trkpt>
      <trkpt lat="48.68272" lon="1.91558">
        <ele>144.71</ele>
        <time>2020-01-11T08:21:30Z</time>
      </trkpt>
      <trkpt lat="48.68271" lon="1.91567">
        <ele>144.71</ele>
        <time>2020-01-11T08:21:35Z</time>
      </trkpt>
      <trkpt lat="48.6827" lon="1.91576">
        <ele>144.72</ele>
        <time>2020-01-11T08:21:40Z</time>
      </trkpt>
      <trkpt lat="48.68269" lon="1.91588">
        <ele>144.65</ele>
        <time>2020-01-11T08:21:45Z</time>
      </trkpt>
      <trkpt lat="48.68269" lon="1.91599">
        <ele>144.41</ele>
        <time>2020-01-11T08:21:50Z</time>
      </trkpt>
      <trkpt lat="48.68268" lon="1.9161">
        <ele>144.19</ele>
        <time>2020-01-11T08:21:55Z</time>
      </trkpt>
      <trkpt lat="48.68267" lon="1.9162">
        <ele>144.14</ele>
        <time>2020-01-11T08:22:00Z</time>
      </trkpt>
      <trkpt lat="48.68267" lon="1.9163">
        <ele>144.15</ele>
        <time>2020-01-11T08:22:05Z</time>
      </trkpt>
      <trkpt lat="48.68266" lon="1.91638">
        <ele>144</ele>
        <time>2020-01-11T08:22:10Z</time>
      </trkpt>
      <trkpt lat="48.68266" lon="1.91646">
        <ele>143.84</ele>
        <time>2020-01-11T08:22:15Z</time>
      </trkpt>
      <trkpt lat="48.68263" lon="1.91653">
        <ele>143.82</ele>
        <time>2020-01-11T08:22:20Z</time>
      </trkpt>
      <trkpt lat="48.6826" lon="1.91663">
        <ele>143.85</ele>
        <time>2020-01-11T08:22:25Z</time>
      </trkpt>
      <trkpt lat="48.6826" lon="1.9167">
        <ele>143.73</ele>
        <time>2020-01-11T08:22:30Z</time>
      </trkpt>
      <trkpt lat="48.68261" lon="1.91679">
        <ele>143.38</ele>
        <time>2020-01-11T08:22:35Z</time>
      </trkpt>
      <trkpt lat="48.68258" lon="1.91683">
        <ele>143.24</ele>
        <time>2020-01-11T08:22:40Z</time>
      </trkpt>
      <trkpt lat="48.68253" lon="1.91687">
        <ele>143.06</ele>
        <time>2020-01-11T08:22:45Z</time>
      </trkpt>
      <trkpt lat="48.68248" lon="1.9169">
        <ele>143.01</ele>
        <time>2020-01-11T08:22:50Z</time>
      </trkpt>
      <trkpt lat="48.68245" lon="1.91696">
        <ele>143.14</ele>
        <time>2020-01-11T08:22:55Z</time>
      </trkpt>
      <trkpt lat="48.6824" lon="1.91703">
        <ele>143.13</ele>
        <time>2020-01-11T08:23:00Z</time>
      </trkpt>
      <trkpt lat="48.68237" lon="1.91711">
        <ele>143.01</ele>
        <time>2020-01-11T08:23:05Z</time>
      </trkpt>
      <trkpt lat="48.68233" lon="1.91717">
        <ele>142.82</ele>
        <time>2020-01-11T08:23:10Z</time>
      </trkpt>
      <trkpt lat="48.68229" lon="1.91726">
        <ele>142.67</ele>
        <time>2020-01-11T08:23:15Z</time>
      </trkpt>
      <trkpt lat="48.68225" lon="1.91732">
        <ele>142.71</ele>
        <time>2020-01-11T08:23:20Z</time>
      </trkpt>
      <trkpt lat="48.6822" lon="1.91736">
        <ele>142.85</ele>
        <time>2020-01-11T08:23:25Z</time>
      </trkpt>
      <trkpt lat="48.68216" lon="1.91742">
        <ele>143.28</ele>
        <time>2020-01-11T08:23:30Z</time>
      </trkpt>
      <trkpt lat="48.68214" lon="1.91749">
        <ele>143.45</ele>
        <time>2020-01-11T08:23:35Z</time>
      </trkpt>
      <trkpt lat="48.68215" lon="1.91756">
        <ele>143.49</ele>
        <time>2020-01-11T08:23:40Z</time>
      </trkpt>
      <trkpt lat="48.68218" lon="1.91764">
        <ele>143.52</ele>
        <time>2020-01-11T08:23:45Z</time>
      </trkpt>
      <trkpt lat="48.68221" lon="1.91773">
        <ele>143.67</ele>
        <time>2020-01-11T08:23:50Z</time>
      </trkpt>
      <trkpt lat="48.68223" lon="1.91781">
        <ele>143.78</ele>
        <time>2020-01-11T08:23:55Z</time>
      </trkpt>
      <trkpt lat="48.68226" lon="1.9179">
        <ele>143.81</ele>
        <time>2020-01-11T08:24:00Z</time>
      </trkpt>
      <trkpt lat="48.68229" lon="1.91796">
        <ele>143.88</ele>
        <time>2020-01-11T08:24:05Z</time>
      </trkpt>
      <trkpt lat="48.68231" lon="1.91807">
        <ele>143.83</ele>
        <time>2020-01-11T08:24:10Z</time>
      </trkpt>
      <trkpt lat="48.68233" lon="1.91815">
        <ele>143.91</ele>
        <time>2020-01-11T08:24:15Z</time>
      </trkpt>
      <trkpt lat="48.68234" lon="1.91825">
        <ele>144</ele>
        <time>2020-01-11T08:24:20Z</time>
      </trkpt>
      <trkpt lat="48.68234" lon="1.91836">
        <ele>144</ele>
        <time>2020-01-11T08:24:25Z</time>
      </trkpt>
      <trkpt lat="48.68235" lon="1.91847">
        <ele>143.75</ele>
        <time>2020-01-11T08:24:30Z</time>
      </trkpt>
      <trkpt lat="48.68235" lon="1.91856">
        <ele>143.61</ele>
        <time>2020-01-11T08:24:35Z</time>
      </trkpt>
      <trkpt lat="48.68236" lon="1.91864">
        <ele>143.57</ele>
        <time>2020-01-11T08:24:40Z</time>
      </trkpt>
      <trkpt lat="48.68237" lon="1.91871">
        <ele>143.47</ele>
        <time>2020-01-11T08:24:45Z</time>
      </trkpt>
      <trkpt lat="48.68237" lon="1.9188">
        <ele>143.55</ele>
        <time>2020-01-11T08:24:50Z</time>
      </trkpt>
      <trkpt lat="48.68237" lon="1.91891">
        <ele>143.72</ele>
        <time>2020-01-11T08:24:55Z</time>
      </trkpt>
      <trkpt lat="48.68237" lon="1.91903">
        <ele>143.83</ele>
        <time>2020-01-11T08:25:00Z</time>
      </trkpt>
      <trkpt lat="48.68237" lon="1.91915">
        <ele>143.96</ele>
        <time>2020-01-11T08:25:05Z</time>
      </trkpt>
      <trkpt lat="48.68236" lon="1.91922">
        <ele>144.13</ele>
        <time>2020-01-11T08:25:10Z</time>
      </trkpt>
      <trkpt lat="48.68235" lon="1.91929">
        <ele>144.2</ele>
        <time>2020-01-11T08:25:15Z</time>
      </trkpt>
      <trkpt lat="48.68235" lon="1.91939">
        <ele>144.35</ele>
        <time>2020-01-11T08:25:20Z</time>
      </trkpt>
      <trkpt lat="48.68236" lon="1.91947">
        <ele>144.69</ele>
        <time>2020-01-11T08:25:25Z</time>
      </trkpt>
      <trkpt lat="48.68237" lon="1.91957">
        <ele>144.94</ele>
        <time>2020-01-11T08:25:30Z</time>
      </trkpt>
      <trkpt lat="48.68238" lon="1.9197">
        <ele>145.32</ele>
        <time>2020-01-11T08:25:35Z</time>
      </trkpt>
      <trkpt lat="48.68238" lon="1.91977">
        <ele>145.28</ele>
        <time>2020-01-11T08:25:40Z</time>
      </trkpt>
      <trkpt lat="48.68238" lon="1.91989">
        <ele>145.12</ele>
        <time>2020-01-11T08:25:45Z</time>
      </trkpt>
      <trkpt lat="48.68237" lon="1.92">
        <ele>145.34</ele>
        <time>2020-01-11T08:25:50Z</time>
      </trkpt>
      <trkpt lat="48.68236" lon="1.92008">
        <ele>145.46</ele>
        <time>2020-01-11T08:25:55Z</time>
      </trkpt>
      <trkpt lat="48.68234" lon="1.92019">
        <ele>145.52</ele>
        <time>2020-01-11T08:26:00Z</time>
      </trkpt>
      <trkpt lat="48.68232" lon="1.92027">
        <ele>145.8</ele>
        <time>2020-01-11T08:26:05Z</time>
      </trkpt>
      <trkpt lat="48.68232" lon="1.92036">
        <ele>145.88</ele>
        <time>2020-01-11T08:26:10Z</time>
      </trkpt>
      <trkpt lat="48.68233" lon="1.92044">
        <ele>145.79</ele>
        <time>2020-01-11T08:26:15Z</time>
      </trkpt>
      <trkpt lat="48.68234" lon="1.92051">
        <ele>145.84</ele>
        <time>2020-01-11T08:26:20Z</time>
      </trkpt>
      <trkpt lat="48.68233" lon="1.92061">
        <ele>146.05</ele>
        <time>2020-01-11T08:26:25Z</time>
      </trkpt>
      <trkpt lat="48.68233" lon="1.9207">
        <ele>145.95</ele>
        <time>2020-01-11T08:26:30Z</time>
      </trkpt>
      <trkpt lat="48.68232" lon="1.92079">
        <ele>145.83</ele>
        <time>2020-01-11T08:26:35Z</time>
      </trkpt>
      <trkpt lat="48.6823" lon="1.92091">
        <ele>145.72</ele>
        <time>2020-01-11T08:26:40Z</time>
      </trkpt>
      <trkpt lat="48.6823" lon="1.921">
        <ele>145.6</ele>
        <time>2020-01-11T08:26:45Z</time>
      </trkpt>
      <trkpt lat="48.68229" lon="1.92105">
        <ele>145.53</ele>
        <time>2020-01-11T08:26:50Z</time>
      </trkpt>
      <trkpt lat="48.68228" lon="1.92116">
        <ele>145.45</ele>
        <time>2020-01-11T08:26:55Z</time>
      </trkpt>
      <trkpt lat="48.68225" lon="1.92126">
        <ele>145.41</ele>
        <time>2020-01-11T08:27:00Z</time>
      </trkpt>
      <trkpt lat="48.68223" lon="1.92134">
        <ele>145.48</ele>
        <time>2020-01-11T08:27:05Z</time>
      </trkpt>
      <trkpt lat="48.68221" lon="1.9214">
        <ele>145.43</ele>
        <time>2020-01-11T08:27:10Z</time>
      </trkpt>
      <trkpt lat="48.6822" lon="1.92148">
        <ele>145.39</ele>
        <time>2020-01-11T08:27:15Z</time>
      </trkpt>
      <trkpt lat="48.6822" lon="1.92156">
        <ele>145.51</ele>
        <time>2020-01-11T08:27:20Z</time>
      </trkpt>
      <trkpt lat="48.68218" lon="1.92167">
        <ele>145.61</ele>
        <time>2020-01-11T08:27:25Z</time>
      </trkpt>
      <trkpt lat="48.68216" lon="1.92177">
        <ele>145.71</ele>
        <time>2020-01-11T08:27:30Z</time>
      </trkpt>
      <trkpt lat="48.68212" lon="1.92186">
        <ele>145.85</ele>
        <time>2020-01-11T08:27:35Z</time>
      </trkpt>
      <trkpt lat="48.6821" lon="1.92196">
        <ele>145.97</ele>
        <time>2020-01-11T08:27:40Z</time>
      </trkpt>
      <trkpt lat="48.68208" lon="1.92204">
        <ele>146.09</ele>
        <time>2020-01-11T08:27:45Z</time>
      </trkpt>
      <trkpt lat="48.68204" lon="1.92213">
        <ele>146.28</ele>
        <time>2020-01-11T08:27:50Z</time>
      </trkpt>
      <trkpt lat="48.68201" lon="1.92221">
        <ele>146.42</ele>
        <time>2020-01-11T08:27:55Z</time>
      </trkpt>
      <trkpt lat="48.68198" lon="1.92228">
        <ele>146.3</ele>
        <time>2020-01-11T08:28:00Z</time>
      </trkpt>
      <trkpt lat="48.68195" lon="1.92238">
        <ele>146.51</ele>
        <time>2020-01-11T08:28:05Z</time>
      </trkpt>
      <trkpt lat="48.68192" lon="1.92248">
        <ele>146.55</ele>
        <time>2020-01-11T08:28:10Z</time>
      </trkpt>
      <trkpt lat="48.68189" lon="1.92257">
        <ele>146.63</ele>
        <time>2020-01-11T08:28:15Z</time>
      </trkpt>
      <trkpt lat="48.68185" lon="1.92266">
        <ele>146.66</ele>
        <time>2020-01-11T08:28:20Z</time>
      </trkpt>
      <trkpt lat="48.68182" lon="1.92274">
        <ele>146.7</ele>
        <time>2020-01-11T08:28:25Z</time>
      </trkpt>
      <trkpt lat="48.68178" lon="1.92281">
        <ele>146.82</ele>
        <time>2020-01-11T08:28:30Z</time>
      </trkpt>
      <trkpt lat="48.68173" lon="1.92287">
        <ele>146.84</ele>
        <time>2020-01-11T08:28:35Z</time>
      </trkpt>
      <trkpt lat="48.6817" lon="1.92294">
        <ele>146.85</ele>
        <time>2020-01-11T08:28:40Z</time>
      </trkpt>
      <trkpt lat="48.68167" lon="1.92301">
        <ele>146.72</ele>
        <time>2020-01-11T08:28:45Z</time>
      </trkpt>
      <trkpt lat="48.68163" lon="1.9231">
        <ele>146.67</ele>
        <time>2020-01-11T08:28:50Z</time>
      </trkpt>
      <trkpt lat="48.68159" lon="1.92316">
        <ele>146.58</ele>
        <time>2020-01-11T08:28:55Z</time>
      </trkpt>
      <trkpt lat="48.68159" lon="1.92322">
        <ele>146.48</ele>
        <time>2020-01-11T08:29:00Z</time>
      </trkpt>
      <trkpt lat="48.68157" lon="1.9233">
        <ele>146.35</ele>
        <time>2020-01-11T08:29:05Z</time>
      </trkpt>
      <trkpt lat="48.68152" lon="1.92337">
        <ele>146.23</ele>
        <time>2020-01-11T08:29:10Z</time>
      </trkpt>
      <trkpt lat="48.68147" lon="1.92342">
        <ele>146.23</ele>
        <time>2020-01-11T08:29:15Z</time>
      </trkpt>
      <trkpt lat="48.68143" lon="1.92347">
        <ele>146.32</ele>
        <time>2020-01-11T08:29:20Z</time>
      </trkpt>
      <trkpt lat="48.6814" lon="1.92352">
        <ele>146.39</ele>
        <time>2020-01-11T08:29:25Z</time>
      </trkpt>
      <trkpt lat="48.68138" lon="1.92354">
        <ele>146.48</ele>
        <time>2020-01-11T08:29:30Z</time>
      </trkpt>
      <trkpt lat="48.68136" lon="1.92357">
        <ele>146.65</ele>
        <time>2020-01-11T08:29:35Z</time>
      </trkpt>
      <trkpt lat="48.68135" lon="1.92358">
        <ele>146.87</ele>
        <time>2020-01-11T08:29:40Z</time>
      </trkpt>
      <trkpt lat="48.68134" lon="1.9236">
        <ele>146.99</ele>
        <time>2020-01-11T08:29:45Z</time>
      </trkpt>
      <trkpt lat="48.68134" lon="1.92361">
        <ele>146.93</ele>
        <time>2020-01-11T08:29:50Z</time>
      </trkpt>
      <trkpt lat="48.68133" lon="1.92363">
        <ele>146.91</ele>
        <time>2020-01-11T08:29:55Z</time>
      </trkpt>
      <trkpt lat="48.68133" lon="1.92364">
        <ele>147.01</ele>
        <time>2020-01-11T08:30:00Z</time>
      </trkpt>
      <trkpt lat="48.68132" lon="1.92367">
        <ele>146.98</ele>
        <time>2020-01-11T08:30:05Z</time>
      </trkpt>
      <trkpt lat="48.6813" lon="1.92372">
        <ele>146.9</ele>
        <time>2020-01-11T08:30:10Z</time>
      </trkpt>
      <trkpt lat="48.68129" lon="1.92374">
        <ele>147.1</ele>
        <time>2020-01-11T08:30:15Z</time>
      </trkpt>
      <trkpt lat="48.68129" lon="1.92373">
        <ele>147.35</ele>
        <time>2020-01-11T08:30:20Z</time>
      </trkpt>
      <trkpt lat="48.68129" lon="1.92373">
        <ele>147.35</ele>
        <time>2020-01-11T08:30:25Z</time>
      </trkpt>
      <trkpt lat="48.68129" lon="1.92373">
        <ele>147.32</ele>
        <time>2020-01-11T08:30:30Z</time>
      </trkpt>
      <trkpt lat="48.6813" lon="1.92375">
        <ele>147.46</ele>
        <time>2020-01-11T08:30:35Z</time>
      </trkpt>
      <trkpt lat="48.68131" lon="1.92377">
        <ele>147.4</ele>
        <time>2020-01-11T08:30:40Z</time>
      </trkpt>
      <trkpt lat="48.68129" lon="1.92376">
        <ele>147.43</ele>
        <time>2020-01-11T08:30:45Z</time>
      </trkpt>
      <trkpt lat="48.68129" lon="1.92376">
        <ele>147.58</ele>
        <time>2020-01-11T08:30:50Z</time>
      </trkpt>
      <trkpt lat="48.68129" lon="1.92373">
        <ele>147.62</ele>
        <time>2020-01-11T08:30:55Z</time>
      </trkpt>
      <trkpt lat="48.68131" lon="1.92369">
        <ele>147.51</ele>
        <time>2020-01-11T08:31:00Z</time>
      </trkpt>
      <trkpt lat="48.68132" lon="1.92364">
        <ele>147.65</ele>
        <time>2020-01-11T08:31:05Z</time>
      </trkpt>
      <trkpt lat="48.68133" lon="1.92363">
        <ele>147.78</ele>
        <time>2020-01-11T08:31:10Z</time>
      </trkpt>
      <trkpt lat="48.68135" lon="1.92364">
        <ele>147.82</ele>
        <time>2020-01-11T08:31:15Z</time>
      </trkpt>
      <trkpt lat="48.68137" lon="1.92366">
        <ele>147.82</ele>
        <time>2020-01-11T08:31:20Z</time>
      </trkpt>
      <trkpt lat="48.68138" lon="1.92367">
        <ele>147.73</ele>
        <time>2020-01-11T08:31:25Z</time>
      </trkpt>
      <trkpt lat="48.68138" lon="1.92368">
        <ele>147.65</ele>
        <time>2020-01-11T08:31:30Z</time>
      </trkpt>
      <trkpt lat="48.68138" lon="1.92369">
        <ele>147.61</ele>
        <time>2020-01-11T08:31:35Z</time>
      </trkpt>
      <trkpt lat="48.68138" lon="1.92368">
        <ele>147.68</ele>
        <time>2020-01-11T08:31:40Z</time>
      </trkpt>
      <trkpt lat="48.68139" lon="1.92368">
        <ele>147.82</ele>
        <time>2020-01-11T08:31:45Z</time>
      </trkpt>
      <trkpt lat="48.68139" lon="1.92367">
        <ele>147.82</ele>
        <time>2020-01-11T08:31:50Z</time>
      </trkpt>
      <trkpt lat="48.68139" lon="1.92367">
        <ele>147.93</ele>
        <time>2020-01-11T08:31:55Z</time>
      </trkpt>
      <trkpt lat="48.68138" lon="1.92367">
        <ele>147.98</ele>
        <time>2020-01-11T08:32:00Z</time>
      </trkpt>
      <trkpt lat="48.68138" lon="1.92367">
        <ele>147.92</ele>
        <time>2020-01-11T08:32:05Z</time>
      </trkpt>
      <trkpt lat="48.68139" lon="1.92368">
        <ele>147.75</ele>
        <time>2020-01-11T08:32:10Z</time>
      </trkpt>
      <trkpt lat="48.68139" lon="1.92368">
        <ele>147.72</ele>
        <time>2020-01-11T08:32:15Z</time>
      </trkpt>
      <trkpt lat="48.68138" lon="1.92368">
        <ele>147.83</ele>
        <time>2020-01-11T08:32:20Z</time>
      </trkpt>
      <trkpt lat="48.68137" lon="1.92367">
        <ele>147.91</ele>
        <time>2020-01-11T08:32:25Z</time>
      </trkpt>
      <trkpt lat="48.68137" lon="1.92367">
        <ele>147.86</ele>
        <time>2020-01-11T08:32:30Z</time>
      </trkpt>
      <trkpt lat="48.68138" lon="1.92367">
        <ele>147.92</ele>
        <time>2020-01-11T08:32:35Z</time>
      </trkpt>
      <trkpt lat="48.68139" lon="1.92367">
        <ele>148.05</ele>
        <time>2020-01-11T08:32:40Z</time>
      </trkpt>
      <trkpt lat="48.68139" lon="1.92367">
        <ele>148.1</ele>
        <time>2020-01-11T08:32:45Z</time>
      </trkpt>
      <trkpt lat="48.68138" lon="1.92366">
        <ele>148.2</ele>
        <time>2020-01-11T08:32:50Z</time>
      </trkpt>
      <trkpt lat="48.68137" lon="1.92365">
        <ele>148.3</ele>
        <time>2020-01-11T08:32:55Z</time>
      </trkpt>
      <trkpt lat="48.68136" lon="1.92364">
        <ele>148.38</ele>
        <time>2020-01-11T08:33:00Z</time>
      </trkpt>
      <trkpt lat="48.68135" lon="1.92363">
        <ele>148.46</ele>
        <time>2020-01-11T08:33:05Z</time>
      </trkpt>
      <trkpt lat="48.68134" lon="1.92365">
        <ele>148.51</ele>
        <time>2020-01-11T08:33:10Z</time>
      </trkpt>
      <trkpt lat="48.68133" lon="1.92366">
        <ele>148.57</ele>
        <time>2020-01-11T08:33:15Z</time>
      </trkpt>
      <trkpt lat="48.68133" lon="1.92368">
        <ele>148.59</ele>
        <time>2020-01-11T08:33:20Z</time>
      </trkpt>
      <trkpt lat="48.68133" lon="1.92368">
        <ele>148.64</ele>
        <time>2020-01-11T08:33:25Z</time>
      </trkpt>
      <trkpt lat="48.68132" lon="1.92369">
        <ele>148.66</ele>
        <time>2020-01-11T08:33:30Z</time>
      </trkpt>
      <trkpt lat="48.68131" lon="1.9237">
        <ele>148.68</ele>
        <time>2020-01-11T08:33:35Z</time>
      </trkpt>
      <trkpt lat="48.6813" lon="1.92373">
        <ele>148.78</ele>
        <time>2020-01-11T08:33:40Z</time>
      </trkpt>
      <trkpt lat="48.6813" lon="1.92374">
        <ele>148.81</ele>
        <time>2020-01-11T08:33:45Z</time>
      </trkpt>
      <trkpt lat="48.6813" lon="1.92374">
        <ele>148.83</ele>
        <time>2020-01-11T08:33:50Z</time>
      </trkpt>
      <trkpt lat="48.68129" lon="1.92374">
        <ele>148.85</ele>
        <time>2020-01-11T08:33:55Z</time>
      </trkpt>
      <trkpt lat="48.68128" lon="1.92375">
        <ele>148.9</ele>
        <time>2020-01-11T08:34:00Z</time>
      </trkpt>
      <trkpt lat="48.68126" lon="1.92378">
        <ele>148.95</ele>
        <time>2020-01-11T08:34:05Z</time>
      </trkpt>
      <trkpt lat="48.68125" lon="1.92384">
        <ele>148.8</ele>
        <time>2020-01-11T08:34:10Z</time>
      </trkpt>
      <trkpt lat="48.68124" lon="1.92391">
        <ele>148.9</ele>
        <time>2020-01-11T08:34:15Z</time>
      </trkpt>
      <trkpt lat="48.68123" lon="1.92399">
        <ele>148.79</ele>
        <time>2020-01-11T08:34:20Z</time>
      </trkpt>
      <trkpt lat="48.68122" lon="1.92406">
        <ele>148.8</ele>
        <time>2020-01-11T08:34:25Z</time>
      </trkpt>
      <trkpt lat="48.68121" lon="1.92413">
        <ele>148.74</ele>
        <time>2020-01-11T08:34:30Z</time>
      </trkpt>
      <trkpt lat="48.68121" lon="1.92419">
        <ele>148.68</ele>
        <time>2020-01-11T08:34:35Z</time>
      </trkpt>
      <trkpt lat="48.6812" lon="1.92426">
        <ele>148.78</ele>
        <time>2020-01-11T08:34:40Z</time>
      </trkpt>
      <trkpt lat="48.6812" lon="1.92431">
        <ele>148.87</ele>
        <time>2020-01-11T08:34:45Z</time>
      </trkpt>
      <trkpt lat="48.68118" lon="1.92437">
        <ele>148.88</ele>
        <time>2020-01-11T08:34:50Z</time>
      </trkpt>
      <trkpt lat="48.68117" lon="1.92445">
        <ele>148.9</ele>
        <time>2020-01-11T08:34:55Z</time>
      </trkpt>
      <trkpt lat="48.68117" lon="1.92454">
        <ele>149.08</ele>
        <time>2020-01-11T08:35:00Z</time>
      </trkpt>
      <trkpt lat="48.68117" lon="1.92464">
        <ele>149.1</ele>
        <time>2020-01-11T08:35:05Z</time>
      </trkpt>
      <trkpt lat="48.68118" lon="1.92472">
        <ele>149.17</ele>
        <time>2020-01-11T08:35:10Z</time>
      </trkpt>
      <trkpt lat="48.68119" lon="1.92481">
        <ele>149.02</ele>
        <time>2020-01-11T08:35:15Z</time>
      </trkpt>
      <trkpt lat="48.6812" lon="1.92488">
        <ele>149.14</ele>
        <time>2020-01-11T08:35:20Z</time>
      </trkpt>
      <trkpt lat="48.6812" lon="1.92495">
        <ele>149.21</ele>
        <time>2020-01-11T08:35:25Z</time>
      </trkpt>
      <trkpt lat="48.6812" lon="1.92503">
        <ele>149.2</ele>
        <time>2020-01-11T08:35:30Z</time>
      </trkpt>
      <trkpt lat="48.6812" lon="1.92513">
        <ele>149.28</ele>
        <time>2020-01-11T08:35:35Z</time>
      </trkpt>
      <trkpt lat="48.68121" lon="1.92522">
        <ele>149.43</ele>
        <time>2020-01-11T08:35:40Z</time>
      </trkpt>
      <trkpt lat="48.68123" lon="1.9253">
        <ele>149.54</ele>
        <time>2020-01-11T08:35:45Z</time>
      </trkpt>
      <trkpt lat="48.68125" lon="1.92539">
        <ele>149.44</ele>
        <time>2020-01-11T08:35:50Z</time>
      </trkpt>
      <trkpt lat="48.68127" lon="1.92549">
        <ele>149.45</ele>
        <time>2020-01-11T08:35:55Z</time>
      </trkpt>
      <trkpt lat="48.68128" lon="1.92559">
        <ele>149.36</ele>
        <time>2020-01-11T08:36:00Z</time>
      </trkpt>
      <trkpt lat="48.68128" lon="1.9257">
        <ele>149.64</ele>
        <time>2020-01-11T08:36:05Z</time>
      </trkpt>
      <trkpt lat="48.68129" lon="1.92577">
        <ele>149.75</ele>
        <time>2020-01-11T08:36:10Z</time>
      </trkpt>
      <trkpt lat="48.68129" lon="1.92589">
        <ele>149.78</ele>
        <time>2020-01-11T08:36:15Z</time>
      </trkpt>
      <trkpt lat="48.68129" lon="1.92601">
        <ele>149.81</ele>
        <time>2020-01-11T08:36:20Z</time>
      </trkpt>
      <trkpt lat="48.68127" lon="1.9261">
        <ele>149.69</ele>
        <time>2020-01-11T08:36:25Z</time>
      </trkpt>
      <trkpt lat="48.68127" lon="1.92615">
        <ele>149.59</ele>
        <time>2020-01-11T08:36:30Z</time>
      </trkpt>
      <trkpt lat="48.68125" lon="1.92624">
        <ele>149.69</ele>
        <time>2020-01-11T08:36:35Z</time>
      </trkpt>
      <trkpt lat="48.68123" lon="1.92633">
        <ele>149.82</ele>
        <time>2020-01-11T08:36:40Z</time>
      </trkpt>
      <trkpt lat="48.68122" lon="1.92642">
        <ele>149.83</ele>
        <time>2020-01-11T08:36:45Z</time>
      </trkpt>
      <trkpt lat="48.68121" lon="1.92652">
        <ele>149.79</ele>
        <time>2020-01-11T08:36:50Z</time>
      </trkpt>
      <trkpt lat="48.68123" lon="1.92661">
        <ele>149.58</ele>
        <time>2020-01-11T08:36:55Z</time>
      </trkpt>
      <trkpt lat="48.68123" lon="1.9267">
        <ele>149.69</ele>
        <time>2020-01-11T08:37:00Z</time>
      </trkpt>
      <trkpt lat="48.68124" lon="1.92678">
        <ele>149.67</ele>
        <time>2020-01-11T08:37:05Z</time>
      </trkpt>
      <trkpt lat="48.68125" lon="1.92689">
        <ele>149.49</ele>
        <time>2020-01-11T08:37:10Z</time>
      </trkpt>
      <trkpt lat="48.68127" lon="1.92701">
        <ele>149.35</ele>
        <time>2020-01-11T08:37:15Z</time>
      </trkpt>
      <trkpt lat="48.68129" lon="1.92711">
        <ele>149.29</ele>
        <time>2020-01-11T08:37:20Z</time>
      </trkpt>
      <trkpt lat="48.6813" lon="1.92721">
        <ele>149.13</ele>
        <time>2020-01-11T08:37:25Z</time>
      </trkpt>
      <trkpt lat="48.68131" lon="1.92733">
        <ele>149.02</ele>
        <time>2020-01-11T08:37:30Z</time>
      </trkpt>
      <trkpt lat="48.68132" lon="1.92743">
        <ele>149.06</ele>
        <time>2020-01-11T08:37:35Z</time>
      </trkpt>
      <trkpt lat="48.68133" lon="1.92753">
        <ele>148.93</ele>
        <time>2020-01-11T08:37:40Z</time>
      </trkpt>
      <trkpt lat="48.68134" lon="1.92762">
        <ele>148.83</ele>
        <time>2020-01-11T08:37:45Z</time>
      </trkpt>
      <trkpt lat="48.68138" lon="1.92773">
        <ele>148.79</ele>
        <time>2020-01-11T08:37:50Z</time>
      </trkpt>
      <trkpt lat="48.68141" lon="1.92783">
        <ele>148.71</ele>
        <time>2020-01-11T08:37:55Z</time>
      </trkpt>
      <trkpt lat="48.68145" lon="1.9279">
        <ele>148.65</ele>
        <time>2020-01-11T08:38:00Z</time>
      </trkpt>
      <trkpt lat="48.68147" lon="1.92798">
        <ele>148.46</ele>
        <time>2020-01-11T08:38:05Z</time>
      </trkpt>
      <trkpt lat="48.68147" lon="1.92808">
        <ele>148.15</ele>
        <time>2020-01-11T08:38:10Z</time>
      </trkpt>
      <trkpt lat="48.68145" lon="1.92819">
        <ele>148.06</ele>
        <time>2020-01-11T08:38:15Z</time>
      </trkpt>
      <trkpt lat="48.68144" lon="1.92829">
        <ele>148.09</ele>
        <time>2020-01-11T08:38:20Z</time>
      </trkpt>
      <trkpt lat="48.68144" lon="1.92838">
        <ele>148.25</ele>
        <time>2020-01-11T08:38:25Z</time>
      </trkpt>
      <trkpt lat="48.68144" lon="1.92847">
        <ele>148.28</ele>
        <time>2020-01-11T08:38:30Z</time>
      </trkpt>
      <trkpt lat="48.68146" lon="1.92856">
        <ele>148.08</ele>
        <time>2020-01-11T08:38:35Z</time>
      </trkpt>
      <trkpt lat="48.68147" lon="1.92867">
        <ele>148.19</ele>
        <time>2020-01-11T08:38:40Z</time>
      </trkpt>
      <trkpt lat="48.68149" lon="1.92876">
        <ele>148.31</ele>
        <time>2020-01-11T08:38:45Z</time>
      </trkpt>
      <trkpt lat="48.68151" lon="1.92884">
        <ele>148.31</ele>
        <time>2020-01-11T08:38:50Z</time>
      </trkpt>
      <trkpt lat="48.68154" lon="1.92893">
        <ele>148.16</ele>
        <time>2020-01-11T08:38:55Z</time>
      </trkpt>
      <trkpt lat="48.68157" lon="1.929">
        <ele>148.1</ele>
        <time>2020-01-11T08:39:00Z</time>
      </trkpt>
      <trkpt lat="48.68161" lon="1.92907">
        <ele>148.24</ele>
        <time>2020-01-11T08:39:05Z</time>
      </trkpt>
      <trkpt lat="48.68163" lon="1.92913">
        <ele>148.45</ele>
        <time>2020-01-11T08:39:10Z</time>
      </trkpt>
      <trkpt lat="48.68165" lon="1.9292">
        <ele>148.64</ele>
        <time>2020-01-11T08:39:15Z</time>
      </trkpt>
      <trkpt lat="48.68165" lon="1.92929">
        <ele>148.78</ele>
        <time>2020-01-11T08:39:20Z</time>
      </trkpt>
      <trkpt lat="48.68162" lon="1.92939">
        <ele>148.91</ele>
        <time>2020-01-11T08:39:25Z</time>
      </trkpt>
      <trkpt lat="48.68159" lon="1.92948">
        <ele>149.2</ele>
        <time>2020-01-11T08:39:30Z</time>
      </trkpt>
      <trkpt lat="48.68156" lon="1.92958">
        <ele>149.45</ele>
        <time>2020-01-11T08:39:35Z</time>
      </trkpt>
      <trkpt lat="48.68155" lon="1.92968">
        <ele>149.54</ele>
        <time>2020-01-11T08:39:40Z</time>
      </trkpt>
      <trkpt lat="48.68153" lon="1.92977">
        <ele>149.58</ele>
        <time>2020-01-11T08:39:45Z</time>
      </trkpt>
      <trkpt lat="48.6815" lon="1.92985">
        <ele>149.54</ele>
        <time>2020-01-11T08:39:50Z</time>
      </trkpt>
      <trkpt lat="48.68148" lon="1.92993">
        <ele>149.35</ele>
        <time>2020-01-11T08:39:55Z</time>
      </trkpt>
      <trkpt lat="48.68144" lon="1.93001">
        <ele>149.17</ele>
        <time>2020-01-11T08:40:00Z</time>
      </trkpt>
      <trkpt lat="48.6814" lon="1.93007">
        <ele>149.15</ele>
        <time>2020-01-11T08:40:05Z</time>
      </trkpt>
      <trkpt lat="48.68135" lon="1.93015">
        <ele>149.31</ele>
        <time>2020-01-11T08:40:10Z</time>
      </trkpt>
      <trkpt lat="48.6813" lon="1.9302">
        <ele>149.37</ele>
        <time>2020-01-11T08:40:15Z</time>
      </trkpt>
      <trkpt lat="48.68124" lon="1.93023">
        <ele>149.55</ele>
        <time>2020-01-11T08:40:20Z</time>
      </trkpt>
      <trkpt lat="48.68119" lon="1.93025">
        <ele>149.77</ele>
        <time>2020-01-11T08:40:25Z</time>
      </trkpt>
      <trkpt lat="48.68114" lon="1.93031">
        <ele>149.97</ele>
        <time>2020-01-11T08:40:30Z</time>
      </trkpt>
      <trkpt lat="48.68111" lon="1.93036">
        <ele>150</ele>
        <time>2020-01-11T08:40:35Z</time>
      </trkpt>
      <trkpt lat="48.68106" lon="1.93042">
        <ele>150.07</ele>
        <time>2020-01-11T08:40:40Z</time>
      </trkpt>
      <trkpt lat="48.681" lon="1.93047">
        <ele>150.14</ele>
        <time>2020-01-11T08:40:45Z</time>
      </trkpt>
      <trkpt lat="48.6809" lon="1.93057">
        <ele>150.28</ele>
        <time>2020-01-11T08:40:50Z</time>
      </trkpt>
      <trkpt lat="48.68083" lon="1.9306">
        <ele>150.51</ele>
        <time>2020-01-11T08:40:55Z</time>
      </trkpt>
      <trkpt lat="48.68076" lon="1.93061">
        <ele>150.73</ele>
        <time>2020-01-11T08:41:00Z</time>
      </trkpt>
      <trkpt lat="48.68069" lon="1.93058">
        <ele>151</ele>
        <time>2020-01-11T08:41:05Z</time>
      </trkpt>
      <trkpt lat="48.68062" lon="1.93058">
        <ele>151.11</ele>
        <time>2020-01-11T08:41:10Z</time>
      </trkpt>
      <trkpt lat="48.68057" lon="1.93058">
        <ele>151.1</ele>
        <time>2020-01-11T08:41:15Z</time>
      </trkpt>
      <trkpt lat="48.68051" lon="1.93059">
        <ele>151.01</ele>
        <time>2020-01-11T08:41:20Z</time>
      </trkpt>
      <trkpt lat="48.68045" lon="1.9306">
        <ele>150.97</ele>
        <time>2020-01-11T08:41:25Z</time>
      </trkpt>
      <trkpt lat="48.68037" lon="1.9306">
        <ele>150.95</ele>
        <time>2020-01-11T08:41:30Z</time>
      </trkpt>
      <trkpt lat="48.68029" lon="1.93061">
        <ele>150.85</ele>
        <time>2020-01-11T08:41:35Z</time>
      </trkpt>
      <trkpt lat="48.68023" lon="1.9306">
        <ele>150.84</ele>
        <time>2020-01-11T08:41:40Z</time>
      </trkpt>
      <trkpt lat="48.68017" lon="1.9306">
        <ele>150.81</ele>
        <time>2020-01-11T08:41:45Z</time>
      </trkpt>
      <trkpt lat="48.68012" lon="1.93063">
        <ele>150.64</ele>
        <time>2020-01-11T08:41:50Z</time>
      </trkpt>
      <trkpt lat="48.68006" lon="1.93065">
        <ele>150.42</ele>
        <time>2020-01-11T08:41:55Z</time>
      </trkpt>
      <trkpt lat="48.68001" lon="1.93066">
        <ele>150.15</ele>
        <time>2020-01-11T08:42:00Z</time>
      </trkpt>
      <trkpt lat="48.67998" lon="1.93073">
        <ele>149.99</ele>
        <time>2020-01-11T08:42:05Z</time>
      </trkpt>
      <trkpt lat="48.67996" lon="1.93077">
        <ele>150</ele>
        <time>2020-01-11T08:42:10Z</time>
      </trkpt>
      <trkpt lat="48.67995" lon="1.93078">
        <ele>150.18</ele>
        <time>2020-01-11T08:42:15Z</time>
      </trkpt>
      <trkpt lat="48.67994" lon="1.93079">
        <ele>150.13</ele>
        <time>2020-01-11T08:42:20Z</time>
      </trkpt>
      <trkpt lat="48.67993" lon="1.9308">
        <ele>150.07</ele>
        <time>2020-01-11T08:42:25Z</time>
      </trkpt>
      <trkpt lat="48.67993" lon="1.93079">
        <ele>150.13</ele>
        <time>2020-01-11T08:42:30Z</time>
      </trkpt>
      <trkpt lat="48.67993" lon="1.93079">
        <ele>150.29</ele>
        <time>2020-01-11T08:42:35Z</time>
      </trkpt>
      <trkpt lat="48.67992" lon="1.9308">
        <ele>150.32</ele>
        <time>2020-01-11T08:42:40Z</time>
      </trkpt>
      <trkpt lat="48.67992" lon="1.93079">
        <ele>150.36</ele>
        <time>2020-01-11T08:42:45Z</time>
      </trkpt>
      <trkpt lat="48.67992" lon="1.93079">
        <ele>150.41</ele>
        <time>2020-01-11T08:42:50Z</time>
      </trkpt>
      <trkpt lat="48.67991" lon="1.93079">
        <ele>150.46</ele>
        <time>2020-01-11T08:42:55Z</time>
      </trkpt>
      <trkpt lat="48.67991" lon="1.9308">
        <ele>150.55</ele>
        <time>2020-01-11T08:43:00Z</time>
      </trkpt>
      <trkpt lat="48.67991" lon="1.93081">
        <ele>150.6</ele>
        <time>2020-01-11T08:43:05Z</time>
      </trkpt>
      <trkpt lat="48.67991" lon="1.93081">
        <ele>150.63</ele>
        <time>2020-01-11T08:43:10Z</time>
      </trkpt>
      <trkpt lat="48.67991" lon="1.93082">
        <ele>151.07</ele>
        <time>2020-01-11T08:43:15Z</time>
      </trkpt>
      <trkpt lat="48.67992" lon="1.93081">
        <ele>151.08</ele>
        <time>2020-01-11T08:43:20Z</time>
      </trkpt>
      <trkpt lat="48.67993" lon="1.93081">
        <ele>151.14</ele>
        <time>2020-01-11T08:43:25Z</time>
      </trkpt>
      <trkpt lat="48.67993" lon="1.9308">
        <ele>151.22</ele>
        <time>2020-01-11T08:43:30Z</time>
      </trkpt>
      <trkpt lat="48.67993" lon="1.9308">
        <ele>151.21</ele>
        <time>2020-01-11T08:43:35Z</time>
      </trkpt>
      <trkpt lat="48.67993" lon="1.9308">
        <ele>151.29</ele>
        <time>2020-01-11T08:43:40Z</time>
      </trkpt>
      <trkpt lat="48.67991" lon="1.93083">
        <ele>151.45</ele>
        <time>2020-01-11T08:43:45Z</time>
      </trkpt>
      <trkpt lat="48.67988" lon="1.93086">
        <ele>151.42</ele>
        <time>2020-01-11T08:43:50Z</time>
      </trkpt>
      <trkpt lat="48.67985" lon="1.93091">
        <ele>151.35</ele>
        <time>2020-01-11T08:43:55Z</time>
      </trkpt>
      <trkpt lat="48.67981" lon="1.93096">
        <ele>151.25</ele>
        <time>2020-01-11T08:44:00Z</time>
      </trkpt>
      <trkpt lat="48.67977" lon="1.931">
        <ele>151.25</ele>
        <time>2020-01-11T08:44:05Z</time>
      </trkpt>
      <trkpt lat="48.67973" lon="1.93105">
        <ele>151.14</ele>
        <time>2020-01-11T08:44:10Z</time>
      </trkpt>
      <trkpt lat="48.67968" lon="1.93108">
        <ele>151.13</ele>
        <time>2020-01-11T08:44:15Z</time>
      </trkpt>
      <trkpt lat="48.67963" lon="1.93113">
        <ele>151.12</ele>
        <time>2020-01-11T08:44:20Z</time>
      </trkpt>
      <trkpt lat="48.67958" lon="1.93116">
        <ele>151.23</ele>
        <time>2020-01-11T08:44:25Z</time>
      </trkpt>
      <trkpt lat="48.67951" lon="1.93119">
        <ele>151.29</ele>
        <time>2020-01-11T08:44:30Z</time>
      </trkpt>
      <trkpt lat="48.67945" lon="1.93122">
        <ele>151.02</ele>
        <time>2020-01-11T08:44:35Z</time>
      </trkpt>
      <trkpt lat="48.67938" lon="1.93125">
        <ele>150.96</ele>
        <time>2020-01-11T08:44:40Z</time>
      </trkpt>
      <trkpt lat="48.67935" lon="1.93131">
        <ele>150.97</ele>
        <time>2020-01-11T08:44:45Z</time>
      </trkpt>
      <trkpt lat="48.67934" lon="1.93138">
        <ele>151.18</ele>
        <time>2020-01-11T08:44:50Z</time>
      </trkpt>
      <trkpt lat="48.67932" lon="1.93146">
        <ele>151.25</ele>
        <time>2020-01-11T08:44:55Z</time>
      </trkpt>
      <trkpt lat="48.6793" lon="1.93153">
        <ele>151.16</ele>
        <time>2020-01-11T08:45:00Z</time>
      </trkpt>
      <trkpt lat="48.67929" lon="1.93162">
        <ele>151.28</ele>
        <time>2020-01-11T08:45:05Z</time>
      </trkpt>
      <trkpt lat="48.67927" lon="1.9317">
        <ele>151.25</ele>
        <time>2020-01-11T08:45:10Z</time>
      </trkpt>
      <trkpt lat="48.67927" lon="1.93179">
        <ele>151.25</ele>
        <time>2020-01-11T08:45:15Z</time>
      </trkpt>
      <trkpt lat="48.67926" lon="1.93189">
        <ele>151.33</ele>
        <time>2020-01-11T08:45:20Z</time>
      </trkpt>
      <trkpt lat="48.67924" lon="1.93199">
        <ele>151.43</ele>
        <time>2020-01-11T08:45:25Z</time>
      </trkpt>
      <trkpt lat="48.67923" lon="1.93209">
        <ele>151.47</ele>
        <time>2020-01-11T08:45:30Z</time>
      </trkpt>
      <trkpt lat="48.67922" lon="1.93218">
        <ele>151.54</ele>
        <time>2020-01-11T08:45:35Z</time>
      </trkpt>
      <trkpt lat="48.6792" lon="1.93227">
        <ele>151.6</ele>
        <time>2020-01-11T08:45:40Z</time>
      </trkpt>
      <trkpt lat="48.67918" lon="1.93236">
        <ele>151.68</ele>
        <time>2020-01-11T08:45:45Z</time>
      </trkpt>
      <trkpt lat="48.67917" lon="1.93246">
        <ele>151.81</ele>
        <time>2020-01-11T08:45:50Z</time>
      </trkpt>
      <trkpt lat="48.67914" lon="1.93255">
        <ele>151.84</ele>
        <time>2020-01-11T08:45:55Z</time>
      </trkpt>
      <trkpt lat="48.67913" lon="1.93264">
        <ele>151.91</ele>
        <time>2020-01-11T08:46:00Z</time>
      </trkpt>
      <trkpt lat="48.67911" lon="1.93273">
        <ele>152.02</ele>
        <time>2020-01-11T08:46:05Z</time>
      </trkpt>
      <trkpt lat="48.6791" lon="1.93281">
        <ele>152.09</ele>
        <time>2020-01-11T08:46:10Z</time>
      </trkpt>
      <trkpt lat="48.67907" lon="1.93292">
        <ele>151.89</ele>
        <time>2020-01-11T08:46:15Z</time>
      </trkpt>
      <trkpt lat="48.67905" lon="1.93302">
        <ele>151.89</ele>
        <time>2020-01-11T08:46:20Z</time>
      </trkpt>
      <trkpt lat="48.67905" lon="1.9331">
        <ele>152.03</ele>
        <time>2020-01-11T08:46:25Z</time>
      </trkpt>
      <trkpt lat="48.67902" lon="1.93319">
        <ele>152.12</ele>
        <time>2020-01-11T08:46:30Z</time>
      </trkpt>
      <trkpt lat="48.679" lon="1.93329">
        <ele>152.11</ele>
        <time>2020-01-11T08:46:35Z</time>
      </trkpt>
      <trkpt lat="48.67898" lon="1.93338">
        <ele>152.19</ele>
        <time>2020-01-11T08:46:40Z</time>
      </trkpt>
      <trkpt lat="48.67896" lon="1.93348">
        <ele>152.13</ele>
        <time>2020-01-11T08:46:45Z</time>
      </trkpt>
      <trkpt lat="48.67895" lon="1.93356">
        <ele>151.96</ele>
        <time>2020-01-11T08:46:50Z</time>
      </trkpt>
      <trkpt lat="48.67894" lon="1.93364">
        <ele>152.01</ele>
        <time>2020-01-11T08:46:55Z</time>
      </trkpt>
      <trkpt lat="48.67893" lon="1.93374">
        <ele>152.2</ele>
        <time>2020-01-11T08:47:00Z</time>
      </trkpt>
      <trkpt lat="48.67892" lon="1.93384">
        <ele>152.27</ele>
        <time>2020-01-11T08:47:05Z</time>
      </trkpt>
      <trkpt lat="48.6789" lon="1.93393">
        <ele>152.29</ele>
        <time>2020-01-11T08:47:10Z</time>
      </trkpt>
      <trkpt lat="48.67889" lon="1.93403">
        <ele>152.26</ele>
        <time>2020-01-11T08:47:15Z</time>
      </trkpt>
      <trkpt lat="48.67887" lon="1.93412">
        <ele>152.3</ele>
        <time>2020-01-11T08:47:20Z</time>
      </trkpt>
      <trkpt lat="48.67885" lon="1.93423">
        <ele>152.29</ele>
        <time>2020-01-11T08:47:25Z</time>
      </trkpt>
      <trkpt lat="48.67883" lon="1.93434">
        <ele>152.2</ele>
        <time>2020-01-11T08:47:30Z</time>
      </trkpt>
      <trkpt lat="48.6788" lon="1.93443">
        <ele>152.24</ele>
        <time>2020-01-11T08:47:35Z</time>
      </trkpt>
      <trkpt lat="48.6788" lon="1.93451">
        <ele>152.37</ele>
        <time>2020-01-11T08:47:40Z</time>
      </trkpt>
      <trkpt lat="48.6788" lon="1.93459">
        <ele>152.29</ele>
        <time>2020-01-11T08:47:45Z</time>
      </trkpt>
      <trkpt lat="48.67879" lon="1.93467">
        <ele>152.21</ele>
        <time>2020-01-11T08:47:50Z</time>
      </trkpt>
      <trkpt lat="48.67879" lon="1.93476">
        <ele>152.24</ele>
        <time>2020-01-11T08:47:55Z</time>
      </trkpt>
      <trkpt lat="48.67878" lon="1.93484">
        <ele>152.26</ele>
        <time>2020-01-11T08:48:00Z</time>
      </trkpt>
      <trkpt lat="48.67877" lon="1.93495">
        <ele>152.17</ele>
        <time>2020-01-11T08:48:05Z</time>
      </trkpt>
      <trkpt lat="48.67877" lon="1.93505">
        <ele>152.13</ele>
        <time>2020-01-11T08:48:10Z</time>
      </trkpt>
      <trkpt lat="48.67877" lon="1.93514">
        <ele>152.17</ele>
        <time>2020-01-11T08:48:15Z</time>
      </trkpt>
      <trkpt lat="48.67874" lon="1.93524">
        <ele>152.23</ele>
        <time>2020-01-11T08:48:20Z</time>
      </trkpt>
      <trkpt lat="48.67873" lon="1.93533">
        <ele>152.2</ele>
        <time>2020-01-11T08:48:25Z</time>
      </trkpt>
      <trkpt lat="48.67873" lon="1.93542">
        <ele>152.14</ele>
        <time>2020-01-11T08:48:30Z</time>
      </trkpt>
      <trkpt lat="48.67872" lon="1.93549">
        <ele>152.22</ele>
        <time>2020-01-11T08:48:35Z</time>
      </trkpt>
      <trkpt lat="48.67873" lon="1.93558">
        <ele>152.21</ele>
        <time>2020-01-11T08:48:40Z</time>
      </trkpt>
      <trkpt lat="48.67873" lon="1.93568">
        <ele>152.27</ele>
        <time>2020-01-11T08:48:45Z</time>
      </trkpt>
      <trkpt lat="48.67873" lon="1.93579">
        <ele>152.21</ele>
        <time>2020-01-11T08:48:50Z</time>
      </trkpt>
      <trkpt lat="48.67873" lon="1.93589">
        <ele>152.28</ele>
        <time>2020-01-11T08:48:55Z</time>
      </trkpt>
      <trkpt lat="48.67873" lon="1.93601">
        <ele>152.24</ele>
        <time>2020-01-11T08:49:00Z</time>
      </trkpt>
      <trkpt lat="48.67874" lon="1.9361">
        <ele>152.18</ele>
        <time>2020-01-11T08:49:05Z</time>
      </trkpt>
      <trkpt lat="48.67876" lon="1.93619">
        <ele>151.98</ele>
        <time>2020-01-11T08:49:10Z</time>
      </trkpt>
      <trkpt lat="48.67877" lon="1.93627">
        <ele>151.69</ele>
        <time>2020-01-11T08:49:15Z</time>
      </trkpt>
      <trkpt lat="48.67875" lon="1.93636">
        <ele>151.61</ele>
        <time>2020-01-11T08:49:20Z</time>
      </trkpt>
      <trkpt lat="48.67873" lon="1.93643">
        <ele>151.53</ele>
        <time>2020-01-11T08:49:25Z</time>
      </trkpt>
      <trkpt lat="48.6787" lon="1.93651">
        <ele>151.38</ele>
        <time>2020-01-11T08:49:30Z</time>
      </trkpt>
      <trkpt lat="48.67867" lon="1.9366">
        <ele>151.28</ele>
        <time>2020-01-11T08:49:35Z</time>
      </trkpt>
      <trkpt lat="48.67864" lon="1.9367">
        <ele>151.21</ele>
        <time>2020-01-11T08:49:40Z</time>
      </trkpt>
      <trkpt lat="48.6786" lon="1.93679">
        <ele>151.02</ele>
        <time>2020-01-11T08:49:45Z</time>
      </trkpt>
      <trkpt lat="48.67856" lon="1.93686">
        <ele>150.8</ele>
        <time>2020-01-11T08:49:50Z</time>
      </trkpt>
      <trkpt lat="48.6785" lon="1.93694">
        <ele>150.59</ele>
        <time>2020-01-11T08:49:55Z</time>
      </trkpt>
      <trkpt lat="48.67846" lon="1.93702">
        <ele>150.56</ele>
        <time>2020-01-11T08:50:00Z</time>
      </trkpt>
      <trkpt lat="48.67843" lon="1.93711">
        <ele>150.58</ele>
        <time>2020-01-11T08:50:05Z</time>
      </trkpt>
      <trkpt lat="48.67838" lon="1.93719">
        <ele>150.83</ele>
        <time>2020-01-11T08:50:10Z</time>
      </trkpt>
      <trkpt lat="48.67835" lon="1.93726">
        <ele>150.89</ele>
        <time>2020-01-11T08:50:15Z</time>
      </trkpt>
      <trkpt lat="48.67833" lon="1.93734">
        <ele>150.65</ele>
        <time>2020-01-11T08:50:20Z</time>
      </trkpt>
      <trkpt lat="48.6783" lon="1.9374">
        <ele>150.4</ele>
        <time>2020-01-11T08:50:25Z</time>
      </trkpt>
      <trkpt lat="48.67826" lon="1.93747">
        <ele>150.5</ele>
        <time>2020-01-11T08:50:30Z</time>
      </trkpt>
      <trkpt lat="48.67824" lon="1.93753">
        <ele>150.33</ele>
        <time>2020-01-11T08:50:35Z</time>
      </trkpt>
      <trkpt lat="48.6782" lon="1.93762">
        <ele>150.28</ele>
        <time>2020-01-11T08:50:40Z</time>
      </trkpt>
      <trkpt lat="48.67817" lon="1.93769">
        <ele>150.4</ele>
        <time>2020-01-11T08:50:45Z</time>
      </trkpt>
      <trkpt lat="48.67813" lon="1.93774">
        <ele>150.71</ele>
        <time>2020-01-11T08:50:50Z</time>
      </trkpt>
      <trkpt lat="48.6781" lon="1.93782">
        <ele>150.79</ele>
        <time>2020-01-11T08:50:55Z</time>
      </trkpt>
      <trkpt lat="48.67805" lon="1.9379">
        <ele>150.72</ele>
        <time>2020-01-11T08:51:00Z</time>
      </trkpt>
      <trkpt lat="48.67801" lon="1.93797">
        <ele>150.74</ele>
        <time>2020-01-11T08:51:05Z</time>
      </trkpt>
      <trkpt lat="48.67796" lon="1.93804">
        <ele>150.84</ele>
        <time>2020-01-11T08:51:10Z</time>
      </trkpt>
      <trkpt lat="48.67792" lon="1.93811">
        <ele>150.87</ele>
        <time>2020-01-11T08:51:15Z</time>
      </trkpt>
      <trkpt lat="48.6779" lon="1.93816">
        <ele>150.97</ele>
        <time>2020-01-11T08:51:20Z</time>
      </trkpt>
      <trkpt lat="48.67787" lon="1.93824">
        <ele>151</ele>
        <time>2020-01-11T08:51:25Z</time>
      </trkpt>
      <trkpt lat="48.67781" lon="1.93832">
        <ele>151.24</ele>
        <time>2020-01-11T08:51:30Z</time>
      </trkpt>
      <trkpt lat="48.67777" lon="1.9384">
        <ele>151.31</ele>
        <time>2020-01-11T08:51:35Z</time>
      </trkpt>
      <trkpt lat="48.67773" lon="1.93846">
        <ele>151.39</ele>
        <time>2020-01-11T08:51:40Z</time>
      </trkpt>
      <trkpt lat="48.67769" lon="1.93852">
        <ele>151.24</ele>
        <time>2020-01-11T08:51:45Z</time>
      </trkpt>
      <trkpt lat="48.67765" lon="1.93859">
        <ele>150.97</ele>
        <time>2020-01-11T08:51:50Z</time>
      </trkpt>
      <trkpt lat="48.67762" lon="1.93866">
        <ele>150.97</ele>
        <time>2020-01-11T08:51:55Z</time>
      </trkpt>
      <trkpt lat="48.67759" lon="1.93873">
        <ele>150.94</ele>
        <time>2020-01-11T08:52:00Z</time>
      </trkpt>
      <trkpt lat="48.6776" lon="1.93878">
        <ele>150.82</ele>
        <time>2020-01-11T08:52:05Z</time>
      </trkpt>
      <trkpt lat="48.67762" lon="1.93884">
        <ele>150.88</ele>
        <time>2020-01-11T08:52:10Z</time>
      </trkpt>
      <trkpt lat="48.67765" lon="1.93893">
        <ele>150.97</ele>
        <time>2020-01-11T08:52:15Z</time>
      </trkpt>
      <trkpt lat="48.67769" lon="1.93896">
        <ele>150.86</ele>
        <time>2020-01-11T08:52:20Z</time>
      </trkpt>
      <trkpt lat="48.67775" lon="1.93901">
        <ele>150.71</ele>
        <time>2020-01-11T08:52:25Z</time>
      </trkpt>
      <trkpt lat="48.67779" lon="1.93906">
        <ele>150.67</ele>
        <time>2020-01-11T08:52:30Z</time>
      </trkpt>
      <trkpt lat="48.67784" lon="1.9391">
        <ele>150.48</ele>
        <time>2020-01-11T08:52:35Z</time>
      </trkpt>
      <trkpt lat="48.67789" lon="1.93914">
        <ele>149.61</ele>
        <time>2020-01-11T08:52:40Z</time>
      </trkpt>
      <trkpt lat="48.67794" lon="1.93918">
        <ele>148.86</ele>
        <time>2020-01-11T08:52:45Z</time>
      </trkpt>
      <trkpt lat="48.67799" lon="1.93922">
        <ele>147.99</ele>
        <time>2020-01-11T08:52:50Z</time>
      </trkpt>
      <trkpt lat="48.67803" lon="1.93927">
        <ele>147.28</ele>
        <time>2020-01-11T08:52:55Z</time>
      </trkpt>
      <trkpt lat="48.67808" lon="1.9393">
        <ele>146.69</ele>
        <time>2020-01-11T08:53:00Z</time>
      </trkpt>
      <trkpt lat="48.6781" lon="1.93933">
        <ele>145.92</ele>
        <time>2020-01-11T08:53:05Z</time>
      </trkpt>
      <trkpt lat="48.67811" lon="1.93935">
        <ele>145.14</ele>
        <time>2020-01-11T08:53:10Z</time>
      </trkpt>
      <trkpt lat="48.67812" lon="1.9394">
        <ele>144.66</ele>
        <time>2020-01-11T08:53:15Z</time>
      </trkpt>
      <trkpt lat="48.67814" lon="1.93942">
        <ele>144.1</ele>
        <time>2020-01-11T08:53:20Z</time>
      </trkpt>
      <trkpt lat="48.67815" lon="1.93945">
        <ele>143.12</ele>
        <time>2020-01-11T08:53:25Z</time>
      </trkpt>
      <trkpt lat="48.67817" lon="1.93946">
        <ele>142.19</ele>
        <time>2020-01-11T08:53:30Z</time>
      </trkpt>
      <trkpt lat="48.67819" lon="1.93948">
        <ele>140.73</ele>
        <time>2020-01-11T08:53:35Z</time>
      </trkpt>
      <trkpt lat="48.67822" lon="1.93949">
        <ele>139.96</ele>
        <time>2020-01-11T08:53:40Z</time>
      </trkpt>
      <trkpt lat="48.67825" lon="1.93953">
        <ele>139.05</ele>
        <time>2020-01-11T08:53:45Z</time>
      </trkpt>
      <trkpt lat="48.67828" lon="1.93953">
        <ele>138.08</ele>
        <time>2020-01-11T08:53:50Z</time>
      </trkpt>
      <trkpt lat="48.67831" lon="1.93954">
        <ele>136.97</ele>
        <time>2020-01-11T08:53:55Z</time>
      </trkpt>
      <trkpt lat="48.67834" lon="1.93957">
        <ele>135.63</ele>
        <time>2020-01-11T08:54:00Z</time>
      </trkpt>
      <trkpt lat="48.67837" lon="1.9396">
        <ele>133.99</ele>
        <time>2020-01-11T08:54:05Z</time>
      </trkpt>
      <trkpt lat="48.6784" lon="1.93963">
        <ele>132.38</ele>
        <time>2020-01-11T08:54:10Z</time>
      </trkpt>
      <trkpt lat="48.67844" lon="1.93966">
        <ele>130.79</ele>
        <time>2020-01-11T08:54:15Z</time>
      </trkpt>
      <trkpt lat="48.67848" lon="1.9397">
        <ele>129.42</ele>
        <time>2020-01-11T08:54:20Z</time>
      </trkpt>
      <trkpt lat="48.67852" lon="1.93973">
        <ele>128.08</ele>
        <time>2020-01-11T08:54:25Z</time>
      </trkpt>
      <trkpt lat="48.67855" lon="1.93976">
        <ele>127</ele>
        <time>2020-01-11T08:54:30Z</time>
      </trkpt>
      <trkpt lat="48.67858" lon="1.9398">
        <ele>126</ele>
        <time>2020-01-11T08:54:35Z</time>
      </trkpt>
      <trkpt lat="48.6786" lon="1.93982">
        <ele>125</ele>
        <time>2020-01-11T08:54:40Z</time>
      </trkpt>
      <trkpt lat="48.67864" lon="1.93986">
        <ele>123.75</ele>
        <time>2020-01-11T08:54:45Z</time>
      </trkpt>
      <trkpt lat="48.67868" lon="1.93989">
        <ele>122.4</ele>
        <time>2020-01-11T08:54:50Z</time>
      </trkpt>
      <trkpt lat="48.67873" lon="1.9399">
        <ele>120.71</ele>
        <time>2020-01-11T08:54:55Z</time>
      </trkpt>
      <trkpt lat="48.67876" lon="1.93994">
        <ele>119.45</ele>
        <time>2020-01-11T08:55:00Z</time>
      </trkpt>
      <trkpt lat="48.67882" lon="1.93999">
        <ele>118.63</ele>
        <time>2020-01-11T08:55:05Z</time>
      </trkpt>
      <trkpt lat="48.67882" lon="1.94001">
        <ele>118.14</ele>
        <time>2020-01-11T08:55:10Z</time>
      </trkpt>
      <trkpt lat="48.67882" lon="1.94001">
        <ele>117.83</ele>
        <time>2020-01-11T08:55:15Z</time>
      </trkpt>
      <trkpt lat="48.67882" lon="1.94002">
        <ele>117.63</ele>
        <time>2020-01-11T08:55:20Z</time>
      </trkpt>
      <trkpt lat="48.67882" lon="1.94005">
        <ele>117.46</ele>
        <time>2020-01-11T08:55:25Z</time>
      </trkpt>
      <trkpt lat="48.67883" lon="1.94008">
        <ele>117.25</ele>
        <time>2020-01-11T08:55:30Z</time>
      </trkpt>
      <trkpt lat="48.67883" lon="1.94009">
        <ele>116.96</ele>
        <time>2020-01-11T08:55:35Z</time>
      </trkpt>
      <trkpt lat="48.67882" lon="1.94009">
        <ele>116.99</ele>
        <time>2020-01-11T08:55:40Z</time>
      </trkpt>
      <trkpt lat="48.67881" lon="1.9401">
        <ele>116.96</ele>
        <time>2020-01-11T08:55:45Z</time>
      </trkpt>
      <trkpt lat="48.6788" lon="1.94011">
        <ele>116.99</ele>
        <time>2020-01-11T08:55:50Z</time>
      </trkpt>
      <trkpt lat="48.6788" lon="1.94011">
        <ele>116.93</ele>
        <time>2020-01-11T08:55:55Z</time>
      </trkpt>
      <trkpt lat="48.6788" lon="1.9401">
        <ele>117.02</ele>
        <time>2020-01-11T08:56:00Z</time>
      </trkpt>
      <trkpt lat="48.6788" lon="1.94009">
        <ele>117.23</ele>
        <time>2020-01-11T08:56:05Z</time>
      </trkpt>
      <trkpt lat="48.67881" lon="1.9401">
        <ele>117.17</ele>
        <time>2020-01-11T08:56:10Z</time>
      </trkpt>
      <trkpt lat="48.67882" lon="1.9401">
        <ele>117.1</ele>
        <time>2020-01-11T08:56:15Z</time>
      </trkpt>
      <trkpt lat="48.67882" lon="1.9401">
        <ele>117.1</ele>
        <time>2020-01-11T08:56:20Z</time>
      </trkpt>
      <trkpt lat="48.67882" lon="1.94011">
        <ele>117.1</ele>
        <time>2020-01-11T08:56:25Z</time>
      </trkpt>
      <trkpt lat="48.67882" lon="1.9401">
        <ele>117.21</ele>
        <time>2020-01-11T08:56:30Z</time>
      </trkpt>
      <trkpt lat="48.67882" lon="1.94009">
        <ele>117.56</ele>
        <time>2020-01-11T08:56:35Z</time>
      </trkpt>
      <trkpt lat="48.67883" lon="1.94007">
        <ele>117.62</ele>
        <time>2020-01-11T08:56:40Z</time>
      </trkpt>
      <trkpt lat="48.67884" lon="1.94005">
        <ele>117.6</ele>
        <time>2020-01-11T08:56:45Z</time>
      </trkpt>
      <trkpt lat="48.67885" lon="1.94003">
        <ele>117.6</ele>
        <time>2020-01-11T08:56:50Z</time>
      </trkpt>
      <trkpt lat="48.67886" lon="1.94001">
        <ele>117.55</ele>
        <time>2020-01-11T08:56:55Z</time>
      </trkpt>
      <trkpt lat="48.67886" lon="1.94">
        <ele>117.66</ele>
        <time>2020-01-11T08:57:00Z</time>
      </trkpt>
      <trkpt lat="48.67886" lon="1.93998">
        <ele>117.81</ele>
        <time>2020-01-11T08:57:05Z</time>
      </trkpt>
      <trkpt lat="48.67886" lon="1.93998">
        <ele>117.84</ele>
        <time>2020-01-11T08:57:10Z</time>
      </trkpt>
      <trkpt lat="48.67886" lon="1.93997">
        <ele>117.91</ele>
        <time>2020-01-11T08:57:15Z</time>
      </trkpt>
      <trkpt lat="48.67886" lon="1.93997">
        <ele>117.9</ele>
        <time>2020-01-11T08:57:20Z</time>
      </trkpt>
      <trkpt lat="48.67887" lon="1.93998">
        <ele>117.81</ele>
        <time>2020-01-11T08:57:25Z</time>
      </trkpt>
      <trkpt lat="48.67888" lon="1.94001">
        <ele>117.67</ele>
        <time>2020-01-11T08:57:30Z</time>
      </trkpt>
      <trkpt lat="48.67892" lon="1.94003">
        <ele>117.52</ele>
        <time>2020-01-11T08:57:35Z</time>
      </trkpt>
      <trkpt lat="48.67897" lon="1.94005">
        <ele>117</ele>
        <time>2020-01-11T08:57:40Z</time>
      </trkpt>
      <trkpt lat="48.67902" lon="1.94011">
        <ele>116.5</ele>
        <time>2020-01-11T08:57:45Z</time>
      </trkpt>
      <trkpt lat="48.67908" lon="1.94015">
        <ele>115.98</ele>
        <time>2020-01-11T08:57:50Z</time>
      </trkpt>
      <trkpt lat="48.67916" lon="1.94018">
        <ele>115.49</ele>
        <time>2020-01-11T08:57:55Z</time>
      </trkpt>
      <trkpt lat="48.67921" lon="1.94021">
        <ele>114.99</ele>
        <time>2020-01-11T08:58:00Z</time>
      </trkpt>
      <trkpt lat="48.67927" lon="1.94025">
        <ele>114.65</ele>
        <time>2020-01-11T08:58:05Z</time>
      </trkpt>
      <trkpt lat="48.67931" lon="1.94029">
        <ele>114.51</ele>
        <time>2020-01-11T08:58:10Z</time>
      </trkpt>
      <trkpt lat="48.67937" lon="1.94036">
        <ele>114.3</ele>
        <time>2020-01-11T08:58:15Z</time>
      </trkpt>
      <trkpt lat="48.67942" lon="1.94041">
        <ele>114.35</ele>
        <time>2020-01-11T08:58:20Z</time>
      </trkpt>
      <trkpt lat="48.67948" lon="1.94047">
        <ele>114.55</ele>
        <time>2020-01-11T08:58:25Z</time>
      </trkpt>
      <trkpt lat="48.67952" lon="1.94053">
        <ele>114.72</ele>
        <time>2020-01-11T08:58:30Z</time>
      </trkpt>
      <trkpt lat="48.67956" lon="1.94058">
        <ele>115.04</ele>
        <time>2020-01-11T08:58:35Z</time>
      </trkpt>
      <trkpt lat="48.67959" lon="1.94061">
        <ele>115.14</ele>
        <time>2020-01-11T08:58:40Z</time>
      </trkpt>
      <trkpt lat="48.67964" lon="1.94065">
        <ele>115.2</ele>
        <time>2020-01-11T08:58:45Z</time>
      </trkpt>
      <trkpt lat="48.67969" lon="1.94069">
        <ele>115.07</ele>
        <time>2020-01-11T08:58:50Z</time>
      </trkpt>
      <trkpt lat="48.67975" lon="1.94073">
        <ele>115.09</ele>
        <time>2020-01-11T08:58:55Z</time>
      </trkpt>
      <trkpt lat="48.6798" lon="1.94078">
        <ele>115.12</ele>
        <time>2020-01-11T08:59:00Z</time>
      </trkpt>
      <trkpt lat="48.67984" lon="1.94081">
        <ele>114.93</ele>
        <time>2020-01-11T08:59:05Z</time>
      </trkpt>
      <trkpt lat="48.67989" lon="1.94082">
        <ele>114.83</ele>
        <time>2020-01-11T08:59:10Z</time>
      </trkpt>
      <trkpt lat="48.67993" lon="1.94088">
        <ele>114.73</ele>
        <time>2020-01-11T08:59:15Z</time>
      </trkpt>
      <trkpt lat="48.67998" lon="1.94095">
        <ele>114.45</ele>
        <time>2020-01-11T08:59:20Z</time>
      </trkpt>
      <trkpt lat="48.68001" lon="1.941">
        <ele>114.21</ele>
        <time>2020-01-11T08:59:25Z</time>
      </trkpt>
      <trkpt lat="48.68005" lon="1.94104">
        <ele>114.18</ele>
        <time>2020-01-11T08:59:30Z</time>
      </trkpt>
      <trkpt lat="48.6801" lon="1.94106">
        <ele>114.42</ele>
        <time>2020-01-11T08:59:35Z</time>
      </trkpt>
      <trkpt lat="48.6802" lon="1.9411">
        <ele>114.85</ele>
        <time>2020-01-11T08:59:40Z</time>
      </trkpt>
      <trkpt lat="48.68028" lon="1.94116">
        <ele>115.09</ele>
        <time>2020-01-11T08:59:45Z</time>
      </trkpt>
      <trkpt lat="48.68034" lon="1.94123">
        <ele>115.07</ele>
        <time>2020-01-11T08:59:50Z</time>
      </trkpt>
      <trkpt lat="48.68035" lon="1.94124">
        <ele>114.94</ele>
        <time>2020-01-11T08:59:55Z</time>
      </trkpt>
      <trkpt lat="48.68038" lon="1.94127">
        <ele>114.69</ele>
        <time>2020-01-11T09:00:00Z</time>
      </trkpt>
      <trkpt lat="48.68042" lon="1.9413">
        <ele>114.39</ele>
        <time>2020-01-11T09:00:05Z</time>
      </trkpt>
      <trkpt lat="48.68046" lon="1.94134">
        <ele>114.23</ele>
        <time>2020-01-11T09:00:10Z</time>
      </trkpt>
      <trkpt lat="48.68049" lon="1.94138">
        <ele>113.87</ele>
        <time>2020-01-11T09:00:15Z</time>
      </trkpt>
      <trkpt lat="48.68053" lon="1.94143">
        <ele>113.47</ele>
        <time>2020-01-11T09:00:20Z</time>
      </trkpt>
      <trkpt lat="48.68058" lon="1.94149">
        <ele>112.99</ele>
        <time>2020-01-11T09:00:25Z</time>
      </trkpt>
      <trkpt lat="48.68064" lon="1.94151">
        <ele>112.09</ele>
        <time>2020-01-11T09:00:30Z</time>
      </trkpt>
      <trkpt lat="48.68069" lon="1.94154">
        <ele>111.13</ele>
        <time>2020-01-11T09:00:35Z</time>
      </trkpt>
      <trkpt lat="48.68073" lon="1.94158">
        <ele>110.18</ele>
        <time>2020-01-11T09:00:40Z</time>
      </trkpt>
      <trkpt lat="48.6808" lon="1.94161">
        <ele>109.26</ele>
        <time>2020-01-11T09:00:45Z</time>
      </trkpt>
      <trkpt lat="48.68084" lon="1.94168">
        <ele>108.3</ele>
        <time>2020-01-11T09:00:50Z</time>
      </trkpt>
      <trkpt lat="48.6809" lon="1.94175">
        <ele>107.28</ele>
        <time>2020-01-11T09:00:55Z</time>
      </trkpt>
      <trkpt lat="48.68097" lon="1.94178">
        <ele>106.17</ele>
        <time>2020-01-11T09:01:00Z</time>
      </trkpt>
      <trkpt lat="48.68102" lon="1.94182">
        <ele>104.92</ele>
        <time>2020-01-11T09:01:05Z</time>
      </trkpt>
      <trkpt lat="48.68108" lon="1.94185">
        <ele>103.99</ele>
        <time>2020-01-11T09:01:10Z</time>
      </trkpt>
      <trkpt lat="48.68114" lon="1.94189">
        <ele>102.86</ele>
        <time>2020-01-11T09:01:15Z</time>
      </trkpt>
      <trkpt lat="48.6812" lon="1.94194">
        <ele>102.12</ele>
        <time>2020-01-11T09:01:20Z</time>
      </trkpt>
      <trkpt lat="48.68124" lon="1.94198">
        <ele>101.75</ele>
        <time>2020-01-11T09:01:25Z</time>
      </trkpt>
      <trkpt lat="48.68129" lon="1.94199">
        <ele>101.26</ele>
        <time>2020-01-11T09:01:30Z</time>
      </trkpt>
      <trkpt lat="48.68134" lon="1.94204">
        <ele>100.92</ele>
        <time>2020-01-11T09:01:35Z</time>
      </trkpt>
      <trkpt lat="48.68139" lon="1.9421">
        <ele>100.55</ele>
        <time>2020-01-11T09:01:40Z</time>
      </trkpt>
      <trkpt lat="48.68142" lon="1.94219">
        <ele>100.16</ele>
        <time>2020-01-11T09:01:45Z</time>
      </trkpt>
      <trkpt lat="48.68146" lon="1.9423">
        <ele>99.57</ele>
        <time>2020-01-11T09:01:50Z</time>
      </trkpt>
      <trkpt lat="48.68153" lon="1.94233">
        <ele>99.19</ele>
        <time>2020-01-11T09:01:55Z</time>
      </trkpt>
      <trkpt lat="48.68156" lon="1.94231">
        <ele>98.71</ele>
        <time>2020-01-11T09:02:00Z</time>
      </trkpt>
      <trkpt lat="48.68158" lon="1.94228">
        <ele>98.56</ele>
        <time>2020-01-11T09:02:05Z</time>
      </trkpt>
      <trkpt lat="48.6816" lon="1.94225">
        <ele>98.82</ele>
        <time>2020-01-11T09:02:10Z</time>
      </trkpt>
      <trkpt lat="48.68161" lon="1.94224">
        <ele>98.74</ele>
        <time>2020-01-11T09:02:15Z</time>
      </trkpt>
      <trkpt lat="48.68168" lon="1.94219">
        <ele>98.86</ele>
        <time>2020-01-11T09:02:20Z</time>
      </trkpt>
      <trkpt lat="48.68174" lon="1.94211">
        <ele>98.43</ele>
        <time>2020-01-11T09:02:25Z</time>
      </trkpt>
      <trkpt lat="48.68179" lon="1.94204">
        <ele>98.08</ele>
        <time>2020-01-11T09:02:30Z</time>
      </trkpt>
      <trkpt lat="48.68184" lon="1.94205">
        <ele>97.61</ele>
        <time>2020-01-11T09:02:35Z</time>
      </trkpt>
      <trkpt lat="48.68188" lon="1.94202">
        <ele>97.2</ele>
        <time>2020-01-11T09:02:40Z</time>
      </trkpt>
      <trkpt lat="48.68194" lon="1.94204">
        <ele>96.3</ele>
        <time>2020-01-11T09:02:45Z</time>
      </trkpt>
      <trkpt lat="48.682" lon="1.94205">
        <ele>95.17</ele>
        <time>2020-01-11T09:02:50Z</time>
      </trkpt>
      <trkpt lat="48.68207" lon="1.94205">
        <ele>94.4</ele>
        <time>2020-01-11T09:02:55Z</time>
      </trkpt>
      <trkpt lat="48.68215" lon="1.94207">
        <ele>93.95</ele>
        <time>2020-01-11T09:03:00Z</time>
      </trkpt>
      <trkpt lat="48.68219" lon="1.9421">
        <ele>93.79</ele>
        <time>2020-01-11T09:03:05Z</time>
      </trkpt>
      <trkpt lat="48.68226" lon="1.94212">
        <ele>93.71</ele>
        <time>2020-01-11T09:03:10Z</time>
      </trkpt>
      <trkpt lat="48.68233" lon="1.94215">
        <ele>93.56</ele>
        <time>2020-01-11T09:03:15Z</time>
      </trkpt>
      <trkpt lat="48.68239" lon="1.94214">
        <ele>93.44</ele>
        <time>2020-01-11T09:03:20Z</time>
      </trkpt>
      <trkpt lat="48.68247" lon="1.94213">
        <ele>93.48</ele>
        <time>2020-01-11T09:03:25Z</time>
      </trkpt>
      <trkpt lat="48.68253" lon="1.94212">
        <ele>93.49</ele>
        <time>2020-01-11T09:03:30Z</time>
      </trkpt>
      <trkpt lat="48.68259" lon="1.94214">
        <ele>93.66</ele>
        <time>2020-01-11T09:03:35Z</time>
      </trkpt>
      <trkpt lat="48.68266" lon="1.94214">
        <ele>93.71</ele>
        <time>2020-01-11T09:03:40Z</time>
      </trkpt>
      <trkpt lat="48.68275" lon="1.94217">
        <ele>93.99</ele>
        <time>2020-01-11T09:03:45Z</time>
      </trkpt>
      <trkpt lat="48.68281" lon="1.94219">
        <ele>94.1</ele>
        <time>2020-01-11T09:03:50Z</time>
      </trkpt>
      <trkpt lat="48.68286" lon="1.94224">
        <ele>94.31</ele>
        <time>2020-01-11T09:03:55Z</time>
      </trkpt>
      <trkpt lat="48.6829" lon="1.94233">
        <ele>94.69</ele>
        <time>2020-01-11T09:04:00Z</time>
      </trkpt>
      <trkpt lat="48.68289" lon="1.94244">
        <ele>94.81</ele>
        <time>2020-01-11T09:04:05Z</time>
      </trkpt>
      <trkpt lat="48.68288" lon="1.94252">
        <ele>94.78</ele>
        <time>2020-01-11T09:04:10Z</time>
      </trkpt>
      <trkpt lat="48.68288" lon="1.94259">
        <ele>94.48</ele>
        <time>2020-01-11T09:04:15Z</time>
      </trkpt>
      <trkpt lat="48.68285" lon="1.94271">
        <ele>94.32</ele>
        <time>2020-01-11T09:04:20Z</time>
      </trkpt>
      <trkpt lat="48.68284" lon="1.9428">
        <ele>94.53</ele>
        <time>2020-01-11T09:04:25Z</time>
      </trkpt>
      <trkpt lat="48.68281" lon="1.94287">
        <ele>94.92</ele>
        <time>2020-01-11T09:04:30Z</time>
      </trkpt>
      <trkpt lat="48.68281" lon="1.9429">
        <ele>95.02</ele>
        <time>2020-01-11T09:04:35Z</time>
      </trkpt>
      <trkpt lat="48.68281" lon="1.94291">
        <ele>95.01</ele>
        <time>2020-01-11T09:04:40Z</time>
      </trkpt>
      <trkpt lat="48.68281" lon="1.9429">
        <ele>95.08</ele>
        <time>2020-01-11T09:04:45Z</time>
      </trkpt>
      <trkpt lat="48.6828" lon="1.94289">
        <ele>95.46</ele>
        <time>2020-01-11T09:04:50Z</time>
      </trkpt>
      <trkpt lat="48.68281" lon="1.94288">
        <ele>95.55</ele>
        <time>2020-01-11T09:04:55Z</time>
      </trkpt>
      <trkpt lat="48.68281" lon="1.94287">
        <ele>95.54</ele>
        <time>2020-01-11T09:05:00Z</time>
      </trkpt>
      <trkpt lat="48.68282" lon="1.94285">
        <ele>95.44</ele>
        <time>2020-01-11T09:05:05Z</time>
      </trkpt>
      <trkpt lat="48.68283" lon="1.94284">
        <ele>95.52</ele>
        <time>2020-01-11T09:05:10Z</time>
      </trkpt>
      <trkpt lat="48.68283" lon="1.94283">
        <ele>95.63</ele>
        <time>2020-01-11T09:05:15Z</time>
      </trkpt>
      <trkpt lat="48.68282" lon="1.94282">
        <ele>95.78</ele>
        <time>2020-01-11T09:05:20Z</time>
      </trkpt>
      <trkpt lat="48.68282" lon="1.94282">
        <ele>95.66</ele>
        <time>2020-01-11T09:05:25Z</time>
      </trkpt>
      <trkpt lat="48.68282" lon="1.94282">
        <ele>95.54</ele>
        <time>2020-01-11T09:05:30Z</time>
      </trkpt>
      <trkpt lat="48.68283" lon="1.94282">
        <ele>95.53</ele>
        <time>2020-01-11T09:05:35Z</time>
      </trkpt>
      <trkpt lat="48.68283" lon="1.94283">
        <ele>95.36</ele>
        <time>2020-01-11T09:05:40Z</time>
      </trkpt>
      <trkpt lat="48.68282" lon="1.94284">
        <ele>95.39</ele>
        <time>2020-01-11T09:05:45Z</time>
      </trkpt>
      <trkpt lat="48.6828" lon="1.94286">
        <ele>95.46</ele>
        <time>2020-01-11T09:05:50Z</time>
      </trkpt>
      <trkpt lat="48.6828" lon="1.94287">
        <ele>95.46</ele>
        <time>2020-01-11T09:05:55Z</time>
      </trkpt>
      <trkpt lat="48.68281" lon="1.94288">
        <ele>95.55</ele>
        <time>2020-01-11T09:06:00Z</time>
      </trkpt>
      <trkpt lat="48.68281" lon="1.94289">
        <ele>95.57</ele>
        <time>2020-01-11T09:06:05Z</time>
      </trkpt>
      <trkpt lat="48.68281" lon="1.94286">
        <ele>95.43</ele>
        <time>2020-01-11T09:06:10Z</time>
      </trkpt>
      <trkpt lat="48.68281" lon="1.94285">
        <ele>95.34</ele>
        <time>2020-01-11T09:06:15Z</time>
      </trkpt>
      <trkpt lat="48.68279" lon="1.94285">
        <ele>95.48</ele>
        <time>2020-01-11T09:06:20Z</time>
      </trkpt>
      <trkpt lat="48.68279" lon="1.94286">
        <ele>95.62</ele>
        <time>2020-01-11T09:06:25Z</time>
      </trkpt>
      <trkpt lat="48.68279" lon="1.94287">
        <ele>95.57</ele>
        <time>2020-01-11T09:06:30Z</time>
      </trkpt>
      <trkpt lat="48.68279" lon="1.94286">
        <ele>95.56</ele>
        <time>2020-01-11T09:06:35Z</time>
      </trkpt>
      <trkpt lat="48.68279" lon="1.94285">
        <ele>95.55</ele>
        <time>2020-01-11T09:06:40Z</time>
      </trkpt>
      <trkpt lat="48.68279" lon="1.94286">
        <ele>95.77</ele>
        <time>2020-01-11T09:06:45Z</time>
      </trkpt>
      <trkpt lat="48.68278" lon="1.9429">
        <ele>95.71</ele>
        <time>2020-01-11T09:06:50Z</time>
      </trkpt>
      <trkpt lat="48.68277" lon="1.94295">
        <ele>95.56</ele>
        <time>2020-01-11T09:06:55Z</time>
      </trkpt>
      <trkpt lat="48.68275" lon="1.94298">
        <ele>95.57</ele>
        <time>2020-01-11T09:07:00Z</time>
      </trkpt>
      <trkpt lat="48.68274" lon="1.94299">
        <ele>95.39</ele>
        <time>2020-01-11T09:07:05Z</time>
      </trkpt>
      <trkpt lat="48.68273" lon="1.943">
        <ele>95.56</ele>
        <time>2020-01-11T09:07:10Z</time>
      </trkpt>
      <trkpt lat="48.68272" lon="1.94302">
        <ele>95.76</ele>
        <time>2020-01-11T09:07:15Z</time>
      </trkpt>
      <trkpt lat="48.68272" lon="1.94303">
        <ele>95.8</ele>
        <time>2020-01-11T09:07:20Z</time>
      </trkpt>
      <trkpt lat="48.68271" lon="1.94304">
        <ele>95.79</ele>
        <time>2020-01-11T09:07:25Z</time>
      </trkpt>
      <trkpt lat="48.68271" lon="1.94305">
        <ele>95.91</ele>
        <time>2020-01-11T09:07:30Z</time>
      </trkpt>
      <trkpt lat="48.6827" lon="1.94305">
        <ele>95.98</ele>
        <time>2020-01-11T09:07:35Z</time>
      </trkpt>
      <trkpt lat="48.6827" lon="1.94305">
        <ele>95.96</ele>
        <time>2020-01-11T09:07:40Z</time>
      </trkpt>
      <trkpt lat="48.6827" lon="1.94303">
        <ele>95.85</ele>
        <time>2020-01-11T09:07:45Z</time>
      </trkpt>
      <trkpt lat="48.68271" lon="1.94302">
        <ele>95.86</ele>
        <time>2020-01-11T09:07:50Z</time>
      </trkpt>
      <trkpt lat="48.68272" lon="1.943">
        <ele>96.07</ele>
        <time>2020-01-11T09:07:55Z</time>
      </trkpt>
      <trkpt lat="48.68272" lon="1.943">
        <ele>96.18</ele>
        <time>2020-01-11T09:08:00Z</time>
      </trkpt>
      <trkpt lat="48.68272" lon="1.94301">
        <ele>96.31</ele>
        <time>2020-01-11T09:08:05Z</time>
      </trkpt>
      <trkpt lat="48.68271" lon="1.94302">
        <ele>96.46</ele>
        <time>2020-01-11T09:08:10Z</time>
      </trkpt>
      <trkpt lat="48.68271" lon="1.94302">
        <ele>96.51</ele>
        <time>2020-01-11T09:08:15Z</time>
      </trkpt>
      <trkpt lat="48.68271" lon="1.94303">
        <ele>96.54</ele>
        <time>2020-01-11T09:08:20Z</time>
      </trkpt>
      <trkpt lat="48.68269" lon="1.94304">
        <ele>96.5</ele>
        <time>2020-01-11T09:08:25Z</time>
      </trkpt>
      <trkpt lat="48.68269" lon="1.94303">
        <ele>96.67</ele>
        <time>2020-01-11T09:08:30Z</time>
      </trkpt>
      <trkpt lat="48.68268" lon="1.94303">
        <ele>96.78</ele>
        <time>2020-01-11T09:08:35Z</time>
      </trkpt>
      <trkpt lat="48.68267" lon="1.94303">
        <ele>96.88</ele>
        <time>2020-01-11T09:08:40Z</time>
      </trkpt>
      <trkpt lat="48.68267" lon="1.94302">
        <ele>96.96</ele>
        <time>2020-01-11T09:08:45Z</time>
      </trkpt>
      <trkpt lat="48.68266" lon="1.94303">
        <ele>97.06</ele>
        <time>2020-01-11T09:08:50Z</time>
      </trkpt>
      <trkpt lat="48.68266" lon="1.94303">
        <ele>97.31</ele>
        <time>2020-01-11T09:08:55Z</time>
      </trkpt>
      <trkpt lat="48.68267" lon="1.94304">
        <ele>97.47</ele>
        <time>2020-01-11T09:09:00Z</time>
      </trkpt>
      <trkpt lat="48.68268" lon="1.94304">
        <ele>97.65</ele>
        <time>2020-01-11T09:09:05Z</time>
      </trkpt>
      <trkpt lat="48.68269" lon="1.94302">
        <ele>97.68</ele>
        <time>2020-01-11T09:09:10Z</time>
      </trkpt>
      <trkpt lat="48.6827" lon="1.94302">
        <ele>97.58</ele>
        <time>2020-01-11T09:09:15Z</time>
      </trkpt>
      <trkpt lat="48.68269" lon="1.94301">
        <ele>97.69</ele>
        <time>2020-01-11T09:09:20Z</time>
      </trkpt>
      <trkpt lat="48.68268" lon="1.94302">
        <ele>97.88</ele>
        <time>2020-01-11T09:09:25Z</time>
      </trkpt>
      <trkpt lat="48.68268" lon="1.94302">
        <ele>97.87</ele>
        <time>2020-01-11T09:09:30Z</time>
      </trkpt>
      <trkpt lat="48.68269" lon="1.94303">
        <ele>97.8</ele>
        <time>2020-01-11T09:09:35Z</time>
      </trkpt>
      <trkpt lat="48.6827" lon="1.94305">
        <ele>97.87</ele>
        <time>2020-01-11T09:09:40Z</time>
      </trkpt>
      <trkpt lat="48.6827" lon="1.94305">
        <ele>98</ele>
        <time>2020-01-11T09:09:45Z</time>
      </trkpt>
      <trkpt lat="48.6827" lon="1.94305">
        <ele>98.11</ele>
        <time>2020-01-11T09:09:50Z</time>
      </trkpt>
      <trkpt lat="48.68271" lon="1.94305">
        <ele>98.28</ele>
        <time>2020-01-11T09:09:55Z</time>
      </trkpt>
      <trkpt lat="48.68272" lon="1.94305">
        <ele>98.3</ele>
        <time>2020-01-11T09:10:00Z</time>
      </trkpt>
      <trkpt lat="48.68272" lon="1.94305">
        <ele>98.37</ele>
        <time>2020-01-11T09:10:05Z</time>
      </trkpt>
      <trkpt lat="48.68272" lon="1.94305">
        <ele>98.45</ele>
        <time>2020-01-11T09:10:10Z</time>
      </trkpt>
      <trkpt lat="48.68272" lon="1.94305">
        <ele>98.56</ele>
        <time>2020-01-11T09:10:15Z</time>
      </trkpt>
      <trkpt lat="48.68272" lon="1.94305">
        <ele>98.62</ele>
        <time>2020-01-11T09:10:20Z</time>
      </trkpt>
      <trkpt lat="48.68272" lon="1.94304">
        <ele>98.67</ele>
        <time>2020-01-11T09:10:25Z</time>
      </trkpt>
      <trkpt lat="48.68272" lon="1.94304">
        <ele>98.89</ele>
        <time>2020-01-11T09:10:30Z</time>
      </trkpt>
      <trkpt lat="48.68273" lon="1.94304">
        <ele>98.98</ele>
        <time>2020-01-11T09:10:35Z</time>
      </trkpt>
      <trkpt lat="48.68273" lon="1.94304">
        <ele>98.92</ele>
        <time>2020-01-11T09:10:40Z</time>
      </trkpt>
      <trkpt lat="48.68273" lon="1.94304">
        <ele>99.04</ele>
        <time>2020-01-11T09:10:45Z</time>
      </trkpt>
      <trkpt lat="48.68273" lon="1.94305">
        <ele>99.23</ele>
        <time>2020-01-11T09:10:50Z</time>
      </trkpt>
      <trkpt lat="48.68274" lon="1.94305">
        <ele>99.15</ele>
        <time>2020-01-11T09:10:55Z</time>
      </trkpt>
      <trkpt lat="48.68272" lon="1.94307">
        <ele>99.25</ele>
        <time>2020-01-11T09:11:00Z</time>
      </trkpt>
      <trkpt lat="48.6827" lon="1.94308">
        <ele>99.33</ele>
        <time>2020-01-11T09:11:05Z</time>
      </trkpt>
      <trkpt lat="48.6827" lon="1.94308">
        <ele>99.53</ele>
        <time>2020-01-11T09:11:10Z</time>
      </trkpt>
      <trkpt lat="48.68271" lon="1.94309">
        <ele>99.64</ele>
        <time>2020-01-11T09:11:15Z</time>
      </trkpt>
      <trkpt lat="48.68273" lon="1.94308">
        <ele>99.67</ele>
        <time>2020-01-11T09:11:20Z</time>
      </trkpt>
      <trkpt lat="48.68273" lon="1.94308">
        <ele>99.78</ele>
        <time>2020-01-11T09:11:25Z</time>
      </trkpt>
      <trkpt lat="48.68273" lon="1.94307">
        <ele>99.88</ele>
        <time>2020-01-11T09:11:30Z</time>
      </trkpt>
      <trkpt lat="48.68274" lon="1.94308">
        <ele>99.98</ele>
        <time>2020-01-11T09:11:35Z</time>
      </trkpt>
      <trkpt lat="48.68274" lon="1.94308">
        <ele>100.1</ele>
        <time>2020-01-11T09:11:40Z</time>
      </trkpt>
      <trkpt lat="48.68275" lon="1.94307">
        <ele>100.27</ele>
        <time>2020-01-11T09:11:45Z</time>
      </trkpt>
      <trkpt lat="48.68274" lon="1.94307">
        <ele>100.28</ele>
        <time>2020-01-11T09:11:50Z</time>
      </trkpt>
      <trkpt lat="48.68274" lon="1.94308">
        <ele>100.32</ele>
        <time>2020-01-11T09:11:55Z</time>
      </trkpt>
      <trkpt lat="48.68275" lon="1.94308">
        <ele>100.44</ele>
        <time>2020-01-11T09:12:00Z</time>
      </trkpt>
      <trkpt lat="48.68275" lon="1.94307">
        <ele>100.54</ele>
        <time>2020-01-11T09:12:05Z</time>
      </trkpt>
      <trkpt lat="48.68275" lon="1.94307">
        <ele>100.64</ele>
        <time>2020-01-11T09:12:10Z</time>
      </trkpt>
      <trkpt lat="48.68275" lon="1.94306">
        <ele>100.71</ele>
        <time>2020-01-11T09:12:15Z</time>
      </trkpt>
      <trkpt lat="48.68275" lon="1.94305">
        <ele>100.75</ele>
        <time>2020-01-11T09:12:20Z</time>
      </trkpt>
      <trkpt lat="48.68275" lon="1.94306">
        <ele>100.79</ele>
        <time>2020-01-11T09:12:25Z</time>
      </trkpt>
      <trkpt lat="48.68275" lon="1.94306">
        <ele>100.71</ele>
        <time>2020-01-11T09:12:30Z</time>
      </trkpt>
      <trkpt lat="48.68275" lon="1.94306">
        <ele>100.65</ele>
        <time>2020-01-11T09:12:35Z</time>
      </trkpt>
      <trkpt lat="48.68275" lon="1.94307">
        <ele>100.74</ele>
        <time>2020-01-11T09:12:40Z</time>
      </trkpt>
      <trkpt lat="48.68275" lon="1.94307">
        <ele>100.95</ele>
        <time>2020-01-11T09:12:45Z</time>
      </trkpt>
      <trkpt lat="48.68275" lon="1.94308">
        <ele>100.84</ele>
        <time>2020-01-11T09:12:50Z</time>
      </trkpt>
      <trkpt lat="48.68275" lon="1.94309">
        <ele>100.99</ele>
        <time>2020-01-11T09:12:55Z</time>
      </trkpt>
      <trkpt lat="48.68275" lon="1.94309">
        <ele>101.11</ele>
        <time>2020-01-11T09:13:00Z</time>
      </trkpt>
      <trkpt lat="48.68275" lon="1.94309">
        <ele>101.13</ele>
        <time>2020-01-11T09:13:05Z</time>
      </trkpt>
      <trkpt lat="48.68275" lon="1.94308">
        <ele>101.38</ele>
        <time>2020-01-11T09:13:10Z</time>
      </trkpt>
      <trkpt lat="48.68274" lon="1.94309">
        <ele>101.58</ele>
        <time>2020-01-11T09:13:15Z</time>
      </trkpt>
      <trkpt lat="48.68274" lon="1.94308">
        <ele>101.53</ele>
        <time>2020-01-11T09:13:20Z</time>
      </trkpt>
      <trkpt lat="48.68274" lon="1.94309">
        <ele>101.75</ele>
        <time>2020-01-11T09:13:25Z</time>
      </trkpt>
      <trkpt lat="48.68274" lon="1.94309">
        <ele>101.59</ele>
        <time>2020-01-11T09:13:30Z</time>
      </trkpt>
      <trkpt lat="48.68274" lon="1.94309">
        <ele>101.51</ele>
        <time>2020-01-11T09:13:35Z</time>
      </trkpt>
      <trkpt lat="48.68273" lon="1.94309">
        <ele>101.65</ele>
        <time>2020-01-11T09:13:40Z</time>
      </trkpt>
      <trkpt lat="48.68273" lon="1.94309">
        <ele>101.93</ele>
        <time>2020-01-11T09:13:45Z</time>
      </trkpt>
      <trkpt lat="48.68273" lon="1.94309">
        <ele>101.9</ele>
        <time>2020-01-11T09:13:50Z</time>
      </trkpt>
      <trkpt lat="48.68274" lon="1.94309">
        <ele>102.11</ele>
        <time>2020-01-11T09:13:55Z</time>
      </trkpt>
      <trkpt lat="48.68273" lon="1.94308">
        <ele>102.36</ele>
        <time>2020-01-11T09:14:00Z</time>
      </trkpt>
      <trkpt lat="48.68274" lon="1.94308">
        <ele>102.51</ele>
        <time>2020-01-11T09:14:05Z</time>
      </trkpt>
      <trkpt lat="48.68274" lon="1.94309">
        <ele>102.64</ele>
        <time>2020-01-11T09:14:10Z</time>
      </trkpt>
      <trkpt lat="48.68274" lon="1.94309">
        <ele>102.51</ele>
        <time>2020-01-11T09:14:15Z</time>
      </trkpt>
      <trkpt lat="48.68274" lon="1.9431">
        <ele>102.46</ele>
        <time>2020-01-11T09:14:20Z</time>
      </trkpt>
      <trkpt lat="48.68274" lon="1.9431">
        <ele>102.59</ele>
        <time>2020-01-11T09:14:25Z</time>
      </trkpt>
      <trkpt lat="48.68273" lon="1.9431">
        <ele>102.52</ele>
        <time>2020-01-11T09:14:30Z</time>
      </trkpt>
      <trkpt lat="48.68273" lon="1.9431">
        <ele>102.46</ele>
        <time>2020-01-11T09:14:35Z</time>
      </trkpt>
      <trkpt lat="48.68273" lon="1.9431">
        <ele>102.76</ele>
        <time>2020-01-11T09:14:40Z</time>
      </trkpt>
      <trkpt lat="48.68273" lon="1.94311">
        <ele>102.87</ele>
        <time>2020-01-11T09:14:45Z</time>
      </trkpt>
      <trkpt lat="48.68272" lon="1.94311">
        <ele>102.9</ele>
        <time>2020-01-11T09:14:50Z</time>
      </trkpt>
      <trkpt lat="48.68272" lon="1.94312">
        <ele>102.96</ele>
        <time>2020-01-11T09:14:55Z</time>
      </trkpt>
      <trkpt lat="48.68272" lon="1.9431">
        <ele>103.09</ele>
        <time>2020-01-11T09:15:00Z</time>
      </trkpt>
      <trkpt lat="48.68272" lon="1.94309">
        <ele>103.21</ele>
        <time>2020-01-11T09:15:05Z</time>
      </trkpt>
      <trkpt lat="48.68272" lon="1.94309">
        <ele>103.31</ele>
        <time>2020-01-11T09:15:10Z</time>
      </trkpt>
      <trkpt lat="48.68272" lon="1.94307">
        <ele>103.47</ele>
        <time>2020-01-11T09:15:15Z</time>
      </trkpt>
      <trkpt lat="48.68273" lon="1.94307">
        <ele>103.51</ele>
        <time>2020-01-11T09:15:20Z</time>
      </trkpt>
      <trkpt lat="48.68273" lon="1.94306">
        <ele>103.54</ele>
        <time>2020-01-11T09:15:25Z</time>
      </trkpt>
      <trkpt lat="48.68273" lon="1.94305">
        <ele>103.61</ele>
        <time>2020-01-11T09:15:30Z</time>
      </trkpt>
      <trkpt lat="48.68272" lon="1.94306">
        <ele>103.64</ele>
        <time>2020-01-11T09:15:35Z</time>
      </trkpt>
      <trkpt lat="48.68273" lon="1.94306">
        <ele>103.83</ele>
        <time>2020-01-11T09:15:40Z</time>
      </trkpt>
      <trkpt lat="48.68273" lon="1.94306">
        <ele>103.98</ele>
        <time>2020-01-11T09:15:45Z</time>
      </trkpt>
      <trkpt lat="48.68273" lon="1.94305">
        <ele>104.02</ele>
        <time>2020-01-11T09:15:50Z</time>
      </trkpt>
      <trkpt lat="48.68273" lon="1.94305">
        <ele>104.09</ele>
        <time>2020-01-11T09:15:55Z</time>
      </trkpt>
      <trkpt lat="48.68272" lon="1.94308">
        <ele>104.15</ele>
        <time>2020-01-11T09:16:00Z</time>
      </trkpt>
      <trkpt lat="48.68271" lon="1.94309">
        <ele>104.14</ele>
        <time>2020-01-11T09:16:05Z</time>
      </trkpt>
      <trkpt lat="48.68272" lon="1.9431">
        <ele>104.13</ele>
        <time>2020-01-11T09:16:10Z</time>
      </trkpt>
      <trkpt lat="48.68272" lon="1.9431">
        <ele>104.13</ele>
        <time>2020-01-11T09:16:15Z</time>
      </trkpt>
      <trkpt lat="48.68272" lon="1.9431">
        <ele>104.24</ele>
        <time>2020-01-11T09:16:20Z</time>
      </trkpt>
      <trkpt lat="48.68272" lon="1.9431">
        <ele>104.31</ele>
        <time>2020-01-11T09:16:25Z</time>
      </trkpt>
      <trkpt lat="48.68271" lon="1.94309">
        <ele>104.41</ele>
        <time>2020-01-11T09:16:30Z</time>
      </trkpt>
      <trkpt lat="48.6827" lon="1.94309">
        <ele>104.52</ele>
        <time>2020-01-11T09:16:35Z</time>
      </trkpt>
      <trkpt lat="48.6827" lon="1.94309">
        <ele>104.65</ele>
        <time>2020-01-11T09:16:40Z</time>
      </trkpt>
      <trkpt lat="48.6827" lon="1.94309">
        <ele>104.76</ele>
        <time>2020-01-11T09:16:45Z</time>
      </trkpt>
      <trkpt lat="48.68269" lon="1.94309">
        <ele>104.84</ele>
        <time>2020-01-11T09:16:50Z</time>
      </trkpt>
      <trkpt lat="48.68269" lon="1.94309">
        <ele>104.77</ele>
        <time>2020-01-11T09:16:55Z</time>
      </trkpt>
      <trkpt lat="48.68269" lon="1.94309">
        <ele>104.77</ele>
        <time>2020-01-11T09:17:00Z</time>
      </trkpt>
      <trkpt lat="48.68268" lon="1.9431">
        <ele>104.74</ele>
        <time>2020-01-11T09:17:05Z</time>
      </trkpt>
      <trkpt lat="48.68268" lon="1.94309">
        <ele>104.66</ele>
        <time>2020-01-11T09:17:10Z</time>
      </trkpt>
      <trkpt lat="48.68268" lon="1.94308">
        <ele>104.76</ele>
        <time>2020-01-11T09:17:15Z</time>
      </trkpt>
      <trkpt lat="48.68268" lon="1.94307">
        <ele>104.78</ele>
        <time>2020-01-11T09:17:20Z</time>
      </trkpt>
      <trkpt lat="48.68267" lon="1.94307">
        <ele>104.77</ele>
        <time>2020-01-11T09:17:25Z</time>
      </trkpt>
      <trkpt lat="48.68267" lon="1.94306">
        <ele>104.79</ele>
        <time>2020-01-11T09:17:30Z</time>
      </trkpt>
      <trkpt lat="48.68266" lon="1.94306">
        <ele>104.82</ele>
        <time>2020-01-11T09:17:35Z</time>
      </trkpt>
      <trkpt lat="48.68266" lon="1.94307">
        <ele>104.79</ele>
        <time>2020-01-11T09:17:40Z</time>
      </trkpt>
      <trkpt lat="48.68266" lon="1.94308">
        <ele>104.78</ele>
        <time>2020-01-11T09:17:45Z</time>
      </trkpt>
      <trkpt lat="48.68266" lon="1.94308">
        <ele>104.9</ele>
        <time>2020-01-11T09:17:50Z</time>
      </trkpt>
      <trkpt lat="48.68265" lon="1.94308">
        <ele>105.09</ele>
        <time>2020-01-11T09:17:55Z</time>
      </trkpt>
      <trkpt lat="48.68265" lon="1.94309">
        <ele>105.09</ele>
        <time>2020-01-11T09:18:00Z</time>
      </trkpt>
      <trkpt lat="48.68266" lon="1.9431">
        <ele>105.38</ele>
        <time>2020-01-11T09:18:05Z</time>
      </trkpt>
      <trkpt lat="48.68266" lon="1.9431">
        <ele>105.57</ele>
        <time>2020-01-11T09:18:10Z</time>
      </trkpt>
      <trkpt lat="48.68266" lon="1.9431">
        <ele>105.56</ele>
        <time>2020-01-11T09:18:15Z</time>
      </trkpt>
      <trkpt lat="48.68267" lon="1.94311">
        <ele>105.47</ele>
        <time>2020-01-11T09:18:20Z</time>
      </trkpt>
      <trkpt lat="48.68267" lon="1.94311">
        <ele>105.6</ele>
        <time>2020-01-11T09:18:25Z</time>
      </trkpt>
      <trkpt lat="48.68268" lon="1.94311">
        <ele>105.71</ele>
        <time>2020-01-11T09:18:30Z</time>
      </trkpt>
      <trkpt lat="48.68269" lon="1.94311">
        <ele>105.67</ele>
        <time>2020-01-11T09:18:35Z</time>
      </trkpt>
      <trkpt lat="48.68271" lon="1.94311">
        <ele>105.56</ele>
        <time>2020-01-11T09:18:40Z</time>
      </trkpt>
      <trkpt lat="48.68272" lon="1.94311">
        <ele>105.73</ele>
        <time>2020-01-11T09:18:45Z</time>
      </trkpt>
      <trkpt lat="48.68274" lon="1.9431">
        <ele>105.72</ele>
        <time>2020-01-11T09:18:50Z</time>
      </trkpt>
      <trkpt lat="48.68275" lon="1.9431">
        <ele>105.74</ele>
        <time>2020-01-11T09:18:55Z</time>
      </trkpt>
      <trkpt lat="48.68276" lon="1.94308">
        <ele>105.92</ele>
        <time>2020-01-11T09:19:00Z</time>
      </trkpt>
      <trkpt lat="48.68276" lon="1.94307">
        <ele>105.9</ele>
        <time>2020-01-11T09:19:05Z</time>
      </trkpt>
      <trkpt lat="48.68276" lon="1.94307">
        <ele>105.9</ele>
        <time>2020-01-11T09:19:10Z</time>
      </trkpt>
      <trkpt lat="48.68276" lon="1.94307">
        <ele>105.65</ele>
        <time>2020-01-11T09:19:15Z</time>
      </trkpt>
      <trkpt lat="48.68276" lon="1.94307">
        <ele>105.69</ele>
        <time>2020-01-11T09:19:20Z</time>
      </trkpt>
      <trkpt lat="48.68276" lon="1.94307">
        <ele>105.66</ele>
        <time>2020-01-11T09:19:25Z</time>
      </trkpt>
      <trkpt lat="48.68275" lon="1.94306">
        <ele>105.75</ele>
        <time>2020-01-11T09:19:30Z</time>
      </trkpt>
      <trkpt lat="48.68275" lon="1.94306">
        <ele>106.08</ele>
        <time>2020-01-11T09:19:35Z</time>
      </trkpt>
      <trkpt lat="48.68274" lon="1.94306">
        <ele>106.19</ele>
        <time>2020-01-11T09:19:40Z</time>
      </trkpt>
      <trkpt lat="48.68273" lon="1.94305">
        <ele>106.29</ele>
        <time>2020-01-11T09:19:45Z</time>
      </trkpt>
      <trkpt lat="48.68273" lon="1.94305">
        <ele>106.37</ele>
        <time>2020-01-11T09:19:50Z</time>
      </trkpt>
      <trkpt lat="48.68272" lon="1.94305">
        <ele>106.5</ele>
        <time>2020-01-11T09:19:55Z</time>
      </trkpt>
      <trkpt lat="48.68271" lon="1.94307">
        <ele>106.57</ele>
        <time>2020-01-11T09:20:00Z</time>
      </trkpt>
      <trkpt lat="48.68271" lon="1.94308">
        <ele>106.52</ele>
        <time>2020-01-11T09:20:05Z</time>
      </trkpt>
      <trkpt lat="48.68271" lon="1.94309">
        <ele>106.61</ele>
        <time>2020-01-11T09:20:10Z</time>
      </trkpt>
      <trkpt lat="48.68272" lon="1.9431">
        <ele>106.69</ele>
        <time>2020-01-11T09:20:15Z</time>
      </trkpt>
      <trkpt lat="48.68271" lon="1.94311">
        <ele>106.68</ele>
        <time>2020-01-11T09:20:20Z</time>
      </trkpt>
      <trkpt lat="48.68271" lon="1.9431">
        <ele>106.75</ele>
        <time>2020-01-11T09:20:25Z</time>
      </trkpt>
      <trkpt lat="48.68271" lon="1.94311">
        <ele>106.76</ele>
        <time>2020-01-11T09:20:30Z</time>
      </trkpt>
      <trkpt lat="48.68272" lon="1.94312">
        <ele>106.88</ele>
        <time>2020-01-11T09:20:35Z</time>
      </trkpt>
      <trkpt lat="48.68272" lon="1.94312">
        <ele>106.9</ele>
        <time>2020-01-11T09:20:40Z</time>
      </trkpt>
      <trkpt lat="48.68272" lon="1.94313">
        <ele>106.86</ele>
        <time>2020-01-11T09:20:45Z</time>
      </trkpt>
      <trkpt lat="48.68272" lon="1.94314">
        <ele>106.73</ele>
        <time>2020-01-11T09:20:50Z</time>
      </trkpt>
      <trkpt lat="48.68272" lon="1.94315">
        <ele>106.81</ele>
        <time>2020-01-11T09:20:55Z</time>
      </trkpt>
      <trkpt lat="48.68272" lon="1.94316">
        <ele>106.92</ele>
        <time>2020-01-11T09:21:00Z</time>
      </trkpt>
      <trkpt lat="48.68271" lon="1.94316">
        <ele>106.9</ele>
        <time>2020-01-11T09:21:05Z</time>
      </trkpt>
      <trkpt lat="48.6827" lon="1.94316">
        <ele>106.92</ele>
        <time>2020-01-11T09:21:10Z</time>
      </trkpt>
      <trkpt lat="48.6827" lon="1.94316">
        <ele>106.89</ele>
        <time>2020-01-11T09:21:15Z</time>
      </trkpt>
      <trkpt lat="48.6827" lon="1.94316">
        <ele>106.88</ele>
        <time>2020-01-11T09:21:20Z</time>
      </trkpt>
      <trkpt lat="48.6827" lon="1.94315">
        <ele>106.93</ele>
        <time>2020-01-11T09:21:25Z</time>
      </trkpt>
      <trkpt lat="48.6827" lon="1.94315">
        <ele>106.99</ele>
        <time>2020-01-11T09:21:30Z</time>
      </trkpt>
      <trkpt lat="48.68271" lon="1.94314">
        <ele>106.95</ele>
        <time>2020-01-11T09:21:35Z</time>
      </trkpt>
      <trkpt lat="48.68271" lon="1.94314">
        <ele>107.02</ele>
        <time>2020-01-11T09:21:40Z</time>
      </trkpt>
      <trkpt lat="48.68271" lon="1.94313">
        <ele>107.02</ele>
        <time>2020-01-11T09:21:45Z</time>
      </trkpt>
      <trkpt lat="48.68271" lon="1.94312">
        <ele>107.06</ele>
        <time>2020-01-11T09:21:50Z</time>
      </trkpt>
      <trkpt lat="48.68271" lon="1.94312">
        <ele>107.15</ele>
        <time>2020-01-11T09:21:55Z</time>
      </trkpt>
      <trkpt lat="48.68271" lon="1.94312">
        <ele>107.18</ele>
        <time>2020-01-11T09:22:00Z</time>
      </trkpt>
      <trkpt lat="48.68272" lon="1.94311">
        <ele>107.22</ele>
        <time>2020-01-11T09:22:05Z</time>
      </trkpt>
      <trkpt lat="48.68272" lon="1.9431">
        <ele>107.2</ele>
        <time>2020-01-11T09:22:10Z</time>
      </trkpt>
      <trkpt lat="48.68273" lon="1.9431">
        <ele>107.19</ele>
        <time>2020-01-11T09:22:15Z</time>
      </trkpt>
      <trkpt lat="48.68273" lon="1.94308">
        <ele>107.19</ele>
        <time>2020-01-11T09:22:20Z</time>
      </trkpt>
      <trkpt lat="48.68274" lon="1.94308">
        <ele>107.24</ele>
        <time>2020-01-11T09:22:25Z</time>
      </trkpt>
      <trkpt lat="48.68275" lon="1.94309">
        <ele>107.31</ele>
        <time>2020-01-11T09:22:30Z</time>
      </trkpt>
      <trkpt lat="48.68275" lon="1.94309">
        <ele>107.2</ele>
        <time>2020-01-11T09:22:35Z</time>
      </trkpt>
      <trkpt lat="48.68275" lon="1.94309">
        <ele>107.05</ele>
        <time>2020-01-11T09:22:40Z</time>
      </trkpt>
      <trkpt lat="48.68275" lon="1.94309">
        <ele>107.16</ele>
        <time>2020-01-11T09:22:45Z</time>
      </trkpt>
      <trkpt lat="48.68275" lon="1.94309">
        <ele>107.12</ele>
        <time>2020-01-11T09:22:50Z</time>
      </trkpt>
      <trkpt lat="48.68275" lon="1.94309">
        <ele>107.34</ele>
        <time>2020-01-11T09:22:55Z</time>
      </trkpt>
      <trkpt lat="48.68274" lon="1.94309">
        <ele>107.51</ele>
        <time>2020-01-11T09:23:00Z</time>
      </trkpt>
      <trkpt lat="48.68273" lon="1.9431">
        <ele>107.55</ele>
        <time>2020-01-11T09:23:05Z</time>
      </trkpt>
      <trkpt lat="48.68272" lon="1.9431">
        <ele>107.62</ele>
        <time>2020-01-11T09:23:10Z</time>
      </trkpt>
      <trkpt lat="48.68271" lon="1.9431">
        <ele>107.7</ele>
        <time>2020-01-11T09:23:15Z</time>
      </trkpt>
      <trkpt lat="48.68271" lon="1.94311">
        <ele>107.61</ele>
        <time>2020-01-11T09:23:20Z</time>
      </trkpt>
      <trkpt lat="48.68271" lon="1.94311">
        <ele>107.66</ele>
        <time>2020-01-11T09:23:25Z</time>
      </trkpt>
      <trkpt lat="48.68271" lon="1.94311">
        <ele>107.66</ele>
        <time>2020-01-11T09:23:30Z</time>
      </trkpt>
      <trkpt lat="48.68272" lon="1.94311">
        <ele>107.75</ele>
        <time>2020-01-11T09:23:35Z</time>
      </trkpt>
      <trkpt lat="48.68272" lon="1.9431">
        <ele>107.83</ele>
        <time>2020-01-11T09:23:40Z</time>
      </trkpt>
      <trkpt lat="48.68273" lon="1.9431">
        <ele>107.84</ele>
        <time>2020-01-11T09:23:45Z</time>
      </trkpt>
      <trkpt lat="48.68273" lon="1.9431">
        <ele>107.89</ele>
        <time>2020-01-11T09:23:50Z</time>
      </trkpt>
      <trkpt lat="48.68273" lon="1.9431">
        <ele>108.14</ele>
        <time>2020-01-11T09:23:55Z</time>
      </trkpt>
      <trkpt lat="48.68272" lon="1.94311">
        <ele>107.99</ele>
        <time>2020-01-11T09:24:00Z</time>
      </trkpt>
      <trkpt lat="48.68273" lon="1.94312">
        <ele>108.09</ele>
        <time>2020-01-11T09:24:05Z</time>
      </trkpt>
      <trkpt lat="48.68274" lon="1.94313">
        <ele>108.04</ele>
        <time>2020-01-11T09:24:10Z</time>
      </trkpt>
      <trkpt lat="48.68274" lon="1.94313">
        <ele>107.96</ele>
        <time>2020-01-11T09:24:15Z</time>
      </trkpt>
      <trkpt lat="48.68273" lon="1.94313">
        <ele>107.95</ele>
        <time>2020-01-11T09:24:20Z</time>
      </trkpt>
      <trkpt lat="48.68273" lon="1.94314">
        <ele>108</ele>
        <time>2020-01-11T09:24:25Z</time>
      </trkpt>
      <trkpt lat="48.68272" lon="1.94314">
        <ele>108.01</ele>
        <time>2020-01-11T09:24:30Z</time>
      </trkpt>
      <trkpt lat="48.68273" lon="1.94313">
        <ele>108.04</ele>
        <time>2020-01-11T09:24:35Z</time>
      </trkpt>
      <trkpt lat="48.68274" lon="1.94312">
        <ele>108.02</ele>
        <time>2020-01-11T09:24:40Z</time>
      </trkpt>
      <trkpt lat="48.68275" lon="1.94314">
        <ele>108.18</ele>
        <time>2020-01-11T09:24:45Z</time>
      </trkpt>
      <trkpt lat="48.68275" lon="1.94313">
        <ele>108.38</ele>
        <time>2020-01-11T09:24:50Z</time>
      </trkpt>
      <trkpt lat="48.68274" lon="1.94315">
        <ele>108.54</ele>
        <time>2020-01-11T09:24:55Z</time>
      </trkpt>
      <trkpt lat="48.68274" lon="1.94317">
        <ele>108.76</ele>
        <time>2020-01-11T09:25:00Z</time>
      </trkpt>
      <trkpt lat="48.68273" lon="1.94316">
        <ele>109</ele>
        <time>2020-01-11T09:25:05Z</time>
      </trkpt>
      <trkpt lat="48.68272" lon="1.94318">
        <ele>108.95</ele>
        <time>2020-01-11T09:25:10Z</time>
      </trkpt>
      <trkpt lat="48.68271" lon="1.94319">
        <ele>108.88</ele>
        <time>2020-01-11T09:25:15Z</time>
      </trkpt>
      <trkpt lat="48.6827" lon="1.9432">
        <ele>108.8</ele>
        <time>2020-01-11T09:25:20Z</time>
      </trkpt>
      <trkpt lat="48.68269" lon="1.94322">
        <ele>108.8</ele>
        <time>2020-01-11T09:25:25Z</time>
      </trkpt>
      <trkpt lat="48.68269" lon="1.94326">
        <ele>108.76</ele>
        <time>2020-01-11T09:25:30Z</time>
      </trkpt>
      <trkpt lat="48.68265" lon="1.94333">
        <ele>108.51</ele>
        <time>2020-01-11T09:25:35Z</time>
      </trkpt>
      <trkpt lat="48.68262" lon="1.94339">
        <ele>108.59</ele>
        <time>2020-01-11T09:25:40Z</time>
      </trkpt>
      <trkpt lat="48.68262" lon="1.94344">
        <ele>108.61</ele>
        <time>2020-01-11T09:25:45Z</time>
      </trkpt>
      <trkpt lat="48.68262" lon="1.94349">
        <ele>108.73</ele>
        <time>2020-01-11T09:25:50Z</time>
      </trkpt>
      <trkpt lat="48.68261" lon="1.94358">
        <ele>108.73</ele>
        <time>2020-01-11T09:25:55Z</time>
      </trkpt>
      <trkpt lat="48.68258" lon="1.94364">
        <ele>108.76</ele>
        <time>2020-01-11T09:26:00Z</time>
      </trkpt>
      <trkpt lat="48.68256" lon="1.94369">
        <ele>108.79</ele>
        <time>2020-01-11T09:26:05Z</time>
      </trkpt>
      <trkpt lat="48.68255" lon="1.94374">
        <ele>108.67</ele>
        <time>2020-01-11T09:26:10Z</time>
      </trkpt>
      <trkpt lat="48.68252" lon="1.9438">
        <ele>108.54</ele>
        <time>2020-01-11T09:26:15Z</time>
      </trkpt>
      <trkpt lat="48.68249" lon="1.94386">
        <ele>108.58</ele>
        <time>2020-01-11T09:26:20Z</time>
      </trkpt>
      <trkpt lat="48.68246" lon="1.94393">
        <ele>108.73</ele>
        <time>2020-01-11T09:26:25Z</time>
      </trkpt>
      <trkpt lat="48.68244" lon="1.94398">
        <ele>108.94</ele>
        <time>2020-01-11T09:26:30Z</time>
      </trkpt>
      <trkpt lat="48.68242" lon="1.94407">
        <ele>109.15</ele>
        <time>2020-01-11T09:26:35Z</time>
      </trkpt>
      <trkpt lat="48.68239" lon="1.94418">
        <ele>108.87</ele>
        <time>2020-01-11T09:26:40Z</time>
      </trkpt>
      <trkpt lat="48.68236" lon="1.94424">
        <ele>108.73</ele>
        <time>2020-01-11T09:26:45Z</time>
      </trkpt>
      <trkpt lat="48.68232" lon="1.94432">
        <ele>109.18</ele>
        <time>2020-01-11T09:26:50Z</time>
      </trkpt>
      <trkpt lat="48.6823" lon="1.94442">
        <ele>109.42</ele>
        <time>2020-01-11T09:26:55Z</time>
      </trkpt>
      <trkpt lat="48.68227" lon="1.9445">
        <ele>109.49</ele>
        <time>2020-01-11T09:27:00Z</time>
      </trkpt>
      <trkpt lat="48.68222" lon="1.94454">
        <ele>109.34</ele>
        <time>2020-01-11T09:27:05Z</time>
      </trkpt>
      <trkpt lat="48.68217" lon="1.94455">
        <ele>108.98</ele>
        <time>2020-01-11T09:27:10Z</time>
      </trkpt>
      <trkpt lat="48.68212" lon="1.94459">
        <ele>108.63</ele>
        <time>2020-01-11T09:27:15Z</time>
      </trkpt>
      <trkpt lat="48.68207" lon="1.94463">
        <ele>108.33</ele>
        <time>2020-01-11T09:27:20Z</time>
      </trkpt>
      <trkpt lat="48.68202" lon="1.94464">
        <ele>108.27</ele>
        <time>2020-01-11T09:27:25Z</time>
      </trkpt>
      <trkpt lat="48.68197" lon="1.94466">
        <ele>108.33</ele>
        <time>2020-01-11T09:27:30Z</time>
      </trkpt>
      <trkpt lat="48.68193" lon="1.94467">
        <ele>108.15</ele>
        <time>2020-01-11T09:27:35Z</time>
      </trkpt>
      <trkpt lat="48.68188" lon="1.94468">
        <ele>107.75</ele>
        <time>2020-01-11T09:27:40Z</time>
      </trkpt>
      <trkpt lat="48.68183" lon="1.9447">
        <ele>107.4</ele>
        <time>2020-01-11T09:27:45Z</time>
      </trkpt>
      <trkpt lat="48.68179" lon="1.94471">
        <ele>107.64</ele>
        <time>2020-01-11T09:27:50Z</time>
      </trkpt>
      <trkpt lat="48.68175" lon="1.94475">
        <ele>107.83</ele>
        <time>2020-01-11T09:27:55Z</time>
      </trkpt>
      <trkpt lat="48.68171" lon="1.9448">
        <ele>107.97</ele>
        <time>2020-01-11T09:28:00Z</time>
      </trkpt>
      <trkpt lat="48.68167" lon="1.94485">
        <ele>107.86</ele>
        <time>2020-01-11T09:28:05Z</time>
      </trkpt>
      <trkpt lat="48.68162" lon="1.9449">
        <ele>107.72</ele>
        <time>2020-01-11T09:28:10Z</time>
      </trkpt>
      <trkpt lat="48.68158" lon="1.94497">
        <ele>107.73</ele>
        <time>2020-01-11T09:28:15Z</time>
      </trkpt>
      <trkpt lat="48.68155" lon="1.94504">
        <ele>107.63</ele>
        <time>2020-01-11T09:28:20Z</time>
      </trkpt>
      <trkpt lat="48.68151" lon="1.94513">
        <ele>107.38</ele>
        <time>2020-01-11T09:28:25Z</time>
      </trkpt>
      <trkpt lat="48.68148" lon="1.94519">
        <ele>107.46</ele>
        <time>2020-01-11T09:28:30Z</time>
      </trkpt>
      <trkpt lat="48.68146" lon="1.94524">
        <ele>107.84</ele>
        <time>2020-01-11T09:28:35Z</time>
      </trkpt>
      <trkpt lat="48.68144" lon="1.94531">
        <ele>108.25</ele>
        <time>2020-01-11T09:28:40Z</time>
      </trkpt>
      <trkpt lat="48.68144" lon="1.9454">
        <ele>108.33</ele>
        <time>2020-01-11T09:28:45Z</time>
      </trkpt>
      <trkpt lat="48.68142" lon="1.94547">
        <ele>108.42</ele>
        <time>2020-01-11T09:28:50Z</time>
      </trkpt>
      <trkpt lat="48.6814" lon="1.94558">
        <ele>108.48</ele>
        <time>2020-01-11T09:28:55Z</time>
      </trkpt>
      <trkpt lat="48.68136" lon="1.94563">
        <ele>108.45</ele>
        <time>2020-01-11T09:29:00Z</time>
      </trkpt>
      <trkpt lat="48.68135" lon="1.9457">
        <ele>108.62</ele>
        <time>2020-01-11T09:29:05Z</time>
      </trkpt>
      <trkpt lat="48.68136" lon="1.94581">
        <ele>108.85</ele>
        <time>2020-01-11T09:29:10Z</time>
      </trkpt>
      <trkpt lat="48.68135" lon="1.94592">
        <ele>109.04</ele>
        <time>2020-01-11T09:29:15Z</time>
      </trkpt>
      <trkpt lat="48.68136" lon="1.94602">
        <ele>109.37</ele>
        <time>2020-01-11T09:29:20Z</time>
      </trkpt>
      <trkpt lat="48.68136" lon="1.94609">
        <ele>109.64</ele>
        <time>2020-01-11T09:29:25Z</time>
      </trkpt>
      <trkpt lat="48.68135" lon="1.94615">
        <ele>110.02</ele>
        <time>2020-01-11T09:29:30Z</time>
      </trkpt>
      <trkpt lat="48.68134" lon="1.94624">
        <ele>110.87</ele>
        <time>2020-01-11T09:29:35Z</time>
      </trkpt>
      <trkpt lat="48.68136" lon="1.94634">
        <ele>111.31</ele>
        <time>2020-01-11T09:29:40Z</time>
      </trkpt>
      <trkpt lat="48.68136" lon="1.9464">
        <ele>111.55</ele>
        <time>2020-01-11T09:29:45Z</time>
      </trkpt>
      <trkpt lat="48.68137" lon="1.94648">
        <ele>111.82</ele>
        <time>2020-01-11T09:29:50Z</time>
      </trkpt>
      <trkpt lat="48.68138" lon="1.94657">
        <ele>112.1</ele>
        <time>2020-01-11T09:29:55Z</time>
      </trkpt>
      <trkpt lat="48.68141" lon="1.94666">
        <ele>112.64</ele>
        <time>2020-01-11T09:30:00Z</time>
      </trkpt>
      <trkpt lat="48.68144" lon="1.94674">
        <ele>113.05</ele>
        <time>2020-01-11T09:30:05Z</time>
      </trkpt>
      <trkpt lat="48.68146" lon="1.94683">
        <ele>113.27</ele>
        <time>2020-01-11T09:30:10Z</time>
      </trkpt>
      <trkpt lat="48.68148" lon="1.9469">
        <ele>113.56</ele>
        <time>2020-01-11T09:30:15Z</time>
      </trkpt>
      <trkpt lat="48.68148" lon="1.94699">
        <ele>113.95</ele>
        <time>2020-01-11T09:30:20Z</time>
      </trkpt>
      <trkpt lat="48.68143" lon="1.94708">
        <ele>114.12</ele>
        <time>2020-01-11T09:30:25Z</time>
      </trkpt>
      <trkpt lat="48.68138" lon="1.94718">
        <ele>114.05</ele>
        <time>2020-01-11T09:30:30Z</time>
      </trkpt>
      <trkpt lat="48.68135" lon="1.94723">
        <ele>113.87</ele>
        <time>2020-01-11T09:30:35Z</time>
      </trkpt>
      <trkpt lat="48.68131" lon="1.94733">
        <ele>113.62</ele>
        <time>2020-01-11T09:30:40Z</time>
      </trkpt>
      <trkpt lat="48.68127" lon="1.94742">
        <ele>113.14</ele>
        <time>2020-01-11T09:30:45Z</time>
      </trkpt>
      <trkpt lat="48.68126" lon="1.94749">
        <ele>112.73</ele>
        <time>2020-01-11T09:30:50Z</time>
      </trkpt>
      <trkpt lat="48.68124" lon="1.94754">
        <ele>112.48</ele>
        <time>2020-01-11T09:30:55Z</time>
      </trkpt>
      <trkpt lat="48.68123" lon="1.94762">
        <ele>112.31</ele>
        <time>2020-01-11T09:31:00Z</time>
      </trkpt>
      <trkpt lat="48.68121" lon="1.94769">
        <ele>111.66</ele>
        <time>2020-01-11T09:31:05Z</time>
      </trkpt>
      <trkpt lat="48.68117" lon="1.94777">
        <ele>110.43</ele>
        <time>2020-01-11T09:31:10Z</time>
      </trkpt>
      <trkpt lat="48.68114" lon="1.94784">
        <ele>109.76</ele>
        <time>2020-01-11T09:31:15Z</time>
      </trkpt>
      <trkpt lat="48.68112" lon="1.94792">
        <ele>109.15</ele>
        <time>2020-01-11T09:31:20Z</time>
      </trkpt>
      <trkpt lat="48.68112" lon="1.94797">
        <ele>108.76</ele>
        <time>2020-01-11T09:31:25Z</time>
      </trkpt>
      <trkpt lat="48.68111" lon="1.94802">
        <ele>108.49</ele>
        <time>2020-01-11T09:31:30Z</time>
      </trkpt>
      <trkpt lat="48.68107" lon="1.94805">
        <ele>107.84</ele>
        <time>2020-01-11T09:31:35Z</time>
      </trkpt>
      <trkpt lat="48.68107" lon="1.94809">
        <ele>107.35</ele>
        <time>2020-01-11T09:31:40Z</time>
      </trkpt>
      <trkpt lat="48.68105" lon="1.94815">
        <ele>106.91</ele>
        <time>2020-01-11T09:31:45Z</time>
      </trkpt>
      <trkpt lat="48.68103" lon="1.94821">
        <ele>106.66</ele>
        <time>2020-01-11T09:31:50Z</time>
      </trkpt>
      <trkpt lat="48.68098" lon="1.94826">
        <ele>106.6</ele>
        <time>2020-01-11T09:31:55Z</time>
      </trkpt>
      <trkpt lat="48.68098" lon="1.94829">
        <ele>106.92</ele>
        <time>2020-01-11T09:32:00Z</time>
      </trkpt>
      <trkpt lat="48.68096" lon="1.94835">
        <ele>107.13</ele>
        <time>2020-01-11T09:32:05Z</time>
      </trkpt>
      <trkpt lat="48.68092" lon="1.94842">
        <ele>106.79</ele>
        <time>2020-01-11T09:32:10Z</time>
      </trkpt>
      <trkpt lat="48.68089" lon="1.94849">
        <ele>106.48</ele>
        <time>2020-01-11T09:32:15Z</time>
      </trkpt>
      <trkpt lat="48.68089" lon="1.94857">
        <ele>106.27</ele>
        <time>2020-01-11T09:32:20Z</time>
      </trkpt>
      <trkpt lat="48.68089" lon="1.94863">
        <ele>106.29</ele>
        <time>2020-01-11T09:32:25Z</time>
      </trkpt>
      <trkpt lat="48.68085" lon="1.9487">
        <ele>106.49</ele>
        <time>2020-01-11T09:32:30Z</time>
      </trkpt>
      <trkpt lat="48.68085" lon="1.94877">
        <ele>106.56</ele>
        <time>2020-01-11T09:32:35Z</time>
      </trkpt>
      <trkpt lat="48.68084" lon="1.94888">
        <ele>106.64</ele>
        <time>2020-01-11T09:32:40Z</time>
      </trkpt>
      <trkpt lat="48.68084" lon="1.94898">
        <ele>106.83</ele>
        <time>2020-01-11T09:32:45Z</time>
      </trkpt>
      <trkpt lat="48.68086" lon="1.94906">
        <ele>107.15</ele>
        <time>2020-01-11T09:32:50Z</time>
      </trkpt>
      <trkpt lat="48.68085" lon="1.94916">
        <ele>107.27</ele>
        <time>2020-01-11T09:32:55Z</time>
      </trkpt>
      <trkpt lat="48.68083" lon="1.94925">
        <ele>107.32</ele>
        <time>2020-01-11T09:33:00Z</time>
      </trkpt>
      <trkpt lat="48.68082" lon="1.94931">
        <ele>107.46</ele>
        <time>2020-01-11T09:33:05Z</time>
      </trkpt>
      <trkpt lat="48.68081" lon="1.94939">
        <ele>107.43</ele>
        <time>2020-01-11T09:33:10Z</time>
      </trkpt>
      <trkpt lat="48.6808" lon="1.94947">
        <ele>107.23</ele>
        <time>2020-01-11T09:33:15Z</time>
      </trkpt>
      <trkpt lat="48.68079" lon="1.94954">
        <ele>107.09</ele>
        <time>2020-01-11T09:33:20Z</time>
      </trkpt>
      <trkpt lat="48.68077" lon="1.94959">
        <ele>107.06</ele>
        <time>2020-01-11T09:33:25Z</time>
      </trkpt>
      <trkpt lat="48.68075" lon="1.94963">
        <ele>107.03</ele>
        <time>2020-01-11T09:33:30Z</time>
      </trkpt>
      <trkpt lat="48.68072" lon="1.94968">
        <ele>106.83</ele>
        <time>2020-01-11T09:33:35Z</time>
      </trkpt>
      <trkpt lat="48.68068" lon="1.94972">
        <ele>106.61</ele>
        <time>2020-01-11T09:33:40Z</time>
      </trkpt>
      <trkpt lat="48.68065" lon="1.94975">
        <ele>106.04</ele>
        <time>2020-01-11T09:33:45Z</time>
      </trkpt>
      <trkpt lat="48.6806" lon="1.94978">
        <ele>106.04</ele>
        <time>2020-01-11T09:33:50Z</time>
      </trkpt>
      <trkpt lat="48.68054" lon="1.9498">
        <ele>105.99</ele>
        <time>2020-01-11T09:33:55Z</time>
      </trkpt>
      <trkpt lat="48.68048" lon="1.94985">
        <ele>105.81</ele>
        <time>2020-01-11T09:34:00Z</time>
      </trkpt>
      <trkpt lat="48.68043" lon="1.94989">
        <ele>105.87</ele>
        <time>2020-01-11T09:34:05Z</time>
      </trkpt>
      <trkpt lat="48.68039" lon="1.94994">
        <ele>106.44</ele>
        <time>2020-01-11T09:34:10Z</time>
      </trkpt>
      <trkpt lat="48.68033" lon="1.94999">
        <ele>107.01</ele>
        <time>2020-01-11T09:34:15Z</time>
      </trkpt>
      <trkpt lat="48.68029" lon="1.95003">
        <ele>107.06</ele>
        <time>2020-01-11T09:34:20Z</time>
      </trkpt>
      <trkpt lat="48.68024" lon="1.95008">
        <ele>106.59</ele>
        <time>2020-01-11T09:34:25Z</time>
      </trkpt>
      <trkpt lat="48.68021" lon="1.95011">
        <ele>106.36</ele>
        <time>2020-01-11T09:34:30Z</time>
      </trkpt>
      <trkpt lat="48.68017" lon="1.95015">
        <ele>106.77</ele>
        <time>2020-01-11T09:34:35Z</time>
      </trkpt>
      <trkpt lat="48.68011" lon="1.95023">
        <ele>107.2</ele>
        <time>2020-01-11T09:34:40Z</time>
      </trkpt>
      <trkpt lat="48.68006" lon="1.95027">
        <ele>107.46</ele>
        <time>2020-01-11T09:34:45Z</time>
      </trkpt>
      <trkpt lat="48.68004" lon="1.95034">
        <ele>107.58</ele>
        <time>2020-01-11T09:34:50Z</time>
      </trkpt>
      <trkpt lat="48.68001" lon="1.95038">
        <ele>107.54</ele>
        <time>2020-01-11T09:34:55Z</time>
      </trkpt>
      <trkpt lat="48.67997" lon="1.95042">
        <ele>107.37</ele>
        <time>2020-01-11T09:35:00Z</time>
      </trkpt>
      <trkpt lat="48.67992" lon="1.95047">
        <ele>106.93</ele>
        <time>2020-01-11T09:35:05Z</time>
      </trkpt>
      <trkpt lat="48.67989" lon="1.95054">
        <ele>106.52</ele>
        <time>2020-01-11T09:35:10Z</time>
      </trkpt>
      <trkpt lat="48.67985" lon="1.95064">
        <ele>106.05</ele>
        <time>2020-01-11T09:35:15Z</time>
      </trkpt>
      <trkpt lat="48.67984" lon="1.95069">
        <ele>105.81</ele>
        <time>2020-01-11T09:35:20Z</time>
      </trkpt>
      <trkpt lat="48.67981" lon="1.9508">
        <ele>105.88</ele>
        <time>2020-01-11T09:35:25Z</time>
      </trkpt>
      <trkpt lat="48.67975" lon="1.95089">
        <ele>105.86</ele>
        <time>2020-01-11T09:35:30Z</time>
      </trkpt>
      <trkpt lat="48.67973" lon="1.95096">
        <ele>105.78</ele>
        <time>2020-01-11T09:35:35Z</time>
      </trkpt>
      <trkpt lat="48.67972" lon="1.95104">
        <ele>105.79</ele>
        <time>2020-01-11T09:35:40Z</time>
      </trkpt>
      <trkpt lat="48.67971" lon="1.9511">
        <ele>105.78</ele>
        <time>2020-01-11T09:35:45Z</time>
      </trkpt>
      <trkpt lat="48.67969" lon="1.95118">
        <ele>105.82</ele>
        <time>2020-01-11T09:35:50Z</time>
      </trkpt>
      <trkpt lat="48.67966" lon="1.95125">
        <ele>105.64</ele>
        <time>2020-01-11T09:35:55Z</time>
      </trkpt>
      <trkpt lat="48.67965" lon="1.95134">
        <ele>105.58</ele>
        <time>2020-01-11T09:36:00Z</time>
      </trkpt>
      <trkpt lat="48.67965" lon="1.95141">
        <ele>105.37</ele>
        <time>2020-01-11T09:36:05Z</time>
      </trkpt>
      <trkpt lat="48.67961" lon="1.95149">
        <ele>105.08</ele>
        <time>2020-01-11T09:36:10Z</time>
      </trkpt>
      <trkpt lat="48.67959" lon="1.95155">
        <ele>104.82</ele>
        <time>2020-01-11T09:36:15Z</time>
      </trkpt>
      <trkpt lat="48.67959" lon="1.95163">
        <ele>104.73</ele>
        <time>2020-01-11T09:36:20Z</time>
      </trkpt>
      <trkpt lat="48.67956" lon="1.95175">
        <ele>104.86</ele>
        <time>2020-01-11T09:36:25Z</time>
      </trkpt>
      <trkpt lat="48.67956" lon="1.95182">
        <ele>104.96</ele>
        <time>2020-01-11T09:36:30Z</time>
      </trkpt>
      <trkpt lat="48.67955" lon="1.95191">
        <ele>105.08</ele>
        <time>2020-01-11T09:36:35Z</time>
      </trkpt>
      <trkpt lat="48.67953" lon="1.95201">
        <ele>105.01</ele>
        <time>2020-01-11T09:36:40Z</time>
      </trkpt>
      <trkpt lat="48.67951" lon="1.95208">
        <ele>104.68</ele>
        <time>2020-01-11T09:36:45Z</time>
      </trkpt>
      <trkpt lat="48.67951" lon="1.95213">
        <ele>104.38</ele>
        <time>2020-01-11T09:36:50Z</time>
      </trkpt>
      <trkpt lat="48.67952" lon="1.95218">
        <ele>104.37</ele>
        <time>2020-01-11T09:36:55Z</time>
      </trkpt>
      <trkpt lat="48.67953" lon="1.95225">
        <ele>104.27</ele>
        <time>2020-01-11T09:37:00Z</time>
      </trkpt>
      <trkpt lat="48.67951" lon="1.95235">
        <ele>104.2</ele>
        <time>2020-01-11T09:37:05Z</time>
      </trkpt>
      <trkpt lat="48.67951" lon="1.95244">
        <ele>104.19</ele>
        <time>2020-01-11T09:37:10Z</time>
      </trkpt>
      <trkpt lat="48.6795" lon="1.95253">
        <ele>104.15</ele>
        <time>2020-01-11T09:37:15Z</time>
      </trkpt>
      <trkpt lat="48.67948" lon="1.95265">
        <ele>104.22</ele>
        <time>2020-01-11T09:37:20Z</time>
      </trkpt>
      <trkpt lat="48.67944" lon="1.9528">
        <ele>104.35</ele>
        <time>2020-01-11T09:37:25Z</time>
      </trkpt>
      <trkpt lat="48.67941" lon="1.95289">
        <ele>104.37</ele>
        <time>2020-01-11T09:37:30Z</time>
      </trkpt>
      <trkpt lat="48.67937" lon="1.95296">
        <ele>104.41</ele>
        <time>2020-01-11T09:37:35Z</time>
      </trkpt>
      <trkpt lat="48.67934" lon="1.95301">
        <ele>104.41</ele>
        <time>2020-01-11T09:37:40Z</time>
      </trkpt>
      <trkpt lat="48.67929" lon="1.95306">
        <ele>104.41</ele>
        <time>2020-01-11T09:37:45Z</time>
      </trkpt>
      <trkpt lat="48.67925" lon="1.95314">
        <ele>104.56</ele>
        <time>2020-01-11T09:37:50Z</time>
      </trkpt>
      <trkpt lat="48.67923" lon="1.95319">
        <ele>104.72</ele>
        <time>2020-01-11T09:37:55Z</time>
      </trkpt>
      <trkpt lat="48.67918" lon="1.95329">
        <ele>105.25</ele>
        <time>2020-01-11T09:38:00Z</time>
      </trkpt>
      <trkpt lat="48.67914" lon="1.95333">
        <ele>105.69</ele>
        <time>2020-01-11T09:38:05Z</time>
      </trkpt>
      <trkpt lat="48.6791" lon="1.95337">
        <ele>106.01</ele>
        <time>2020-01-11T09:38:10Z</time>
      </trkpt>
      <trkpt lat="48.67907" lon="1.95342">
        <ele>105.96</ele>
        <time>2020-01-11T09:38:15Z</time>
      </trkpt>
      <trkpt lat="48.67903" lon="1.95349">
        <ele>105.79</ele>
        <time>2020-01-11T09:38:20Z</time>
      </trkpt>
      <trkpt lat="48.67899" lon="1.95357">
        <ele>105.74</ele>
        <time>2020-01-11T09:38:25Z</time>
      </trkpt>
      <trkpt lat="48.67896" lon="1.95364">
        <ele>105.67</ele>
        <time>2020-01-11T09:38:30Z</time>
      </trkpt>
      <trkpt lat="48.67892" lon="1.95371">
        <ele>105.5</ele>
        <time>2020-01-11T09:38:35Z</time>
      </trkpt>
      <trkpt lat="48.67889" lon="1.95378">
        <ele>105.16</ele>
        <time>2020-01-11T09:38:40Z</time>
      </trkpt>
      <trkpt lat="48.67886" lon="1.95385">
        <ele>104.87</ele>
        <time>2020-01-11T09:38:45Z</time>
      </trkpt>
      <trkpt lat="48.67884" lon="1.95393">
        <ele>104.83</ele>
        <time>2020-01-11T09:38:50Z</time>
      </trkpt>
      <trkpt lat="48.67882" lon="1.95402">
        <ele>104.64</ele>
        <time>2020-01-11T09:38:55Z</time>
      </trkpt>
      <trkpt lat="48.6788" lon="1.95411">
        <ele>104.45</ele>
        <time>2020-01-11T09:39:00Z</time>
      </trkpt>
      <trkpt lat="48.67878" lon="1.95418">
        <ele>104.39</ele>
        <time>2020-01-11T09:39:05Z</time>
      </trkpt>
      <trkpt lat="48.67877" lon="1.95423">
        <ele>104.31</ele>
        <time>2020-01-11T09:39:10Z</time>
      </trkpt>
      <trkpt lat="48.67876" lon="1.95429">
        <ele>104.24</ele>
        <time>2020-01-11T09:39:15Z</time>
      </trkpt>
      <trkpt lat="48.67875" lon="1.95438">
        <ele>104.11</ele>
        <time>2020-01-11T09:39:20Z</time>
      </trkpt>
      <trkpt lat="48.67873" lon="1.95449">
        <ele>104.01</ele>
        <time>2020-01-11T09:39:25Z</time>
      </trkpt>
      <trkpt lat="48.67873" lon="1.95458">
        <ele>103.99</ele>
        <time>2020-01-11T09:39:30Z</time>
      </trkpt>
      <trkpt lat="48.67874" lon="1.95466">
        <ele>103.89</ele>
        <time>2020-01-11T09:39:35Z</time>
      </trkpt>
      <trkpt lat="48.67871" lon="1.95479">
        <ele>103.75</ele>
        <time>2020-01-11T09:39:40Z</time>
      </trkpt>
      <trkpt lat="48.67871" lon="1.9549">
        <ele>103.48</ele>
        <time>2020-01-11T09:39:45Z</time>
      </trkpt>
      <trkpt lat="48.67871" lon="1.95503">
        <ele>103.37</ele>
        <time>2020-01-11T09:39:50Z</time>
      </trkpt>
      <trkpt lat="48.67871" lon="1.95509">
        <ele>103.38</ele>
        <time>2020-01-11T09:39:55Z</time>
      </trkpt>
      <trkpt lat="48.67869" lon="1.95519">
        <ele>103.09</ele>
        <time>2020-01-11T09:40:00Z</time>
      </trkpt>
      <trkpt lat="48.67868" lon="1.95526">
        <ele>102.71</ele>
        <time>2020-01-11T09:40:05Z</time>
      </trkpt>
      <trkpt lat="48.67867" lon="1.95533">
        <ele>102.61</ele>
        <time>2020-01-11T09:40:10Z</time>
      </trkpt>
      <trkpt lat="48.67868" lon="1.95541">
        <ele>102.53</ele>
        <time>2020-01-11T09:40:15Z</time>
      </trkpt>
      <trkpt lat="48.67866" lon="1.95551">
        <ele>102.22</ele>
        <time>2020-01-11T09:40:20Z</time>
      </trkpt>
      <trkpt lat="48.67865" lon="1.95559">
        <ele>101.99</ele>
        <time>2020-01-11T09:40:25Z</time>
      </trkpt>
      <trkpt lat="48.67864" lon="1.95566">
        <ele>101.91</ele>
        <time>2020-01-11T09:40:30Z</time>
      </trkpt>
      <trkpt lat="48.67863" lon="1.95572">
        <ele>101.81</ele>
        <time>2020-01-11T09:40:35Z</time>
      </trkpt>
      <trkpt lat="48.67862" lon="1.95583">
        <ele>101.7</ele>
        <time>2020-01-11T09:40:40Z</time>
      </trkpt>
      <trkpt lat="48.6786" lon="1.95594">
        <ele>101.61</ele>
        <time>2020-01-11T09:40:45Z</time>
      </trkpt>
      <trkpt lat="48.6786" lon="1.95603">
        <ele>101.76</ele>
        <time>2020-01-11T09:40:50Z</time>
      </trkpt>
      <trkpt lat="48.67858" lon="1.95614">
        <ele>101.91</ele>
        <time>2020-01-11T09:40:55Z</time>
      </trkpt>
      <trkpt lat="48.67857" lon="1.95622">
        <ele>102.04</ele>
        <time>2020-01-11T09:41:00Z</time>
      </trkpt>
      <trkpt lat="48.67854" lon="1.95629">
        <ele>102.05</ele>
        <time>2020-01-11T09:41:05Z</time>
      </trkpt>
      <trkpt lat="48.6785" lon="1.95634">
        <ele>101.75</ele>
        <time>2020-01-11T09:41:10Z</time>
      </trkpt>
      <trkpt lat="48.67847" lon="1.95641">
        <ele>101.6</ele>
        <time>2020-01-11T09:41:15Z</time>
      </trkpt>
      <trkpt lat="48.67844" lon="1.95652">
        <ele>101.57</ele>
        <time>2020-01-11T09:41:20Z</time>
      </trkpt>
      <trkpt lat="48.67841" lon="1.95658">
        <ele>101.5</ele>
        <time>2020-01-11T09:41:25Z</time>
      </trkpt>
      <trkpt lat="48.6784" lon="1.95664">
        <ele>101.87</ele>
        <time>2020-01-11T09:41:30Z</time>
      </trkpt>
      <trkpt lat="48.67837" lon="1.95668">
        <ele>102.37</ele>
        <time>2020-01-11T09:41:35Z</time>
      </trkpt>
      <trkpt lat="48.67834" lon="1.95675">
        <ele>102.74</ele>
        <time>2020-01-11T09:41:40Z</time>
      </trkpt>
      <trkpt lat="48.67832" lon="1.95683">
        <ele>103.01</ele>
        <time>2020-01-11T09:41:45Z</time>
      </trkpt>
      <trkpt lat="48.67828" lon="1.95687">
        <ele>103.04</ele>
        <time>2020-01-11T09:41:50Z</time>
      </trkpt>
      <trkpt lat="48.67824" lon="1.95692">
        <ele>102.61</ele>
        <time>2020-01-11T09:41:55Z</time>
      </trkpt>
      <trkpt lat="48.67821" lon="1.95697">
        <ele>102.01</ele>
        <time>2020-01-11T09:42:00Z</time>
      </trkpt>
      <trkpt lat="48.67816" lon="1.95703">
        <ele>101.67</ele>
        <time>2020-01-11T09:42:05Z</time>
      </trkpt>
      <trkpt lat="48.67812" lon="1.95708">
        <ele>101.39</ele>
        <time>2020-01-11T09:42:10Z</time>
      </trkpt>
      <trkpt lat="48.67809" lon="1.95714">
        <ele>101.42</ele>
        <time>2020-01-11T09:42:15Z</time>
      </trkpt>
      <trkpt lat="48.67807" lon="1.95721">
        <ele>101.73</ele>
        <time>2020-01-11T09:42:20Z</time>
      </trkpt>
      <trkpt lat="48.67805" lon="1.95728">
        <ele>102.3</ele>
        <time>2020-01-11T09:42:25Z</time>
      </trkpt>
      <trkpt lat="48.67804" lon="1.95737">
        <ele>102.62</ele>
        <time>2020-01-11T09:42:30Z</time>
      </trkpt>
      <trkpt lat="48.67798" lon="1.95743">
        <ele>102.81</ele>
        <time>2020-01-11T09:42:35Z</time>
      </trkpt>
      <trkpt lat="48.67793" lon="1.95751">
        <ele>102.88</ele>
        <time>2020-01-11T09:42:40Z</time>
      </trkpt>
      <trkpt lat="48.6779" lon="1.95758">
        <ele>103.29</ele>
        <time>2020-01-11T09:42:45Z</time>
      </trkpt>
      <trkpt lat="48.67786" lon="1.95762">
        <ele>103.98</ele>
        <time>2020-01-11T09:42:50Z</time>
      </trkpt>
      <trkpt lat="48.67783" lon="1.95765">
        <ele>104.45</ele>
        <time>2020-01-11T09:42:55Z</time>
      </trkpt>
      <trkpt lat="48.67779" lon="1.95771">
        <ele>104.13</ele>
        <time>2020-01-11T09:43:00Z</time>
      </trkpt>
      <trkpt lat="48.67776" lon="1.95776">
        <ele>103.52</ele>
        <time>2020-01-11T09:43:05Z</time>
      </trkpt>
      <trkpt lat="48.67773" lon="1.95783">
        <ele>103.17</ele>
        <time>2020-01-11T09:43:10Z</time>
      </trkpt>
      <trkpt lat="48.6777" lon="1.95788">
        <ele>102.95</ele>
        <time>2020-01-11T09:43:15Z</time>
      </trkpt>
      <trkpt lat="48.67767" lon="1.95791">
        <ele>102.41</ele>
        <time>2020-01-11T09:43:20Z</time>
      </trkpt>
      <trkpt lat="48.67764" lon="1.95796">
        <ele>101.92</ele>
        <time>2020-01-11T09:43:25Z</time>
      </trkpt>
      <trkpt lat="48.67761" lon="1.958">
        <ele>101.35</ele>
        <time>2020-01-11T09:43:30Z</time>
      </trkpt>
      <trkpt lat="48.6776" lon="1.95801">
        <ele>101.07</ele>
        <time>2020-01-11T09:43:35Z</time>
      </trkpt>
      <trkpt lat="48.67758" lon="1.95799">
        <ele>101.02</ele>
        <time>2020-01-11T09:43:40Z</time>
      </trkpt>
      <trkpt lat="48.67757" lon="1.95799">
        <ele>100.93</ele>
        <time>2020-01-11T09:43:45Z</time>
      </trkpt>
      <trkpt lat="48.67754" lon="1.958">
        <ele>100.89</ele>
        <time>2020-01-11T09:43:50Z</time>
      </trkpt>
      <trkpt lat="48.67751" lon="1.958">
        <ele>101</ele>
        <time>2020-01-11T09:43:55Z</time>
      </trkpt>
      <trkpt lat="48.6775" lon="1.95801">
        <ele>100.88</ele>
        <time>2020-01-11T09:44:00Z</time>
      </trkpt>
      <trkpt lat="48.67749" lon="1.95801">
        <ele>100.67</ele>
        <time>2020-01-11T09:44:05Z</time>
      </trkpt>
      <trkpt lat="48.67748" lon="1.95802">
        <ele>100.5</ele>
        <time>2020-01-11T09:44:10Z</time>
      </trkpt>
      <trkpt lat="48.67747" lon="1.95801">
        <ele>100.49</ele>
        <time>2020-01-11T09:44:15Z</time>
      </trkpt>
      <trkpt lat="48.67744" lon="1.95802">
        <ele>100.27</ele>
        <time>2020-01-11T09:44:20Z</time>
      </trkpt>
      <trkpt lat="48.67744" lon="1.95803">
        <ele>99.92</ele>
        <time>2020-01-11T09:44:25Z</time>
      </trkpt>
      <trkpt lat="48.67743" lon="1.95804">
        <ele>100.2</ele>
        <time>2020-01-11T09:44:30Z</time>
      </trkpt>
      <trkpt lat="48.67741" lon="1.95808">
        <ele>100.26</ele>
        <time>2020-01-11T09:44:35Z</time>
      </trkpt>
      <trkpt lat="48.67741" lon="1.95808">
        <ele>100.26</ele>
        <time>2020-01-11T09:44:40Z</time>
      </trkpt>
      <trkpt lat="48.67742" lon="1.95809">
        <ele>100.17</ele>
        <time>2020-01-11T09:44:45Z</time>
      </trkpt>
      <trkpt lat="48.67743" lon="1.95809">
        <ele>100.37</ele>
        <time>2020-01-11T09:44:50Z</time>
      </trkpt>
      <trkpt lat="48.67744" lon="1.95809">
        <ele>100.5</ele>
        <time>2020-01-11T09:44:55Z</time>
      </trkpt>
      <trkpt lat="48.67744" lon="1.9581">
        <ele>100.68</ele>
        <time>2020-01-11T09:45:00Z</time>
      </trkpt>
      <trkpt lat="48.67746" lon="1.95811">
        <ele>100.86</ele>
        <time>2020-01-11T09:45:05Z</time>
      </trkpt>
      <trkpt lat="48.67746" lon="1.9581">
        <ele>100.94</ele>
        <time>2020-01-11T09:45:10Z</time>
      </trkpt>
      <trkpt lat="48.67746" lon="1.95811">
        <ele>101.02</ele>
        <time>2020-01-11T09:45:15Z</time>
      </trkpt>
      <trkpt lat="48.67745" lon="1.95811">
        <ele>101.16</ele>
        <time>2020-01-11T09:45:20Z</time>
      </trkpt>
      <trkpt lat="48.67746" lon="1.95812">
        <ele>101.07</ele>
        <time>2020-01-11T09:45:25Z</time>
      </trkpt>
      <trkpt lat="48.67745" lon="1.95817">
        <ele>100.97</ele>
        <time>2020-01-11T09:45:30Z</time>
      </trkpt>
      <trkpt lat="48.67744" lon="1.9582">
        <ele>100.95</ele>
        <time>2020-01-11T09:45:35Z</time>
      </trkpt>
      <trkpt lat="48.67744" lon="1.95826">
        <ele>101</ele>
        <time>2020-01-11T09:45:40Z</time>
      </trkpt>
      <trkpt lat="48.67745" lon="1.9583">
        <ele>101.07</ele>
        <time>2020-01-11T09:45:45Z</time>
      </trkpt>
      <trkpt lat="48.67743" lon="1.95836">
        <ele>101.15</ele>
        <time>2020-01-11T09:45:50Z</time>
      </trkpt>
      <trkpt lat="48.67741" lon="1.9584">
        <ele>101.16</ele>
        <time>2020-01-11T09:45:55Z</time>
      </trkpt>
      <trkpt lat="48.67737" lon="1.95851">
        <ele>101.12</ele>
        <time>2020-01-11T09:46:00Z</time>
      </trkpt>
      <trkpt lat="48.67733" lon="1.95858">
        <ele>101.09</ele>
        <time>2020-01-11T09:46:05Z</time>
      </trkpt>
      <trkpt lat="48.67731" lon="1.95864">
        <ele>100.96</ele>
        <time>2020-01-11T09:46:10Z</time>
      </trkpt>
      <trkpt lat="48.67727" lon="1.9587">
        <ele>101.01</ele>
        <time>2020-01-11T09:46:15Z</time>
      </trkpt>
      <trkpt lat="48.67722" lon="1.9588">
        <ele>100.98</ele>
        <time>2020-01-11T09:46:20Z</time>
      </trkpt>
      <trkpt lat="48.6772" lon="1.95888">
        <ele>100.82</ele>
        <time>2020-01-11T09:46:25Z</time>
      </trkpt>
      <trkpt lat="48.67715" lon="1.95898">
        <ele>100.79</ele>
        <time>2020-01-11T09:46:30Z</time>
      </trkpt>
      <trkpt lat="48.67711" lon="1.95905">
        <ele>100.84</ele>
        <time>2020-01-11T09:46:35Z</time>
      </trkpt>
      <trkpt lat="48.67708" lon="1.95913">
        <ele>100.67</ele>
        <time>2020-01-11T09:46:40Z</time>
      </trkpt>
      <trkpt lat="48.67704" lon="1.95921">
        <ele>100.58</ele>
        <time>2020-01-11T09:46:45Z</time>
      </trkpt>
      <trkpt lat="48.67702" lon="1.95931">
        <ele>100.59</ele>
        <time>2020-01-11T09:46:50Z</time>
      </trkpt>
      <trkpt lat="48.67701" lon="1.95941">
        <ele>100.45</ele>
        <time>2020-01-11T09:46:55Z</time>
      </trkpt>
      <trkpt lat="48.67699" lon="1.95951">
        <ele>100.4</ele>
        <time>2020-01-11T09:47:00Z</time>
      </trkpt>
      <trkpt lat="48.67697" lon="1.95961">
        <ele>100.49</ele>
        <time>2020-01-11T09:47:05Z</time>
      </trkpt>
      <trkpt lat="48.67696" lon="1.95968">
        <ele>100.46</ele>
        <time>2020-01-11T09:47:10Z</time>
      </trkpt>
      <trkpt lat="48.67693" lon="1.95977">
        <ele>100.5</ele>
        <time>2020-01-11T09:47:15Z</time>
      </trkpt>
      <trkpt lat="48.67691" lon="1.95983">
        <ele>100.61</ele>
        <time>2020-01-11T09:47:20Z</time>
      </trkpt>
      <trkpt lat="48.67691" lon="1.95991">
        <ele>100.58</ele>
        <time>2020-01-11T09:47:25Z</time>
      </trkpt>
      <trkpt lat="48.6769" lon="1.96">
        <ele>100.52</ele>
        <time>2020-01-11T09:47:30Z</time>
      </trkpt>
      <trkpt lat="48.67691" lon="1.9601">
        <ele>100.49</ele>
        <time>2020-01-11T09:47:35Z</time>
      </trkpt>
      <trkpt lat="48.6769" lon="1.96018">
        <ele>100.35</ele>
        <time>2020-01-11T09:47:40Z</time>
      </trkpt>
      <trkpt lat="48.67688" lon="1.96025">
        <ele>100.23</ele>
        <time>2020-01-11T09:47:45Z</time>
      </trkpt>
      <trkpt lat="48.6769" lon="1.96033">
        <ele>100.14</ele>
        <time>2020-01-11T09:47:50Z</time>
      </trkpt>
      <trkpt lat="48.67688" lon="1.96044">
        <ele>100.18</ele>
        <time>2020-01-11T09:47:55Z</time>
      </trkpt>
      <trkpt lat="48.67688" lon="1.96058">
        <ele>100.33</ele>
        <time>2020-01-11T09:48:00Z</time>
      </trkpt>
      <trkpt lat="48.67691" lon="1.96066">
        <ele>100.31</ele>
        <time>2020-01-11T09:48:05Z</time>
      </trkpt>
      <trkpt lat="48.6769" lon="1.96076">
        <ele>100.32</ele>
        <time>2020-01-11T09:48:10Z</time>
      </trkpt>
      <trkpt lat="48.67691" lon="1.96086">
        <ele>100.22</ele>
        <time>2020-01-11T09:48:15Z</time>
      </trkpt>
      <trkpt lat="48.67692" lon="1.96094">
        <ele>100.16</ele>
        <time>2020-01-11T09:48:20Z</time>
      </trkpt>
      <trkpt lat="48.67693" lon="1.96103">
        <ele>100.13</ele>
        <time>2020-01-11T09:48:25Z</time>
      </trkpt>
      <trkpt lat="48.67695" lon="1.9611">
        <ele>100.03</ele>
        <time>2020-01-11T09:48:30Z</time>
      </trkpt>
      <trkpt lat="48.67694" lon="1.96117">
        <ele>100.09</ele>
        <time>2020-01-11T09:48:35Z</time>
      </trkpt>
      <trkpt lat="48.67691" lon="1.96123">
        <ele>100</ele>
        <time>2020-01-11T09:48:40Z</time>
      </trkpt>
      <trkpt lat="48.67687" lon="1.96142">
        <ele>99.97</ele>
        <time>2020-01-11T09:48:45Z</time>
      </trkpt>
      <trkpt lat="48.67682" lon="1.96155">
        <ele>99.97</ele>
        <time>2020-01-11T09:48:50Z</time>
      </trkpt>
      <trkpt lat="48.67684" lon="1.96161">
        <ele>99.95</ele>
        <time>2020-01-11T09:48:55Z</time>
      </trkpt>
      <trkpt lat="48.67683" lon="1.96167">
        <ele>99.99</ele>
        <time>2020-01-11T09:49:00Z</time>
      </trkpt>
      <trkpt lat="48.67683" lon="1.96172">
        <ele>100</ele>
        <time>2020-01-11T09:49:05Z</time>
      </trkpt>
      <trkpt lat="48.67683" lon="1.96176">
        <ele>100.04</ele>
        <time>2020-01-11T09:49:10Z</time>
      </trkpt>
      <trkpt lat="48.67684" lon="1.96176">
        <ele>100.15</ele>
        <time>2020-01-11T09:49:15Z</time>
      </trkpt>
      <trkpt lat="48.67686" lon="1.96174">
        <ele>100.14</ele>
        <time>2020-01-11T09:49:20Z</time>
      </trkpt>
      <trkpt lat="48.67687" lon="1.96174">
        <ele>99.97</ele>
        <time>2020-01-11T09:49:25Z</time>
      </trkpt>
      <trkpt lat="48.67688" lon="1.96177">
        <ele>99.92</ele>
        <time>2020-01-11T09:49:30Z</time>
      </trkpt>
      <trkpt lat="48.67688" lon="1.96179">
        <ele>99.78</ele>
        <time>2020-01-11T09:49:35Z</time>
      </trkpt>
      <trkpt lat="48.67689" lon="1.96182">
        <ele>99.52</ele>
        <time>2020-01-11T09:49:40Z</time>
      </trkpt>
      <trkpt lat="48.67688" lon="1.96181">
        <ele>99.4</ele>
        <time>2020-01-11T09:49:45Z</time>
      </trkpt>
      <trkpt lat="48.67688" lon="1.96181">
        <ele>99.32</ele>
        <time>2020-01-11T09:49:50Z</time>
      </trkpt>
      <trkpt lat="48.67688" lon="1.96183">
        <ele>99.26</ele>
        <time>2020-01-11T09:49:55Z</time>
      </trkpt>
      <trkpt lat="48.67693" lon="1.96187">
        <ele>99.12</ele>
        <time>2020-01-11T09:50:00Z</time>
      </trkpt>
      <trkpt lat="48.67694" lon="1.96188">
        <ele>98.98</ele>
        <time>2020-01-11T09:50:05Z</time>
      </trkpt>
      <trkpt lat="48.67693" lon="1.96189">
        <ele>98.9</ele>
        <time>2020-01-11T09:50:10Z</time>
      </trkpt>
      <trkpt lat="48.67692" lon="1.96187">
        <ele>98.79</ele>
        <time>2020-01-11T09:50:15Z</time>
      </trkpt>
      <trkpt lat="48.67692" lon="1.96184">
        <ele>98.7</ele>
        <time>2020-01-11T09:50:20Z</time>
      </trkpt>
      <trkpt lat="48.67694" lon="1.96182">
        <ele>98.48</ele>
        <time>2020-01-11T09:50:25Z</time>
      </trkpt>
      <trkpt lat="48.67692" lon="1.96177">
        <ele>98.49</ele>
        <time>2020-01-11T09:50:30Z</time>
      </trkpt>
      <trkpt lat="48.67694" lon="1.96174">
        <ele>98.49</ele>
        <time>2020-01-11T09:50:35Z</time>
      </trkpt>
      <trkpt lat="48.67697" lon="1.96173">
        <ele>98.35</ele>
        <time>2020-01-11T09:50:40Z</time>
      </trkpt>
      <trkpt lat="48.67698" lon="1.96173">
        <ele>98.32</ele>
        <time>2020-01-11T09:50:45Z</time>
      </trkpt>
      <trkpt lat="48.67698" lon="1.96173">
        <ele>98.2</ele>
        <time>2020-01-11T09:50:50Z</time>
      </trkpt>
      <trkpt lat="48.67698" lon="1.96172">
        <ele>98.15</ele>
        <time>2020-01-11T09:50:55Z</time>
      </trkpt>
      <trkpt lat="48.67697" lon="1.96171">
        <ele>98.05</ele>
        <time>2020-01-11T09:51:00Z</time>
      </trkpt>
      <trkpt lat="48.67695" lon="1.96171">
        <ele>97.94</ele>
        <time>2020-01-11T09:51:05Z</time>
      </trkpt>
      <trkpt lat="48.67691" lon="1.96168">
        <ele>98</ele>
        <time>2020-01-11T09:51:10Z</time>
      </trkpt>
      <trkpt lat="48.6769" lon="1.96168">
        <ele>98.1</ele>
        <time>2020-01-11T09:51:15Z</time>
      </trkpt>
      <trkpt lat="48.67689" lon="1.96169">
        <ele>98.17</ele>
        <time>2020-01-11T09:51:20Z</time>
      </trkpt>
      <trkpt lat="48.67689" lon="1.96168">
        <ele>98.18</ele>
        <time>2020-01-11T09:51:25Z</time>
      </trkpt>
      <trkpt lat="48.67689" lon="1.96167">
        <ele>98.12</ele>
        <time>2020-01-11T09:51:30Z</time>
      </trkpt>
      <trkpt lat="48.67691" lon="1.96166">
        <ele>98</ele>
        <time>2020-01-11T09:51:35Z</time>
      </trkpt>
      <trkpt lat="48.6769" lon="1.96165">
        <ele>97.94</ele>
        <time>2020-01-11T09:51:40Z</time>
      </trkpt>
      <trkpt lat="48.6769" lon="1.96164">
        <ele>97.91</ele>
        <time>2020-01-11T09:51:45Z</time>
      </trkpt>
      <trkpt lat="48.6769" lon="1.96163">
        <ele>97.88</ele>
        <time>2020-01-11T09:51:50Z</time>
      </trkpt>
      <trkpt lat="48.6769" lon="1.96165">
        <ele>97.97</ele>
        <time>2020-01-11T09:51:55Z</time>
      </trkpt>
      <trkpt lat="48.67692" lon="1.9617">
        <ele>98.01</ele>
        <time>2020-01-11T09:52:00Z</time>
      </trkpt>
      <trkpt lat="48.67692" lon="1.96175">
        <ele>98.03</ele>
        <time>2020-01-11T09:52:05Z</time>
      </trkpt>
      <trkpt lat="48.67692" lon="1.96179">
        <ele>97.76</ele>
        <time>2020-01-11T09:52:10Z</time>
      </trkpt>
      <trkpt lat="48.6769" lon="1.96184">
        <ele>97.36</ele>
        <time>2020-01-11T09:52:15Z</time>
      </trkpt>
      <trkpt lat="48.67686" lon="1.96188">
        <ele>96.84</ele>
        <time>2020-01-11T09:52:20Z</time>
      </trkpt>
      <trkpt lat="48.67682" lon="1.96193">
        <ele>96.39</ele>
        <time>2020-01-11T09:52:25Z</time>
      </trkpt>
      <trkpt lat="48.67678" lon="1.96199">
        <ele>96.04</ele>
        <time>2020-01-11T09:52:30Z</time>
      </trkpt>
      <trkpt lat="48.67673" lon="1.96204">
        <ele>95.62</ele>
        <time>2020-01-11T09:52:35Z</time>
      </trkpt>
      <trkpt lat="48.67669" lon="1.96211">
        <ele>95.46</ele>
        <time>2020-01-11T09:52:40Z</time>
      </trkpt>
      <trkpt lat="48.67667" lon="1.96218">
        <ele>94.9</ele>
        <time>2020-01-11T09:52:45Z</time>
      </trkpt>
      <trkpt lat="48.67665" lon="1.96225">
        <ele>94.62</ele>
        <time>2020-01-11T09:52:50Z</time>
      </trkpt>
      <trkpt lat="48.67665" lon="1.96237">
        <ele>94.43</ele>
        <time>2020-01-11T09:52:55Z</time>
      </trkpt>
      <trkpt lat="48.67663" lon="1.96245">
        <ele>94.38</ele>
        <time>2020-01-11T09:53:00Z</time>
      </trkpt>
      <trkpt lat="48.67664" lon="1.96253">
        <ele>94.21</ele>
        <time>2020-01-11T09:53:05Z</time>
      </trkpt>
      <trkpt lat="48.67664" lon="1.9626">
        <ele>94.06</ele>
        <time>2020-01-11T09:53:10Z</time>
      </trkpt>
      <trkpt lat="48.67668" lon="1.96269">
        <ele>94.16</ele>
        <time>2020-01-11T09:53:15Z</time>
      </trkpt>
      <trkpt lat="48.6767" lon="1.96279">
        <ele>94.2</ele>
        <time>2020-01-11T09:53:20Z</time>
      </trkpt>
      <trkpt lat="48.67672" lon="1.96287">
        <ele>94.22</ele>
        <time>2020-01-11T09:53:25Z</time>
      </trkpt>
      <trkpt lat="48.67674" lon="1.9629">
        <ele>94.16</ele>
        <time>2020-01-11T09:53:30Z</time>
      </trkpt>
      <trkpt lat="48.67678" lon="1.96295">
        <ele>94.37</ele>
        <time>2020-01-11T09:53:35Z</time>
      </trkpt>
      <trkpt lat="48.6768" lon="1.96298">
        <ele>94.5</ele>
        <time>2020-01-11T09:53:40Z</time>
      </trkpt>
      <trkpt lat="48.67684" lon="1.963">
        <ele>94.57</ele>
        <time>2020-01-11T09:53:45Z</time>
      </trkpt>
      <trkpt lat="48.6769" lon="1.96304">
        <ele>94.69</ele>
        <time>2020-01-11T09:53:50Z</time>
      </trkpt>
      <trkpt lat="48.67692" lon="1.96304">
        <ele>94.94</ele>
        <time>2020-01-11T09:53:55Z</time>
      </trkpt>
      <trkpt lat="48.67696" lon="1.96309">
        <ele>95.65</ele>
        <time>2020-01-11T09:54:00Z</time>
      </trkpt>
      <trkpt lat="48.67698" lon="1.96315">
        <ele>95.92</ele>
        <time>2020-01-11T09:54:05Z</time>
      </trkpt>
      <trkpt lat="48.67701" lon="1.96324">
        <ele>95.28</ele>
        <time>2020-01-11T09:54:10Z</time>
      </trkpt>
      <trkpt lat="48.67704" lon="1.96333">
        <ele>94.64</ele>
        <time>2020-01-11T09:54:15Z</time>
      </trkpt>
      <trkpt lat="48.67707" lon="1.9634">
        <ele>94.3</ele>
        <time>2020-01-11T09:54:20Z</time>
      </trkpt>
      <trkpt lat="48.67712" lon="1.96346">
        <ele>93.99</ele>
        <time>2020-01-11T09:54:25Z</time>
      </trkpt>
      <trkpt lat="48.67717" lon="1.96351">
        <ele>93.97</ele>
        <time>2020-01-11T09:54:30Z</time>
      </trkpt>
      <trkpt lat="48.67719" lon="1.96357">
        <ele>94.01</ele>
        <time>2020-01-11T09:54:35Z</time>
      </trkpt>
      <trkpt lat="48.67722" lon="1.96362">
        <ele>94.1</ele>
        <time>2020-01-11T09:54:40Z</time>
      </trkpt>
      <trkpt lat="48.67724" lon="1.96367">
        <ele>94.03</ele>
        <time>2020-01-11T09:54:45Z</time>
      </trkpt>
      <trkpt lat="48.67727" lon="1.96371">
        <ele>93.96</ele>
        <time>2020-01-11T09:54:50Z</time>
      </trkpt>
      <trkpt lat="48.67731" lon="1.96378">
        <ele>94</ele>
        <time>2020-01-11T09:54:55Z</time>
      </trkpt>
      <trkpt lat="48.67735" lon="1.96387">
        <ele>94.1</ele>
        <time>2020-01-11T09:55:00Z</time>
      </trkpt>
      <trkpt lat="48.67738" lon="1.96394">
        <ele>94.21</ele>
        <time>2020-01-11T09:55:05Z</time>
      </trkpt>
      <trkpt lat="48.67743" lon="1.96398">
        <ele>94.48</ele>
        <time>2020-01-11T09:55:10Z</time>
      </trkpt>
      <trkpt lat="48.67749" lon="1.964">
        <ele>94.65</ele>
        <time>2020-01-11T09:55:15Z</time>
      </trkpt>
      <trkpt lat="48.67753" lon="1.96402">
        <ele>94.38</ele>
        <time>2020-01-11T09:55:20Z</time>
      </trkpt>
      <trkpt lat="48.67754" lon="1.96407">
        <ele>94.13</ele>
        <time>2020-01-11T09:55:25Z</time>
      </trkpt>
      <trkpt lat="48.67754" lon="1.96409">
        <ele>94</ele>
        <time>2020-01-11T09:55:30Z</time>
      </trkpt>
      <trkpt lat="48.67754" lon="1.96417">
        <ele>94.07</ele>
        <time>2020-01-11T09:55:35Z</time>
      </trkpt>
      <trkpt lat="48.67754" lon="1.96424">
        <ele>94.06</ele>
        <time>2020-01-11T09:55:40Z</time>
      </trkpt>
      <trkpt lat="48.67754" lon="1.96426">
        <ele>94.2</ele>
        <time>2020-01-11T09:55:45Z</time>
      </trkpt>
      <trkpt lat="48.67754" lon="1.96426">
        <ele>94.27</ele>
        <time>2020-01-11T09:55:50Z</time>
      </trkpt>
      <trkpt lat="48.67754" lon="1.96426">
        <ele>94.16</ele>
        <time>2020-01-11T09:55:55Z</time>
      </trkpt>
      <trkpt lat="48.67755" lon="1.96426">
        <ele>94.2</ele>
        <time>2020-01-11T09:56:00Z</time>
      </trkpt>
      <trkpt lat="48.67757" lon="1.96424">
        <ele>94.19</ele>
        <time>2020-01-11T09:56:05Z</time>
      </trkpt>
      <trkpt lat="48.67758" lon="1.96421">
        <ele>94.08</ele>
        <time>2020-01-11T09:56:10Z</time>
      </trkpt>
      <trkpt lat="48.67758" lon="1.96419">
        <ele>94.14</ele>
        <time>2020-01-11T09:56:15Z</time>
      </trkpt>
      <trkpt lat="48.67758" lon="1.96419">
        <ele>94.22</ele>
        <time>2020-01-11T09:56:20Z</time>
      </trkpt>
      <trkpt lat="48.67756" lon="1.96418">
        <ele>94.32</ele>
        <time>2020-01-11T09:56:25Z</time>
      </trkpt>
      <trkpt lat="48.67756" lon="1.96419">
        <ele>94.37</ele>
        <time>2020-01-11T09:56:30Z</time>
      </trkpt>
      <trkpt lat="48.67756" lon="1.9642">
        <ele>94.43</ele>
        <time>2020-01-11T09:56:35Z</time>
      </trkpt>
      <trkpt lat="48.67757" lon="1.96422">
        <ele>94.49</ele>
        <time>2020-01-11T09:56:40Z</time>
      </trkpt>
      <trkpt lat="48.67758" lon="1.96422">
        <ele>94.33</ele>
        <time>2020-01-11T09:56:45Z</time>
      </trkpt>
      <trkpt lat="48.6776" lon="1.9642">
        <ele>94.3</ele>
        <time>2020-01-11T09:56:50Z</time>
      </trkpt>
      <trkpt lat="48.67762" lon="1.96418">
        <ele>94.19</ele>
        <time>2020-01-11T09:56:55Z</time>
      </trkpt>
      <trkpt lat="48.67762" lon="1.96416">
        <ele>94.2</ele>
        <time>2020-01-11T09:57:00Z</time>
      </trkpt>
      <trkpt lat="48.67763" lon="1.96415">
        <ele>94.34</ele>
        <time>2020-01-11T09:57:05Z</time>
      </trkpt>
      <trkpt lat="48.67762" lon="1.96416">
        <ele>94.6</ele>
        <time>2020-01-11T09:57:10Z</time>
      </trkpt>
      <trkpt lat="48.67761" lon="1.96418">
        <ele>94.66</ele>
        <time>2020-01-11T09:57:15Z</time>
      </trkpt>
      <trkpt lat="48.6776" lon="1.96418">
        <ele>94.79</ele>
        <time>2020-01-11T09:57:20Z</time>
      </trkpt>
      <trkpt lat="48.67759" lon="1.96418">
        <ele>94.93</ele>
        <time>2020-01-11T09:57:25Z</time>
      </trkpt>
      <trkpt lat="48.67759" lon="1.96417">
        <ele>95.04</ele>
        <time>2020-01-11T09:57:30Z</time>
      </trkpt>
      <trkpt lat="48.67758" lon="1.96416">
        <ele>95.08</ele>
        <time>2020-01-11T09:57:35Z</time>
      </trkpt>
      <trkpt lat="48.67759" lon="1.96413">
        <ele>95.11</ele>
        <time>2020-01-11T09:57:40Z</time>
      </trkpt>
      <trkpt lat="48.67762" lon="1.9641">
        <ele>94.65</ele>
        <time>2020-01-11T09:57:45Z</time>
      </trkpt>
      <trkpt lat="48.67768" lon="1.96412">
        <ele>93.74</ele>
        <time>2020-01-11T09:57:50Z</time>
      </trkpt>
      <trkpt lat="48.67772" lon="1.96416">
        <ele>93.29</ele>
        <time>2020-01-11T09:57:55Z</time>
      </trkpt>
      <trkpt lat="48.67776" lon="1.96422">
        <ele>93</ele>
        <time>2020-01-11T09:58:00Z</time>
      </trkpt>
      <trkpt lat="48.67778" lon="1.96429">
        <ele>92.6</ele>
        <time>2020-01-11T09:58:05Z</time>
      </trkpt>
      <trkpt lat="48.67782" lon="1.96436">
        <ele>92.42</ele>
        <time>2020-01-11T09:58:10Z</time>
      </trkpt>
      <trkpt lat="48.67784" lon="1.96442">
        <ele>92.14</ele>
        <time>2020-01-11T09:58:15Z</time>
      </trkpt>
      <trkpt lat="48.67787" lon="1.96451">
        <ele>91.86</ele>
        <time>2020-01-11T09:58:20Z</time>
      </trkpt>
      <trkpt lat="48.6779" lon="1.96456">
        <ele>91.6</ele>
        <time>2020-01-11T09:58:25Z</time>
      </trkpt>
      <trkpt lat="48.67794" lon="1.96462">
        <ele>91.68</ele>
        <time>2020-01-11T09:58:30Z</time>
      </trkpt>
      <trkpt lat="48.67797" lon="1.96465">
        <ele>92.01</ele>
        <time>2020-01-11T09:58:35Z</time>
      </trkpt>
      <trkpt lat="48.67798" lon="1.96468">
        <ele>92.34</ele>
        <time>2020-01-11T09:58:40Z</time>
      </trkpt>
      <trkpt lat="48.67803" lon="1.9647">
        <ele>92.49</ele>
        <time>2020-01-11T09:58:45Z</time>
      </trkpt>
      <trkpt lat="48.67807" lon="1.96476">
        <ele>92.1</ele>
        <time>2020-01-11T09:58:50Z</time>
      </trkpt>
      <trkpt lat="48.67811" lon="1.96479">
        <ele>91.67</ele>
        <time>2020-01-11T09:58:55Z</time>
      </trkpt>
      <trkpt lat="48.67815" lon="1.9648">
        <ele>91.26</ele>
        <time>2020-01-11T09:59:00Z</time>
      </trkpt>
      <trkpt lat="48.67821" lon="1.96479">
        <ele>91.14</ele>
        <time>2020-01-11T09:59:05Z</time>
      </trkpt>
      <trkpt lat="48.67826" lon="1.96479">
        <ele>90.95</ele>
        <time>2020-01-11T09:59:10Z</time>
      </trkpt>
      <trkpt lat="48.67826" lon="1.96479">
        <ele>91.07</ele>
        <time>2020-01-11T09:59:15Z</time>
      </trkpt>
      <trkpt lat="48.67824" lon="1.96481">
        <ele>91.11</ele>
        <time>2020-01-11T09:59:20Z</time>
      </trkpt>
      <trkpt lat="48.67824" lon="1.96481">
        <ele>91.21</ele>
        <time>2020-01-11T09:59:25Z</time>
      </trkpt>
      <trkpt lat="48.67824" lon="1.96482">
        <ele>91.27</ele>
        <time>2020-01-11T09:59:30Z</time>
      </trkpt>
      <trkpt lat="48.67825" lon="1.96484">
        <ele>91.35</ele>
        <time>2020-01-11T09:59:35Z</time>
      </trkpt>
      <trkpt lat="48.67824" lon="1.96487">
        <ele>91.39</ele>
        <time>2020-01-11T09:59:40Z</time>
      </trkpt>
      <trkpt lat="48.67826" lon="1.96491">
        <ele>91.28</ele>
        <time>2020-01-11T09:59:45Z</time>
      </trkpt>
      <trkpt lat="48.67826" lon="1.96492">
        <ele>91.28</ele>
        <time>2020-01-11T09:59:50Z</time>
      </trkpt>
      <trkpt lat="48.67826" lon="1.96493">
        <ele>91.23</ele>
        <time>2020-01-11T09:59:55Z</time>
      </trkpt>
      <trkpt lat="48.67826" lon="1.96494">
        <ele>91.25</ele>
        <time>2020-01-11T10:00:00Z</time>
      </trkpt>
      <trkpt lat="48.67826" lon="1.96495">
        <ele>91.41</ele>
        <time>2020-01-11T10:00:05Z</time>
      </trkpt>
      <trkpt lat="48.67824" lon="1.96497">
        <ele>91.27</ele>
        <time>2020-01-11T10:00:10Z</time>
      </trkpt>
      <trkpt lat="48.67823" lon="1.96496">
        <ele>91.25</ele>
        <time>2020-01-11T10:00:15Z</time>
      </trkpt>
      <trkpt lat="48.67825" lon="1.96495">
        <ele>91.33</ele>
        <time>2020-01-11T10:00:20Z</time>
      </trkpt>
      <trkpt lat="48.67829" lon="1.96493">
        <ele>91.45</ele>
        <time>2020-01-11T10:00:25Z</time>
      </trkpt>
      <trkpt lat="48.6783" lon="1.96489">
        <ele>91.57</ele>
        <time>2020-01-11T10:00:30Z</time>
      </trkpt>
      <trkpt lat="48.67832" lon="1.96485">
        <ele>91.78</ele>
        <time>2020-01-11T10:00:35Z</time>
      </trkpt>
      <trkpt lat="48.67834" lon="1.96483">
        <ele>92.04</ele>
        <time>2020-01-11T10:00:40Z</time>
      </trkpt>
      <trkpt lat="48.67836" lon="1.96479">
        <ele>92.17</ele>
        <time>2020-01-11T10:00:45Z</time>
      </trkpt>
      <trkpt lat="48.67836" lon="1.96477">
        <ele>92.38</ele>
        <time>2020-01-11T10:00:50Z</time>
      </trkpt>
      <trkpt lat="48.67837" lon="1.96475">
        <ele>92.67</ele>
        <time>2020-01-11T10:00:55Z</time>
      </trkpt>
      <trkpt lat="48.67836" lon="1.96474">
        <ele>92.84</ele>
        <time>2020-01-11T10:01:00Z</time>
      </trkpt>
      <trkpt lat="48.67834" lon="1.96474">
        <ele>92.86</ele>
        <time>2020-01-11T10:01:05Z</time>
      </trkpt>
      <trkpt lat="48.67832" lon="1.96475">
        <ele>92.97</ele>
        <time>2020-01-11T10:01:10Z</time>
      </trkpt>
      <trkpt lat="48.67832" lon="1.96476">
        <ele>92.74</ele>
        <time>2020-01-11T10:01:15Z</time>
      </trkpt>
      <trkpt lat="48.6783" lon="1.96477">
        <ele>92.43</ele>
        <time>2020-01-11T10:01:20Z</time>
      </trkpt>
      <trkpt lat="48.67828" lon="1.96478">
        <ele>92.38</ele>
        <time>2020-01-11T10:01:25Z</time>
      </trkpt>
      <trkpt lat="48.67827" lon="1.96479">
        <ele>92.61</ele>
        <time>2020-01-11T10:01:30Z</time>
      </trkpt>
      <trkpt lat="48.67826" lon="1.96481">
        <ele>92.56</ele>
        <time>2020-01-11T10:01:35Z</time>
      </trkpt>
      <trkpt lat="48.67826" lon="1.96482">
        <ele>92.51</ele>
        <time>2020-01-11T10:01:40Z</time>
      </trkpt>
      <trkpt lat="48.67828" lon="1.96482">
        <ele>92.3</ele>
        <time>2020-01-11T10:01:45Z</time>
      </trkpt>
      <trkpt lat="48.67827" lon="1.96483">
        <ele>92.59</ele>
        <time>2020-01-11T10:01:50Z</time>
      </trkpt>
      <trkpt lat="48.67826" lon="1.96486">
        <ele>93.03</ele>
        <time>2020-01-11T10:01:55Z</time>
      </trkpt>
      <trkpt lat="48.67825" lon="1.96491">
        <ele>93.09</ele>
        <time>2020-01-11T10:02:00Z</time>
      </trkpt>
      <trkpt lat="48.67824" lon="1.96497">
        <ele>93.01</ele>
        <time>2020-01-11T10:02:05Z</time>
      </trkpt>
      <trkpt lat="48.67825" lon="1.96497">
        <ele>92.99</ele>
        <time>2020-01-11T10:02:09Z</time>
      </trkpt>
      <trkpt lat="48.67827" lon="1.96499">
        <ele>93.01</ele>
        <time>2020-01-11T10:02:15Z</time>
      </trkpt>
      <trkpt lat="48.67828" lon="1.965">
        <ele>92.98</ele>
        <time>2020-01-11T10:02:20Z</time>
      </trkpt>
      <trkpt lat="48.67826" lon="1.96502">
        <ele>93</ele>
        <time>2020-01-11T10:02:25Z</time>
      </trkpt>
      <trkpt lat="48.67825" lon="1.96502">
        <ele>93.09</ele>
        <time>2020-01-11T10:02:30Z</time>
      </trkpt>
      <trkpt lat="48.67824" lon="1.96501">
        <ele>92.99</ele>
        <time>2020-01-11T10:02:35Z</time>
      </trkpt>
      <trkpt lat="48.67823" lon="1.96501">
        <ele>92.94</ele>
        <time>2020-01-11T10:02:40Z</time>
      </trkpt>
      <trkpt lat="48.67821" lon="1.96502">
        <ele>92.92</ele>
        <time>2020-01-11T10:02:45Z</time>
      </trkpt>
      <trkpt lat="48.6782" lon="1.96506">
        <ele>93.05</ele>
        <time>2020-01-11T10:02:50Z</time>
      </trkpt>
      <trkpt lat="48.6782" lon="1.96507">
        <ele>93.05</ele>
        <time>2020-01-11T10:02:55Z</time>
      </trkpt>
      <trkpt lat="48.67819" lon="1.96509">
        <ele>93.1</ele>
        <time>2020-01-11T10:03:00Z</time>
      </trkpt>
      <trkpt lat="48.67819" lon="1.96507">
        <ele>93.31</ele>
        <time>2020-01-11T10:03:05Z</time>
      </trkpt>
      <trkpt lat="48.67817" lon="1.96504">
        <ele>93.26</ele>
        <time>2020-01-11T10:03:10Z</time>
      </trkpt>
      <trkpt lat="48.67818" lon="1.965">
        <ele>93.24</ele>
        <time>2020-01-11T10:03:15Z</time>
      </trkpt>
      <trkpt lat="48.67819" lon="1.965">
        <ele>93.31</ele>
        <time>2020-01-11T10:03:20Z</time>
      </trkpt>
      <trkpt lat="48.6782" lon="1.965">
        <ele>93.52</ele>
        <time>2020-01-11T10:03:25Z</time>
      </trkpt>
      <trkpt lat="48.67819" lon="1.965">
        <ele>93.67</ele>
        <time>2020-01-11T10:03:30Z</time>
      </trkpt>
      <trkpt lat="48.6782" lon="1.96501">
        <ele>93.62</ele>
        <time>2020-01-11T10:03:35Z</time>
      </trkpt>
      <trkpt lat="48.67821" lon="1.96503">
        <ele>93.68</ele>
        <time>2020-01-11T10:03:40Z</time>
      </trkpt>
      <trkpt lat="48.67821" lon="1.96505">
        <ele>93.64</ele>
        <time>2020-01-11T10:03:45Z</time>
      </trkpt>
      <trkpt lat="48.67822" lon="1.96505">
        <ele>93.63</ele>
        <time>2020-01-11T10:03:50Z</time>
      </trkpt>
      <trkpt lat="48.67825" lon="1.96502">
        <ele>93.66</ele>
        <time>2020-01-11T10:03:55Z</time>
      </trkpt>
      <trkpt lat="48.67828" lon="1.96502">
        <ele>93.71</ele>
        <time>2020-01-11T10:04:00Z</time>
      </trkpt>
      <trkpt lat="48.6783" lon="1.96501">
        <ele>93.62</ele>
        <time>2020-01-11T10:04:05Z</time>
      </trkpt>
      <trkpt lat="48.67829" lon="1.96502">
        <ele>93.63</ele>
        <time>2020-01-11T10:04:10Z</time>
      </trkpt>
      <trkpt lat="48.67829" lon="1.96505">
        <ele>93.61</ele>
        <time>2020-01-11T10:04:15Z</time>
      </trkpt>
      <trkpt lat="48.67827" lon="1.96505">
        <ele>93.62</ele>
        <time>2020-01-11T10:04:20Z</time>
      </trkpt>
      <trkpt lat="48.67827" lon="1.96505">
        <ele>93.58</ele>
        <time>2020-01-11T10:04:25Z</time>
      </trkpt>
      <trkpt lat="48.67827" lon="1.96506">
        <ele>93.73</ele>
        <time>2020-01-11T10:04:30Z</time>
      </trkpt>
      <trkpt lat="48.67826" lon="1.96504">
        <ele>93.93</ele>
        <time>2020-01-11T10:04:35Z</time>
      </trkpt>
      <trkpt lat="48.67827" lon="1.96504">
        <ele>93.99</ele>
        <time>2020-01-11T10:04:40Z</time>
      </trkpt>
      <trkpt lat="48.67828" lon="1.96505">
        <ele>93.87</ele>
        <time>2020-01-11T10:04:45Z</time>
      </trkpt>
      <trkpt lat="48.6783" lon="1.96508">
        <ele>93.87</ele>
        <time>2020-01-11T10:04:50Z</time>
      </trkpt>
      <trkpt lat="48.67829" lon="1.96507">
        <ele>93.88</ele>
        <time>2020-01-11T10:04:55Z</time>
      </trkpt>
      <trkpt lat="48.67829" lon="1.96508">
        <ele>93.92</ele>
        <time>2020-01-11T10:05:00Z</time>
      </trkpt>
      <trkpt lat="48.67829" lon="1.96507">
        <ele>94.06</ele>
        <time>2020-01-11T10:05:05Z</time>
      </trkpt>
      <trkpt lat="48.67827" lon="1.96509">
        <ele>94.15</ele>
        <time>2020-01-11T10:05:10Z</time>
      </trkpt>
      <trkpt lat="48.67825" lon="1.96507">
        <ele>94.07</ele>
        <time>2020-01-11T10:05:15Z</time>
      </trkpt>
      <trkpt lat="48.67825" lon="1.96507">
        <ele>93.99</ele>
        <time>2020-01-11T10:05:20Z</time>
      </trkpt>
      <trkpt lat="48.67824" lon="1.96508">
        <ele>93.82</ele>
        <time>2020-01-11T10:05:25Z</time>
      </trkpt>
      <trkpt lat="48.67823" lon="1.96508">
        <ele>93.83</ele>
        <time>2020-01-11T10:05:30Z</time>
      </trkpt>
      <trkpt lat="48.67823" lon="1.96504">
        <ele>93.68</ele>
        <time>2020-01-11T10:05:35Z</time>
      </trkpt>
      <trkpt lat="48.67825" lon="1.96501">
        <ele>93.79</ele>
        <time>2020-01-11T10:05:40Z</time>
      </trkpt>
      <trkpt lat="48.67826" lon="1.965">
        <ele>94.12</ele>
        <time>2020-01-11T10:05:45Z</time>
      </trkpt>
      <trkpt lat="48.67827" lon="1.96499">
        <ele>94.3</ele>
        <time>2020-01-11T10:05:50Z</time>
      </trkpt>
      <trkpt lat="48.67829" lon="1.96498">
        <ele>94.24</ele>
        <time>2020-01-11T10:05:55Z</time>
      </trkpt>
      <trkpt lat="48.6783" lon="1.96496">
        <ele>94.45</ele>
        <time>2020-01-11T10:06:00Z</time>
      </trkpt>
      <trkpt lat="48.6783" lon="1.96494">
        <ele>94.67</ele>
        <time>2020-01-11T10:06:05Z</time>
      </trkpt>
      <trkpt lat="48.67829" lon="1.96492">
        <ele>94.43</ele>
        <time>2020-01-11T10:06:10Z</time>
      </trkpt>
      <trkpt lat="48.67828" lon="1.96493">
        <ele>94.29</ele>
        <time>2020-01-11T10:06:15Z</time>
      </trkpt>
      <trkpt lat="48.67829" lon="1.96496">
        <ele>94.23</ele>
        <time>2020-01-11T10:06:20Z</time>
      </trkpt>
      <trkpt lat="48.6783" lon="1.96502">
        <ele>94.43</ele>
        <time>2020-01-11T10:06:25Z</time>
      </trkpt>
      <trkpt lat="48.6783" lon="1.96508">
        <ele>94.55</ele>
        <time>2020-01-11T10:06:30Z</time>
      </trkpt>
      <trkpt lat="48.67829" lon="1.96509">
        <ele>94.61</ele>
        <time>2020-01-11T10:06:35Z</time>
      </trkpt>
      <trkpt lat="48.67828" lon="1.96509">
        <ele>94.61</ele>
        <time>2020-01-11T10:06:40Z</time>
      </trkpt>
      <trkpt lat="48.67827" lon="1.9651">
        <ele>94.57</ele>
        <time>2020-01-11T10:06:45Z</time>
      </trkpt>
      <trkpt lat="48.67829" lon="1.96512">
        <ele>94.65</ele>
        <time>2020-01-11T10:06:50Z</time>
      </trkpt>
      <trkpt lat="48.67831" lon="1.96511">
        <ele>94.78</ele>
        <time>2020-01-11T10:06:55Z</time>
      </trkpt>
      <trkpt lat="48.67832" lon="1.96511">
        <ele>94.85</ele>
        <time>2020-01-11T10:07:00Z</time>
      </trkpt>
      <trkpt lat="48.67834" lon="1.96512">
        <ele>94.86</ele>
        <time>2020-01-11T10:07:05Z</time>
      </trkpt>
      <trkpt lat="48.67835" lon="1.96515">
        <ele>94.9</ele>
        <time>2020-01-11T10:07:10Z</time>
      </trkpt>
      <trkpt lat="48.67837" lon="1.96517">
        <ele>95.05</ele>
        <time>2020-01-11T10:07:15Z</time>
      </trkpt>
      <trkpt lat="48.67836" lon="1.96518">
        <ele>95.15</ele>
        <time>2020-01-11T10:07:20Z</time>
      </trkpt>
      <trkpt lat="48.67834" lon="1.96517">
        <ele>95.17</ele>
        <time>2020-01-11T10:07:25Z</time>
      </trkpt>
      <trkpt lat="48.67828" lon="1.96514">
        <ele>95.08</ele>
        <time>2020-01-11T10:07:30Z</time>
      </trkpt>
      <trkpt lat="48.67821" lon="1.96504">
        <ele>95.25</ele>
        <time>2020-01-11T10:07:35Z</time>
      </trkpt>
      <trkpt lat="48.67815" lon="1.96498">
        <ele>95.14</ele>
        <time>2020-01-11T10:07:40Z</time>
      </trkpt>
      <trkpt lat="48.67808" lon="1.96489">
        <ele>95.15</ele>
        <time>2020-01-11T10:07:45Z</time>
      </trkpt>
      <trkpt lat="48.67806" lon="1.96478">
        <ele>95.83</ele>
        <time>2020-01-11T10:07:50Z</time>
      </trkpt>
      <trkpt lat="48.67803" lon="1.96473">
        <ele>96.68</ele>
        <time>2020-01-11T10:07:55Z</time>
      </trkpt>
      <trkpt lat="48.678" lon="1.96471">
        <ele>96.62</ele>
        <time>2020-01-11T10:08:00Z</time>
      </trkpt>
      <trkpt lat="48.67795" lon="1.96465">
        <ele>96.37</ele>
        <time>2020-01-11T10:08:05Z</time>
      </trkpt>
      <trkpt lat="48.6779" lon="1.96459">
        <ele>96.17</ele>
        <time>2020-01-11T10:08:10Z</time>
      </trkpt>
      <trkpt lat="48.67788" lon="1.96452">
        <ele>96.6</ele>
        <time>2020-01-11T10:08:15Z</time>
      </trkpt>
      <trkpt lat="48.67788" lon="1.96444">
        <ele>96.95</ele>
        <time>2020-01-11T10:08:20Z</time>
      </trkpt>
      <trkpt lat="48.67788" lon="1.96438">
        <ele>97.1</ele>
        <time>2020-01-11T10:08:25Z</time>
      </trkpt>
      <trkpt lat="48.67788" lon="1.96436">
        <ele>97.15</ele>
        <time>2020-01-11T10:08:30Z</time>
      </trkpt>
      <trkpt lat="48.67784" lon="1.96434">
        <ele>97.16</ele>
        <time>2020-01-11T10:08:35Z</time>
      </trkpt>
      <trkpt lat="48.67781" lon="1.96433">
        <ele>97.73</ele>
        <time>2020-01-11T10:08:40Z</time>
      </trkpt>
      <trkpt lat="48.67774" lon="1.96431">
        <ele>98.54</ele>
        <time>2020-01-11T10:08:45Z</time>
      </trkpt>
      <trkpt lat="48.67771" lon="1.96435">
        <ele>99.25</ele>
        <time>2020-01-11T10:08:50Z</time>
      </trkpt>
      <trkpt lat="48.67768" lon="1.96443">
        <ele>99.32</ele>
        <time>2020-01-11T10:08:55Z</time>
      </trkpt>
      <trkpt lat="48.67762" lon="1.96451">
        <ele>99.33</ele>
        <time>2020-01-11T10:09:00Z</time>
      </trkpt>
      <trkpt lat="48.67755" lon="1.96459">
        <ele>99.19</ele>
        <time>2020-01-11T10:09:05Z</time>
      </trkpt>
      <trkpt lat="48.67751" lon="1.96468">
        <ele>99.1</ele>
        <time>2020-01-11T10:09:10Z</time>
      </trkpt>
      <trkpt lat="48.67745" lon="1.9648">
        <ele>99.21</ele>
        <time>2020-01-11T10:09:15Z</time>
      </trkpt>
      <trkpt lat="48.67743" lon="1.96489">
        <ele>99.29</ele>
        <time>2020-01-11T10:09:20Z</time>
      </trkpt>
      <trkpt lat="48.67742" lon="1.96494">
        <ele>99.38</ele>
        <time>2020-01-11T10:09:25Z</time>
      </trkpt>
      <trkpt lat="48.67738" lon="1.96497">
        <ele>99.35</ele>
        <time>2020-01-11T10:09:30Z</time>
      </trkpt>
      <trkpt lat="48.67731" lon="1.96492">
        <ele>99.2</ele>
        <time>2020-01-11T10:09:35Z</time>
      </trkpt>
      <trkpt lat="48.67725" lon="1.9649">
        <ele>99.22</ele>
        <time>2020-01-11T10:09:40Z</time>
      </trkpt>
      <trkpt lat="48.67716" lon="1.96482">
        <ele>99.38</ele>
        <time>2020-01-11T10:09:45Z</time>
      </trkpt>
      <trkpt lat="48.67708" lon="1.96478">
        <ele>99.45</ele>
        <time>2020-01-11T10:09:50Z</time>
      </trkpt>
      <trkpt lat="48.677" lon="1.96475">
        <ele>99.57</ele>
        <time>2020-01-11T10:09:55Z</time>
      </trkpt>
      <trkpt lat="48.67691" lon="1.96472">
        <ele>99.77</ele>
        <time>2020-01-11T10:10:00Z</time>
      </trkpt>
      <trkpt lat="48.67684" lon="1.9647">
        <ele>100.34</ele>
        <time>2020-01-11T10:10:05Z</time>
      </trkpt>
      <trkpt lat="48.67677" lon="1.96472">
        <ele>100.75</ele>
        <time>2020-01-11T10:10:10Z</time>
      </trkpt>
      <trkpt lat="48.67675" lon="1.96479">
        <ele>101</ele>
        <time>2020-01-11T10:10:15Z</time>
      </trkpt>
      <trkpt lat="48.67672" lon="1.96487">
        <ele>101.03</ele>
        <time>2020-01-11T10:10:20Z</time>
      </trkpt>
      <trkpt lat="48.67668" lon="1.96492">
        <ele>101.09</ele>
        <time>2020-01-11T10:10:25Z</time>
      </trkpt>
      <trkpt lat="48.67663" lon="1.96497">
        <ele>101.11</ele>
        <time>2020-01-11T10:10:30Z</time>
      </trkpt>
      <trkpt lat="48.67657" lon="1.96498">
        <ele>101.25</ele>
        <time>2020-01-11T10:10:35Z</time>
      </trkpt>
      <trkpt lat="48.67651" lon="1.96499">
        <ele>101.54</ele>
        <time>2020-01-11T10:10:40Z</time>
      </trkpt>
      <trkpt lat="48.67647" lon="1.96503">
        <ele>101.76</ele>
        <time>2020-01-11T10:10:45Z</time>
      </trkpt>
      <trkpt lat="48.67641" lon="1.96507">
        <ele>102.27</ele>
        <time>2020-01-11T10:10:50Z</time>
      </trkpt>
      <trkpt lat="48.67639" lon="1.96512">
        <ele>102.53</ele>
        <time>2020-01-11T10:10:55Z</time>
      </trkpt>
      <trkpt lat="48.67636" lon="1.96517">
        <ele>102.83</ele>
        <time>2020-01-11T10:11:00Z</time>
      </trkpt>
      <trkpt lat="48.67633" lon="1.96523">
        <ele>103.06</ele>
        <time>2020-01-11T10:11:05Z</time>
      </trkpt>
      <trkpt lat="48.67629" lon="1.96528">
        <ele>103.45</ele>
        <time>2020-01-11T10:11:10Z</time>
      </trkpt>
      <trkpt lat="48.67626" lon="1.96532">
        <ele>103.87</ele>
        <time>2020-01-11T10:11:15Z</time>
      </trkpt>
      <trkpt lat="48.67623" lon="1.96537">
        <ele>104.12</ele>
        <time>2020-01-11T10:11:20Z</time>
      </trkpt>
      <trkpt lat="48.67619" lon="1.96541">
        <ele>104.21</ele>
        <time>2020-01-11T10:11:25Z</time>
      </trkpt>
      <trkpt lat="48.67615" lon="1.96544">
        <ele>104.52</ele>
        <time>2020-01-11T10:11:30Z</time>
      </trkpt>
      <trkpt lat="48.67613" lon="1.96552">
        <ele>104.81</ele>
        <time>2020-01-11T10:11:35Z</time>
      </trkpt>
      <trkpt lat="48.67607" lon="1.96558">
        <ele>105.23</ele>
        <time>2020-01-11T10:11:40Z</time>
      </trkpt>
      <trkpt lat="48.67602" lon="1.96565">
        <ele>105.46</ele>
        <time>2020-01-11T10:11:45Z</time>
      </trkpt>
      <trkpt lat="48.67598" lon="1.9657">
        <ele>105.54</ele>
        <time>2020-01-11T10:11:50Z</time>
      </trkpt>
      <trkpt lat="48.67596" lon="1.96575">
        <ele>105.76</ele>
        <time>2020-01-11T10:11:55Z</time>
      </trkpt>
      <trkpt lat="48.67593" lon="1.96579">
        <ele>105.69</ele>
        <time>2020-01-11T10:12:00Z</time>
      </trkpt>
      <trkpt lat="48.67591" lon="1.96581">
        <ele>105.76</ele>
        <time>2020-01-11T10:12:05Z</time>
      </trkpt>
      <trkpt lat="48.67589" lon="1.96588">
        <ele>105.71</ele>
        <time>2020-01-11T10:12:10Z</time>
      </trkpt>
      <trkpt lat="48.67587" lon="1.96592">
        <ele>105.97</ele>
        <time>2020-01-11T10:12:15Z</time>
      </trkpt>
      <trkpt lat="48.67585" lon="1.96596">
        <ele>106.13</ele>
        <time>2020-01-11T10:12:20Z</time>
      </trkpt>
      <trkpt lat="48.67582" lon="1.96602">
        <ele>106.37</ele>
        <time>2020-01-11T10:12:25Z</time>
      </trkpt>
      <trkpt lat="48.67578" lon="1.96608">
        <ele>106.64</ele>
        <time>2020-01-11T10:12:30Z</time>
      </trkpt>
      <trkpt lat="48.67575" lon="1.96614">
        <ele>106.79</ele>
        <time>2020-01-11T10:12:35Z</time>
      </trkpt>
      <trkpt lat="48.67567" lon="1.96616">
        <ele>106.92</ele>
        <time>2020-01-11T10:12:40Z</time>
      </trkpt>
      <trkpt lat="48.67563" lon="1.9662">
        <ele>107.02</ele>
        <time>2020-01-11T10:12:45Z</time>
      </trkpt>
      <trkpt lat="48.67561" lon="1.96623">
        <ele>107.21</ele>
        <time>2020-01-11T10:12:50Z</time>
      </trkpt>
      <trkpt lat="48.6756" lon="1.96627">
        <ele>107.64</ele>
        <time>2020-01-11T10:12:55Z</time>
      </trkpt>
      <trkpt lat="48.67557" lon="1.96631">
        <ele>108.06</ele>
        <time>2020-01-11T10:13:00Z</time>
      </trkpt>
      <trkpt lat="48.67554" lon="1.96634">
        <ele>108.36</ele>
        <time>2020-01-11T10:13:05Z</time>
      </trkpt>
      <trkpt lat="48.67551" lon="1.96638">
        <ele>108.87</ele>
        <time>2020-01-11T10:13:10Z</time>
      </trkpt>
      <trkpt lat="48.6755" lon="1.96641">
        <ele>109.45</ele>
        <time>2020-01-11T10:13:15Z</time>
      </trkpt>
      <trkpt lat="48.67547" lon="1.96644">
        <ele>109.74</ele>
        <time>2020-01-11T10:13:20Z</time>
      </trkpt>
      <trkpt lat="48.67543" lon="1.96641">
        <ele>110.19</ele>
        <time>2020-01-11T10:13:25Z</time>
      </trkpt>
      <trkpt lat="48.6754" lon="1.96643">
        <ele>110.43</ele>
        <time>2020-01-11T10:13:30Z</time>
      </trkpt>
      <trkpt lat="48.67538" lon="1.96651">
        <ele>110.68</ele>
        <time>2020-01-11T10:13:35Z</time>
      </trkpt>
      <trkpt lat="48.67536" lon="1.96656">
        <ele>110.94</ele>
        <time>2020-01-11T10:13:40Z</time>
      </trkpt>
      <trkpt lat="48.67535" lon="1.96663">
        <ele>111.22</ele>
        <time>2020-01-11T10:13:45Z</time>
      </trkpt>
      <trkpt lat="48.67533" lon="1.96665">
        <ele>111.24</ele>
        <time>2020-01-11T10:13:50Z</time>
      </trkpt>
      <trkpt lat="48.67531" lon="1.96672">
        <ele>111.41</ele>
        <time>2020-01-11T10:13:55Z</time>
      </trkpt>
      <trkpt lat="48.6753" lon="1.96676">
        <ele>111.63</ele>
        <time>2020-01-11T10:14:00Z</time>
      </trkpt>
      <trkpt lat="48.67529" lon="1.96684">
        <ele>111.87</ele>
        <time>2020-01-11T10:14:05Z</time>
      </trkpt>
      <trkpt lat="48.67528" lon="1.96689">
        <ele>112.06</ele>
        <time>2020-01-11T10:14:10Z</time>
      </trkpt>
      <trkpt lat="48.67526" lon="1.96696">
        <ele>112.17</ele>
        <time>2020-01-11T10:14:15Z</time>
      </trkpt>
      <trkpt lat="48.67524" lon="1.96702">
        <ele>112.31</ele>
        <time>2020-01-11T10:14:20Z</time>
      </trkpt>
      <trkpt lat="48.67521" lon="1.96707">
        <ele>112.52</ele>
        <time>2020-01-11T10:14:25Z</time>
      </trkpt>
      <trkpt lat="48.67521" lon="1.96716">
        <ele>112.82</ele>
        <time>2020-01-11T10:14:30Z</time>
      </trkpt>
      <trkpt lat="48.67519" lon="1.96726">
        <ele>113.19</ele>
        <time>2020-01-11T10:14:35Z</time>
      </trkpt>
      <trkpt lat="48.67517" lon="1.96738">
        <ele>113.47</ele>
        <time>2020-01-11T10:14:40Z</time>
      </trkpt>
      <trkpt lat="48.67514" lon="1.96748">
        <ele>113.69</ele>
        <time>2020-01-11T10:14:45Z</time>
      </trkpt>
      <trkpt lat="48.67511" lon="1.96754">
        <ele>114.26</ele>
        <time>2020-01-11T10:14:50Z</time>
      </trkpt>
      <trkpt lat="48.67508" lon="1.96759">
        <ele>114.64</ele>
        <time>2020-01-11T10:14:55Z</time>
      </trkpt>
      <trkpt lat="48.67505" lon="1.96766">
        <ele>115.1</ele>
        <time>2020-01-11T10:15:00Z</time>
      </trkpt>
      <trkpt lat="48.67503" lon="1.96774">
        <ele>115.38</ele>
        <time>2020-01-11T10:15:05Z</time>
      </trkpt>
      <trkpt lat="48.675" lon="1.96778">
        <ele>115.55</ele>
        <time>2020-01-11T10:15:10Z</time>
      </trkpt>
      <trkpt lat="48.67499" lon="1.96785">
        <ele>115.71</ele>
        <time>2020-01-11T10:15:15Z</time>
      </trkpt>
      <trkpt lat="48.67496" lon="1.96795">
        <ele>115.94</ele>
        <time>2020-01-11T10:15:20Z</time>
      </trkpt>
      <trkpt lat="48.67494" lon="1.96797">
        <ele>116.37</ele>
        <time>2020-01-11T10:15:25Z</time>
      </trkpt>
      <trkpt lat="48.67491" lon="1.96799">
        <ele>116.72</ele>
        <time>2020-01-11T10:15:30Z</time>
      </trkpt>
      <trkpt lat="48.67488" lon="1.96805">
        <ele>117.21</ele>
        <time>2020-01-11T10:15:35Z</time>
      </trkpt>
      <trkpt lat="48.67486" lon="1.96812">
        <ele>117.57</ele>
        <time>2020-01-11T10:15:40Z</time>
      </trkpt>
      <trkpt lat="48.67484" lon="1.96816">
        <ele>117.85</ele>
        <time>2020-01-11T10:15:45Z</time>
      </trkpt>
      <trkpt lat="48.67483" lon="1.96822">
        <ele>118.14</ele>
        <time>2020-01-11T10:15:50Z</time>
      </trkpt>
      <trkpt lat="48.67483" lon="1.96826">
        <ele>118.36</ele>
        <time>2020-01-11T10:15:55Z</time>
      </trkpt>
      <trkpt lat="48.67482" lon="1.96833">
        <ele>118.66</ele>
        <time>2020-01-11T10:16:00Z</time>
      </trkpt>
      <trkpt lat="48.67481" lon="1.96842">
        <ele>118.74</ele>
        <time>2020-01-11T10:16:05Z</time>
      </trkpt>
      <trkpt lat="48.67479" lon="1.9685">
        <ele>118.72</ele>
        <time>2020-01-11T10:16:10Z</time>
      </trkpt>
      <trkpt lat="48.67478" lon="1.96854">
        <ele>118.94</ele>
        <time>2020-01-11T10:16:15Z</time>
      </trkpt>
      <trkpt lat="48.67477" lon="1.9686">
        <ele>119.08</ele>
        <time>2020-01-11T10:16:20Z</time>
      </trkpt>
      <trkpt lat="48.67478" lon="1.96864">
        <ele>119.28</ele>
        <time>2020-01-11T10:16:25Z</time>
      </trkpt>
      <trkpt lat="48.67476" lon="1.96871">
        <ele>119.56</ele>
        <time>2020-01-11T10:16:30Z</time>
      </trkpt>
      <trkpt lat="48.67473" lon="1.96881">
        <ele>119.77</ele>
        <time>2020-01-11T10:16:35Z</time>
      </trkpt>
      <trkpt lat="48.67472" lon="1.96886">
        <ele>120.22</ele>
        <time>2020-01-11T10:16:40Z</time>
      </trkpt>
      <trkpt lat="48.67472" lon="1.96889">
        <ele>120.54</ele>
        <time>2020-01-11T10:16:45Z</time>
      </trkpt>
      <trkpt lat="48.6747" lon="1.96896">
        <ele>120.86</ele>
        <time>2020-01-11T10:16:50Z</time>
      </trkpt>
      <trkpt lat="48.6747" lon="1.96902">
        <ele>121.14</ele>
        <time>2020-01-11T10:16:55Z</time>
      </trkpt>
      <trkpt lat="48.67467" lon="1.96914">
        <ele>121.49</ele>
        <time>2020-01-11T10:17:00Z</time>
      </trkpt>
      <trkpt lat="48.67466" lon="1.9692">
        <ele>121.72</ele>
        <time>2020-01-11T10:17:05Z</time>
      </trkpt>
      <trkpt lat="48.67464" lon="1.96931">
        <ele>121.91</ele>
        <time>2020-01-11T10:17:10Z</time>
      </trkpt>
      <trkpt lat="48.67461" lon="1.96941">
        <ele>122.25</ele>
        <time>2020-01-11T10:17:15Z</time>
      </trkpt>
      <trkpt lat="48.67458" lon="1.96948">
        <ele>122.64</ele>
        <time>2020-01-11T10:17:20Z</time>
      </trkpt>
      <trkpt lat="48.67458" lon="1.96952">
        <ele>123.13</ele>
        <time>2020-01-11T10:17:25Z</time>
      </trkpt>
      <trkpt lat="48.67456" lon="1.96963">
        <ele>123.49</ele>
        <time>2020-01-11T10:17:30Z</time>
      </trkpt>
      <trkpt lat="48.67454" lon="1.96969">
        <ele>123.74</ele>
        <time>2020-01-11T10:17:35Z</time>
      </trkpt>
      <trkpt lat="48.67453" lon="1.96973">
        <ele>123.78</ele>
        <time>2020-01-11T10:17:40Z</time>
      </trkpt>
      <trkpt lat="48.67451" lon="1.96978">
        <ele>123.92</ele>
        <time>2020-01-11T10:17:45Z</time>
      </trkpt>
      <trkpt lat="48.67449" lon="1.96985">
        <ele>124.04</ele>
        <time>2020-01-11T10:17:50Z</time>
      </trkpt>
      <trkpt lat="48.67447" lon="1.9699">
        <ele>124.04</ele>
        <time>2020-01-11T10:17:55Z</time>
      </trkpt>
      <trkpt lat="48.67446" lon="1.96994">
        <ele>124.26</ele>
        <time>2020-01-11T10:18:00Z</time>
      </trkpt>
      <trkpt lat="48.67443" lon="1.97001">
        <ele>124.64</ele>
        <time>2020-01-11T10:18:05Z</time>
      </trkpt>
      <trkpt lat="48.67441" lon="1.97006">
        <ele>125.06</ele>
        <time>2020-01-11T10:18:10Z</time>
      </trkpt>
      <trkpt lat="48.67438" lon="1.97013">
        <ele>125.84</ele>
        <time>2020-01-11T10:18:15Z</time>
      </trkpt>
      <trkpt lat="48.67434" lon="1.97019">
        <ele>126.3</ele>
        <time>2020-01-11T10:18:20Z</time>
      </trkpt>
      <trkpt lat="48.67429" lon="1.97022">
        <ele>126.76</ele>
        <time>2020-01-11T10:18:25Z</time>
      </trkpt>
      <trkpt lat="48.67426" lon="1.97025">
        <ele>127.01</ele>
        <time>2020-01-11T10:18:30Z</time>
      </trkpt>
      <trkpt lat="48.67423" lon="1.97028">
        <ele>127.28</ele>
        <time>2020-01-11T10:18:35Z</time>
      </trkpt>
      <trkpt lat="48.67421" lon="1.9703">
        <ele>127.93</ele>
        <time>2020-01-11T10:18:40Z</time>
      </trkpt>
      <trkpt lat="48.6742" lon="1.9703">
        <ele>128.53</ele>
        <time>2020-01-11T10:18:45Z</time>
      </trkpt>
      <trkpt lat="48.67418" lon="1.97033">
        <ele>129.21</ele>
        <time>2020-01-11T10:18:50Z</time>
      </trkpt>
      <trkpt lat="48.67417" lon="1.97035">
        <ele>129.6</ele>
        <time>2020-01-11T10:18:55Z</time>
      </trkpt>
      <trkpt lat="48.67417" lon="1.97038">
        <ele>129.99</ele>
        <time>2020-01-11T10:19:00Z</time>
      </trkpt>
      <trkpt lat="48.67416" lon="1.9704">
        <ele>130.81</ele>
        <time>2020-01-11T10:19:05Z</time>
      </trkpt>
      <trkpt lat="48.67418" lon="1.97041">
        <ele>131.14</ele>
        <time>2020-01-11T10:19:10Z</time>
      </trkpt>
      <trkpt lat="48.67417" lon="1.97045">
        <ele>131.68</ele>
        <time>2020-01-11T10:19:15Z</time>
      </trkpt>
      <trkpt lat="48.67414" lon="1.97048">
        <ele>132.23</ele>
        <time>2020-01-11T10:19:20Z</time>
      </trkpt>
      <trkpt lat="48.67413" lon="1.97052">
        <ele>133.02</ele>
        <time>2020-01-11T10:19:25Z</time>
      </trkpt>
      <trkpt lat="48.67412" lon="1.97057">
        <ele>134</ele>
        <time>2020-01-11T10:19:30Z</time>
      </trkpt>
      <trkpt lat="48.67413" lon="1.97062">
        <ele>134.59</ele>
        <time>2020-01-11T10:19:35Z</time>
      </trkpt>
      <trkpt lat="48.67413" lon="1.97065">
        <ele>135.29</ele>
        <time>2020-01-11T10:19:40Z</time>
      </trkpt>
      <trkpt lat="48.67411" lon="1.97066">
        <ele>135.96</ele>
        <time>2020-01-11T10:19:45Z</time>
      </trkpt>
      <trkpt lat="48.6741" lon="1.97068">
        <ele>136.34</ele>
        <time>2020-01-11T10:19:50Z</time>
      </trkpt>
      <trkpt lat="48.67409" lon="1.97071">
        <ele>137.19</ele>
        <time>2020-01-11T10:19:55Z</time>
      </trkpt>
      <trkpt lat="48.67409" lon="1.97074">
        <ele>137.83</ele>
        <time>2020-01-11T10:20:00Z</time>
      </trkpt>
      <trkpt lat="48.67409" lon="1.97078">
        <ele>138.55</ele>
        <time>2020-01-11T10:20:05Z</time>
      </trkpt>
      <trkpt lat="48.67409" lon="1.97081">
        <ele>139.3</ele>
        <time>2020-01-11T10:20:10Z</time>
      </trkpt>
      <trkpt lat="48.6741" lon="1.97085">
        <ele>139.81</ele>
        <time>2020-01-11T10:20:15Z</time>
      </trkpt>
      <trkpt lat="48.6741" lon="1.97091">
        <ele>140.12</ele>
        <time>2020-01-11T10:20:20Z</time>
      </trkpt>
      <trkpt lat="48.67408" lon="1.97097">
        <ele>140.38</ele>
        <time>2020-01-11T10:20:25Z</time>
      </trkpt>
      <trkpt lat="48.67406" lon="1.97103">
        <ele>140.87</ele>
        <time>2020-01-11T10:20:30Z</time>
      </trkpt>
      <trkpt lat="48.67405" lon="1.97108">
        <ele>141.53</ele>
        <time>2020-01-11T10:20:35Z</time>
      </trkpt>
      <trkpt lat="48.67403" lon="1.97112">
        <ele>142.33</ele>
        <time>2020-01-11T10:20:40Z</time>
      </trkpt>
      <trkpt lat="48.674" lon="1.97114">
        <ele>142.89</ele>
        <time>2020-01-11T10:20:45Z</time>
      </trkpt>
      <trkpt lat="48.67397" lon="1.97118">
        <ele>143.59</ele>
        <time>2020-01-11T10:20:50Z</time>
      </trkpt>
      <trkpt lat="48.67394" lon="1.97124">
        <ele>144.05</ele>
        <time>2020-01-11T10:20:55Z</time>
      </trkpt>
      <trkpt lat="48.67393" lon="1.97133">
        <ele>144.44</ele>
        <time>2020-01-11T10:21:00Z</time>
      </trkpt>
      <trkpt lat="48.6739" lon="1.97141">
        <ele>145.13</ele>
        <time>2020-01-11T10:21:05Z</time>
      </trkpt>
      <trkpt lat="48.67389" lon="1.9715">
        <ele>145.67</ele>
        <time>2020-01-11T10:21:10Z</time>
      </trkpt>
      <trkpt lat="48.67389" lon="1.9716">
        <ele>146.28</ele>
        <time>2020-01-11T10:21:15Z</time>
      </trkpt>
      <trkpt lat="48.67388" lon="1.97166">
        <ele>146.78</ele>
        <time>2020-01-11T10:21:20Z</time>
      </trkpt>
      <trkpt lat="48.67387" lon="1.97173">
        <ele>147.07</ele>
        <time>2020-01-11T10:21:25Z</time>
      </trkpt>
      <trkpt lat="48.67386" lon="1.97182">
        <ele>147.37</ele>
        <time>2020-01-11T10:21:30Z</time>
      </trkpt>
      <trkpt lat="48.67382" lon="1.97185">
        <ele>147.76</ele>
        <time>2020-01-11T10:21:35Z</time>
      </trkpt>
      <trkpt lat="48.67379" lon="1.9719">
        <ele>147.9</ele>
        <time>2020-01-11T10:21:40Z</time>
      </trkpt>
      <trkpt lat="48.67379" lon="1.97192">
        <ele>148.18</ele>
        <time>2020-01-11T10:21:45Z</time>
      </trkpt>
      <trkpt lat="48.6738" lon="1.97196">
        <ele>148.63</ele>
        <time>2020-01-11T10:21:50Z</time>
      </trkpt>
      <trkpt lat="48.6738" lon="1.97196">
        <ele>148.88</ele>
        <time>2020-01-11T10:21:55Z</time>
      </trkpt>
      <trkpt lat="48.6738" lon="1.97197">
        <ele>149.08</ele>
        <time>2020-01-11T10:22:00Z</time>
      </trkpt>
      <trkpt lat="48.67381" lon="1.97197">
        <ele>149.11</ele>
        <time>2020-01-11T10:22:05Z</time>
      </trkpt>
      <trkpt lat="48.6738" lon="1.97196">
        <ele>149.07</ele>
        <time>2020-01-11T10:22:10Z</time>
      </trkpt>
      <trkpt lat="48.6738" lon="1.97197">
        <ele>149.02</ele>
        <time>2020-01-11T10:22:15Z</time>
      </trkpt>
      <trkpt lat="48.6738" lon="1.97198">
        <ele>149.14</ele>
        <time>2020-01-11T10:22:20Z</time>
      </trkpt>
      <trkpt lat="48.6738" lon="1.97198">
        <ele>149.31</ele>
        <time>2020-01-11T10:22:25Z</time>
      </trkpt>
      <trkpt lat="48.6738" lon="1.97199">
        <ele>149.34</ele>
        <time>2020-01-11T10:22:30Z</time>
      </trkpt>
      <trkpt lat="48.6738" lon="1.97199">
        <ele>149.35</ele>
        <time>2020-01-11T10:22:35Z</time>
      </trkpt>
      <trkpt lat="48.67379" lon="1.97198">
        <ele>149.36</ele>
        <time>2020-01-11T10:22:40Z</time>
      </trkpt>
      <trkpt lat="48.67379" lon="1.97198">
        <ele>149.37</ele>
        <time>2020-01-11T10:22:45Z</time>
      </trkpt>
      <trkpt lat="48.6738" lon="1.97198">
        <ele>149.3</ele>
        <time>2020-01-11T10:22:50Z</time>
      </trkpt>
      <trkpt lat="48.6738" lon="1.97197">
        <ele>149.08</ele>
        <time>2020-01-11T10:22:55Z</time>
      </trkpt>
      <trkpt lat="48.6738" lon="1.97197">
        <ele>148.92</ele>
        <time>2020-01-11T10:23:00Z</time>
      </trkpt>
      <trkpt lat="48.6738" lon="1.97197">
        <ele>148.86</ele>
        <time>2020-01-11T10:23:05Z</time>
      </trkpt>
      <trkpt lat="48.6738" lon="1.97197">
        <ele>149</ele>
        <time>2020-01-11T10:23:10Z</time>
      </trkpt>
      <trkpt lat="48.6738" lon="1.97197">
        <ele>149.12</ele>
        <time>2020-01-11T10:23:15Z</time>
      </trkpt>
      <trkpt lat="48.6738" lon="1.97196">
        <ele>149.07</ele>
        <time>2020-01-11T10:23:20Z</time>
      </trkpt>
      <trkpt lat="48.67379" lon="1.97196">
        <ele>148.93</ele>
        <time>2020-01-11T10:23:25Z</time>
      </trkpt>
      <trkpt lat="48.67379" lon="1.97195">
        <ele>149.15</ele>
        <time>2020-01-11T10:23:30Z</time>
      </trkpt>
      <trkpt lat="48.67379" lon="1.97195">
        <ele>149.24</ele>
        <time>2020-01-11T10:23:35Z</time>
      </trkpt>
      <trkpt lat="48.6738" lon="1.97195">
        <ele>149.16</ele>
        <time>2020-01-11T10:23:40Z</time>
      </trkpt>
      <trkpt lat="48.6738" lon="1.97195">
        <ele>149.13</ele>
        <time>2020-01-11T10:23:45Z</time>
      </trkpt>
      <trkpt lat="48.6738" lon="1.97195">
        <ele>149.24</ele>
        <time>2020-01-11T10:23:50Z</time>
      </trkpt>
      <trkpt lat="48.6738" lon="1.97195">
        <ele>149.27</ele>
        <time>2020-01-11T10:23:55Z</time>
      </trkpt>
      <trkpt lat="48.6738" lon="1.97195">
        <ele>149.27</ele>
        <time>2020-01-11T10:24:00Z</time>
      </trkpt>
      <trkpt lat="48.67379" lon="1.97194">
        <ele>149.39</ele>
        <time>2020-01-11T10:24:05Z</time>
      </trkpt>
      <trkpt lat="48.67379" lon="1.97194">
        <ele>149.56</ele>
        <time>2020-01-11T10:24:10Z</time>
      </trkpt>
      <trkpt lat="48.67379" lon="1.97195">
        <ele>149.58</ele>
        <time>2020-01-11T10:24:15Z</time>
      </trkpt>
      <trkpt lat="48.67379" lon="1.97195">
        <ele>149.64</ele>
        <time>2020-01-11T10:24:20Z</time>
      </trkpt>
      <trkpt lat="48.67379" lon="1.97195">
        <ele>149.54</ele>
        <time>2020-01-11T10:24:25Z</time>
      </trkpt>
      <trkpt lat="48.67379" lon="1.97196">
        <ele>149.55</ele>
        <time>2020-01-11T10:24:30Z</time>
      </trkpt>
      <trkpt lat="48.67379" lon="1.97196">
        <ele>149.5</ele>
        <time>2020-01-11T10:24:35Z</time>
      </trkpt>
      <trkpt lat="48.67379" lon="1.97195">
        <ele>149.64</ele>
        <time>2020-01-11T10:24:40Z</time>
      </trkpt>
      <trkpt lat="48.6738" lon="1.97194">
        <ele>149.77</ele>
        <time>2020-01-11T10:24:45Z</time>
      </trkpt>
      <trkpt lat="48.6738" lon="1.97195">
        <ele>149.75</ele>
        <time>2020-01-11T10:24:50Z</time>
      </trkpt>
      <trkpt lat="48.6738" lon="1.97195">
        <ele>149.85</ele>
        <time>2020-01-11T10:24:55Z</time>
      </trkpt>
      <trkpt lat="48.6738" lon="1.97196">
        <ele>149.94</ele>
        <time>2020-01-11T10:25:00Z</time>
      </trkpt>
      <trkpt lat="48.6738" lon="1.97196">
        <ele>150</ele>
        <time>2020-01-11T10:25:05Z</time>
      </trkpt>
      <trkpt lat="48.6738" lon="1.97196">
        <ele>149.93</ele>
        <time>2020-01-11T10:25:10Z</time>
      </trkpt>
      <trkpt lat="48.6738" lon="1.97196">
        <ele>149.9</ele>
        <time>2020-01-11T10:25:15Z</time>
      </trkpt>
      <trkpt lat="48.6738" lon="1.97196">
        <ele>150.02</ele>
        <time>2020-01-11T10:25:20Z</time>
      </trkpt>
      <trkpt lat="48.67381" lon="1.97195">
        <ele>150.11</ele>
        <time>2020-01-11T10:25:25Z</time>
      </trkpt>
      <trkpt lat="48.67381" lon="1.97195">
        <ele>150.23</ele>
        <time>2020-01-11T10:25:30Z</time>
      </trkpt>
      <trkpt lat="48.67381" lon="1.97195">
        <ele>150.46</ele>
        <time>2020-01-11T10:25:35Z</time>
      </trkpt>
      <trkpt lat="48.67381" lon="1.97195">
        <ele>150.62</ele>
        <time>2020-01-11T10:25:40Z</time>
      </trkpt>
      <trkpt lat="48.67381" lon="1.97195">
        <ele>150.57</ele>
        <time>2020-01-11T10:25:45Z</time>
      </trkpt>
      <trkpt lat="48.67381" lon="1.97195">
        <ele>150.55</ele>
        <time>2020-01-11T10:25:50Z</time>
      </trkpt>
      <trkpt lat="48.67381" lon="1.97195">
        <ele>150.5</ele>
        <time>2020-01-11T10:25:55Z</time>
      </trkpt>
      <trkpt lat="48.67381" lon="1.97195">
        <ele>150.56</ele>
        <time>2020-01-11T10:26:00Z</time>
      </trkpt>
      <trkpt lat="48.67381" lon="1.97195">
        <ele>150.68</ele>
        <time>2020-01-11T10:26:05Z</time>
      </trkpt>
      <trkpt lat="48.67381" lon="1.97195">
        <ele>150.45</ele>
        <time>2020-01-11T10:26:10Z</time>
      </trkpt>
      <trkpt lat="48.67381" lon="1.97196">
        <ele>150.39</ele>
        <time>2020-01-11T10:26:15Z</time>
      </trkpt>
      <trkpt lat="48.67381" lon="1.97196">
        <ele>150.4</ele>
        <time>2020-01-11T10:26:20Z</time>
      </trkpt>
      <trkpt lat="48.67381" lon="1.97196">
        <ele>150.46</ele>
        <time>2020-01-11T10:26:25Z</time>
      </trkpt>
      <trkpt lat="48.6738" lon="1.97196">
        <ele>150.46</ele>
        <time>2020-01-11T10:26:30Z</time>
      </trkpt>
      <trkpt lat="48.6738" lon="1.97196">
        <ele>150.62</ele>
        <time>2020-01-11T10:26:35Z</time>
      </trkpt>
      <trkpt lat="48.67381" lon="1.97196">
        <ele>150.76</ele>
        <time>2020-01-11T10:26:40Z</time>
      </trkpt>
      <trkpt lat="48.67381" lon="1.97195">
        <ele>150.6</ele>
        <time>2020-01-11T10:26:45Z</time>
      </trkpt>
      <trkpt lat="48.67381" lon="1.97195">
        <ele>150.64</ele>
        <time>2020-01-11T10:26:50Z</time>
      </trkpt>
      <trkpt lat="48.67381" lon="1.97195">
        <ele>150.72</ele>
        <time>2020-01-11T10:26:55Z</time>
      </trkpt>
      <trkpt lat="48.67382" lon="1.97195">
        <ele>150.88</ele>
        <time>2020-01-11T10:27:00Z</time>
      </trkpt>
      <trkpt lat="48.67382" lon="1.97195">
        <ele>150.93</ele>
        <time>2020-01-11T10:27:05Z</time>
      </trkpt>
      <trkpt lat="48.67382" lon="1.97195">
        <ele>150.89</ele>
        <time>2020-01-11T10:27:10Z</time>
      </trkpt>
      <trkpt lat="48.67382" lon="1.97195">
        <ele>150.71</ele>
        <time>2020-01-11T10:27:15Z</time>
      </trkpt>
      <trkpt lat="48.67382" lon="1.97195">
        <ele>150.77</ele>
        <time>2020-01-11T10:27:20Z</time>
      </trkpt>
      <trkpt lat="48.67382" lon="1.97195">
        <ele>150.93</ele>
        <time>2020-01-11T10:27:25Z</time>
      </trkpt>
      <trkpt lat="48.67382" lon="1.97195">
        <ele>150.96</ele>
        <time>2020-01-11T10:27:30Z</time>
      </trkpt>
      <trkpt lat="48.67382" lon="1.97195">
        <ele>150.83</ele>
        <time>2020-01-11T10:27:35Z</time>
      </trkpt>
      <trkpt lat="48.67382" lon="1.97195">
        <ele>150.83</ele>
        <time>2020-01-11T10:27:40Z</time>
      </trkpt>
      <trkpt lat="48.67382" lon="1.97195">
        <ele>150.94</ele>
        <time>2020-01-11T10:27:45Z</time>
      </trkpt>
      <trkpt lat="48.67382" lon="1.97195">
        <ele>151.09</ele>
        <time>2020-01-11T10:27:50Z</time>
      </trkpt>
      <trkpt lat="48.67382" lon="1.97195">
        <ele>151.2</ele>
        <time>2020-01-11T10:27:55Z</time>
      </trkpt>
      <trkpt lat="48.67382" lon="1.97195">
        <ele>151.09</ele>
        <time>2020-01-11T10:28:00Z</time>
      </trkpt>
      <trkpt lat="48.67382" lon="1.97195">
        <ele>151.09</ele>
        <time>2020-01-11T10:28:05Z</time>
      </trkpt>
      <trkpt lat="48.67382" lon="1.97195">
        <ele>151.21</ele>
        <time>2020-01-11T10:28:10Z</time>
      </trkpt>
      <trkpt lat="48.67382" lon="1.97195">
        <ele>151.37</ele>
        <time>2020-01-11T10:28:15Z</time>
      </trkpt>
      <trkpt lat="48.67382" lon="1.97196">
        <ele>151.39</ele>
        <time>2020-01-11T10:28:20Z</time>
      </trkpt>
      <trkpt lat="48.67382" lon="1.97196">
        <ele>151.35</ele>
        <time>2020-01-11T10:28:25Z</time>
      </trkpt>
      <trkpt lat="48.67382" lon="1.97196">
        <ele>151.39</ele>
        <time>2020-01-11T10:28:30Z</time>
      </trkpt>
      <trkpt lat="48.67382" lon="1.97195">
        <ele>151.33</ele>
        <time>2020-01-11T10:28:35Z</time>
      </trkpt>
      <trkpt lat="48.67382" lon="1.97195">
        <ele>151.33</ele>
        <time>2020-01-11T10:28:40Z</time>
      </trkpt>
      <trkpt lat="48.67382" lon="1.97195">
        <ele>151.32</ele>
        <time>2020-01-11T10:28:45Z</time>
      </trkpt>
      <trkpt lat="48.67382" lon="1.97195">
        <ele>151.39</ele>
        <time>2020-01-11T10:28:50Z</time>
      </trkpt>
      <trkpt lat="48.67383" lon="1.97195">
        <ele>151.47</ele>
        <time>2020-01-11T10:28:55Z</time>
      </trkpt>
      <trkpt lat="48.67383" lon="1.97195">
        <ele>151.66</ele>
        <time>2020-01-11T10:29:00Z</time>
      </trkpt>
      <trkpt lat="48.67383" lon="1.97195">
        <ele>151.5</ele>
        <time>2020-01-11T10:29:05Z</time>
      </trkpt>
      <trkpt lat="48.67383" lon="1.97195">
        <ele>151.47</ele>
        <time>2020-01-11T10:29:10Z</time>
      </trkpt>
      <trkpt lat="48.67383" lon="1.97195">
        <ele>151.55</ele>
        <time>2020-01-11T10:29:15Z</time>
      </trkpt>
      <trkpt lat="48.67382" lon="1.97195">
        <ele>151.47</ele>
        <time>2020-01-11T10:29:20Z</time>
      </trkpt>
      <trkpt lat="48.67383" lon="1.97195">
        <ele>151.46</ele>
        <time>2020-01-11T10:29:25Z</time>
      </trkpt>
      <trkpt lat="48.67384" lon="1.97195">
        <ele>151.44</ele>
        <time>2020-01-11T10:29:30Z</time>
      </trkpt>
      <trkpt lat="48.67387" lon="1.97199">
        <ele>151.39</ele>
        <time>2020-01-11T10:29:35Z</time>
      </trkpt>
      <trkpt lat="48.67389" lon="1.97203">
        <ele>151.74</ele>
        <time>2020-01-11T10:29:40Z</time>
      </trkpt>
      <trkpt lat="48.67392" lon="1.97209">
        <ele>152.39</ele>
        <time>2020-01-11T10:29:45Z</time>
      </trkpt>
      <trkpt lat="48.67396" lon="1.97214">
        <ele>153.02</ele>
        <time>2020-01-11T10:29:50Z</time>
      </trkpt>
      <trkpt lat="48.674" lon="1.9722">
        <ele>153.58</ele>
        <time>2020-01-11T10:29:55Z</time>
      </trkpt>
      <trkpt lat="48.67403" lon="1.97224">
        <ele>154.3</ele>
        <time>2020-01-11T10:30:00Z</time>
      </trkpt>
      <trkpt lat="48.67407" lon="1.97231">
        <ele>154.82</ele>
        <time>2020-01-11T10:30:05Z</time>
      </trkpt>
      <trkpt lat="48.67409" lon="1.97236">
        <ele>155.3</ele>
        <time>2020-01-11T10:30:10Z</time>
      </trkpt>
      <trkpt lat="48.67411" lon="1.97243">
        <ele>155.78</ele>
        <time>2020-01-11T10:30:15Z</time>
      </trkpt>
      <trkpt lat="48.67413" lon="1.9725">
        <ele>156.19</ele>
        <time>2020-01-11T10:30:20Z</time>
      </trkpt>
      <trkpt lat="48.67417" lon="1.97254">
        <ele>156.49</ele>
        <time>2020-01-11T10:30:25Z</time>
      </trkpt>
      <trkpt lat="48.67419" lon="1.9726">
        <ele>156.85</ele>
        <time>2020-01-11T10:30:30Z</time>
      </trkpt>
      <trkpt lat="48.67419" lon="1.97268">
        <ele>157.16</ele>
        <time>2020-01-11T10:30:35Z</time>
      </trkpt>
      <trkpt lat="48.67418" lon="1.97276">
        <ele>157.38</ele>
        <time>2020-01-11T10:30:40Z</time>
      </trkpt>
      <trkpt lat="48.67415" lon="1.97282">
        <ele>157.52</ele>
        <time>2020-01-11T10:30:45Z</time>
      </trkpt>
      <trkpt lat="48.67412" lon="1.97287">
        <ele>157.57</ele>
        <time>2020-01-11T10:30:50Z</time>
      </trkpt>
      <trkpt lat="48.67408" lon="1.97295">
        <ele>157.71</ele>
        <time>2020-01-11T10:30:55Z</time>
      </trkpt>
      <trkpt lat="48.67405" lon="1.97302">
        <ele>157.8</ele>
        <time>2020-01-11T10:31:00Z</time>
      </trkpt>
      <trkpt lat="48.67401" lon="1.97309">
        <ele>157.76</ele>
        <time>2020-01-11T10:31:05Z</time>
      </trkpt>
      <trkpt lat="48.67399" lon="1.97314">
        <ele>157.76</ele>
        <time>2020-01-11T10:31:10Z</time>
      </trkpt>
      <trkpt lat="48.67396" lon="1.9732">
        <ele>157.67</ele>
        <time>2020-01-11T10:31:15Z</time>
      </trkpt>
      <trkpt lat="48.67393" lon="1.97326">
        <ele>157.71</ele>
        <time>2020-01-11T10:31:20Z</time>
      </trkpt>
      <trkpt lat="48.67389" lon="1.97335">
        <ele>157.65</ele>
        <time>2020-01-11T10:31:26Z</time>
      </trkpt>
      <trkpt lat="48.67386" lon="1.9734">
        <ele>157.52</ele>
        <time>2020-01-11T10:31:31Z</time>
      </trkpt>
      <trkpt lat="48.67383" lon="1.97348">
        <ele>157.5</ele>
        <time>2020-01-11T10:31:36Z</time>
      </trkpt>
      <trkpt lat="48.67381" lon="1.97356">
        <ele>157.47</ele>
        <time>2020-01-11T10:31:41Z</time>
      </trkpt>
      <trkpt lat="48.67379" lon="1.97363">
        <ele>157.54</ele>
        <time>2020-01-11T10:31:46Z</time>
      </trkpt>
      <trkpt lat="48.67376" lon="1.9737">
        <ele>157.47</ele>
        <time>2020-01-11T10:31:51Z</time>
      </trkpt>
      <trkpt lat="48.67374" lon="1.97376">
        <ele>157.33</ele>
        <time>2020-01-11T10:31:56Z</time>
      </trkpt>
      <trkpt lat="48.67373" lon="1.97384">
        <ele>157.27</ele>
        <time>2020-01-11T10:32:01Z</time>
      </trkpt>
      <trkpt lat="48.67371" lon="1.97391">
        <ele>157.36</ele>
        <time>2020-01-11T10:32:06Z</time>
      </trkpt>
      <trkpt lat="48.67368" lon="1.97397">
        <ele>157.39</ele>
        <time>2020-01-11T10:32:11Z</time>
      </trkpt>
      <trkpt lat="48.67367" lon="1.97405">
        <ele>157.44</ele>
        <time>2020-01-11T10:32:16Z</time>
      </trkpt>
      <trkpt lat="48.67364" lon="1.97411">
        <ele>157.42</ele>
        <time>2020-01-11T10:32:21Z</time>
      </trkpt>
      <trkpt lat="48.67363" lon="1.97418">
        <ele>157.41</ele>
        <time>2020-01-11T10:32:26Z</time>
      </trkpt>
      <trkpt lat="48.6736" lon="1.97425">
        <ele>157.46</ele>
        <time>2020-01-11T10:32:31Z</time>
      </trkpt>
      <trkpt lat="48.67358" lon="1.97433">
        <ele>157.5</ele>
        <time>2020-01-11T10:32:36Z</time>
      </trkpt>
      <trkpt lat="48.67356" lon="1.97441">
        <ele>157.53</ele>
        <time>2020-01-11T10:32:41Z</time>
      </trkpt>
      <trkpt lat="48.67354" lon="1.9745">
        <ele>157.47</ele>
        <time>2020-01-11T10:32:46Z</time>
      </trkpt>
      <trkpt lat="48.67351" lon="1.97455">
        <ele>157.56</ele>
        <time>2020-01-11T10:32:51Z</time>
      </trkpt>
      <trkpt lat="48.67348" lon="1.97462">
        <ele>157.56</ele>
        <time>2020-01-11T10:32:56Z</time>
      </trkpt>
      <trkpt lat="48.67345" lon="1.97467">
        <ele>157.33</ele>
        <time>2020-01-11T10:33:01Z</time>
      </trkpt>
      <trkpt lat="48.67343" lon="1.97472">
        <ele>157.29</ele>
        <time>2020-01-11T10:33:06Z</time>
      </trkpt>
      <trkpt lat="48.67341" lon="1.97479">
        <ele>157.34</ele>
        <time>2020-01-11T10:33:11Z</time>
      </trkpt>
      <trkpt lat="48.67339" lon="1.97487">
        <ele>157.47</ele>
        <time>2020-01-11T10:33:16Z</time>
      </trkpt>
      <trkpt lat="48.67336" lon="1.97495">
        <ele>157.45</ele>
        <time>2020-01-11T10:33:21Z</time>
      </trkpt>
      <trkpt lat="48.67334" lon="1.97503">
        <ele>157.31</ele>
        <time>2020-01-11T10:33:26Z</time>
      </trkpt>
      <trkpt lat="48.67332" lon="1.97513">
        <ele>157.26</ele>
        <time>2020-01-11T10:33:31Z</time>
      </trkpt>
      <trkpt lat="48.67329" lon="1.9752">
        <ele>157.24</ele>
        <time>2020-01-11T10:33:36Z</time>
      </trkpt>
      <trkpt lat="48.67327" lon="1.97529">
        <ele>157.25</ele>
        <time>2020-01-11T10:33:41Z</time>
      </trkpt>
      <trkpt lat="48.67325" lon="1.97537">
        <ele>157.32</ele>
        <time>2020-01-11T10:33:46Z</time>
      </trkpt>
      <trkpt lat="48.67322" lon="1.97545">
        <ele>157.41</ele>
        <time>2020-01-11T10:33:51Z</time>
      </trkpt>
      <trkpt lat="48.67321" lon="1.97548">
        <ele>157.61</ele>
        <time>2020-01-11T10:33:56Z</time>
      </trkpt>
      <trkpt lat="48.67318" lon="1.97555">
        <ele>157.62</ele>
        <time>2020-01-11T10:34:01Z</time>
      </trkpt>
      <trkpt lat="48.67315" lon="1.97565">
        <ele>157.72</ele>
        <time>2020-01-11T10:34:06Z</time>
      </trkpt>
      <trkpt lat="48.67312" lon="1.97573">
        <ele>157.76</ele>
        <time>2020-01-11T10:34:11Z</time>
      </trkpt>
      <trkpt lat="48.6731" lon="1.97581">
        <ele>157.77</ele>
        <time>2020-01-11T10:34:16Z</time>
      </trkpt>
      <trkpt lat="48.67307" lon="1.97592">
        <ele>157.92</ele>
        <time>2020-01-11T10:34:21Z</time>
      </trkpt>
      <trkpt lat="48.67305" lon="1.97598">
        <ele>158.16</ele>
        <time>2020-01-11T10:34:26Z</time>
      </trkpt>
      <trkpt lat="48.67303" lon="1.97607">
        <ele>158.21</ele>
        <time>2020-01-11T10:34:31Z</time>
      </trkpt>
      <trkpt lat="48.67302" lon="1.97615">
        <ele>158.28</ele>
        <time>2020-01-11T10:34:36Z</time>
      </trkpt>
      <trkpt lat="48.673" lon="1.97626">
        <ele>158.23</ele>
        <time>2020-01-11T10:34:41Z</time>
      </trkpt>
      <trkpt lat="48.67299" lon="1.97633">
        <ele>158.15</ele>
        <time>2020-01-11T10:34:46Z</time>
      </trkpt>
      <trkpt lat="48.67296" lon="1.97642">
        <ele>158.25</ele>
        <time>2020-01-11T10:34:51Z</time>
      </trkpt>
      <trkpt lat="48.67294" lon="1.9765">
        <ele>158.33</ele>
        <time>2020-01-11T10:34:56Z</time>
      </trkpt>
      <trkpt lat="48.67292" lon="1.9766">
        <ele>158.39</ele>
        <time>2020-01-11T10:35:01Z</time>
      </trkpt>
      <trkpt lat="48.6729" lon="1.9767">
        <ele>158.51</ele>
        <time>2020-01-11T10:35:06Z</time>
      </trkpt>
      <trkpt lat="48.67287" lon="1.97676">
        <ele>158.67</ele>
        <time>2020-01-11T10:35:11Z</time>
      </trkpt>
      <trkpt lat="48.67286" lon="1.97683">
        <ele>158.7</ele>
        <time>2020-01-11T10:35:16Z</time>
      </trkpt>
      <trkpt lat="48.67284" lon="1.9769">
        <ele>158.67</ele>
        <time>2020-01-11T10:35:21Z</time>
      </trkpt>
      <trkpt lat="48.67282" lon="1.977">
        <ele>158.66</ele>
        <time>2020-01-11T10:35:26Z</time>
      </trkpt>
      <trkpt lat="48.6728" lon="1.97705">
        <ele>158.73</ele>
        <time>2020-01-11T10:35:31Z</time>
      </trkpt>
      <trkpt lat="48.67278" lon="1.97715">
        <ele>158.89</ele>
        <time>2020-01-11T10:35:36Z</time>
      </trkpt>
      <trkpt lat="48.67278" lon="1.97722">
        <ele>158.93</ele>
        <time>2020-01-11T10:35:41Z</time>
      </trkpt>
      <trkpt lat="48.67275" lon="1.97728">
        <ele>159.05</ele>
        <time>2020-01-11T10:35:46Z</time>
      </trkpt>
      <trkpt lat="48.67273" lon="1.97738">
        <ele>159.26</ele>
        <time>2020-01-11T10:35:51Z</time>
      </trkpt>
      <trkpt lat="48.67269" lon="1.97746">
        <ele>159.21</ele>
        <time>2020-01-11T10:35:56Z</time>
      </trkpt>
      <trkpt lat="48.67267" lon="1.97756">
        <ele>159.48</ele>
        <time>2020-01-11T10:36:01Z</time>
      </trkpt>
      <trkpt lat="48.67265" lon="1.97763">
        <ele>159.55</ele>
        <time>2020-01-11T10:36:06Z</time>
      </trkpt>
      <trkpt lat="48.67264" lon="1.9777">
        <ele>159.48</ele>
        <time>2020-01-11T10:36:11Z</time>
      </trkpt>
      <trkpt lat="48.67262" lon="1.97779">
        <ele>159.35</ele>
        <time>2020-01-11T10:36:16Z</time>
      </trkpt>
      <trkpt lat="48.6726" lon="1.97787">
        <ele>159.43</ele>
        <time>2020-01-11T10:36:21Z</time>
      </trkpt>
      <trkpt lat="48.67259" lon="1.97794">
        <ele>159.67</ele>
        <time>2020-01-11T10:36:26Z</time>
      </trkpt>
      <trkpt lat="48.67255" lon="1.97804">
        <ele>159.77</ele>
        <time>2020-01-11T10:36:31Z</time>
      </trkpt>
      <trkpt lat="48.67253" lon="1.97812">
        <ele>159.7</ele>
        <time>2020-01-11T10:36:36Z</time>
      </trkpt>
      <trkpt lat="48.6725" lon="1.97818">
        <ele>159.64</ele>
        <time>2020-01-11T10:36:41Z</time>
      </trkpt>
      <trkpt lat="48.67248" lon="1.97827">
        <ele>159.61</ele>
        <time>2020-01-11T10:36:46Z</time>
      </trkpt>
      <trkpt lat="48.67245" lon="1.97836">
        <ele>159.59</ele>
        <time>2020-01-11T10:36:51Z</time>
      </trkpt>
      <trkpt lat="48.67242" lon="1.97846">
        <ele>159.63</ele>
        <time>2020-01-11T10:36:56Z</time>
      </trkpt>
      <trkpt lat="48.6724" lon="1.97855">
        <ele>159.73</ele>
        <time>2020-01-11T10:37:01Z</time>
      </trkpt>
      <trkpt lat="48.67238" lon="1.97862">
        <ele>159.88</ele>
        <time>2020-01-11T10:37:06Z</time>
      </trkpt>
      <trkpt lat="48.67234" lon="1.97869">
        <ele>160.04</ele>
        <time>2020-01-11T10:37:11Z</time>
      </trkpt>
      <trkpt lat="48.6723" lon="1.97875">
        <ele>159.94</ele>
        <time>2020-01-11T10:37:16Z</time>
      </trkpt>
      <trkpt lat="48.67226" lon="1.97882">
        <ele>159.87</ele>
        <time>2020-01-11T10:37:21Z</time>
      </trkpt>
      <trkpt lat="48.67222" lon="1.9789">
        <ele>159.9</ele>
        <time>2020-01-11T10:37:26Z</time>
      </trkpt>
      <trkpt lat="48.67219" lon="1.979">
        <ele>159.93</ele>
        <time>2020-01-11T10:37:31Z</time>
      </trkpt>
      <trkpt lat="48.67217" lon="1.97909">
        <ele>160.06</ele>
        <time>2020-01-11T10:37:36Z</time>
      </trkpt>
      <trkpt lat="48.67215" lon="1.97915">
        <ele>160.18</ele>
        <time>2020-01-11T10:37:41Z</time>
      </trkpt>
      <trkpt lat="48.67212" lon="1.97923">
        <ele>160.28</ele>
        <time>2020-01-11T10:37:46Z</time>
      </trkpt>
      <trkpt lat="48.67209" lon="1.97932">
        <ele>160.29</ele>
        <time>2020-01-11T10:37:51Z</time>
      </trkpt>
      <trkpt lat="48.67205" lon="1.9794">
        <ele>160.29</ele>
        <time>2020-01-11T10:37:56Z</time>
      </trkpt>
      <trkpt lat="48.67201" lon="1.97947">
        <ele>160.37</ele>
        <time>2020-01-11T10:38:01Z</time>
      </trkpt>
      <trkpt lat="48.67198" lon="1.97954">
        <ele>160.38</ele>
        <time>2020-01-11T10:38:06Z</time>
      </trkpt>
      <trkpt lat="48.67196" lon="1.97964">
        <ele>160.4</ele>
        <time>2020-01-11T10:38:11Z</time>
      </trkpt>
      <trkpt lat="48.67194" lon="1.97974">
        <ele>160.6</ele>
        <time>2020-01-11T10:38:16Z</time>
      </trkpt>
      <trkpt lat="48.67191" lon="1.97983">
        <ele>160.69</ele>
        <time>2020-01-11T10:38:21Z</time>
      </trkpt>
      <trkpt lat="48.67188" lon="1.97992">
        <ele>160.68</ele>
        <time>2020-01-11T10:38:26Z</time>
      </trkpt>
      <trkpt lat="48.67185" lon="1.98002">
        <ele>160.73</ele>
        <time>2020-01-11T10:38:31Z</time>
      </trkpt>
      <trkpt lat="48.6718" lon="1.98012">
        <ele>160.85</ele>
        <time>2020-01-11T10:38:36Z</time>
      </trkpt>
      <trkpt lat="48.67175" lon="1.98021">
        <ele>160.98</ele>
        <time>2020-01-11T10:38:41Z</time>
      </trkpt>
      <trkpt lat="48.67172" lon="1.9803">
        <ele>160.99</ele>
        <time>2020-01-11T10:38:46Z</time>
      </trkpt>
      <trkpt lat="48.67169" lon="1.98039">
        <ele>160.88</ele>
        <time>2020-01-11T10:38:51Z</time>
      </trkpt>
      <trkpt lat="48.67166" lon="1.98048">
        <ele>160.86</ele>
        <time>2020-01-11T10:38:56Z</time>
      </trkpt>
      <trkpt lat="48.67162" lon="1.98056">
        <ele>161.03</ele>
        <time>2020-01-11T10:39:01Z</time>
      </trkpt>
      <trkpt lat="48.67158" lon="1.98064">
        <ele>161.04</ele>
        <time>2020-01-11T10:39:06Z</time>
      </trkpt>
      <trkpt lat="48.67154" lon="1.98074">
        <ele>161</ele>
        <time>2020-01-11T10:39:11Z</time>
      </trkpt>
      <trkpt lat="48.67152" lon="1.98082">
        <ele>160.94</ele>
        <time>2020-01-11T10:39:16Z</time>
      </trkpt>
      <trkpt lat="48.67148" lon="1.98089">
        <ele>160.87</ele>
        <time>2020-01-11T10:39:21Z</time>
      </trkpt>
      <trkpt lat="48.67146" lon="1.98097">
        <ele>161.18</ele>
        <time>2020-01-11T10:39:26Z</time>
      </trkpt>
      <trkpt lat="48.67143" lon="1.98105">
        <ele>161.19</ele>
        <time>2020-01-11T10:39:31Z</time>
      </trkpt>
      <trkpt lat="48.67141" lon="1.98113">
        <ele>161.16</ele>
        <time>2020-01-11T10:39:36Z</time>
      </trkpt>
      <trkpt lat="48.67137" lon="1.98123">
        <ele>161.15</ele>
        <time>2020-01-11T10:39:41Z</time>
      </trkpt>
      <trkpt lat="48.67135" lon="1.98131">
        <ele>161.1</ele>
        <time>2020-01-11T10:39:46Z</time>
      </trkpt>
      <trkpt lat="48.67132" lon="1.98139">
        <ele>161.18</ele>
        <time>2020-01-11T10:39:51Z</time>
      </trkpt>
      <trkpt lat="48.67128" lon="1.98144">
        <ele>161.22</ele>
        <time>2020-01-11T10:39:56Z</time>
      </trkpt>
      <trkpt lat="48.67124" lon="1.98153">
        <ele>161.37</ele>
        <time>2020-01-11T10:40:01Z</time>
      </trkpt>
      <trkpt lat="48.6712" lon="1.98161">
        <ele>161.46</ele>
        <time>2020-01-11T10:40:06Z</time>
      </trkpt>
      <trkpt lat="48.67118" lon="1.9817">
        <ele>161.53</ele>
        <time>2020-01-11T10:40:11Z</time>
      </trkpt>
      <trkpt lat="48.67115" lon="1.98179">
        <ele>161.62</ele>
        <time>2020-01-11T10:40:16Z</time>
      </trkpt>
      <trkpt lat="48.67112" lon="1.98188">
        <ele>161.62</ele>
        <time>2020-01-11T10:40:21Z</time>
      </trkpt>
      <trkpt lat="48.67109" lon="1.98195">
        <ele>161.56</ele>
        <time>2020-01-11T10:40:26Z</time>
      </trkpt>
      <trkpt lat="48.67106" lon="1.98201">
        <ele>161.6</ele>
        <time>2020-01-11T10:40:31Z</time>
      </trkpt>
      <trkpt lat="48.67103" lon="1.98209">
        <ele>161.57</ele>
        <time>2020-01-11T10:40:36Z</time>
      </trkpt>
      <trkpt lat="48.67101" lon="1.98216">
        <ele>161.53</ele>
        <time>2020-01-11T10:40:41Z</time>
      </trkpt>
      <trkpt lat="48.67099" lon="1.98223">
        <ele>161.32</ele>
        <time>2020-01-11T10:40:46Z</time>
      </trkpt>
      <trkpt lat="48.67095" lon="1.98231">
        <ele>161.26</ele>
        <time>2020-01-11T10:40:51Z</time>
      </trkpt>
      <trkpt lat="48.67093" lon="1.98238">
        <ele>161.4</ele>
        <time>2020-01-11T10:40:56Z</time>
      </trkpt>
      <trkpt lat="48.6709" lon="1.98245">
        <ele>161.32</ele>
        <time>2020-01-11T10:41:01Z</time>
      </trkpt>
      <trkpt lat="48.67086" lon="1.98252">
        <ele>161.19</ele>
        <time>2020-01-11T10:41:06Z</time>
      </trkpt>
      <trkpt lat="48.67084" lon="1.9826">
        <ele>161.01</ele>
        <time>2020-01-11T10:41:11Z</time>
      </trkpt>
      <trkpt lat="48.67086" lon="1.98267">
        <ele>160.97</ele>
        <time>2020-01-11T10:41:16Z</time>
      </trkpt>
      <trkpt lat="48.67087" lon="1.98277">
        <ele>161.09</ele>
        <time>2020-01-11T10:41:21Z</time>
      </trkpt>
      <trkpt lat="48.67085" lon="1.98284">
        <ele>161.1</ele>
        <time>2020-01-11T10:41:26Z</time>
      </trkpt>
      <trkpt lat="48.67082" lon="1.98291">
        <ele>160.84</ele>
        <time>2020-01-11T10:41:31Z</time>
      </trkpt>
      <trkpt lat="48.67079" lon="1.98299">
        <ele>160.62</ele>
        <time>2020-01-11T10:41:36Z</time>
      </trkpt>
      <trkpt lat="48.67076" lon="1.98304">
        <ele>160.59</ele>
        <time>2020-01-11T10:41:41Z</time>
      </trkpt>
      <trkpt lat="48.67073" lon="1.98312">
        <ele>160.59</ele>
        <time>2020-01-11T10:41:46Z</time>
      </trkpt>
      <trkpt lat="48.6707" lon="1.98319">
        <ele>160.56</ele>
        <time>2020-01-11T10:41:51Z</time>
      </trkpt>
      <trkpt lat="48.67068" lon="1.98326">
        <ele>160.56</ele>
        <time>2020-01-11T10:41:56Z</time>
      </trkpt>
      <trkpt lat="48.67064" lon="1.98335">
        <ele>160.59</ele>
        <time>2020-01-11T10:42:01Z</time>
      </trkpt>
      <trkpt lat="48.67061" lon="1.9834">
        <ele>160.5</ele>
        <time>2020-01-11T10:42:06Z</time>
      </trkpt>
      <trkpt lat="48.67058" lon="1.98348">
        <ele>160.53</ele>
        <time>2020-01-11T10:42:11Z</time>
      </trkpt>
      <trkpt lat="48.67056" lon="1.98353">
        <ele>160.5</ele>
        <time>2020-01-11T10:42:16Z</time>
      </trkpt>
      <trkpt lat="48.67051" lon="1.98358">
        <ele>160.49</ele>
        <time>2020-01-11T10:42:21Z</time>
      </trkpt>
      <trkpt lat="48.67047" lon="1.98358">
        <ele>160.61</ele>
        <time>2020-01-11T10:42:26Z</time>
      </trkpt>
      <trkpt lat="48.67042" lon="1.9836">
        <ele>160.47</ele>
        <time>2020-01-11T10:42:31Z</time>
      </trkpt>
      <trkpt lat="48.6704" lon="1.98366">
        <ele>160.32</ele>
        <time>2020-01-11T10:42:36Z</time>
      </trkpt>
      <trkpt lat="48.67037" lon="1.98375">
        <ele>160.27</ele>
        <time>2020-01-11T10:42:41Z</time>
      </trkpt>
      <trkpt lat="48.67034" lon="1.98384">
        <ele>160.31</ele>
        <time>2020-01-11T10:42:46Z</time>
      </trkpt>
      <trkpt lat="48.6703" lon="1.98394">
        <ele>160.25</ele>
        <time>2020-01-11T10:42:51Z</time>
      </trkpt>
      <trkpt lat="48.67027" lon="1.98403">
        <ele>160.31</ele>
        <time>2020-01-11T10:42:56Z</time>
      </trkpt>
      <trkpt lat="48.67023" lon="1.98413">
        <ele>160.31</ele>
        <time>2020-01-11T10:43:01Z</time>
      </trkpt>
      <trkpt lat="48.6702" lon="1.98422">
        <ele>160.29</ele>
        <time>2020-01-11T10:43:06Z</time>
      </trkpt>
      <trkpt lat="48.67018" lon="1.98432">
        <ele>160.2</ele>
        <time>2020-01-11T10:43:11Z</time>
      </trkpt>
      <trkpt lat="48.67016" lon="1.9844">
        <ele>160.14</ele>
        <time>2020-01-11T10:43:16Z</time>
      </trkpt>
      <trkpt lat="48.67013" lon="1.98447">
        <ele>160.07</ele>
        <time>2020-01-11T10:43:21Z</time>
      </trkpt>
      <trkpt lat="48.6701" lon="1.98451">
        <ele>159.96</ele>
        <time>2020-01-11T10:43:26Z</time>
      </trkpt>
      <trkpt lat="48.67008" lon="1.98457">
        <ele>160.09</ele>
        <time>2020-01-11T10:43:31Z</time>
      </trkpt>
      <trkpt lat="48.67004" lon="1.98464">
        <ele>160.14</ele>
        <time>2020-01-11T10:43:36Z</time>
      </trkpt>
      <trkpt lat="48.67001" lon="1.98472">
        <ele>160.19</ele>
        <time>2020-01-11T10:43:41Z</time>
      </trkpt>
      <trkpt lat="48.66998" lon="1.9848">
        <ele>160.16</ele>
        <time>2020-01-11T10:43:46Z</time>
      </trkpt>
      <trkpt lat="48.66995" lon="1.98489">
        <ele>160.11</ele>
        <time>2020-01-11T10:43:51Z</time>
      </trkpt>
      <trkpt lat="48.66991" lon="1.98498">
        <ele>160.04</ele>
        <time>2020-01-11T10:43:56Z</time>
      </trkpt>
      <trkpt lat="48.66989" lon="1.98507">
        <ele>160.07</ele>
        <time>2020-01-11T10:44:01Z</time>
      </trkpt>
      <trkpt lat="48.66986" lon="1.98515">
        <ele>160.07</ele>
        <time>2020-01-11T10:44:06Z</time>
      </trkpt>
      <trkpt lat="48.66984" lon="1.98524">
        <ele>160.14</ele>
        <time>2020-01-11T10:44:11Z</time>
      </trkpt>
      <trkpt lat="48.66982" lon="1.98534">
        <ele>160.31</ele>
        <time>2020-01-11T10:44:16Z</time>
      </trkpt>
      <trkpt lat="48.66979" lon="1.98544">
        <ele>160.39</ele>
        <time>2020-01-11T10:44:21Z</time>
      </trkpt>
      <trkpt lat="48.66977" lon="1.98553">
        <ele>160.31</ele>
        <time>2020-01-11T10:44:26Z</time>
      </trkpt>
      <trkpt lat="48.66973" lon="1.98562">
        <ele>160.4</ele>
        <time>2020-01-11T10:44:31Z</time>
      </trkpt>
      <trkpt lat="48.66969" lon="1.98571">
        <ele>160.45</ele>
        <time>2020-01-11T10:44:36Z</time>
      </trkpt>
      <trkpt lat="48.66967" lon="1.9858">
        <ele>160.58</ele>
        <time>2020-01-11T10:44:41Z</time>
      </trkpt>
      <trkpt lat="48.66964" lon="1.98589">
        <ele>160.62</ele>
        <time>2020-01-11T10:44:46Z</time>
      </trkpt>
      <trkpt lat="48.66962" lon="1.98598">
        <ele>160.67</ele>
        <time>2020-01-11T10:44:51Z</time>
      </trkpt>
      <trkpt lat="48.66961" lon="1.98604">
        <ele>160.7</ele>
        <time>2020-01-11T10:44:56Z</time>
      </trkpt>
      <trkpt lat="48.66959" lon="1.98612">
        <ele>160.68</ele>
        <time>2020-01-11T10:45:01Z</time>
      </trkpt>
      <trkpt lat="48.66957" lon="1.98622">
        <ele>160.63</ele>
        <time>2020-01-11T10:45:06Z</time>
      </trkpt>
      <trkpt lat="48.66955" lon="1.98632">
        <ele>160.7</ele>
        <time>2020-01-11T10:45:11Z</time>
      </trkpt>
      <trkpt lat="48.66952" lon="1.9864">
        <ele>160.8</ele>
        <time>2020-01-11T10:45:16Z</time>
      </trkpt>
      <trkpt lat="48.6695" lon="1.98645">
        <ele>160.71</ele>
        <time>2020-01-11T10:45:21Z</time>
      </trkpt>
      <trkpt lat="48.66948" lon="1.98654">
        <ele>160.64</ele>
        <time>2020-01-11T10:45:26Z</time>
      </trkpt>
      <trkpt lat="48.66946" lon="1.98664">
        <ele>160.73</ele>
        <time>2020-01-11T10:45:31Z</time>
      </trkpt>
      <trkpt lat="48.66944" lon="1.98673">
        <ele>160.75</ele>
        <time>2020-01-11T10:45:36Z</time>
      </trkpt>
      <trkpt lat="48.66941" lon="1.98681">
        <ele>160.79</ele>
        <time>2020-01-11T10:45:41Z</time>
      </trkpt>
      <trkpt lat="48.6694" lon="1.98688">
        <ele>161.02</ele>
        <time>2020-01-11T10:45:46Z</time>
      </trkpt>
      <trkpt lat="48.66938" lon="1.98695">
        <ele>161.13</ele>
        <time>2020-01-11T10:45:51Z</time>
      </trkpt>
      <trkpt lat="48.66937" lon="1.98703">
        <ele>161.15</ele>
        <time>2020-01-11T10:45:56Z</time>
      </trkpt>
      <trkpt lat="48.66934" lon="1.98713">
        <ele>160.99</ele>
        <time>2020-01-11T10:46:01Z</time>
      </trkpt>
      <trkpt lat="48.66932" lon="1.98721">
        <ele>161.01</ele>
        <time>2020-01-11T10:46:06Z</time>
      </trkpt>
      <trkpt lat="48.66931" lon="1.9873">
        <ele>161.08</ele>
        <time>2020-01-11T10:46:11Z</time>
      </trkpt>
      <trkpt lat="48.66928" lon="1.98739">
        <ele>161.01</ele>
        <time>2020-01-11T10:46:16Z</time>
      </trkpt>
      <trkpt lat="48.66924" lon="1.98749">
        <ele>161.15</ele>
        <time>2020-01-11T10:46:21Z</time>
      </trkpt>
      <trkpt lat="48.6692" lon="1.98759">
        <ele>161.3</ele>
        <time>2020-01-11T10:46:26Z</time>
      </trkpt>
      <trkpt lat="48.66918" lon="1.98768">
        <ele>161.57</ele>
        <time>2020-01-11T10:46:31Z</time>
      </trkpt>
      <trkpt lat="48.66914" lon="1.98776">
        <ele>161.59</ele>
        <time>2020-01-11T10:46:36Z</time>
      </trkpt>
      <trkpt lat="48.66911" lon="1.98784">
        <ele>161.58</ele>
        <time>2020-01-11T10:46:41Z</time>
      </trkpt>
      <trkpt lat="48.66909" lon="1.98794">
        <ele>161.54</ele>
        <time>2020-01-11T10:46:46Z</time>
      </trkpt>
      <trkpt lat="48.66907" lon="1.98804">
        <ele>161.49</ele>
        <time>2020-01-11T10:46:51Z</time>
      </trkpt>
      <trkpt lat="48.66906" lon="1.98811">
        <ele>161.57</ele>
        <time>2020-01-11T10:46:56Z</time>
      </trkpt>
      <trkpt lat="48.66905" lon="1.98819">
        <ele>161.71</ele>
        <time>2020-01-11T10:47:01Z</time>
      </trkpt>
      <trkpt lat="48.66903" lon="1.98829">
        <ele>161.76</ele>
        <time>2020-01-11T10:47:06Z</time>
      </trkpt>
      <trkpt lat="48.669" lon="1.98836">
        <ele>161.88</ele>
        <time>2020-01-11T10:47:11Z</time>
      </trkpt>
      <trkpt lat="48.66896" lon="1.9884">
        <ele>161.98</ele>
        <time>2020-01-11T10:47:16Z</time>
      </trkpt>
      <trkpt lat="48.66891" lon="1.98839">
        <ele>162.17</ele>
        <time>2020-01-11T10:47:21Z</time>
      </trkpt>
      <trkpt lat="48.66885" lon="1.98839">
        <ele>162.03</ele>
        <time>2020-01-11T10:47:26Z</time>
      </trkpt>
      <trkpt lat="48.66881" lon="1.9884">
        <ele>162.05</ele>
        <time>2020-01-11T10:47:31Z</time>
      </trkpt>
      <trkpt lat="48.66877" lon="1.98843">
        <ele>162.14</ele>
        <time>2020-01-11T10:47:36Z</time>
      </trkpt>
      <trkpt lat="48.66873" lon="1.98848">
        <ele>162.14</ele>
        <time>2020-01-11T10:47:41Z</time>
      </trkpt>
      <trkpt lat="48.66867" lon="1.98853">
        <ele>161.95</ele>
        <time>2020-01-11T10:47:46Z</time>
      </trkpt>
      <trkpt lat="48.66863" lon="1.98854">
        <ele>161.87</ele>
        <time>2020-01-11T10:47:51Z</time>
      </trkpt>
      <trkpt lat="48.66857" lon="1.98854">
        <ele>161.76</ele>
        <time>2020-01-11T10:47:56Z</time>
      </trkpt>
      <trkpt lat="48.66851" lon="1.98854">
        <ele>161.49</ele>
        <time>2020-01-11T10:48:01Z</time>
      </trkpt>
      <trkpt lat="48.66845" lon="1.98854">
        <ele>161.66</ele>
        <time>2020-01-11T10:48:06Z</time>
      </trkpt>
      <trkpt lat="48.6684" lon="1.98853">
        <ele>161.73</ele>
        <time>2020-01-11T10:48:11Z</time>
      </trkpt>
      <trkpt lat="48.66834" lon="1.98853">
        <ele>161.72</ele>
        <time>2020-01-11T10:48:16Z</time>
      </trkpt>
      <trkpt lat="48.66827" lon="1.98852">
        <ele>161.64</ele>
        <time>2020-01-11T10:48:21Z</time>
      </trkpt>
      <trkpt lat="48.66823" lon="1.98851">
        <ele>161.47</ele>
        <time>2020-01-11T10:48:26Z</time>
      </trkpt>
      <trkpt lat="48.66816" lon="1.9885">
        <ele>161.26</ele>
        <time>2020-01-11T10:48:31Z</time>
      </trkpt>
      <trkpt lat="48.66812" lon="1.98845">
        <ele>161.3</ele>
        <time>2020-01-11T10:48:36Z</time>
      </trkpt>
      <trkpt lat="48.66807" lon="1.98846">
        <ele>161.42</ele>
        <time>2020-01-11T10:48:41Z</time>
      </trkpt>
      <trkpt lat="48.66803" lon="1.98846">
        <ele>161.57</ele>
        <time>2020-01-11T10:48:46Z</time>
      </trkpt>
      <trkpt lat="48.66803" lon="1.98844">
        <ele>161.67</ele>
        <time>2020-01-11T10:48:51Z</time>
      </trkpt>
      <trkpt lat="48.66803" lon="1.98843">
        <ele>161.73</ele>
        <time>2020-01-11T10:48:56Z</time>
      </trkpt>
      <trkpt lat="48.66804" lon="1.98842">
        <ele>161.84</ele>
        <time>2020-01-11T10:49:01Z</time>
      </trkpt>
      <trkpt lat="48.66804" lon="1.9884">
        <ele>161.96</ele>
        <time>2020-01-11T10:49:06Z</time>
      </trkpt>
      <trkpt lat="48.66805" lon="1.9884">
        <ele>162.04</ele>
        <time>2020-01-11T10:49:11Z</time>
      </trkpt>
      <trkpt lat="48.66804" lon="1.9884">
        <ele>162.13</ele>
        <time>2020-01-11T10:49:16Z</time>
      </trkpt>
      <trkpt lat="48.66804" lon="1.9884">
        <ele>162.14</ele>
        <time>2020-01-11T10:49:21Z</time>
      </trkpt>
      <trkpt lat="48.66804" lon="1.9884">
        <ele>162.18</ele>
        <time>2020-01-11T10:49:26Z</time>
      </trkpt>
      <trkpt lat="48.66804" lon="1.9884">
        <ele>162.42</ele>
        <time>2020-01-11T10:49:31Z</time>
      </trkpt>
      <trkpt lat="48.66803" lon="1.9884">
        <ele>162.37</ele>
        <time>2020-01-11T10:49:36Z</time>
      </trkpt>
      <trkpt lat="48.66802" lon="1.98841">
        <ele>162.4</ele>
        <time>2020-01-11T10:49:41Z</time>
      </trkpt>
      <trkpt lat="48.66803" lon="1.9884">
        <ele>162.27</ele>
        <time>2020-01-11T10:49:46Z</time>
      </trkpt>
      <trkpt lat="48.66804" lon="1.9884">
        <ele>162.3</ele>
        <time>2020-01-11T10:49:51Z</time>
      </trkpt>
      <trkpt lat="48.66804" lon="1.98841">
        <ele>162.49</ele>
        <time>2020-01-11T10:49:56Z</time>
      </trkpt>
      <trkpt lat="48.66804" lon="1.98841">
        <ele>162.48</ele>
        <time>2020-01-11T10:50:01Z</time>
      </trkpt>
      <trkpt lat="48.66804" lon="1.98838">
        <ele>162.48</ele>
        <time>2020-01-11T10:50:06Z</time>
      </trkpt>
      <trkpt lat="48.66806" lon="1.98832">
        <ele>162.57</ele>
        <time>2020-01-11T10:50:11Z</time>
      </trkpt>
      <trkpt lat="48.66808" lon="1.98826">
        <ele>162.56</ele>
        <time>2020-01-11T10:50:16Z</time>
      </trkpt>
      <trkpt lat="48.66809" lon="1.98819">
        <ele>162.41</ele>
        <time>2020-01-11T10:50:21Z</time>
      </trkpt>
      <trkpt lat="48.66806" lon="1.98814">
        <ele>162.19</ele>
        <time>2020-01-11T10:50:26Z</time>
      </trkpt>
      <trkpt lat="48.66803" lon="1.98812">
        <ele>161.9</ele>
        <time>2020-01-11T10:50:31Z</time>
      </trkpt>
      <trkpt lat="48.66802" lon="1.98811">
        <ele>161.86</ele>
        <time>2020-01-11T10:50:36Z</time>
      </trkpt>
      <trkpt lat="48.66802" lon="1.98811">
        <ele>161.85</ele>
        <time>2020-01-11T10:50:41Z</time>
      </trkpt>
      <trkpt lat="48.66801" lon="1.98811">
        <ele>161.75</ele>
        <time>2020-01-11T10:50:46Z</time>
      </trkpt>
      <trkpt lat="48.66801" lon="1.98811">
        <ele>161.77</ele>
        <time>2020-01-11T10:50:51Z</time>
      </trkpt>
      <trkpt lat="48.66801" lon="1.98812">
        <ele>161.74</ele>
        <time>2020-01-11T10:50:56Z</time>
      </trkpt>
      <trkpt lat="48.66801" lon="1.98812">
        <ele>161.79</ele>
        <time>2020-01-11T10:51:01Z</time>
      </trkpt>
      <trkpt lat="48.66801" lon="1.98812">
        <ele>161.92</ele>
        <time>2020-01-11T10:51:06Z</time>
      </trkpt>
      <trkpt lat="48.668" lon="1.98812">
        <ele>162.07</ele>
        <time>2020-01-11T10:51:11Z</time>
      </trkpt>
      <trkpt lat="48.668" lon="1.98812">
        <ele>161.87</ele>
        <time>2020-01-11T10:51:16Z</time>
      </trkpt>
      <trkpt lat="48.668" lon="1.98812">
        <ele>161.81</ele>
        <time>2020-01-11T10:51:21Z</time>
      </trkpt>
      <trkpt lat="48.668" lon="1.98812">
        <ele>161.79</ele>
        <time>2020-01-11T10:51:26Z</time>
      </trkpt>
      <trkpt lat="48.66801" lon="1.98811">
        <ele>161.84</ele>
        <time>2020-01-11T10:51:31Z</time>
      </trkpt>
      <trkpt lat="48.66801" lon="1.9881">
        <ele>161.75</ele>
        <time>2020-01-11T10:51:36Z</time>
      </trkpt>
      <trkpt lat="48.66802" lon="1.9881">
        <ele>161.88</ele>
        <time>2020-01-11T10:51:41Z</time>
      </trkpt>
      <trkpt lat="48.66802" lon="1.98809">
        <ele>161.93</ele>
        <time>2020-01-11T10:51:46Z</time>
      </trkpt>
      <trkpt lat="48.66801" lon="1.98808">
        <ele>161.96</ele>
        <time>2020-01-11T10:51:51Z</time>
      </trkpt>
      <trkpt lat="48.66801" lon="1.98808">
        <ele>162</ele>
        <time>2020-01-11T10:51:56Z</time>
      </trkpt>
      <trkpt lat="48.66801" lon="1.98808">
        <ele>161.98</ele>
        <time>2020-01-11T10:52:01Z</time>
      </trkpt>
      <trkpt lat="48.668" lon="1.98808">
        <ele>161.92</ele>
        <time>2020-01-11T10:52:06Z</time>
      </trkpt>
      <trkpt lat="48.66801" lon="1.98809">
        <ele>161.92</ele>
        <time>2020-01-11T10:52:11Z</time>
      </trkpt>
      <trkpt lat="48.66802" lon="1.9881">
        <ele>161.93</ele>
        <time>2020-01-11T10:52:16Z</time>
      </trkpt>
      <trkpt lat="48.66801" lon="1.9881">
        <ele>161.93</ele>
        <time>2020-01-11T10:52:21Z</time>
      </trkpt>
      <trkpt lat="48.66801" lon="1.98809">
        <ele>161.93</ele>
        <time>2020-01-11T10:52:26Z</time>
      </trkpt>
      <trkpt lat="48.66802" lon="1.98809">
        <ele>162.02</ele>
        <time>2020-01-11T10:52:31Z</time>
      </trkpt>
      <trkpt lat="48.66803" lon="1.9881">
        <ele>162.16</ele>
        <time>2020-01-11T10:52:36Z</time>
      </trkpt>
      <trkpt lat="48.66803" lon="1.9881">
        <ele>162.07</ele>
        <time>2020-01-11T10:52:41Z</time>
      </trkpt>
      <trkpt lat="48.66803" lon="1.9881">
        <ele>162.13</ele>
        <time>2020-01-11T10:52:46Z</time>
      </trkpt>
      <trkpt lat="48.66803" lon="1.9881">
        <ele>162.16</ele>
        <time>2020-01-11T10:52:51Z</time>
      </trkpt>
      <trkpt lat="48.66803" lon="1.9881">
        <ele>162.21</ele>
        <time>2020-01-11T10:52:56Z</time>
      </trkpt>
      <trkpt lat="48.66803" lon="1.98811">
        <ele>162.34</ele>
        <time>2020-01-11T10:53:01Z</time>
      </trkpt>
      <trkpt lat="48.66804" lon="1.98811">
        <ele>162.32</ele>
        <time>2020-01-11T10:53:06Z</time>
      </trkpt>
      <trkpt lat="48.66804" lon="1.98811">
        <ele>162.33</ele>
        <time>2020-01-11T10:53:11Z</time>
      </trkpt>
      <trkpt lat="48.66804" lon="1.98811">
        <ele>162.42</ele>
        <time>2020-01-11T10:53:16Z</time>
      </trkpt>
      <trkpt lat="48.66803" lon="1.98811">
        <ele>162.45</ele>
        <time>2020-01-11T10:53:21Z</time>
      </trkpt>
      <trkpt lat="48.66803" lon="1.98811">
        <ele>162.44</ele>
        <time>2020-01-11T10:53:26Z</time>
      </trkpt>
      <trkpt lat="48.66802" lon="1.9881">
        <ele>162.41</ele>
        <time>2020-01-11T10:53:31Z</time>
      </trkpt>
      <trkpt lat="48.66801" lon="1.9881">
        <ele>162.45</ele>
        <time>2020-01-11T10:53:36Z</time>
      </trkpt>
      <trkpt lat="48.66801" lon="1.9881">
        <ele>162.6</ele>
        <time>2020-01-11T10:53:41Z</time>
      </trkpt>
      <trkpt lat="48.66801" lon="1.9881">
        <ele>162.55</ele>
        <time>2020-01-11T10:53:46Z</time>
      </trkpt>
      <trkpt lat="48.668" lon="1.9881">
        <ele>162.53</ele>
        <time>2020-01-11T10:53:51Z</time>
      </trkpt>
      <trkpt lat="48.668" lon="1.9881">
        <ele>162.44</ele>
        <time>2020-01-11T10:53:56Z</time>
      </trkpt>
      <trkpt lat="48.66801" lon="1.9881">
        <ele>162.47</ele>
        <time>2020-01-11T10:54:01Z</time>
      </trkpt>
      <trkpt lat="48.66801" lon="1.9881">
        <ele>162.58</ele>
        <time>2020-01-11T10:54:06Z</time>
      </trkpt>
      <trkpt lat="48.66801" lon="1.9881">
        <ele>162.79</ele>
        <time>2020-01-11T10:54:11Z</time>
      </trkpt>
      <trkpt lat="48.66801" lon="1.9881">
        <ele>162.83</ele>
        <time>2020-01-11T10:54:16Z</time>
      </trkpt>
      <trkpt lat="48.66801" lon="1.9881">
        <ele>162.78</ele>
        <time>2020-01-11T10:54:21Z</time>
      </trkpt>
      <trkpt lat="48.66801" lon="1.9881">
        <ele>162.72</ele>
        <time>2020-01-11T10:54:26Z</time>
      </trkpt>
      <trkpt lat="48.66801" lon="1.98811">
        <ele>162.77</ele>
        <time>2020-01-11T10:54:31Z</time>
      </trkpt>
      <trkpt lat="48.66801" lon="1.98811">
        <ele>162.92</ele>
        <time>2020-01-11T10:54:36Z</time>
      </trkpt>
      <trkpt lat="48.66801" lon="1.98811">
        <ele>162.95</ele>
        <time>2020-01-11T10:54:41Z</time>
      </trkpt>
      <trkpt lat="48.66802" lon="1.98811">
        <ele>162.94</ele>
        <time>2020-01-11T10:54:46Z</time>
      </trkpt>
      <trkpt lat="48.66802" lon="1.98812">
        <ele>162.82</ele>
        <time>2020-01-11T10:54:51Z</time>
      </trkpt>
      <trkpt lat="48.66803" lon="1.98812">
        <ele>162.79</ele>
        <time>2020-01-11T10:54:56Z</time>
      </trkpt>
      <trkpt lat="48.66803" lon="1.98812">
        <ele>162.77</ele>
        <time>2020-01-11T10:55:01Z</time>
      </trkpt>
      <trkpt lat="48.66804" lon="1.98812">
        <ele>162.76</ele>
        <time>2020-01-11T10:55:06Z</time>
      </trkpt>
      <trkpt lat="48.66804" lon="1.98813">
        <ele>162.83</ele>
        <time>2020-01-11T10:55:11Z</time>
      </trkpt>
      <trkpt lat="48.66804" lon="1.98813">
        <ele>162.93</ele>
        <time>2020-01-11T10:55:16Z</time>
      </trkpt>
      <trkpt lat="48.66804" lon="1.98813">
        <ele>162.93</ele>
        <time>2020-01-11T10:55:21Z</time>
      </trkpt>
      <trkpt lat="48.66803" lon="1.98812">
        <ele>162.96</ele>
        <time>2020-01-11T10:55:26Z</time>
      </trkpt>
      <trkpt lat="48.66802" lon="1.98812">
        <ele>162.96</ele>
        <time>2020-01-11T10:55:31Z</time>
      </trkpt>
      <trkpt lat="48.66802" lon="1.98811">
        <ele>163.2</ele>
        <time>2020-01-11T10:55:36Z</time>
      </trkpt>
      <trkpt lat="48.66801" lon="1.98811">
        <ele>163.17</ele>
        <time>2020-01-11T10:55:41Z</time>
      </trkpt>
      <trkpt lat="48.66799" lon="1.98811">
        <ele>163.28</ele>
        <time>2020-01-11T10:55:46Z</time>
      </trkpt>
      <trkpt lat="48.66798" lon="1.9881">
        <ele>163.24</ele>
        <time>2020-01-11T10:55:51Z</time>
      </trkpt>
      <trkpt lat="48.66799" lon="1.9881">
        <ele>163.27</ele>
        <time>2020-01-11T10:55:56Z</time>
      </trkpt>
      <trkpt lat="48.66799" lon="1.98811">
        <ele>163.27</ele>
        <time>2020-01-11T10:56:01Z</time>
      </trkpt>
      <trkpt lat="48.66799" lon="1.98811">
        <ele>163.27</ele>
        <time>2020-01-11T10:56:06Z</time>
      </trkpt>
      <trkpt lat="48.668" lon="1.98811">
        <ele>163.17</ele>
        <time>2020-01-11T10:56:11Z</time>
      </trkpt>
      <trkpt lat="48.668" lon="1.98811">
        <ele>163.28</ele>
        <time>2020-01-11T10:56:16Z</time>
      </trkpt>
      <trkpt lat="48.668" lon="1.9881">
        <ele>163.45</ele>
        <time>2020-01-11T10:56:21Z</time>
      </trkpt>
      <trkpt lat="48.668" lon="1.9881">
        <ele>163.49</ele>
        <time>2020-01-11T10:56:26Z</time>
      </trkpt>
      <trkpt lat="48.66801" lon="1.98809">
        <ele>163.52</ele>
        <time>2020-01-11T10:56:31Z</time>
      </trkpt>
      <trkpt lat="48.66801" lon="1.98809">
        <ele>163.56</ele>
        <time>2020-01-11T10:56:36Z</time>
      </trkpt>
      <trkpt lat="48.66801" lon="1.98808">
        <ele>163.47</ele>
        <time>2020-01-11T10:56:41Z</time>
      </trkpt>
      <trkpt lat="48.668" lon="1.98807">
        <ele>163.57</ele>
        <time>2020-01-11T10:56:46Z</time>
      </trkpt>
      <trkpt lat="48.668" lon="1.98807">
        <ele>163.66</ele>
        <time>2020-01-11T10:56:51Z</time>
      </trkpt>
      <trkpt lat="48.668" lon="1.98808">
        <ele>163.65</ele>
        <time>2020-01-11T10:56:56Z</time>
      </trkpt>
      <trkpt lat="48.66801" lon="1.98808">
        <ele>163.63</ele>
        <time>2020-01-11T10:57:01Z</time>
      </trkpt>
      <trkpt lat="48.66801" lon="1.98808">
        <ele>163.64</ele>
        <time>2020-01-11T10:57:06Z</time>
      </trkpt>
      <trkpt lat="48.66801" lon="1.98808">
        <ele>163.58</ele>
        <time>2020-01-11T10:57:11Z</time>
      </trkpt>
      <trkpt lat="48.66801" lon="1.98808">
        <ele>163.49</ele>
        <time>2020-01-11T10:57:16Z</time>
      </trkpt>
      <trkpt lat="48.668" lon="1.98808">
        <ele>163.51</ele>
        <time>2020-01-11T10:57:21Z</time>
      </trkpt>
      <trkpt lat="48.668" lon="1.98808">
        <ele>163.47</ele>
        <time>2020-01-11T10:57:26Z</time>
      </trkpt>
      <trkpt lat="48.66801" lon="1.98809">
        <ele>163.37</ele>
        <time>2020-01-11T10:57:31Z</time>
      </trkpt>
      <trkpt lat="48.66801" lon="1.98809">
        <ele>163.35</ele>
        <time>2020-01-11T10:57:36Z</time>
      </trkpt>
      <trkpt lat="48.66801" lon="1.98809">
        <ele>163.38</ele>
        <time>2020-01-11T10:57:41Z</time>
      </trkpt>
      <trkpt lat="48.668" lon="1.9881">
        <ele>163.36</ele>
        <time>2020-01-11T10:57:46Z</time>
      </trkpt>
      <trkpt lat="48.668" lon="1.98811">
        <ele>163.48</ele>
        <time>2020-01-11T10:57:51Z</time>
      </trkpt>
      <trkpt lat="48.66799" lon="1.98811">
        <ele>163.45</ele>
        <time>2020-01-11T10:57:56Z</time>
      </trkpt>
      <trkpt lat="48.66799" lon="1.98812">
        <ele>163.38</ele>
        <time>2020-01-11T10:58:01Z</time>
      </trkpt>
      <trkpt lat="48.668" lon="1.98813">
        <ele>163.23</ele>
        <time>2020-01-11T10:58:06Z</time>
      </trkpt>
      <trkpt lat="48.668" lon="1.98813">
        <ele>163.21</ele>
        <time>2020-01-11T10:58:11Z</time>
      </trkpt>
      <trkpt lat="48.668" lon="1.98813">
        <ele>163.17</ele>
        <time>2020-01-11T10:58:16Z</time>
      </trkpt>
      <trkpt lat="48.668" lon="1.98813">
        <ele>163.25</ele>
        <time>2020-01-11T10:58:21Z</time>
      </trkpt>
      <trkpt lat="48.668" lon="1.98814">
        <ele>163.32</ele>
        <time>2020-01-11T10:58:26Z</time>
      </trkpt>
      <trkpt lat="48.668" lon="1.98814">
        <ele>163.24</ele>
        <time>2020-01-11T10:58:31Z</time>
      </trkpt>
      <trkpt lat="48.668" lon="1.98813">
        <ele>163.07</ele>
        <time>2020-01-11T10:58:36Z</time>
      </trkpt>
      <trkpt lat="48.668" lon="1.98813">
        <ele>163.21</ele>
        <time>2020-01-11T10:58:41Z</time>
      </trkpt>
      <trkpt lat="48.66799" lon="1.98812">
        <ele>163.29</ele>
        <time>2020-01-11T10:58:46Z</time>
      </trkpt>
      <trkpt lat="48.66799" lon="1.98812">
        <ele>163.3</ele>
        <time>2020-01-11T10:58:51Z</time>
      </trkpt>
      <trkpt lat="48.66799" lon="1.98812">
        <ele>163.25</ele>
        <time>2020-01-11T10:58:56Z</time>
      </trkpt>
      <trkpt lat="48.66799" lon="1.98811">
        <ele>163.48</ele>
        <time>2020-01-11T10:59:01Z</time>
      </trkpt>
      <trkpt lat="48.668" lon="1.98811">
        <ele>163.66</ele>
        <time>2020-01-11T10:59:06Z</time>
      </trkpt>
      <trkpt lat="48.668" lon="1.98811">
        <ele>163.67</ele>
        <time>2020-01-11T10:59:11Z</time>
      </trkpt>
      <trkpt lat="48.668" lon="1.98811">
        <ele>163.66</ele>
        <time>2020-01-11T10:59:16Z</time>
      </trkpt>
      <trkpt lat="48.668" lon="1.9881">
        <ele>163.71</ele>
        <time>2020-01-11T10:59:21Z</time>
      </trkpt>
      <trkpt lat="48.668" lon="1.98809">
        <ele>163.8</ele>
        <time>2020-01-11T10:59:26Z</time>
      </trkpt>
      <trkpt lat="48.66801" lon="1.98809">
        <ele>163.8</ele>
        <time>2020-01-11T10:59:31Z</time>
      </trkpt>
      <trkpt lat="48.66801" lon="1.9881">
        <ele>163.95</ele>
        <time>2020-01-11T10:59:36Z</time>
      </trkpt>
      <trkpt lat="48.66803" lon="1.98811">
        <ele>164.04</ele>
        <time>2020-01-11T10:59:41Z</time>
      </trkpt>
      <trkpt lat="48.66802" lon="1.98811">
        <ele>164.24</ele>
        <time>2020-01-11T10:59:46Z</time>
      </trkpt>
      <trkpt lat="48.668" lon="1.98812">
        <ele>164.38</ele>
        <time>2020-01-11T10:59:51Z</time>
      </trkpt>
      <trkpt lat="48.66798" lon="1.98809">
        <ele>164.52</ele>
        <time>2020-01-11T10:59:56Z</time>
      </trkpt>
      <trkpt lat="48.66794" lon="1.98808">
        <ele>164.61</ele>
        <time>2020-01-11T11:00:01Z</time>
      </trkpt>
      <trkpt lat="48.6679" lon="1.98807">
        <ele>164.63</ele>
        <time>2020-01-11T11:00:06Z</time>
      </trkpt>
      <trkpt lat="48.6679" lon="1.98806">
        <ele>164.69</ele>
        <time>2020-01-11T11:00:11Z</time>
      </trkpt>
      <trkpt lat="48.6679" lon="1.98806">
        <ele>164.84</ele>
        <time>2020-01-11T11:00:16Z</time>
      </trkpt>
      <trkpt lat="48.6679" lon="1.98809">
        <ele>164.71</ele>
        <time>2020-01-11T11:00:21Z</time>
      </trkpt>
      <trkpt lat="48.6679" lon="1.98809">
        <ele>164.7</ele>
        <time>2020-01-11T11:00:26Z</time>
      </trkpt>
      <trkpt lat="48.6679" lon="1.98808">
        <ele>164.94</ele>
        <time>2020-01-11T11:00:31Z</time>
      </trkpt>
      <trkpt lat="48.66791" lon="1.98807">
        <ele>165.04</ele>
        <time>2020-01-11T11:00:36Z</time>
      </trkpt>
      <trkpt lat="48.66793" lon="1.98808">
        <ele>164.97</ele>
        <time>2020-01-11T11:00:41Z</time>
      </trkpt>
      <trkpt lat="48.66789" lon="1.98806">
        <ele>164.79</ele>
        <time>2020-01-11T11:00:46Z</time>
      </trkpt>
      <trkpt lat="48.66782" lon="1.98805">
        <ele>164.97</ele>
        <time>2020-01-11T11:00:51Z</time>
      </trkpt>
      <trkpt lat="48.66779" lon="1.98804">
        <ele>165.22</ele>
        <time>2020-01-11T11:00:56Z</time>
      </trkpt>
      <trkpt lat="48.66779" lon="1.98805">
        <ele>165.35</ele>
        <time>2020-01-11T11:01:01Z</time>
      </trkpt>
      <trkpt lat="48.66778" lon="1.98806">
        <ele>165.34</ele>
        <time>2020-01-11T11:01:06Z</time>
      </trkpt>
      <trkpt lat="48.66776" lon="1.98807">
        <ele>165.31</ele>
        <time>2020-01-11T11:01:11Z</time>
      </trkpt>
      <trkpt lat="48.66775" lon="1.98806">
        <ele>165.29</ele>
        <time>2020-01-11T11:01:16Z</time>
      </trkpt>
      <trkpt lat="48.66773" lon="1.98804">
        <ele>165.27</ele>
        <time>2020-01-11T11:01:21Z</time>
      </trkpt>
      <trkpt lat="48.66773" lon="1.98804">
        <ele>165.33</ele>
        <time>2020-01-11T11:01:26Z</time>
      </trkpt>
      <trkpt lat="48.66774" lon="1.98802">
        <ele>165.38</ele>
        <time>2020-01-11T11:01:31Z</time>
      </trkpt>
      <trkpt lat="48.66774" lon="1.98802">
        <ele>165.25</ele>
        <time>2020-01-11T11:01:36Z</time>
      </trkpt>
      <trkpt lat="48.66775" lon="1.98801">
        <ele>165.2</ele>
        <time>2020-01-11T11:01:41Z</time>
      </trkpt>
      <trkpt lat="48.66775" lon="1.98798">
        <ele>165.32</ele>
        <time>2020-01-11T11:01:46Z</time>
      </trkpt>
      <trkpt lat="48.66773" lon="1.98798">
        <ele>165.46</ele>
        <time>2020-01-11T11:01:51Z</time>
      </trkpt>
      <trkpt lat="48.66772" lon="1.98798">
        <ele>165.47</ele>
        <time>2020-01-11T11:01:56Z</time>
      </trkpt>
      <trkpt lat="48.6677" lon="1.98798">
        <ele>165.47</ele>
        <time>2020-01-11T11:02:01Z</time>
      </trkpt>
      <trkpt lat="48.66769" lon="1.98797">
        <ele>165.55</ele>
        <time>2020-01-11T11:02:06Z</time>
      </trkpt>
      <trkpt lat="48.66767" lon="1.98796">
        <ele>165.64</ele>
        <time>2020-01-11T11:02:11Z</time>
      </trkpt>
      <trkpt lat="48.66766" lon="1.98796">
        <ele>165.91</ele>
        <time>2020-01-11T11:02:16Z</time>
      </trkpt>
      <trkpt lat="48.66766" lon="1.98796">
        <ele>165.92</ele>
        <time>2020-01-11T11:02:21Z</time>
      </trkpt>
      <trkpt lat="48.66767" lon="1.98797">
        <ele>165.58</ele>
        <time>2020-01-11T11:02:26Z</time>
      </trkpt>
      <trkpt lat="48.66767" lon="1.98797">
        <ele>165.63</ele>
        <time>2020-01-11T11:02:31Z</time>
      </trkpt>
      <trkpt lat="48.66767" lon="1.98796">
        <ele>165.74</ele>
        <time>2020-01-11T11:02:36Z</time>
      </trkpt>
      <trkpt lat="48.66767" lon="1.98797">
        <ele>165.74</ele>
        <time>2020-01-11T11:02:41Z</time>
      </trkpt>
      <trkpt lat="48.66769" lon="1.98797">
        <ele>165.71</ele>
        <time>2020-01-11T11:02:46Z</time>
      </trkpt>
      <trkpt lat="48.66769" lon="1.98799">
        <ele>165.87</ele>
        <time>2020-01-11T11:02:51Z</time>
      </trkpt>
      <trkpt lat="48.66768" lon="1.98799">
        <ele>165.89</ele>
        <time>2020-01-11T11:02:56Z</time>
      </trkpt>
      <trkpt lat="48.66767" lon="1.98799">
        <ele>166.04</ele>
        <time>2020-01-11T11:03:01Z</time>
      </trkpt>
      <trkpt lat="48.66768" lon="1.98799">
        <ele>163.91</ele>
        <time>2020-01-11T11:03:02Z</time>
      </trkpt>
      <trkpt lat="48.66779" lon="1.9881">
        <ele>174</ele>
        <time>2020-01-11T13:33:37Z</time>
      </trkpt>
      <trkpt lat="48.6678" lon="1.9881">
        <ele>174.31</ele>
        <time>2020-01-11T13:33:42Z</time>
      </trkpt>
      <trkpt lat="48.6678" lon="1.98811">
        <ele>174.2</ele>
        <time>2020-01-11T13:33:47Z</time>
      </trkpt>
      <trkpt lat="48.66779" lon="1.9881">
        <ele>174.18</ele>
        <time>2020-01-11T13:33:52Z</time>
      </trkpt>
      <trkpt lat="48.66779" lon="1.98809">
        <ele>174.12</ele>
        <time>2020-01-11T13:33:57Z</time>
      </trkpt>
      <trkpt lat="48.6678" lon="1.98808">
        <ele>174.16</ele>
        <time>2020-01-11T13:34:02Z</time>
      </trkpt>
      <trkpt lat="48.66781" lon="1.98808">
        <ele>174.23</ele>
        <time>2020-01-11T13:34:07Z</time>
      </trkpt>
      <trkpt lat="48.66782" lon="1.98808">
        <ele>174.4</ele>
        <time>2020-01-11T13:34:12Z</time>
      </trkpt>
      <trkpt lat="48.66783" lon="1.98807">
        <ele>174.45</ele>
        <time>2020-01-11T13:34:17Z</time>
      </trkpt>
      <trkpt lat="48.66784" lon="1.98806">
        <ele>174.53</ele>
        <time>2020-01-11T13:34:22Z</time>
      </trkpt>
      <trkpt lat="48.66784" lon="1.98806">
        <ele>174.47</ele>
        <time>2020-01-11T13:34:27Z</time>
      </trkpt>
      <trkpt lat="48.66783" lon="1.98806">
        <ele>174.44</ele>
        <time>2020-01-11T13:34:32Z</time>
      </trkpt>
      <trkpt lat="48.66783" lon="1.98807">
        <ele>174.45</ele>
        <time>2020-01-11T13:34:37Z</time>
      </trkpt>
      <trkpt lat="48.66783" lon="1.98807">
        <ele>174.45</ele>
        <time>2020-01-11T13:34:42Z</time>
      </trkpt>
      <trkpt lat="48.66783" lon="1.98809">
        <ele>174.44</ele>
        <time>2020-01-11T13:34:47Z</time>
      </trkpt>
      <trkpt lat="48.66782" lon="1.98809">
        <ele>174.49</ele>
        <time>2020-01-11T13:34:52Z</time>
      </trkpt>
      <trkpt lat="48.66782" lon="1.98809">
        <ele>174.45</ele>
        <time>2020-01-11T13:34:57Z</time>
      </trkpt>
      <trkpt lat="48.66782" lon="1.98809">
        <ele>174.56</ele>
        <time>2020-01-11T13:35:02Z</time>
      </trkpt>
      <trkpt lat="48.66781" lon="1.98808">
        <ele>174.67</ele>
        <time>2020-01-11T13:35:07Z</time>
      </trkpt>
      <trkpt lat="48.66781" lon="1.98808">
        <ele>174.55</ele>
        <time>2020-01-11T13:35:12Z</time>
      </trkpt>
      <trkpt lat="48.66781" lon="1.98807">
        <ele>174.27</ele>
        <time>2020-01-11T13:35:17Z</time>
      </trkpt>
      <trkpt lat="48.66782" lon="1.98807">
        <ele>174.27</ele>
        <time>2020-01-11T13:35:22Z</time>
      </trkpt>
      <trkpt lat="48.66782" lon="1.98807">
        <ele>174.29</ele>
        <time>2020-01-11T13:35:27Z</time>
      </trkpt>
      <trkpt lat="48.66782" lon="1.98807">
        <ele>174.21</ele>
        <time>2020-01-11T13:35:32Z</time>
      </trkpt>
      <trkpt lat="48.66782" lon="1.98807">
        <ele>174.09</ele>
        <time>2020-01-11T13:35:37Z</time>
      </trkpt>
      <trkpt lat="48.66783" lon="1.98807">
        <ele>174.24</ele>
        <time>2020-01-11T13:35:42Z</time>
      </trkpt>
      <trkpt lat="48.66783" lon="1.98807">
        <ele>174.41</ele>
        <time>2020-01-11T13:35:47Z</time>
      </trkpt>
      <trkpt lat="48.66783" lon="1.98807">
        <ele>174.63</ele>
        <time>2020-01-11T13:35:52Z</time>
      </trkpt>
      <trkpt lat="48.66783" lon="1.98808">
        <ele>174.69</ele>
        <time>2020-01-11T13:35:57Z</time>
      </trkpt>
      <trkpt lat="48.66783" lon="1.98808">
        <ele>174.72</ele>
        <time>2020-01-11T13:36:02Z</time>
      </trkpt>
      <trkpt lat="48.66784" lon="1.98808">
        <ele>174.72</ele>
        <time>2020-01-11T13:36:07Z</time>
      </trkpt>
      <trkpt lat="48.66784" lon="1.98807">
        <ele>174.65</ele>
        <time>2020-01-11T13:36:12Z</time>
      </trkpt>
      <trkpt lat="48.66784" lon="1.98807">
        <ele>174.66</ele>
        <time>2020-01-11T13:36:17Z</time>
      </trkpt>
      <trkpt lat="48.66784" lon="1.98807">
        <ele>174.63</ele>
        <time>2020-01-11T13:36:22Z</time>
      </trkpt>
      <trkpt lat="48.66785" lon="1.98806">
        <ele>174.45</ele>
        <time>2020-01-11T13:36:27Z</time>
      </trkpt>
      <trkpt lat="48.66784" lon="1.98805">
        <ele>174.5</ele>
        <time>2020-01-11T13:36:32Z</time>
      </trkpt>
      <trkpt lat="48.66784" lon="1.98805">
        <ele>174.48</ele>
        <time>2020-01-11T13:36:37Z</time>
      </trkpt>
      <trkpt lat="48.66784" lon="1.98805">
        <ele>174.51</ele>
        <time>2020-01-11T13:36:42Z</time>
      </trkpt>
      <trkpt lat="48.66784" lon="1.98804">
        <ele>174.38</ele>
        <time>2020-01-11T13:36:47Z</time>
      </trkpt>
      <trkpt lat="48.66783" lon="1.98804">
        <ele>174.53</ele>
        <time>2020-01-11T13:36:52Z</time>
      </trkpt>
      <trkpt lat="48.66784" lon="1.98805">
        <ele>174.94</ele>
        <time>2020-01-11T13:36:57Z</time>
      </trkpt>
      <trkpt lat="48.66784" lon="1.98805">
        <ele>175.13</ele>
        <time>2020-01-11T13:37:02Z</time>
      </trkpt>
      <trkpt lat="48.66785" lon="1.98806">
        <ele>175.22</ele>
        <time>2020-01-11T13:37:07Z</time>
      </trkpt>
      <trkpt lat="48.66784" lon="1.98807">
        <ele>175.24</ele>
        <time>2020-01-11T13:37:12Z</time>
      </trkpt>
      <trkpt lat="48.66784" lon="1.98807">
        <ele>175.22</ele>
        <time>2020-01-11T13:37:17Z</time>
      </trkpt>
      <trkpt lat="48.66785" lon="1.98806">
        <ele>175.14</ele>
        <time>2020-01-11T13:37:22Z</time>
      </trkpt>
      <trkpt lat="48.66785" lon="1.98806">
        <ele>174.96</ele>
        <time>2020-01-11T13:37:27Z</time>
      </trkpt>
      <trkpt lat="48.66785" lon="1.98806">
        <ele>174.95</ele>
        <time>2020-01-11T13:37:32Z</time>
      </trkpt>
      <trkpt lat="48.66785" lon="1.98806">
        <ele>175.02</ele>
        <time>2020-01-11T13:37:37Z</time>
      </trkpt>
      <trkpt lat="48.66785" lon="1.98806">
        <ele>174.98</ele>
        <time>2020-01-11T13:37:42Z</time>
      </trkpt>
      <trkpt lat="48.66785" lon="1.98807">
        <ele>174.91</ele>
        <time>2020-01-11T13:37:47Z</time>
      </trkpt>
      <trkpt lat="48.66785" lon="1.98806">
        <ele>174.82</ele>
        <time>2020-01-11T13:37:52Z</time>
      </trkpt>
      <trkpt lat="48.66786" lon="1.98807">
        <ele>174.91</ele>
        <time>2020-01-11T13:37:57Z</time>
      </trkpt>
      <trkpt lat="48.66785" lon="1.98808">
        <ele>174.94</ele>
        <time>2020-01-11T13:38:02Z</time>
      </trkpt>
      <trkpt lat="48.66785" lon="1.98808">
        <ele>174.79</ele>
        <time>2020-01-11T13:38:07Z</time>
      </trkpt>
      <trkpt lat="48.66785" lon="1.98809">
        <ele>174.96</ele>
        <time>2020-01-11T13:38:12Z</time>
      </trkpt>
      <trkpt lat="48.66785" lon="1.98809">
        <ele>175.18</ele>
        <time>2020-01-11T13:38:17Z</time>
      </trkpt>
      <trkpt lat="48.66784" lon="1.98809">
        <ele>174.99</ele>
        <time>2020-01-11T13:38:22Z</time>
      </trkpt>
      <trkpt lat="48.66784" lon="1.98807">
        <ele>175.06</ele>
        <time>2020-01-11T13:38:27Z</time>
      </trkpt>
      <trkpt lat="48.66783" lon="1.98808">
        <ele>174.9</ele>
        <time>2020-01-11T13:38:32Z</time>
      </trkpt>
      <trkpt lat="48.66782" lon="1.98808">
        <ele>174.89</ele>
        <time>2020-01-11T13:38:37Z</time>
      </trkpt>
      <trkpt lat="48.66782" lon="1.98809">
        <ele>174.82</ele>
        <time>2020-01-11T13:38:42Z</time>
      </trkpt>
      <trkpt lat="48.66783" lon="1.9881">
        <ele>174.74</ele>
        <time>2020-01-11T13:38:47Z</time>
      </trkpt>
      <trkpt lat="48.66783" lon="1.98811">
        <ele>174.71</ele>
        <time>2020-01-11T13:38:52Z</time>
      </trkpt>
      <trkpt lat="48.66783" lon="1.98812">
        <ele>174.6</ele>
        <time>2020-01-11T13:38:57Z</time>
      </trkpt>
      <trkpt lat="48.66784" lon="1.98813">
        <ele>174.75</ele>
        <time>2020-01-11T13:39:02Z</time>
      </trkpt>
      <trkpt lat="48.66784" lon="1.98813">
        <ele>174.82</ele>
        <time>2020-01-11T13:39:07Z</time>
      </trkpt>
      <trkpt lat="48.66787" lon="1.98813">
        <ele>174.5</ele>
        <time>2020-01-11T13:39:12Z</time>
      </trkpt>
      <trkpt lat="48.6679" lon="1.98815">
        <ele>174.06</ele>
        <time>2020-01-11T13:39:17Z</time>
      </trkpt>
      <trkpt lat="48.66795" lon="1.98817">
        <ele>173.93</ele>
        <time>2020-01-11T13:39:22Z</time>
      </trkpt>
      <trkpt lat="48.66799" lon="1.98817">
        <ele>174.03</ele>
        <time>2020-01-11T13:39:27Z</time>
      </trkpt>
      <trkpt lat="48.66804" lon="1.98817">
        <ele>173.97</ele>
        <time>2020-01-11T13:39:32Z</time>
      </trkpt>
      <trkpt lat="48.66808" lon="1.98819">
        <ele>173.86</ele>
        <time>2020-01-11T13:39:37Z</time>
      </trkpt>
      <trkpt lat="48.66811" lon="1.98822">
        <ele>173.99</ele>
        <time>2020-01-11T13:39:42Z</time>
      </trkpt>
      <trkpt lat="48.66812" lon="1.98826">
        <ele>174.13</ele>
        <time>2020-01-11T13:39:47Z</time>
      </trkpt>
      <trkpt lat="48.66812" lon="1.98827">
        <ele>174.31</ele>
        <time>2020-01-11T13:39:52Z</time>
      </trkpt>
      <trkpt lat="48.66813" lon="1.98827">
        <ele>174.4</ele>
        <time>2020-01-11T13:39:57Z</time>
      </trkpt>
      <trkpt lat="48.66813" lon="1.98829">
        <ele>174.32</ele>
        <time>2020-01-11T13:40:02Z</time>
      </trkpt>
      <trkpt lat="48.66812" lon="1.9883">
        <ele>174.43</ele>
        <time>2020-01-11T13:40:07Z</time>
      </trkpt>
      <trkpt lat="48.66811" lon="1.98832">
        <ele>174.68</ele>
        <time>2020-01-11T13:40:12Z</time>
      </trkpt>
      <trkpt lat="48.66808" lon="1.98836">
        <ele>174.7</ele>
        <time>2020-01-11T13:40:17Z</time>
      </trkpt>
      <trkpt lat="48.66805" lon="1.98843">
        <ele>174.68</ele>
        <time>2020-01-11T13:40:22Z</time>
      </trkpt>
      <trkpt lat="48.66805" lon="1.98848">
        <ele>174.58</ele>
        <time>2020-01-11T13:40:27Z</time>
      </trkpt>
      <trkpt lat="48.6681" lon="1.9885">
        <ele>174.44</ele>
        <time>2020-01-11T13:40:32Z</time>
      </trkpt>
      <trkpt lat="48.66816" lon="1.98851">
        <ele>174.35</ele>
        <time>2020-01-11T13:40:37Z</time>
      </trkpt>
      <trkpt lat="48.66822" lon="1.98852">
        <ele>174.18</ele>
        <time>2020-01-11T13:40:42Z</time>
      </trkpt>
      <trkpt lat="48.66827" lon="1.98853">
        <ele>174.19</ele>
        <time>2020-01-11T13:40:47Z</time>
      </trkpt>
      <trkpt lat="48.66832" lon="1.98854">
        <ele>174.41</ele>
        <time>2020-01-11T13:40:52Z</time>
      </trkpt>
      <trkpt lat="48.66837" lon="1.98855">
        <ele>174.62</ele>
        <time>2020-01-11T13:40:57Z</time>
      </trkpt>
      <trkpt lat="48.66842" lon="1.98856">
        <ele>174.51</ele>
        <time>2020-01-11T13:41:02Z</time>
      </trkpt>
      <trkpt lat="48.66848" lon="1.98856">
        <ele>174.54</ele>
        <time>2020-01-11T13:41:07Z</time>
      </trkpt>
      <trkpt lat="48.66853" lon="1.98857">
        <ele>174.42</ele>
        <time>2020-01-11T13:41:12Z</time>
      </trkpt>
      <trkpt lat="48.66857" lon="1.98856">
        <ele>174.34</ele>
        <time>2020-01-11T13:41:17Z</time>
      </trkpt>
      <trkpt lat="48.66862" lon="1.98855">
        <ele>174.36</ele>
        <time>2020-01-11T13:41:22Z</time>
      </trkpt>
      <trkpt lat="48.66867" lon="1.9885">
        <ele>174.51</ele>
        <time>2020-01-11T13:41:27Z</time>
      </trkpt>
      <trkpt lat="48.66872" lon="1.98845">
        <ele>174.5</ele>
        <time>2020-01-11T13:41:32Z</time>
      </trkpt>
      <trkpt lat="48.66879" lon="1.98842">
        <ele>174.44</ele>
        <time>2020-01-11T13:41:37Z</time>
      </trkpt>
      <trkpt lat="48.66886" lon="1.98842">
        <ele>174.58</ele>
        <time>2020-01-11T13:41:42Z</time>
      </trkpt>
      <trkpt lat="48.6689" lon="1.98843">
        <ele>174.7</ele>
        <time>2020-01-11T13:41:47Z</time>
      </trkpt>
      <trkpt lat="48.66895" lon="1.98845">
        <ele>174.84</ele>
        <time>2020-01-11T13:41:52Z</time>
      </trkpt>
      <trkpt lat="48.66898" lon="1.98851">
        <ele>174.84</ele>
        <time>2020-01-11T13:41:57Z</time>
      </trkpt>
      <trkpt lat="48.66902" lon="1.98859">
        <ele>174.87</ele>
        <time>2020-01-11T13:42:02Z</time>
      </trkpt>
      <trkpt lat="48.66906" lon="1.98863">
        <ele>174.89</ele>
        <time>2020-01-11T13:42:07Z</time>
      </trkpt>
      <trkpt lat="48.66912" lon="1.98866">
        <ele>174.88</ele>
        <time>2020-01-11T13:42:12Z</time>
      </trkpt>
      <trkpt lat="48.66918" lon="1.98868">
        <ele>174.79</ele>
        <time>2020-01-11T13:42:17Z</time>
      </trkpt>
      <trkpt lat="48.66925" lon="1.98869">
        <ele>174.71</ele>
        <time>2020-01-11T13:42:22Z</time>
      </trkpt>
      <trkpt lat="48.6693" lon="1.9887">
        <ele>174.95</ele>
        <time>2020-01-11T13:42:27Z</time>
      </trkpt>
      <trkpt lat="48.66936" lon="1.98871">
        <ele>175.09</ele>
        <time>2020-01-11T13:42:32Z</time>
      </trkpt>
      <trkpt lat="48.66941" lon="1.98873">
        <ele>175.48</ele>
        <time>2020-01-11T13:42:37Z</time>
      </trkpt>
      <trkpt lat="48.66946" lon="1.98874">
        <ele>175.8</ele>
        <time>2020-01-11T13:42:42Z</time>
      </trkpt>
      <trkpt lat="48.66952" lon="1.98875">
        <ele>175.73</ele>
        <time>2020-01-11T13:42:47Z</time>
      </trkpt>
      <trkpt lat="48.66957" lon="1.98876">
        <ele>175.63</ele>
        <time>2020-01-11T13:42:52Z</time>
      </trkpt>
      <trkpt lat="48.66964" lon="1.98877">
        <ele>175.64</ele>
        <time>2020-01-11T13:42:57Z</time>
      </trkpt>
      <trkpt lat="48.6697" lon="1.98878">
        <ele>175.61</ele>
        <time>2020-01-11T13:43:02Z</time>
      </trkpt>
      <trkpt lat="48.66976" lon="1.9888">
        <ele>175.72</ele>
        <time>2020-01-11T13:43:07Z</time>
      </trkpt>
      <trkpt lat="48.66981" lon="1.98881">
        <ele>175.9</ele>
        <time>2020-01-11T13:43:12Z</time>
      </trkpt>
      <trkpt lat="48.66987" lon="1.98882">
        <ele>175.99</ele>
        <time>2020-01-11T13:43:17Z</time>
      </trkpt>
      <trkpt lat="48.66993" lon="1.98883">
        <ele>176.22</ele>
        <time>2020-01-11T13:43:22Z</time>
      </trkpt>
      <trkpt lat="48.67" lon="1.98885">
        <ele>176.4</ele>
        <time>2020-01-11T13:43:27Z</time>
      </trkpt>
      <trkpt lat="48.67005" lon="1.98886">
        <ele>176.44</ele>
        <time>2020-01-11T13:43:32Z</time>
      </trkpt>
      <trkpt lat="48.67011" lon="1.98888">
        <ele>176.52</ele>
        <time>2020-01-11T13:43:37Z</time>
      </trkpt>
      <trkpt lat="48.67016" lon="1.98889">
        <ele>176.76</ele>
        <time>2020-01-11T13:43:42Z</time>
      </trkpt>
      <trkpt lat="48.67021" lon="1.98887">
        <ele>176.76</ele>
        <time>2020-01-11T13:43:47Z</time>
      </trkpt>
      <trkpt lat="48.67026" lon="1.98889">
        <ele>176.8</ele>
        <time>2020-01-11T13:43:52Z</time>
      </trkpt>
      <trkpt lat="48.67032" lon="1.98891">
        <ele>176.84</ele>
        <time>2020-01-11T13:43:57Z</time>
      </trkpt>
      <trkpt lat="48.67038" lon="1.98891">
        <ele>176.89</ele>
        <time>2020-01-11T13:44:02Z</time>
      </trkpt>
      <trkpt lat="48.67044" lon="1.98892">
        <ele>176.89</ele>
        <time>2020-01-11T13:44:07Z</time>
      </trkpt>
      <trkpt lat="48.6705" lon="1.98893">
        <ele>176.87</ele>
        <time>2020-01-11T13:44:12Z</time>
      </trkpt>
      <trkpt lat="48.67056" lon="1.98894">
        <ele>176.9</ele>
        <time>2020-01-11T13:44:17Z</time>
      </trkpt>
      <trkpt lat="48.67062" lon="1.98894">
        <ele>176.97</ele>
        <time>2020-01-11T13:44:22Z</time>
      </trkpt>
      <trkpt lat="48.6707" lon="1.98895">
        <ele>176.91</ele>
        <time>2020-01-11T13:44:27Z</time>
      </trkpt>
      <trkpt lat="48.67078" lon="1.98897">
        <ele>176.85</ele>
        <time>2020-01-11T13:44:32Z</time>
      </trkpt>
      <trkpt lat="48.67084" lon="1.98899">
        <ele>177.05</ele>
        <time>2020-01-11T13:44:37Z</time>
      </trkpt>
      <trkpt lat="48.67091" lon="1.989">
        <ele>177.13</ele>
        <time>2020-01-11T13:44:42Z</time>
      </trkpt>
      <trkpt lat="48.67097" lon="1.98902">
        <ele>177.22</ele>
        <time>2020-01-11T13:44:47Z</time>
      </trkpt>
      <trkpt lat="48.67102" lon="1.98902">
        <ele>177.18</ele>
        <time>2020-01-11T13:44:52Z</time>
      </trkpt>
      <trkpt lat="48.67108" lon="1.98903">
        <ele>177.1</ele>
        <time>2020-01-11T13:44:57Z</time>
      </trkpt>
      <trkpt lat="48.67115" lon="1.98904">
        <ele>177.13</ele>
        <time>2020-01-11T13:45:02Z</time>
      </trkpt>
      <trkpt lat="48.67122" lon="1.98906">
        <ele>177.18</ele>
        <time>2020-01-11T13:45:07Z</time>
      </trkpt>
      <trkpt lat="48.67129" lon="1.98907">
        <ele>177.25</ele>
        <time>2020-01-11T13:45:12Z</time>
      </trkpt>
      <trkpt lat="48.67136" lon="1.98909">
        <ele>177.2</ele>
        <time>2020-01-11T13:45:17Z</time>
      </trkpt>
      <trkpt lat="48.67142" lon="1.98911">
        <ele>177.43</ele>
        <time>2020-01-11T13:45:22Z</time>
      </trkpt>
      <trkpt lat="48.67148" lon="1.98912">
        <ele>177.56</ele>
        <time>2020-01-11T13:45:27Z</time>
      </trkpt>
      <trkpt lat="48.67154" lon="1.98912">
        <ele>177.42</ele>
        <time>2020-01-11T13:45:32Z</time>
      </trkpt>
      <trkpt lat="48.6716" lon="1.98913">
        <ele>177.6</ele>
        <time>2020-01-11T13:45:37Z</time>
      </trkpt>
      <trkpt lat="48.67166" lon="1.98915">
        <ele>177.69</ele>
        <time>2020-01-11T13:45:42Z</time>
      </trkpt>
      <trkpt lat="48.67173" lon="1.98915">
        <ele>177.46</ele>
        <time>2020-01-11T13:45:47Z</time>
      </trkpt>
      <trkpt lat="48.67179" lon="1.98917">
        <ele>177.45</ele>
        <time>2020-01-11T13:45:52Z</time>
      </trkpt>
      <trkpt lat="48.67185" lon="1.98919">
        <ele>177.73</ele>
        <time>2020-01-11T13:45:57Z</time>
      </trkpt>
      <trkpt lat="48.6719" lon="1.98914">
        <ele>178.04</ele>
        <time>2020-01-11T13:46:02Z</time>
      </trkpt>
      <trkpt lat="48.67192" lon="1.98906">
        <ele>178.16</ele>
        <time>2020-01-11T13:46:07Z</time>
      </trkpt>
      <trkpt lat="48.67195" lon="1.98898">
        <ele>177.88</ele>
        <time>2020-01-11T13:46:12Z</time>
      </trkpt>
      <trkpt lat="48.67198" lon="1.98889">
        <ele>177.6</ele>
        <time>2020-01-11T13:46:17Z</time>
      </trkpt>
      <trkpt lat="48.67201" lon="1.9888">
        <ele>177.49</ele>
        <time>2020-01-11T13:46:22Z</time>
      </trkpt>
      <trkpt lat="48.67204" lon="1.98873">
        <ele>177.58</ele>
        <time>2020-01-11T13:46:27Z</time>
      </trkpt>
      <trkpt lat="48.67207" lon="1.98864">
        <ele>177.87</ele>
        <time>2020-01-11T13:46:32Z</time>
      </trkpt>
      <trkpt lat="48.67209" lon="1.98855">
        <ele>177.86</ele>
        <time>2020-01-11T13:46:37Z</time>
      </trkpt>
      <trkpt lat="48.67213" lon="1.98847">
        <ele>178.02</ele>
        <time>2020-01-11T13:46:42Z</time>
      </trkpt>
      <trkpt lat="48.67215" lon="1.98839">
        <ele>177.92</ele>
        <time>2020-01-11T13:46:47Z</time>
      </trkpt>
      <trkpt lat="48.67218" lon="1.9883">
        <ele>177.86</ele>
        <time>2020-01-11T13:46:52Z</time>
      </trkpt>
      <trkpt lat="48.67221" lon="1.98821">
        <ele>177.87</ele>
        <time>2020-01-11T13:46:57Z</time>
      </trkpt>
      <trkpt lat="48.67224" lon="1.98812">
        <ele>178.12</ele>
        <time>2020-01-11T13:47:02Z</time>
      </trkpt>
      <trkpt lat="48.67227" lon="1.98803">
        <ele>178.26</ele>
        <time>2020-01-11T13:47:07Z</time>
      </trkpt>
      <trkpt lat="48.6723" lon="1.98794">
        <ele>178.22</ele>
        <time>2020-01-11T13:47:12Z</time>
      </trkpt>
      <trkpt lat="48.67233" lon="1.98785">
        <ele>178.04</ele>
        <time>2020-01-11T13:47:17Z</time>
      </trkpt>
      <trkpt lat="48.67237" lon="1.98777">
        <ele>177.99</ele>
        <time>2020-01-11T13:47:22Z</time>
      </trkpt>
      <trkpt lat="48.67239" lon="1.98768">
        <ele>177.85</ele>
        <time>2020-01-11T13:47:27Z</time>
      </trkpt>
      <trkpt lat="48.67242" lon="1.98759">
        <ele>177.58</ele>
        <time>2020-01-11T13:47:32Z</time>
      </trkpt>
      <trkpt lat="48.67245" lon="1.9875">
        <ele>177.27</ele>
        <time>2020-01-11T13:47:37Z</time>
      </trkpt>
      <trkpt lat="48.67247" lon="1.98742">
        <ele>177.12</ele>
        <time>2020-01-11T13:47:42Z</time>
      </trkpt>
      <trkpt lat="48.6725" lon="1.98734">
        <ele>177.1</ele>
        <time>2020-01-11T13:47:47Z</time>
      </trkpt>
      <trkpt lat="48.67253" lon="1.98726">
        <ele>177.04</ele>
        <time>2020-01-11T13:47:52Z</time>
      </trkpt>
      <trkpt lat="48.67255" lon="1.98717">
        <ele>177.32</ele>
        <time>2020-01-11T13:47:57Z</time>
      </trkpt>
      <trkpt lat="48.67258" lon="1.98709">
        <ele>177.6</ele>
        <time>2020-01-11T13:48:02Z</time>
      </trkpt>
      <trkpt lat="48.67261" lon="1.987">
        <ele>177.61</ele>
        <time>2020-01-11T13:48:07Z</time>
      </trkpt>
      <trkpt lat="48.67264" lon="1.9869">
        <ele>177.56</ele>
        <time>2020-01-11T13:48:12Z</time>
      </trkpt>
      <trkpt lat="48.67267" lon="1.98681">
        <ele>177.65</ele>
        <time>2020-01-11T13:48:17Z</time>
      </trkpt>
      <trkpt lat="48.67271" lon="1.98673">
        <ele>177.82</ele>
        <time>2020-01-11T13:48:22Z</time>
      </trkpt>
      <trkpt lat="48.67274" lon="1.98665">
        <ele>177.79</ele>
        <time>2020-01-11T13:48:27Z</time>
      </trkpt>
      <trkpt lat="48.67278" lon="1.98656">
        <ele>177.9</ele>
        <time>2020-01-11T13:48:32Z</time>
      </trkpt>
      <trkpt lat="48.67281" lon="1.98648">
        <ele>177.86</ele>
        <time>2020-01-11T13:48:37Z</time>
      </trkpt>
      <trkpt lat="48.67284" lon="1.98639">
        <ele>177.62</ele>
        <time>2020-01-11T13:48:42Z</time>
      </trkpt>
      <trkpt lat="48.67288" lon="1.98631">
        <ele>177.84</ele>
        <time>2020-01-11T13:48:47Z</time>
      </trkpt>
      <trkpt lat="48.67291" lon="1.98623">
        <ele>178</ele>
        <time>2020-01-11T13:48:52Z</time>
      </trkpt>
      <trkpt lat="48.67294" lon="1.98615">
        <ele>177.84</ele>
        <time>2020-01-11T13:48:57Z</time>
      </trkpt>
      <trkpt lat="48.67297" lon="1.98607">
        <ele>177.58</ele>
        <time>2020-01-11T13:49:02Z</time>
      </trkpt>
      <trkpt lat="48.673" lon="1.98599">
        <ele>177.49</ele>
        <time>2020-01-11T13:49:07Z</time>
      </trkpt>
      <trkpt lat="48.67304" lon="1.9859">
        <ele>177.25</ele>
        <time>2020-01-11T13:49:12Z</time>
      </trkpt>
      <trkpt lat="48.67307" lon="1.98582">
        <ele>177.14</ele>
        <time>2020-01-11T13:49:17Z</time>
      </trkpt>
      <trkpt lat="48.67311" lon="1.98574">
        <ele>177.27</ele>
        <time>2020-01-11T13:49:22Z</time>
      </trkpt>
      <trkpt lat="48.67315" lon="1.98565">
        <ele>177.27</ele>
        <time>2020-01-11T13:49:27Z</time>
      </trkpt>
      <trkpt lat="48.67319" lon="1.98556">
        <ele>177.57</ele>
        <time>2020-01-11T13:49:32Z</time>
      </trkpt>
      <trkpt lat="48.67323" lon="1.98548">
        <ele>177.53</ele>
        <time>2020-01-11T13:49:37Z</time>
      </trkpt>
      <trkpt lat="48.67326" lon="1.98539">
        <ele>177.4</ele>
        <time>2020-01-11T13:49:42Z</time>
      </trkpt>
      <trkpt lat="48.67329" lon="1.98531">
        <ele>177.35</ele>
        <time>2020-01-11T13:49:47Z</time>
      </trkpt>
      <trkpt lat="48.67332" lon="1.98524">
        <ele>177.39</ele>
        <time>2020-01-11T13:49:52Z</time>
      </trkpt>
      <trkpt lat="48.67335" lon="1.98517">
        <ele>177.56</ele>
        <time>2020-01-11T13:49:57Z</time>
      </trkpt>
      <trkpt lat="48.67339" lon="1.98509">
        <ele>177.62</ele>
        <time>2020-01-11T13:50:02Z</time>
      </trkpt>
      <trkpt lat="48.67343" lon="1.98502">
        <ele>177.66</ele>
        <time>2020-01-11T13:50:07Z</time>
      </trkpt>
      <trkpt lat="48.67346" lon="1.98494">
        <ele>177.66</ele>
        <time>2020-01-11T13:50:12Z</time>
      </trkpt>
      <trkpt lat="48.67349" lon="1.98487">
        <ele>177.47</ele>
        <time>2020-01-11T13:50:17Z</time>
      </trkpt>
      <trkpt lat="48.67353" lon="1.9848">
        <ele>177.31</ele>
        <time>2020-01-11T13:50:22Z</time>
      </trkpt>
      <trkpt lat="48.67357" lon="1.98472">
        <ele>177.18</ele>
        <time>2020-01-11T13:50:27Z</time>
      </trkpt>
      <trkpt lat="48.6736" lon="1.98464">
        <ele>177.46</ele>
        <time>2020-01-11T13:50:32Z</time>
      </trkpt>
      <trkpt lat="48.67364" lon="1.98455">
        <ele>177.45</ele>
        <time>2020-01-11T13:50:37Z</time>
      </trkpt>
      <trkpt lat="48.67368" lon="1.98447">
        <ele>177.6</ele>
        <time>2020-01-11T13:50:42Z</time>
      </trkpt>
      <trkpt lat="48.67372" lon="1.98439">
        <ele>177.61</ele>
        <time>2020-01-11T13:50:47Z</time>
      </trkpt>
      <trkpt lat="48.67377" lon="1.98433">
        <ele>177.47</ele>
        <time>2020-01-11T13:50:52Z</time>
      </trkpt>
      <trkpt lat="48.67381" lon="1.98426">
        <ele>177.51</ele>
        <time>2020-01-11T13:50:57Z</time>
      </trkpt>
      <trkpt lat="48.67386" lon="1.9842">
        <ele>177.64</ele>
        <time>2020-01-11T13:51:02Z</time>
      </trkpt>
      <trkpt lat="48.67391" lon="1.98413">
        <ele>177.65</ele>
        <time>2020-01-11T13:51:07Z</time>
      </trkpt>
      <trkpt lat="48.67398" lon="1.98408">
        <ele>177.46</ele>
        <time>2020-01-11T13:51:12Z</time>
      </trkpt>
      <trkpt lat="48.67404" lon="1.98404">
        <ele>177.44</ele>
        <time>2020-01-11T13:51:17Z</time>
      </trkpt>
      <trkpt lat="48.6741" lon="1.984">
        <ele>177.31</ele>
        <time>2020-01-11T13:51:22Z</time>
      </trkpt>
      <trkpt lat="48.67417" lon="1.98396">
        <ele>177.26</ele>
        <time>2020-01-11T13:51:27Z</time>
      </trkpt>
      <trkpt lat="48.67422" lon="1.98393">
        <ele>177.22</ele>
        <time>2020-01-11T13:51:32Z</time>
      </trkpt>
      <trkpt lat="48.67427" lon="1.9839">
        <ele>177.18</ele>
        <time>2020-01-11T13:51:37Z</time>
      </trkpt>
      <trkpt lat="48.67433" lon="1.98386">
        <ele>177.07</ele>
        <time>2020-01-11T13:51:42Z</time>
      </trkpt>
      <trkpt lat="48.67438" lon="1.98381">
        <ele>176.91</ele>
        <time>2020-01-11T13:51:47Z</time>
      </trkpt>
      <trkpt lat="48.67444" lon="1.98378">
        <ele>176.91</ele>
        <time>2020-01-11T13:51:52Z</time>
      </trkpt>
      <trkpt lat="48.67449" lon="1.98374">
        <ele>176.83</ele>
        <time>2020-01-11T13:51:57Z</time>
      </trkpt>
      <trkpt lat="48.67453" lon="1.98368">
        <ele>176.98</ele>
        <time>2020-01-11T13:52:02Z</time>
      </trkpt>
      <trkpt lat="48.67456" lon="1.9836">
        <ele>177.36</ele>
        <time>2020-01-11T13:52:07Z</time>
      </trkpt>
      <trkpt lat="48.67458" lon="1.9835">
        <ele>177.66</ele>
        <time>2020-01-11T13:52:12Z</time>
      </trkpt>
      <trkpt lat="48.6746" lon="1.98341">
        <ele>177.82</ele>
        <time>2020-01-11T13:52:17Z</time>
      </trkpt>
      <trkpt lat="48.67461" lon="1.9833">
        <ele>177.72</ele>
        <time>2020-01-11T13:52:22Z</time>
      </trkpt>
      <trkpt lat="48.67462" lon="1.98318">
        <ele>177.54</ele>
        <time>2020-01-11T13:52:27Z</time>
      </trkpt>
      <trkpt lat="48.67465" lon="1.98308">
        <ele>177.48</ele>
        <time>2020-01-11T13:52:32Z</time>
      </trkpt>
      <trkpt lat="48.67466" lon="1.98299">
        <ele>177.5</ele>
        <time>2020-01-11T13:52:37Z</time>
      </trkpt>
      <trkpt lat="48.67469" lon="1.98288">
        <ele>177.58</ele>
        <time>2020-01-11T13:52:42Z</time>
      </trkpt>
      <trkpt lat="48.67469" lon="1.98279">
        <ele>177.61</ele>
        <time>2020-01-11T13:52:47Z</time>
      </trkpt>
      <trkpt lat="48.67471" lon="1.98273">
        <ele>177.66</ele>
        <time>2020-01-11T13:52:52Z</time>
      </trkpt>
      <trkpt lat="48.67472" lon="1.98268">
        <ele>177.28</ele>
        <time>2020-01-11T13:52:57Z</time>
      </trkpt>
      <trkpt lat="48.67474" lon="1.98263">
        <ele>177.03</ele>
        <time>2020-01-11T13:53:02Z</time>
      </trkpt>
      <trkpt lat="48.67476" lon="1.9826">
        <ele>176.87</ele>
        <time>2020-01-11T13:53:07Z</time>
      </trkpt>
      <trkpt lat="48.67477" lon="1.98261">
        <ele>176.79</ele>
        <time>2020-01-11T13:53:12Z</time>
      </trkpt>
      <trkpt lat="48.67479" lon="1.98262">
        <ele>176.9</ele>
        <time>2020-01-11T13:53:17Z</time>
      </trkpt>
      <trkpt lat="48.6748" lon="1.98263">
        <ele>176.92</ele>
        <time>2020-01-11T13:53:22Z</time>
      </trkpt>
      <trkpt lat="48.6748" lon="1.98263">
        <ele>177.09</ele>
        <time>2020-01-11T13:53:27Z</time>
      </trkpt>
      <trkpt lat="48.6748" lon="1.98263">
        <ele>177.09</ele>
        <time>2020-01-11T13:53:32Z</time>
      </trkpt>
      <trkpt lat="48.67479" lon="1.98263">
        <ele>176.95</ele>
        <time>2020-01-11T13:53:37Z</time>
      </trkpt>
      <trkpt lat="48.67479" lon="1.98262">
        <ele>176.63</ele>
        <time>2020-01-11T13:53:42Z</time>
      </trkpt>
      <trkpt lat="48.67479" lon="1.98262">
        <ele>176.62</ele>
        <time>2020-01-11T13:53:47Z</time>
      </trkpt>
      <trkpt lat="48.67479" lon="1.98263">
        <ele>176.64</ele>
        <time>2020-01-11T13:53:52Z</time>
      </trkpt>
      <trkpt lat="48.67478" lon="1.98263">
        <ele>176.69</ele>
        <time>2020-01-11T13:53:57Z</time>
      </trkpt>
      <trkpt lat="48.67478" lon="1.98263">
        <ele>176.73</ele>
        <time>2020-01-11T13:54:02Z</time>
      </trkpt>
      <trkpt lat="48.67478" lon="1.98263">
        <ele>176.59</ele>
        <time>2020-01-11T13:54:07Z</time>
      </trkpt>
      <trkpt lat="48.67478" lon="1.98262">
        <ele>176.5</ele>
        <time>2020-01-11T13:54:12Z</time>
      </trkpt>
      <trkpt lat="48.67478" lon="1.98262">
        <ele>176.48</ele>
        <time>2020-01-11T13:54:17Z</time>
      </trkpt>
      <trkpt lat="48.67478" lon="1.98262">
        <ele>176.54</ele>
        <time>2020-01-11T13:54:22Z</time>
      </trkpt>
      <trkpt lat="48.67478" lon="1.98261">
        <ele>176.51</ele>
        <time>2020-01-11T13:54:27Z</time>
      </trkpt>
      <trkpt lat="48.67478" lon="1.98261">
        <ele>176.45</ele>
        <time>2020-01-11T13:54:32Z</time>
      </trkpt>
      <trkpt lat="48.67478" lon="1.98261">
        <ele>176.44</ele>
        <time>2020-01-11T13:54:37Z</time>
      </trkpt>
      <trkpt lat="48.67478" lon="1.98261">
        <ele>176.3</ele>
        <time>2020-01-11T13:54:42Z</time>
      </trkpt>
      <trkpt lat="48.67478" lon="1.98261">
        <ele>176.37</ele>
        <time>2020-01-11T13:54:47Z</time>
      </trkpt>
      <trkpt lat="48.67478" lon="1.98261">
        <ele>176.45</ele>
        <time>2020-01-11T13:54:52Z</time>
      </trkpt>
      <trkpt lat="48.67478" lon="1.98261">
        <ele>176.49</ele>
        <time>2020-01-11T13:54:57Z</time>
      </trkpt>
      <trkpt lat="48.67479" lon="1.98261">
        <ele>176.65</ele>
        <time>2020-01-11T13:55:02Z</time>
      </trkpt>
      <trkpt lat="48.67479" lon="1.98261">
        <ele>176.8</ele>
        <time>2020-01-11T13:55:07Z</time>
      </trkpt>
      <trkpt lat="48.67479" lon="1.98261">
        <ele>176.91</ele>
        <time>2020-01-11T13:55:12Z</time>
      </trkpt>
      <trkpt lat="48.67479" lon="1.9826">
        <ele>176.74</ele>
        <time>2020-01-11T13:55:17Z</time>
      </trkpt>
      <trkpt lat="48.67479" lon="1.9826">
        <ele>176.71</ele>
        <time>2020-01-11T13:55:22Z</time>
      </trkpt>
      <trkpt lat="48.67479" lon="1.98261">
        <ele>176.71</ele>
        <time>2020-01-11T13:55:27Z</time>
      </trkpt>
      <trkpt lat="48.67479" lon="1.98261">
        <ele>176.7</ele>
        <time>2020-01-11T13:55:32Z</time>
      </trkpt>
      <trkpt lat="48.67479" lon="1.98261">
        <ele>176.61</ele>
        <time>2020-01-11T13:55:37Z</time>
      </trkpt>
      <trkpt lat="48.67478" lon="1.98261">
        <ele>176.65</ele>
        <time>2020-01-11T13:55:42Z</time>
      </trkpt>
      <trkpt lat="48.67478" lon="1.98262">
        <ele>176.7</ele>
        <time>2020-01-11T13:55:47Z</time>
      </trkpt>
      <trkpt lat="48.67479" lon="1.98262">
        <ele>176.84</ele>
        <time>2020-01-11T13:55:52Z</time>
      </trkpt>
      <trkpt lat="48.67479" lon="1.98262">
        <ele>176.78</ele>
        <time>2020-01-11T13:55:57Z</time>
      </trkpt>
      <trkpt lat="48.67479" lon="1.98262">
        <ele>176.69</ele>
        <time>2020-01-11T13:56:02Z</time>
      </trkpt>
      <trkpt lat="48.67479" lon="1.98261">
        <ele>176.64</ele>
        <time>2020-01-11T13:56:07Z</time>
      </trkpt>
      <trkpt lat="48.6748" lon="1.98261">
        <ele>176.77</ele>
        <time>2020-01-11T13:56:12Z</time>
      </trkpt>
      <trkpt lat="48.6748" lon="1.98261">
        <ele>176.75</ele>
        <time>2020-01-11T13:56:17Z</time>
      </trkpt>
      <trkpt lat="48.6748" lon="1.98261">
        <ele>176.7</ele>
        <time>2020-01-11T13:56:22Z</time>
      </trkpt>
      <trkpt lat="48.6748" lon="1.98261">
        <ele>176.74</ele>
        <time>2020-01-11T13:56:27Z</time>
      </trkpt>
      <trkpt lat="48.6748" lon="1.98259">
        <ele>176.77</ele>
        <time>2020-01-11T13:56:32Z</time>
      </trkpt>
      <trkpt lat="48.67479" lon="1.98251">
        <ele>176.67</ele>
        <time>2020-01-11T13:56:37Z</time>
      </trkpt>
      <trkpt lat="48.67478" lon="1.98246">
        <ele>176.49</ele>
        <time>2020-01-11T13:56:42Z</time>
      </trkpt>
      <trkpt lat="48.67477" lon="1.9824">
        <ele>176.39</ele>
        <time>2020-01-11T13:56:47Z</time>
      </trkpt>
      <trkpt lat="48.67476" lon="1.98235">
        <ele>176.35</ele>
        <time>2020-01-11T13:56:52Z</time>
      </trkpt>
      <trkpt lat="48.67475" lon="1.98227">
        <ele>176.24</ele>
        <time>2020-01-11T13:56:57Z</time>
      </trkpt>
      <trkpt lat="48.67475" lon="1.9822">
        <ele>176.05</ele>
        <time>2020-01-11T13:57:02Z</time>
      </trkpt>
      <trkpt lat="48.67474" lon="1.9821">
        <ele>175.86</ele>
        <time>2020-01-11T13:57:07Z</time>
      </trkpt>
      <trkpt lat="48.67473" lon="1.98202">
        <ele>175.83</ele>
        <time>2020-01-11T13:57:12Z</time>
      </trkpt>
      <trkpt lat="48.67472" lon="1.98192">
        <ele>175.72</ele>
        <time>2020-01-11T13:57:17Z</time>
      </trkpt>
      <trkpt lat="48.67471" lon="1.98182">
        <ele>175.65</ele>
        <time>2020-01-11T13:57:22Z</time>
      </trkpt>
      <trkpt lat="48.67471" lon="1.98173">
        <ele>175.68</ele>
        <time>2020-01-11T13:57:27Z</time>
      </trkpt>
      <trkpt lat="48.67471" lon="1.98166">
        <ele>175.66</ele>
        <time>2020-01-11T13:57:32Z</time>
      </trkpt>
      <trkpt lat="48.6747" lon="1.98158">
        <ele>175.65</ele>
        <time>2020-01-11T13:57:37Z</time>
      </trkpt>
      <trkpt lat="48.6747" lon="1.9815">
        <ele>175.61</ele>
        <time>2020-01-11T13:57:42Z</time>
      </trkpt>
      <trkpt lat="48.67469" lon="1.98141">
        <ele>175.55</ele>
        <time>2020-01-11T13:57:47Z</time>
      </trkpt>
      <trkpt lat="48.67468" lon="1.98132">
        <ele>175.59</ele>
        <time>2020-01-11T13:57:52Z</time>
      </trkpt>
      <trkpt lat="48.67468" lon="1.98124">
        <ele>175.48</ele>
        <time>2020-01-11T13:57:57Z</time>
      </trkpt>
      <trkpt lat="48.67466" lon="1.98115">
        <ele>175.31</ele>
        <time>2020-01-11T13:58:02Z</time>
      </trkpt>
      <trkpt lat="48.67466" lon="1.98107">
        <ele>175.2</ele>
        <time>2020-01-11T13:58:07Z</time>
      </trkpt>
      <trkpt lat="48.67471" lon="1.98099">
        <ele>175.22</ele>
        <time>2020-01-11T13:58:12Z</time>
      </trkpt>
      <trkpt lat="48.67475" lon="1.98089">
        <ele>175.37</ele>
        <time>2020-01-11T13:58:17Z</time>
      </trkpt>
      <trkpt lat="48.67481" lon="1.98082">
        <ele>175.28</ele>
        <time>2020-01-11T13:58:22Z</time>
      </trkpt>
      <trkpt lat="48.67488" lon="1.98079">
        <ele>175.23</ele>
        <time>2020-01-11T13:58:27Z</time>
      </trkpt>
      <trkpt lat="48.67494" lon="1.98077">
        <ele>175.01</ele>
        <time>2020-01-11T13:58:32Z</time>
      </trkpt>
      <trkpt lat="48.67501" lon="1.98077">
        <ele>174.88</ele>
        <time>2020-01-11T13:58:37Z</time>
      </trkpt>
      <trkpt lat="48.67508" lon="1.9808">
        <ele>174.84</ele>
        <time>2020-01-11T13:58:42Z</time>
      </trkpt>
      <trkpt lat="48.67515" lon="1.98084">
        <ele>174.72</ele>
        <time>2020-01-11T13:58:47Z</time>
      </trkpt>
      <trkpt lat="48.67522" lon="1.98086">
        <ele>174.73</ele>
        <time>2020-01-11T13:58:52Z</time>
      </trkpt>
      <trkpt lat="48.67529" lon="1.98086">
        <ele>175.01</ele>
        <time>2020-01-11T13:58:57Z</time>
      </trkpt>
      <trkpt lat="48.67536" lon="1.98086">
        <ele>174.98</ele>
        <time>2020-01-11T13:59:02Z</time>
      </trkpt>
      <trkpt lat="48.67542" lon="1.98085">
        <ele>174.9</ele>
        <time>2020-01-11T13:59:07Z</time>
      </trkpt>
      <trkpt lat="48.67548" lon="1.98084">
        <ele>174.88</ele>
        <time>2020-01-11T13:59:12Z</time>
      </trkpt>
      <trkpt lat="48.67555" lon="1.98084">
        <ele>174.89</ele>
        <time>2020-01-11T13:59:17Z</time>
      </trkpt>
      <trkpt lat="48.67563" lon="1.98083">
        <ele>174.85</ele>
        <time>2020-01-11T13:59:22Z</time>
      </trkpt>
      <trkpt lat="48.6757" lon="1.98083">
        <ele>174.71</ele>
        <time>2020-01-11T13:59:27Z</time>
      </trkpt>
      <trkpt lat="48.67576" lon="1.98083">
        <ele>174.55</ele>
        <time>2020-01-11T13:59:32Z</time>
      </trkpt>
      <trkpt lat="48.67582" lon="1.98082">
        <ele>174.46</ele>
        <time>2020-01-11T13:59:37Z</time>
      </trkpt>
      <trkpt lat="48.67589" lon="1.98082">
        <ele>174.46</ele>
        <time>2020-01-11T13:59:42Z</time>
      </trkpt>
      <trkpt lat="48.67597" lon="1.9808">
        <ele>174.47</ele>
        <time>2020-01-11T13:59:47Z</time>
      </trkpt>
      <trkpt lat="48.67602" lon="1.98075">
        <ele>174.26</ele>
        <time>2020-01-11T13:59:52Z</time>
      </trkpt>
      <trkpt lat="48.67607" lon="1.98067">
        <ele>173.93</ele>
        <time>2020-01-11T13:59:57Z</time>
      </trkpt>
      <trkpt lat="48.67612" lon="1.9806">
        <ele>173.73</ele>
        <time>2020-01-11T14:00:02Z</time>
      </trkpt>
      <trkpt lat="48.67617" lon="1.98052">
        <ele>173.57</ele>
        <time>2020-01-11T14:00:07Z</time>
      </trkpt>
      <trkpt lat="48.67621" lon="1.98044">
        <ele>173.55</ele>
        <time>2020-01-11T14:00:12Z</time>
      </trkpt>
      <trkpt lat="48.67625" lon="1.98037">
        <ele>173.46</ele>
        <time>2020-01-11T14:00:17Z</time>
      </trkpt>
      <trkpt lat="48.6763" lon="1.98029">
        <ele>173.19</ele>
        <time>2020-01-11T14:00:22Z</time>
      </trkpt>
      <trkpt lat="48.67634" lon="1.9802">
        <ele>173.1</ele>
        <time>2020-01-11T14:00:27Z</time>
      </trkpt>
      <trkpt lat="48.67638" lon="1.98011">
        <ele>173.01</ele>
        <time>2020-01-11T14:00:32Z</time>
      </trkpt>
      <trkpt lat="48.6764" lon="1.98002">
        <ele>172.8</ele>
        <time>2020-01-11T14:00:37Z</time>
      </trkpt>
      <trkpt lat="48.67641" lon="1.97993">
        <ele>172.64</ele>
        <time>2020-01-11T14:00:42Z</time>
      </trkpt>
      <trkpt lat="48.67644" lon="1.97984">
        <ele>172.65</ele>
        <time>2020-01-11T14:00:47Z</time>
      </trkpt>
      <trkpt lat="48.67648" lon="1.97974">
        <ele>172.33</ele>
        <time>2020-01-11T14:00:52Z</time>
      </trkpt>
      <trkpt lat="48.67652" lon="1.97965">
        <ele>172.25</ele>
        <time>2020-01-11T14:00:57Z</time>
      </trkpt>
      <trkpt lat="48.67655" lon="1.97955">
        <ele>172.6</ele>
        <time>2020-01-11T14:01:02Z</time>
      </trkpt>
      <trkpt lat="48.67658" lon="1.97945">
        <ele>172.58</ele>
        <time>2020-01-11T14:01:07Z</time>
      </trkpt>
      <trkpt lat="48.67658" lon="1.97936">
        <ele>172.54</ele>
        <time>2020-01-11T14:01:12Z</time>
      </trkpt>
      <trkpt lat="48.6766" lon="1.97926">
        <ele>172.62</ele>
        <time>2020-01-11T14:01:17Z</time>
      </trkpt>
      <trkpt lat="48.67661" lon="1.97916">
        <ele>172.81</ele>
        <time>2020-01-11T14:01:22Z</time>
      </trkpt>
      <trkpt lat="48.67663" lon="1.97906">
        <ele>172.88</ele>
        <time>2020-01-11T14:01:27Z</time>
      </trkpt>
      <trkpt lat="48.67664" lon="1.97898">
        <ele>172.93</ele>
        <time>2020-01-11T14:01:32Z</time>
      </trkpt>
      <trkpt lat="48.67665" lon="1.9789">
        <ele>172.86</ele>
        <time>2020-01-11T14:01:37Z</time>
      </trkpt>
      <trkpt lat="48.67667" lon="1.97881">
        <ele>172.87</ele>
        <time>2020-01-11T14:01:42Z</time>
      </trkpt>
      <trkpt lat="48.67669" lon="1.97869">
        <ele>172.86</ele>
        <time>2020-01-11T14:01:47Z</time>
      </trkpt>
      <trkpt lat="48.67671" lon="1.97857">
        <ele>172.8</ele>
        <time>2020-01-11T14:01:52Z</time>
      </trkpt>
      <trkpt lat="48.67673" lon="1.97847">
        <ele>172.81</ele>
        <time>2020-01-11T14:01:57Z</time>
      </trkpt>
      <trkpt lat="48.67675" lon="1.97835">
        <ele>172.66</ele>
        <time>2020-01-11T14:02:02Z</time>
      </trkpt>
      <trkpt lat="48.67677" lon="1.97824">
        <ele>172.6</ele>
        <time>2020-01-11T14:02:07Z</time>
      </trkpt>
      <trkpt lat="48.67679" lon="1.97812">
        <ele>172.58</ele>
        <time>2020-01-11T14:02:12Z</time>
      </trkpt>
      <trkpt lat="48.67681" lon="1.97801">
        <ele>172.57</ele>
        <time>2020-01-11T14:02:17Z</time>
      </trkpt>
      <trkpt lat="48.67687" lon="1.97793">
        <ele>172.65</ele>
        <time>2020-01-11T14:02:22Z</time>
      </trkpt>
      <trkpt lat="48.67687" lon="1.97781">
        <ele>172.53</ele>
        <time>2020-01-11T14:02:27Z</time>
      </trkpt>
      <trkpt lat="48.67687" lon="1.97771">
        <ele>172.28</ele>
        <time>2020-01-11T14:02:32Z</time>
      </trkpt>
      <trkpt lat="48.67688" lon="1.97762">
        <ele>172.26</ele>
        <time>2020-01-11T14:02:37Z</time>
      </trkpt>
      <trkpt lat="48.67687" lon="1.97751">
        <ele>172.3</ele>
        <time>2020-01-11T14:02:42Z</time>
      </trkpt>
      <trkpt lat="48.67687" lon="1.97739">
        <ele>172.18</ele>
        <time>2020-01-11T14:02:47Z</time>
      </trkpt>
      <trkpt lat="48.67688" lon="1.97732">
        <ele>172.15</ele>
        <time>2020-01-11T14:02:52Z</time>
      </trkpt>
      <trkpt lat="48.67689" lon="1.97724">
        <ele>172.3</ele>
        <time>2020-01-11T14:02:57Z</time>
      </trkpt>
      <trkpt lat="48.67689" lon="1.97714">
        <ele>172.27</ele>
        <time>2020-01-11T14:03:02Z</time>
      </trkpt>
      <trkpt lat="48.67688" lon="1.97705">
        <ele>172.15</ele>
        <time>2020-01-11T14:03:07Z</time>
      </trkpt>
      <trkpt lat="48.67688" lon="1.97695">
        <ele>172.16</ele>
        <time>2020-01-11T14:03:12Z</time>
      </trkpt>
      <trkpt lat="48.67688" lon="1.97687">
        <ele>172.19</ele>
        <time>2020-01-11T14:03:17Z</time>
      </trkpt>
      <trkpt lat="48.67689" lon="1.97675">
        <ele>172.36</ele>
        <time>2020-01-11T14:03:22Z</time>
      </trkpt>
      <trkpt lat="48.67688" lon="1.97664">
        <ele>172.53</ele>
        <time>2020-01-11T14:03:27Z</time>
      </trkpt>
      <trkpt lat="48.67688" lon="1.97653">
        <ele>172.68</ele>
        <time>2020-01-11T14:03:32Z</time>
      </trkpt>
      <trkpt lat="48.67688" lon="1.97643">
        <ele>172.86</ele>
        <time>2020-01-11T14:03:37Z</time>
      </trkpt>
      <trkpt lat="48.67689" lon="1.97632">
        <ele>173.03</ele>
        <time>2020-01-11T14:03:42Z</time>
      </trkpt>
      <trkpt lat="48.6769" lon="1.97622">
        <ele>173.02</ele>
        <time>2020-01-11T14:03:47Z</time>
      </trkpt>
      <trkpt lat="48.67691" lon="1.97611">
        <ele>172.99</ele>
        <time>2020-01-11T14:03:52Z</time>
      </trkpt>
      <trkpt lat="48.67692" lon="1.97602">
        <ele>173.2</ele>
        <time>2020-01-11T14:03:57Z</time>
      </trkpt>
      <trkpt lat="48.67695" lon="1.97593">
        <ele>173.14</ele>
        <time>2020-01-11T14:04:02Z</time>
      </trkpt>
      <trkpt lat="48.67697" lon="1.97584">
        <ele>173.02</ele>
        <time>2020-01-11T14:04:07Z</time>
      </trkpt>
      <trkpt lat="48.67698" lon="1.97576">
        <ele>172.99</ele>
        <time>2020-01-11T14:04:12Z</time>
      </trkpt>
      <trkpt lat="48.67699" lon="1.97571">
        <ele>173.02</ele>
        <time>2020-01-11T14:04:17Z</time>
      </trkpt>
      <trkpt lat="48.67699" lon="1.97568">
        <ele>173.2</ele>
        <time>2020-01-11T14:04:22Z</time>
      </trkpt>
      <trkpt lat="48.67699" lon="1.97569">
        <ele>173.28</ele>
        <time>2020-01-11T14:04:27Z</time>
      </trkpt>
      <trkpt lat="48.677" lon="1.97569">
        <ele>173.21</ele>
        <time>2020-01-11T14:04:32Z</time>
      </trkpt>
      <trkpt lat="48.67705" lon="1.97568">
        <ele>173.1</ele>
        <time>2020-01-11T14:04:37Z</time>
      </trkpt>
      <trkpt lat="48.67708" lon="1.97568">
        <ele>173.06</ele>
        <time>2020-01-11T14:04:42Z</time>
      </trkpt>
      <trkpt lat="48.67709" lon="1.97569">
        <ele>173.08</ele>
        <time>2020-01-11T14:04:47Z</time>
      </trkpt>
      <trkpt lat="48.67711" lon="1.9757">
        <ele>172.99</ele>
        <time>2020-01-11T14:04:52Z</time>
      </trkpt>
      <trkpt lat="48.67714" lon="1.97573">
        <ele>172.84</ele>
        <time>2020-01-11T14:04:57Z</time>
      </trkpt>
      <trkpt lat="48.67718" lon="1.97575">
        <ele>172.58</ele>
        <time>2020-01-11T14:05:02Z</time>
      </trkpt>
      <trkpt lat="48.67723" lon="1.97578">
        <ele>172.44</ele>
        <time>2020-01-11T14:05:07Z</time>
      </trkpt>
      <trkpt lat="48.67728" lon="1.97581">
        <ele>172.41</ele>
        <time>2020-01-11T14:05:12Z</time>
      </trkpt>
      <trkpt lat="48.67734" lon="1.97585">
        <ele>172.52</ele>
        <time>2020-01-11T14:05:17Z</time>
      </trkpt>
      <trkpt lat="48.67739" lon="1.9759">
        <ele>172.59</ele>
        <time>2020-01-11T14:05:22Z</time>
      </trkpt>
      <trkpt lat="48.67745" lon="1.97594">
        <ele>172.35</ele>
        <time>2020-01-11T14:05:27Z</time>
      </trkpt>
      <trkpt lat="48.6775" lon="1.97598">
        <ele>172.05</ele>
        <time>2020-01-11T14:05:32Z</time>
      </trkpt>
      <trkpt lat="48.67754" lon="1.97599">
        <ele>171.58</ele>
        <time>2020-01-11T14:05:37Z</time>
      </trkpt>
      <trkpt lat="48.67759" lon="1.97602">
        <ele>171.2</ele>
        <time>2020-01-11T14:05:42Z</time>
      </trkpt>
      <trkpt lat="48.67763" lon="1.97608">
        <ele>170.76</ele>
        <time>2020-01-11T14:05:47Z</time>
      </trkpt>
      <trkpt lat="48.67767" lon="1.97613">
        <ele>170.69</ele>
        <time>2020-01-11T14:05:52Z</time>
      </trkpt>
      <trkpt lat="48.67771" lon="1.97619">
        <ele>170.76</ele>
        <time>2020-01-11T14:05:57Z</time>
      </trkpt>
      <trkpt lat="48.67775" lon="1.97626">
        <ele>170.73</ele>
        <time>2020-01-11T14:06:02Z</time>
      </trkpt>
      <trkpt lat="48.67778" lon="1.97634">
        <ele>170.75</ele>
        <time>2020-01-11T14:06:07Z</time>
      </trkpt>
      <trkpt lat="48.67779" lon="1.97644">
        <ele>170.51</ele>
        <time>2020-01-11T14:06:12Z</time>
      </trkpt>
      <trkpt lat="48.67781" lon="1.97653">
        <ele>170.31</ele>
        <time>2020-01-11T14:06:17Z</time>
      </trkpt>
      <trkpt lat="48.67782" lon="1.97664">
        <ele>170.16</ele>
        <time>2020-01-11T14:06:22Z</time>
      </trkpt>
      <trkpt lat="48.67783" lon="1.97671">
        <ele>169.86</ele>
        <time>2020-01-11T14:06:27Z</time>
      </trkpt>
      <trkpt lat="48.67786" lon="1.97677">
        <ele>169.83</ele>
        <time>2020-01-11T14:06:32Z</time>
      </trkpt>
      <trkpt lat="48.67789" lon="1.97684">
        <ele>169.85</ele>
        <time>2020-01-11T14:06:37Z</time>
      </trkpt>
      <trkpt lat="48.67793" lon="1.97692">
        <ele>169.79</ele>
        <time>2020-01-11T14:06:42Z</time>
      </trkpt>
      <trkpt lat="48.67797" lon="1.97698">
        <ele>169.51</ele>
        <time>2020-01-11T14:06:47Z</time>
      </trkpt>
      <trkpt lat="48.67802" lon="1.97705">
        <ele>169.24</ele>
        <time>2020-01-11T14:06:52Z</time>
      </trkpt>
      <trkpt lat="48.67806" lon="1.97714">
        <ele>169</ele>
        <time>2020-01-11T14:06:57Z</time>
      </trkpt>
      <trkpt lat="48.67809" lon="1.97719">
        <ele>168.51</ele>
        <time>2020-01-11T14:07:02Z</time>
      </trkpt>
      <trkpt lat="48.67814" lon="1.97724">
        <ele>168.27</ele>
        <time>2020-01-11T14:07:07Z</time>
      </trkpt>
      <trkpt lat="48.6782" lon="1.9773">
        <ele>167.71</ele>
        <time>2020-01-11T14:07:12Z</time>
      </trkpt>
      <trkpt lat="48.67825" lon="1.97733">
        <ele>167.25</ele>
        <time>2020-01-11T14:07:17Z</time>
      </trkpt>
      <trkpt lat="48.6783" lon="1.97734">
        <ele>166.86</ele>
        <time>2020-01-11T14:07:22Z</time>
      </trkpt>
      <trkpt lat="48.67835" lon="1.97736">
        <ele>166.41</ele>
        <time>2020-01-11T14:07:27Z</time>
      </trkpt>
      <trkpt lat="48.67839" lon="1.97732">
        <ele>165.97</ele>
        <time>2020-01-11T14:07:32Z</time>
      </trkpt>
      <trkpt lat="48.67842" lon="1.97727">
        <ele>165.37</ele>
        <time>2020-01-11T14:07:37Z</time>
      </trkpt>
      <trkpt lat="48.67845" lon="1.97722">
        <ele>164.96</ele>
        <time>2020-01-11T14:07:42Z</time>
      </trkpt>
      <trkpt lat="48.67847" lon="1.97715">
        <ele>164.7</ele>
        <time>2020-01-11T14:07:47Z</time>
      </trkpt>
      <trkpt lat="48.6785" lon="1.97709">
        <ele>164.42</ele>
        <time>2020-01-11T14:07:52Z</time>
      </trkpt>
      <trkpt lat="48.67853" lon="1.97701">
        <ele>163.93</ele>
        <time>2020-01-11T14:07:57Z</time>
      </trkpt>
      <trkpt lat="48.67854" lon="1.97693">
        <ele>163.49</ele>
        <time>2020-01-11T14:08:02Z</time>
      </trkpt>
      <trkpt lat="48.67855" lon="1.97684">
        <ele>163.21</ele>
        <time>2020-01-11T14:08:07Z</time>
      </trkpt>
      <trkpt lat="48.67857" lon="1.97677">
        <ele>162.77</ele>
        <time>2020-01-11T14:08:12Z</time>
      </trkpt>
      <trkpt lat="48.67859" lon="1.97669">
        <ele>162.56</ele>
        <time>2020-01-11T14:08:17Z</time>
      </trkpt>
      <trkpt lat="48.6786" lon="1.9766">
        <ele>162.47</ele>
        <time>2020-01-11T14:08:22Z</time>
      </trkpt>
      <trkpt lat="48.67863" lon="1.97654">
        <ele>162.18</ele>
        <time>2020-01-11T14:08:27Z</time>
      </trkpt>
      <trkpt lat="48.67865" lon="1.97647">
        <ele>161.69</ele>
        <time>2020-01-11T14:08:32Z</time>
      </trkpt>
      <trkpt lat="48.67868" lon="1.9764">
        <ele>161.37</ele>
        <time>2020-01-11T14:08:37Z</time>
      </trkpt>
      <trkpt lat="48.6787" lon="1.97633">
        <ele>161.01</ele>
        <time>2020-01-11T14:08:42Z</time>
      </trkpt>
      <trkpt lat="48.67873" lon="1.97625">
        <ele>160.87</ele>
        <time>2020-01-11T14:08:47Z</time>
      </trkpt>
      <trkpt lat="48.67871" lon="1.97615">
        <ele>160.81</ele>
        <time>2020-01-11T14:08:52Z</time>
      </trkpt>
      <trkpt lat="48.67871" lon="1.97609">
        <ele>160.73</ele>
        <time>2020-01-11T14:08:57Z</time>
      </trkpt>
      <trkpt lat="48.67869" lon="1.976">
        <ele>160.57</ele>
        <time>2020-01-11T14:09:02Z</time>
      </trkpt>
      <trkpt lat="48.6787" lon="1.9759">
        <ele>160.22</ele>
        <time>2020-01-11T14:09:07Z</time>
      </trkpt>
      <trkpt lat="48.67869" lon="1.97578">
        <ele>159.62</ele>
        <time>2020-01-11T14:09:12Z</time>
      </trkpt>
      <trkpt lat="48.67868" lon="1.9757">
        <ele>159.09</ele>
        <time>2020-01-11T14:09:17Z</time>
      </trkpt>
      <trkpt lat="48.67869" lon="1.97563">
        <ele>158.59</ele>
        <time>2020-01-11T14:09:22Z</time>
      </trkpt>
      <trkpt lat="48.67869" lon="1.97555">
        <ele>158.31</ele>
        <time>2020-01-11T14:09:27Z</time>
      </trkpt>
      <trkpt lat="48.67869" lon="1.97546">
        <ele>158.2</ele>
        <time>2020-01-11T14:09:32Z</time>
      </trkpt>
      <trkpt lat="48.67869" lon="1.9754">
        <ele>158.35</ele>
        <time>2020-01-11T14:09:37Z</time>
      </trkpt>
      <trkpt lat="48.67868" lon="1.97532">
        <ele>158.72</ele>
        <time>2020-01-11T14:09:42Z</time>
      </trkpt>
      <trkpt lat="48.67871" lon="1.97525">
        <ele>159.23</ele>
        <time>2020-01-11T14:09:47Z</time>
      </trkpt>
      <trkpt lat="48.67876" lon="1.9752">
        <ele>159.85</ele>
        <time>2020-01-11T14:09:52Z</time>
      </trkpt>
      <trkpt lat="48.67881" lon="1.97515">
        <ele>160.09</ele>
        <time>2020-01-11T14:09:57Z</time>
      </trkpt>
      <trkpt lat="48.67885" lon="1.97512">
        <ele>159.9</ele>
        <time>2020-01-11T14:10:02Z</time>
      </trkpt>
      <trkpt lat="48.6789" lon="1.97508">
        <ele>159.5</ele>
        <time>2020-01-11T14:10:07Z</time>
      </trkpt>
      <trkpt lat="48.67894" lon="1.97504">
        <ele>159.22</ele>
        <time>2020-01-11T14:10:12Z</time>
      </trkpt>
      <trkpt lat="48.679" lon="1.975">
        <ele>159.05</ele>
        <time>2020-01-11T14:10:17Z</time>
      </trkpt>
      <trkpt lat="48.67901" lon="1.97497">
        <ele>158.98</ele>
        <time>2020-01-11T14:10:22Z</time>
      </trkpt>
      <trkpt lat="48.67902" lon="1.97491">
        <ele>159.13</ele>
        <time>2020-01-11T14:10:27Z</time>
      </trkpt>
      <trkpt lat="48.67903" lon="1.97485">
        <ele>158.94</ele>
        <time>2020-01-11T14:10:32Z</time>
      </trkpt>
      <trkpt lat="48.67906" lon="1.97482">
        <ele>158.94</ele>
        <time>2020-01-11T14:10:37Z</time>
      </trkpt>
      <trkpt lat="48.67908" lon="1.97475">
        <ele>158.9</ele>
        <time>2020-01-11T14:10:42Z</time>
      </trkpt>
      <trkpt lat="48.67909" lon="1.97466">
        <ele>158.65</ele>
        <time>2020-01-11T14:10:47Z</time>
      </trkpt>
      <trkpt lat="48.67909" lon="1.9746">
        <ele>158.5</ele>
        <time>2020-01-11T14:10:52Z</time>
      </trkpt>
      <trkpt lat="48.67908" lon="1.9745">
        <ele>158.51</ele>
        <time>2020-01-11T14:10:57Z</time>
      </trkpt>
      <trkpt lat="48.67907" lon="1.97446">
        <ele>158.38</ele>
        <time>2020-01-11T14:11:02Z</time>
      </trkpt>
      <trkpt lat="48.67908" lon="1.9744">
        <ele>158.42</ele>
        <time>2020-01-11T14:11:07Z</time>
      </trkpt>
      <trkpt lat="48.67907" lon="1.97436">
        <ele>158.04</ele>
        <time>2020-01-11T14:11:12Z</time>
      </trkpt>
      <trkpt lat="48.67909" lon="1.9743">
        <ele>157.46</ele>
        <time>2020-01-11T14:11:17Z</time>
      </trkpt>
      <trkpt lat="48.67911" lon="1.97424">
        <ele>156.27</ele>
        <time>2020-01-11T14:11:22Z</time>
      </trkpt>
      <trkpt lat="48.67913" lon="1.97415">
        <ele>154.93</ele>
        <time>2020-01-11T14:11:27Z</time>
      </trkpt>
      <trkpt lat="48.67914" lon="1.97409">
        <ele>153.52</ele>
        <time>2020-01-11T14:11:32Z</time>
      </trkpt>
      <trkpt lat="48.67914" lon="1.97403">
        <ele>152.51</ele>
        <time>2020-01-11T14:11:37Z</time>
      </trkpt>
      <trkpt lat="48.67915" lon="1.97394">
        <ele>151.37</ele>
        <time>2020-01-11T14:11:42Z</time>
      </trkpt>
      <trkpt lat="48.67916" lon="1.97386">
        <ele>150.47</ele>
        <time>2020-01-11T14:11:47Z</time>
      </trkpt>
      <trkpt lat="48.67918" lon="1.97382">
        <ele>150.26</ele>
        <time>2020-01-11T14:11:52Z</time>
      </trkpt>
      <trkpt lat="48.67918" lon="1.97377">
        <ele>149.77</ele>
        <time>2020-01-11T14:11:57Z</time>
      </trkpt>
      <trkpt lat="48.67918" lon="1.97371">
        <ele>148.4</ele>
        <time>2020-01-11T14:12:02Z</time>
      </trkpt>
      <trkpt lat="48.67919" lon="1.97365">
        <ele>146.75</ele>
        <time>2020-01-11T14:12:07Z</time>
      </trkpt>
      <trkpt lat="48.6792" lon="1.97358">
        <ele>145.79</ele>
        <time>2020-01-11T14:12:12Z</time>
      </trkpt>
      <trkpt lat="48.67921" lon="1.9735">
        <ele>145.16</ele>
        <time>2020-01-11T14:12:17Z</time>
      </trkpt>
      <trkpt lat="48.67921" lon="1.97344">
        <ele>144.6</ele>
        <time>2020-01-11T14:12:22Z</time>
      </trkpt>
      <trkpt lat="48.67922" lon="1.97335">
        <ele>144.26</ele>
        <time>2020-01-11T14:12:27Z</time>
      </trkpt>
      <trkpt lat="48.67922" lon="1.97323">
        <ele>143.83</ele>
        <time>2020-01-11T14:12:32Z</time>
      </trkpt>
      <trkpt lat="48.67924" lon="1.97315">
        <ele>143.59</ele>
        <time>2020-01-11T14:12:37Z</time>
      </trkpt>
      <trkpt lat="48.67925" lon="1.97309">
        <ele>143.21</ele>
        <time>2020-01-11T14:12:42Z</time>
      </trkpt>
      <trkpt lat="48.67925" lon="1.97303">
        <ele>142.41</ele>
        <time>2020-01-11T14:12:47Z</time>
      </trkpt>
      <trkpt lat="48.67924" lon="1.97297">
        <ele>141.35</ele>
        <time>2020-01-11T14:12:52Z</time>
      </trkpt>
      <trkpt lat="48.67924" lon="1.97293">
        <ele>140.23</ele>
        <time>2020-01-11T14:12:57Z</time>
      </trkpt>
      <trkpt lat="48.67925" lon="1.97287">
        <ele>138.67</ele>
        <time>2020-01-11T14:13:02Z</time>
      </trkpt>
      <trkpt lat="48.67927" lon="1.97279">
        <ele>137.5</ele>
        <time>2020-01-11T14:13:07Z</time>
      </trkpt>
      <trkpt lat="48.67927" lon="1.97273">
        <ele>136.5</ele>
        <time>2020-01-11T14:13:12Z</time>
      </trkpt>
      <trkpt lat="48.67927" lon="1.97267">
        <ele>135.33</ele>
        <time>2020-01-11T14:13:17Z</time>
      </trkpt>
      <trkpt lat="48.67928" lon="1.97259">
        <ele>134.14</ele>
        <time>2020-01-11T14:13:22Z</time>
      </trkpt>
      <trkpt lat="48.67928" lon="1.97253">
        <ele>133.17</ele>
        <time>2020-01-11T14:13:27Z</time>
      </trkpt>
      <trkpt lat="48.67929" lon="1.97247">
        <ele>132.01</ele>
        <time>2020-01-11T14:13:32Z</time>
      </trkpt>
      <trkpt lat="48.67932" lon="1.97239">
        <ele>131.32</ele>
        <time>2020-01-11T14:13:37Z</time>
      </trkpt>
      <trkpt lat="48.67934" lon="1.97231">
        <ele>130.34</ele>
        <time>2020-01-11T14:13:42Z</time>
      </trkpt>
      <trkpt lat="48.67938" lon="1.97224">
        <ele>128.95</ele>
        <time>2020-01-11T14:13:47Z</time>
      </trkpt>
      <trkpt lat="48.67941" lon="1.97213">
        <ele>127.95</ele>
        <time>2020-01-11T14:13:52Z</time>
      </trkpt>
      <trkpt lat="48.67943" lon="1.97205">
        <ele>127.69</ele>
        <time>2020-01-11T14:13:57Z</time>
      </trkpt>
      <trkpt lat="48.67944" lon="1.97197">
        <ele>127.55</ele>
        <time>2020-01-11T14:14:02Z</time>
      </trkpt>
      <trkpt lat="48.67948" lon="1.9719">
        <ele>127.47</ele>
        <time>2020-01-11T14:14:07Z</time>
      </trkpt>
      <trkpt lat="48.67951" lon="1.97183">
        <ele>127.41</ele>
        <time>2020-01-11T14:14:12Z</time>
      </trkpt>
      <trkpt lat="48.67954" lon="1.97174">
        <ele>127.26</ele>
        <time>2020-01-11T14:14:17Z</time>
      </trkpt>
      <trkpt lat="48.67956" lon="1.97165">
        <ele>127.06</ele>
        <time>2020-01-11T14:14:22Z</time>
      </trkpt>
      <trkpt lat="48.67956" lon="1.97157">
        <ele>126.87</ele>
        <time>2020-01-11T14:14:27Z</time>
      </trkpt>
      <trkpt lat="48.67955" lon="1.9715">
        <ele>126.75</ele>
        <time>2020-01-11T14:14:32Z</time>
      </trkpt>
      <trkpt lat="48.67955" lon="1.97143">
        <ele>126.54</ele>
        <time>2020-01-11T14:14:37Z</time>
      </trkpt>
      <trkpt lat="48.67954" lon="1.97137">
        <ele>126.25</ele>
        <time>2020-01-11T14:14:42Z</time>
      </trkpt>
      <trkpt lat="48.67954" lon="1.97128">
        <ele>126.01</ele>
        <time>2020-01-11T14:14:47Z</time>
      </trkpt>
      <trkpt lat="48.67952" lon="1.97119">
        <ele>126.02</ele>
        <time>2020-01-11T14:14:52Z</time>
      </trkpt>
      <trkpt lat="48.67952" lon="1.97109">
        <ele>125.91</ele>
        <time>2020-01-11T14:14:57Z</time>
      </trkpt>
      <trkpt lat="48.67952" lon="1.97099">
        <ele>125.47</ele>
        <time>2020-01-11T14:15:02Z</time>
      </trkpt>
      <trkpt lat="48.67952" lon="1.97092">
        <ele>125.14</ele>
        <time>2020-01-11T14:15:07Z</time>
      </trkpt>
      <trkpt lat="48.67955" lon="1.97084">
        <ele>125</ele>
        <time>2020-01-11T14:15:12Z</time>
      </trkpt>
      <trkpt lat="48.67957" lon="1.97073">
        <ele>124.73</ele>
        <time>2020-01-11T14:15:17Z</time>
      </trkpt>
      <trkpt lat="48.67958" lon="1.97065">
        <ele>124.02</ele>
        <time>2020-01-11T14:15:22Z</time>
      </trkpt>
      <trkpt lat="48.67962" lon="1.97057">
        <ele>123.43</ele>
        <time>2020-01-11T14:15:27Z</time>
      </trkpt>
      <trkpt lat="48.67965" lon="1.9705">
        <ele>122.92</ele>
        <time>2020-01-11T14:15:32Z</time>
      </trkpt>
      <trkpt lat="48.67969" lon="1.97044">
        <ele>122.05</ele>
        <time>2020-01-11T14:15:37Z</time>
      </trkpt>
      <trkpt lat="48.67973" lon="1.97042">
        <ele>121.27</ele>
        <time>2020-01-11T14:15:42Z</time>
      </trkpt>
      <trkpt lat="48.67978" lon="1.9704">
        <ele>120.46</ele>
        <time>2020-01-11T14:15:47Z</time>
      </trkpt>
      <trkpt lat="48.67982" lon="1.9704">
        <ele>119.61</ele>
        <time>2020-01-11T14:15:52Z</time>
      </trkpt>
      <trkpt lat="48.67988" lon="1.97037">
        <ele>118.91</ele>
        <time>2020-01-11T14:15:57Z</time>
      </trkpt>
      <trkpt lat="48.67993" lon="1.97034">
        <ele>118.27</ele>
        <time>2020-01-11T14:16:02Z</time>
      </trkpt>
      <trkpt lat="48.68" lon="1.97031">
        <ele>117.73</ele>
        <time>2020-01-11T14:16:07Z</time>
      </trkpt>
      <trkpt lat="48.68004" lon="1.97031">
        <ele>117.15</ele>
        <time>2020-01-11T14:16:12Z</time>
      </trkpt>
      <trkpt lat="48.68006" lon="1.9703">
        <ele>116.91</ele>
        <time>2020-01-11T14:16:17Z</time>
      </trkpt>
      <trkpt lat="48.68006" lon="1.97031">
        <ele>116.79</ele>
        <time>2020-01-11T14:16:22Z</time>
      </trkpt>
      <trkpt lat="48.68006" lon="1.97031">
        <ele>116.68</ele>
        <time>2020-01-11T14:16:27Z</time>
      </trkpt>
      <trkpt lat="48.68007" lon="1.97032">
        <ele>116.72</ele>
        <time>2020-01-11T14:16:32Z</time>
      </trkpt>
      <trkpt lat="48.68006" lon="1.97034">
        <ele>116.73</ele>
        <time>2020-01-11T14:16:37Z</time>
      </trkpt>
      <trkpt lat="48.68006" lon="1.97035">
        <ele>116.82</ele>
        <time>2020-01-11T14:16:42Z</time>
      </trkpt>
      <trkpt lat="48.68007" lon="1.97037">
        <ele>116.79</ele>
        <time>2020-01-11T14:16:47Z</time>
      </trkpt>
      <trkpt lat="48.68007" lon="1.97038">
        <ele>116.71</ele>
        <time>2020-01-11T14:16:52Z</time>
      </trkpt>
      <trkpt lat="48.68007" lon="1.97038">
        <ele>116.68</ele>
        <time>2020-01-11T14:16:57Z</time>
      </trkpt>
      <trkpt lat="48.68006" lon="1.97038">
        <ele>116.77</ele>
        <time>2020-01-11T14:17:02Z</time>
      </trkpt>
      <trkpt lat="48.68005" lon="1.97038">
        <ele>116.9</ele>
        <time>2020-01-11T14:17:07Z</time>
      </trkpt>
      <trkpt lat="48.68006" lon="1.97039">
        <ele>117.01</ele>
        <time>2020-01-11T14:17:12Z</time>
      </trkpt>
      <trkpt lat="48.68006" lon="1.97041">
        <ele>117.17</ele>
        <time>2020-01-11T14:17:17Z</time>
      </trkpt>
      <trkpt lat="48.68006" lon="1.9704">
        <ele>117.16</ele>
        <time>2020-01-11T14:17:22Z</time>
      </trkpt>
      <trkpt lat="48.68006" lon="1.97042">
        <ele>117.33</ele>
        <time>2020-01-11T14:17:27Z</time>
      </trkpt>
      <trkpt lat="48.68006" lon="1.97041">
        <ele>117.56</ele>
        <time>2020-01-11T14:17:32Z</time>
      </trkpt>
      <trkpt lat="48.68006" lon="1.97041">
        <ele>117.7</ele>
        <time>2020-01-11T14:17:37Z</time>
      </trkpt>
      <trkpt lat="48.68005" lon="1.97041">
        <ele>117.68</ele>
        <time>2020-01-11T14:17:42Z</time>
      </trkpt>
      <trkpt lat="48.68005" lon="1.97041">
        <ele>117.78</ele>
        <time>2020-01-11T14:17:47Z</time>
      </trkpt>
      <trkpt lat="48.68003" lon="1.97041">
        <ele>117.98</ele>
        <time>2020-01-11T14:17:52Z</time>
      </trkpt>
      <trkpt lat="48.68002" lon="1.97041">
        <ele>118.01</ele>
        <time>2020-01-11T14:17:57Z</time>
      </trkpt>
      <trkpt lat="48.68003" lon="1.97039">
        <ele>118</ele>
        <time>2020-01-11T14:18:02Z</time>
      </trkpt>
      <trkpt lat="48.68003" lon="1.97036">
        <ele>117.91</ele>
        <time>2020-01-11T14:18:07Z</time>
      </trkpt>
      <trkpt lat="48.68003" lon="1.97034">
        <ele>117.7</ele>
        <time>2020-01-11T14:18:12Z</time>
      </trkpt>
      <trkpt lat="48.68003" lon="1.97033">
        <ele>117.65</ele>
        <time>2020-01-11T14:18:17Z</time>
      </trkpt>
      <trkpt lat="48.68003" lon="1.97035">
        <ele>117.7</ele>
        <time>2020-01-11T14:18:22Z</time>
      </trkpt>
      <trkpt lat="48.68003" lon="1.97034">
        <ele>117.7</ele>
        <time>2020-01-11T14:18:27Z</time>
      </trkpt>
      <trkpt lat="48.68004" lon="1.97034">
        <ele>117.75</ele>
        <time>2020-01-11T14:18:32Z</time>
      </trkpt>
      <trkpt lat="48.68003" lon="1.97034">
        <ele>118.07</ele>
        <time>2020-01-11T14:18:37Z</time>
      </trkpt>
      <trkpt lat="48.68001" lon="1.97034">
        <ele>117.96</ele>
        <time>2020-01-11T14:18:42Z</time>
      </trkpt>
      <trkpt lat="48.68" lon="1.97034">
        <ele>117.74</ele>
        <time>2020-01-11T14:18:47Z</time>
      </trkpt>
      <trkpt lat="48.67999" lon="1.97034">
        <ele>117.69</ele>
        <time>2020-01-11T14:18:52Z</time>
      </trkpt>
      <trkpt lat="48.67999" lon="1.97033">
        <ele>117.71</ele>
        <time>2020-01-11T14:18:57Z</time>
      </trkpt>
      <trkpt lat="48.67999" lon="1.97031">
        <ele>117.83</ele>
        <time>2020-01-11T14:19:02Z</time>
      </trkpt>
      <trkpt lat="48.68001" lon="1.9703">
        <ele>117.89</ele>
        <time>2020-01-11T14:19:07Z</time>
      </trkpt>
      <trkpt lat="48.68002" lon="1.97028">
        <ele>117.92</ele>
        <time>2020-01-11T14:19:12Z</time>
      </trkpt>
      <trkpt lat="48.68004" lon="1.97027">
        <ele>117.93</ele>
        <time>2020-01-11T14:19:17Z</time>
      </trkpt>
      <trkpt lat="48.68005" lon="1.97028">
        <ele>118.05</ele>
        <time>2020-01-11T14:19:22Z</time>
      </trkpt>
      <trkpt lat="48.68007" lon="1.97028">
        <ele>118.09</ele>
        <time>2020-01-11T14:19:27Z</time>
      </trkpt>
      <trkpt lat="48.68007" lon="1.97029">
        <ele>118.07</ele>
        <time>2020-01-11T14:19:32Z</time>
      </trkpt>
      <trkpt lat="48.68008" lon="1.97027">
        <ele>118.06</ele>
        <time>2020-01-11T14:19:37Z</time>
      </trkpt>
      <trkpt lat="48.68008" lon="1.97026">
        <ele>118.11</ele>
        <time>2020-01-11T14:19:42Z</time>
      </trkpt>
      <trkpt lat="48.68008" lon="1.97026">
        <ele>118.25</ele>
        <time>2020-01-11T14:19:47Z</time>
      </trkpt>
      <trkpt lat="48.68007" lon="1.97025">
        <ele>118.29</ele>
        <time>2020-01-11T14:19:52Z</time>
      </trkpt>
      <trkpt lat="48.68005" lon="1.97025">
        <ele>118.32</ele>
        <time>2020-01-11T14:19:57Z</time>
      </trkpt>
      <trkpt lat="48.68005" lon="1.97026">
        <ele>118.33</ele>
        <time>2020-01-11T14:20:02Z</time>
      </trkpt>
      <trkpt lat="48.68005" lon="1.97026">
        <ele>118.26</ele>
        <time>2020-01-11T14:20:07Z</time>
      </trkpt>
      <trkpt lat="48.68007" lon="1.97029">
        <ele>118.25</ele>
        <time>2020-01-11T14:20:12Z</time>
      </trkpt>
      <trkpt lat="48.6801" lon="1.97033">
        <ele>118.34</ele>
        <time>2020-01-11T14:20:17Z</time>
      </trkpt>
      <trkpt lat="48.68012" lon="1.97036">
        <ele>118.44</ele>
        <time>2020-01-11T14:20:22Z</time>
      </trkpt>
      <trkpt lat="48.68014" lon="1.97035">
        <ele>118.29</ele>
        <time>2020-01-11T14:20:27Z</time>
      </trkpt>
      <trkpt lat="48.68018" lon="1.97034">
        <ele>117.79</ele>
        <time>2020-01-11T14:20:32Z</time>
      </trkpt>
      <trkpt lat="48.68021" lon="1.97034">
        <ele>117.27</ele>
        <time>2020-01-11T14:20:37Z</time>
      </trkpt>
      <trkpt lat="48.68024" lon="1.97032">
        <ele>116.67</ele>
        <time>2020-01-11T14:20:42Z</time>
      </trkpt>
      <trkpt lat="48.68028" lon="1.9703">
        <ele>116.12</ele>
        <time>2020-01-11T14:20:47Z</time>
      </trkpt>
      <trkpt lat="48.68033" lon="1.97029">
        <ele>115.69</ele>
        <time>2020-01-11T14:20:52Z</time>
      </trkpt>
      <trkpt lat="48.68037" lon="1.97028">
        <ele>115.16</ele>
        <time>2020-01-11T14:20:57Z</time>
      </trkpt>
      <trkpt lat="48.68041" lon="1.97026">
        <ele>114.8</ele>
        <time>2020-01-11T14:21:02Z</time>
      </trkpt>
      <trkpt lat="48.68042" lon="1.97022">
        <ele>114.44</ele>
        <time>2020-01-11T14:21:07Z</time>
      </trkpt>
      <trkpt lat="48.68046" lon="1.97019">
        <ele>114.07</ele>
        <time>2020-01-11T14:21:12Z</time>
      </trkpt>
      <trkpt lat="48.68051" lon="1.97016">
        <ele>113.5</ele>
        <time>2020-01-11T14:21:17Z</time>
      </trkpt>
      <trkpt lat="48.68056" lon="1.97014">
        <ele>113.06</ele>
        <time>2020-01-11T14:21:22Z</time>
      </trkpt>
      <trkpt lat="48.68059" lon="1.9701">
        <ele>112.51</ele>
        <time>2020-01-11T14:21:27Z</time>
      </trkpt>
      <trkpt lat="48.68063" lon="1.9701">
        <ele>111.75</ele>
        <time>2020-01-11T14:21:32Z</time>
      </trkpt>
      <trkpt lat="48.68069" lon="1.97007">
        <ele>111.12</ele>
        <time>2020-01-11T14:21:37Z</time>
      </trkpt>
      <trkpt lat="48.68075" lon="1.97003">
        <ele>110.37</ele>
        <time>2020-01-11T14:21:42Z</time>
      </trkpt>
      <trkpt lat="48.68081" lon="1.96999">
        <ele>109.67</ele>
        <time>2020-01-11T14:21:47Z</time>
      </trkpt>
      <trkpt lat="48.68085" lon="1.97">
        <ele>109.15</ele>
        <time>2020-01-11T14:21:52Z</time>
      </trkpt>
      <trkpt lat="48.6809" lon="1.96997">
        <ele>108.41</ele>
        <time>2020-01-11T14:21:57Z</time>
      </trkpt>
      <trkpt lat="48.68094" lon="1.96993">
        <ele>107.62</ele>
        <time>2020-01-11T14:22:02Z</time>
      </trkpt>
      <trkpt lat="48.68098" lon="1.96988">
        <ele>106.91</ele>
        <time>2020-01-11T14:22:07Z</time>
      </trkpt>
      <trkpt lat="48.68102" lon="1.96986">
        <ele>106.37</ele>
        <time>2020-01-11T14:22:12Z</time>
      </trkpt>
      <trkpt lat="48.68108" lon="1.96986">
        <ele>105.77</ele>
        <time>2020-01-11T14:22:17Z</time>
      </trkpt>
      <trkpt lat="48.68113" lon="1.96985">
        <ele>105.18</ele>
        <time>2020-01-11T14:22:22Z</time>
      </trkpt>
      <trkpt lat="48.68119" lon="1.96983">
        <ele>104.67</ele>
        <time>2020-01-11T14:22:27Z</time>
      </trkpt>
      <trkpt lat="48.68125" lon="1.96983">
        <ele>104.05</ele>
        <time>2020-01-11T14:22:32Z</time>
      </trkpt>
      <trkpt lat="48.68133" lon="1.9698">
        <ele>103.6</ele>
        <time>2020-01-11T14:22:37Z</time>
      </trkpt>
      <trkpt lat="48.68138" lon="1.96976">
        <ele>103.2</ele>
        <time>2020-01-11T14:22:42Z</time>
      </trkpt>
      <trkpt lat="48.68141" lon="1.96974">
        <ele>102.55</ele>
        <time>2020-01-11T14:22:47Z</time>
      </trkpt>
      <trkpt lat="48.68145" lon="1.96973">
        <ele>102.21</ele>
        <time>2020-01-11T14:22:52Z</time>
      </trkpt>
      <trkpt lat="48.6815" lon="1.96971">
        <ele>101.88</ele>
        <time>2020-01-11T14:22:57Z</time>
      </trkpt>
      <trkpt lat="48.68154" lon="1.96969">
        <ele>101.57</ele>
        <time>2020-01-11T14:23:02Z</time>
      </trkpt>
      <trkpt lat="48.68157" lon="1.96968">
        <ele>101.44</ele>
        <time>2020-01-11T14:23:07Z</time>
      </trkpt>
      <trkpt lat="48.68161" lon="1.96966">
        <ele>101.15</ele>
        <time>2020-01-11T14:23:12Z</time>
      </trkpt>
      <trkpt lat="48.68164" lon="1.96964">
        <ele>100.9</ele>
        <time>2020-01-11T14:23:17Z</time>
      </trkpt>
      <trkpt lat="48.68167" lon="1.96962">
        <ele>100.6</ele>
        <time>2020-01-11T14:23:22Z</time>
      </trkpt>
      <trkpt lat="48.68169" lon="1.96962">
        <ele>100.4</ele>
        <time>2020-01-11T14:23:27Z</time>
      </trkpt>
      <trkpt lat="48.68171" lon="1.96961">
        <ele>100.17</ele>
        <time>2020-01-11T14:23:32Z</time>
      </trkpt>
      <trkpt lat="48.68173" lon="1.96959">
        <ele>100.01</ele>
        <time>2020-01-11T14:23:37Z</time>
      </trkpt>
      <trkpt lat="48.68176" lon="1.96958">
        <ele>100.08</ele>
        <time>2020-01-11T14:23:42Z</time>
      </trkpt>
      <trkpt lat="48.68177" lon="1.96957">
        <ele>99.97</ele>
        <time>2020-01-11T14:23:47Z</time>
      </trkpt>
      <trkpt lat="48.68178" lon="1.96955">
        <ele>99.87</ele>
        <time>2020-01-11T14:23:52Z</time>
      </trkpt>
      <trkpt lat="48.68179" lon="1.96954">
        <ele>99.59</ele>
        <time>2020-01-11T14:23:57Z</time>
      </trkpt>
      <trkpt lat="48.6818" lon="1.96952">
        <ele>99.35</ele>
        <time>2020-01-11T14:24:02Z</time>
      </trkpt>
      <trkpt lat="48.68181" lon="1.96949">
        <ele>98.94</ele>
        <time>2020-01-11T14:24:07Z</time>
      </trkpt>
      <trkpt lat="48.68183" lon="1.96948">
        <ele>98.5</ele>
        <time>2020-01-11T14:24:12Z</time>
      </trkpt>
      <trkpt lat="48.68185" lon="1.96948">
        <ele>98.01</ele>
        <time>2020-01-11T14:24:17Z</time>
      </trkpt>
      <trkpt lat="48.68186" lon="1.96949">
        <ele>97.57</ele>
        <time>2020-01-11T14:24:22Z</time>
      </trkpt>
      <trkpt lat="48.68189" lon="1.96951">
        <ele>97.16</ele>
        <time>2020-01-11T14:24:27Z</time>
      </trkpt>
      <trkpt lat="48.68191" lon="1.96952">
        <ele>97.01</ele>
        <time>2020-01-11T14:24:32Z</time>
      </trkpt>
      <trkpt lat="48.68195" lon="1.96951">
        <ele>96.77</ele>
        <time>2020-01-11T14:24:37Z</time>
      </trkpt>
      <trkpt lat="48.682" lon="1.9695">
        <ele>96.48</ele>
        <time>2020-01-11T14:24:42Z</time>
      </trkpt>
      <trkpt lat="48.68203" lon="1.96947">
        <ele>96.08</ele>
        <time>2020-01-11T14:24:47Z</time>
      </trkpt>
      <trkpt lat="48.68207" lon="1.96944">
        <ele>95.79</ele>
        <time>2020-01-11T14:24:52Z</time>
      </trkpt>
      <trkpt lat="48.68212" lon="1.96941">
        <ele>95.5</ele>
        <time>2020-01-11T14:24:57Z</time>
      </trkpt>
      <trkpt lat="48.68216" lon="1.96939">
        <ele>95.23</ele>
        <time>2020-01-11T14:25:02Z</time>
      </trkpt>
      <trkpt lat="48.68221" lon="1.96936">
        <ele>95.07</ele>
        <time>2020-01-11T14:25:07Z</time>
      </trkpt>
      <trkpt lat="48.68226" lon="1.96934">
        <ele>94.84</ele>
        <time>2020-01-11T14:25:12Z</time>
      </trkpt>
      <trkpt lat="48.68231" lon="1.96932">
        <ele>94.65</ele>
        <time>2020-01-11T14:25:17Z</time>
      </trkpt>
      <trkpt lat="48.68239" lon="1.96929">
        <ele>94.52</ele>
        <time>2020-01-11T14:25:22Z</time>
      </trkpt>
      <trkpt lat="48.68245" lon="1.96927">
        <ele>94.6</ele>
        <time>2020-01-11T14:25:27Z</time>
      </trkpt>
      <trkpt lat="48.68249" lon="1.96926">
        <ele>94.63</ele>
        <time>2020-01-11T14:25:32Z</time>
      </trkpt>
      <trkpt lat="48.68253" lon="1.96924">
        <ele>94.57</ele>
        <time>2020-01-11T14:25:37Z</time>
      </trkpt>
      <trkpt lat="48.68258" lon="1.96925">
        <ele>94.65</ele>
        <time>2020-01-11T14:25:42Z</time>
      </trkpt>
      <trkpt lat="48.68262" lon="1.96923">
        <ele>94.86</ele>
        <time>2020-01-11T14:25:47Z</time>
      </trkpt>
      <trkpt lat="48.68269" lon="1.96919">
        <ele>95.11</ele>
        <time>2020-01-11T14:25:52Z</time>
      </trkpt>
      <trkpt lat="48.68275" lon="1.96916">
        <ele>95.23</ele>
        <time>2020-01-11T14:25:57Z</time>
      </trkpt>
      <trkpt lat="48.68281" lon="1.9692">
        <ele>95.61</ele>
        <time>2020-01-11T14:26:02Z</time>
      </trkpt>
      <trkpt lat="48.68286" lon="1.96924">
        <ele>95.69</ele>
        <time>2020-01-11T14:26:07Z</time>
      </trkpt>
      <trkpt lat="48.68291" lon="1.96927">
        <ele>95.65</ele>
        <time>2020-01-11T14:26:12Z</time>
      </trkpt>
      <trkpt lat="48.68294" lon="1.9693">
        <ele>95.78</ele>
        <time>2020-01-11T14:26:17Z</time>
      </trkpt>
      <trkpt lat="48.68299" lon="1.96934">
        <ele>95.84</ele>
        <time>2020-01-11T14:26:22Z</time>
      </trkpt>
      <trkpt lat="48.68305" lon="1.96939">
        <ele>95.86</ele>
        <time>2020-01-11T14:26:27Z</time>
      </trkpt>
      <trkpt lat="48.6831" lon="1.96939">
        <ele>95.9</ele>
        <time>2020-01-11T14:26:32Z</time>
      </trkpt>
      <trkpt lat="48.68315" lon="1.96938">
        <ele>96.31</ele>
        <time>2020-01-11T14:26:37Z</time>
      </trkpt>
      <trkpt lat="48.68319" lon="1.96936">
        <ele>96.68</ele>
        <time>2020-01-11T14:26:42Z</time>
      </trkpt>
      <trkpt lat="48.68324" lon="1.96934">
        <ele>97.16</ele>
        <time>2020-01-11T14:26:47Z</time>
      </trkpt>
      <trkpt lat="48.68329" lon="1.96937">
        <ele>97.77</ele>
        <time>2020-01-11T14:26:52Z</time>
      </trkpt>
      <trkpt lat="48.68334" lon="1.96941">
        <ele>98.47</ele>
        <time>2020-01-11T14:26:57Z</time>
      </trkpt>
      <trkpt lat="48.68338" lon="1.96948">
        <ele>98.46</ele>
        <time>2020-01-11T14:27:02Z</time>
      </trkpt>
      <trkpt lat="48.68342" lon="1.96955">
        <ele>98.61</ele>
        <time>2020-01-11T14:27:07Z</time>
      </trkpt>
      <trkpt lat="48.68346" lon="1.96962">
        <ele>98.89</ele>
        <time>2020-01-11T14:27:12Z</time>
      </trkpt>
      <trkpt lat="48.68349" lon="1.96969">
        <ele>98.9</ele>
        <time>2020-01-11T14:27:17Z</time>
      </trkpt>
      <trkpt lat="48.68352" lon="1.96976">
        <ele>99.11</ele>
        <time>2020-01-11T14:27:22Z</time>
      </trkpt>
      <trkpt lat="48.68356" lon="1.96982">
        <ele>99.45</ele>
        <time>2020-01-11T14:27:27Z</time>
      </trkpt>
      <trkpt lat="48.68359" lon="1.96989">
        <ele>99.62</ele>
        <time>2020-01-11T14:27:32Z</time>
      </trkpt>
      <trkpt lat="48.68363" lon="1.96995">
        <ele>99.68</ele>
        <time>2020-01-11T14:27:37Z</time>
      </trkpt>
      <trkpt lat="48.68367" lon="1.96998">
        <ele>99.73</ele>
        <time>2020-01-11T14:27:42Z</time>
      </trkpt>
      <trkpt lat="48.68372" lon="1.96997">
        <ele>99.88</ele>
        <time>2020-01-11T14:27:47Z</time>
      </trkpt>
      <trkpt lat="48.68376" lon="1.96993">
        <ele>100.02</ele>
        <time>2020-01-11T14:27:52Z</time>
      </trkpt>
      <trkpt lat="48.6838" lon="1.96988">
        <ele>100.21</ele>
        <time>2020-01-11T14:27:57Z</time>
      </trkpt>
      <trkpt lat="48.68384" lon="1.96983">
        <ele>100.59</ele>
        <time>2020-01-11T14:28:02Z</time>
      </trkpt>
      <trkpt lat="48.68386" lon="1.96979">
        <ele>100.86</ele>
        <time>2020-01-11T14:28:07Z</time>
      </trkpt>
      <trkpt lat="48.68387" lon="1.96976">
        <ele>101.26</ele>
        <time>2020-01-11T14:28:12Z</time>
      </trkpt>
      <trkpt lat="48.68387" lon="1.96971">
        <ele>101.45</ele>
        <time>2020-01-11T14:28:17Z</time>
      </trkpt>
      <trkpt lat="48.68388" lon="1.96968">
        <ele>101.81</ele>
        <time>2020-01-11T14:28:22Z</time>
      </trkpt>
      <trkpt lat="48.68388" lon="1.96967">
        <ele>102.09</ele>
        <time>2020-01-11T14:28:27Z</time>
      </trkpt>
      <trkpt lat="48.68389" lon="1.96967">
        <ele>102.16</ele>
        <time>2020-01-11T14:28:32Z</time>
      </trkpt>
      <trkpt lat="48.68389" lon="1.96967">
        <ele>102.26</ele>
        <time>2020-01-11T14:28:37Z</time>
      </trkpt>
      <trkpt lat="48.68388" lon="1.96968">
        <ele>102.33</ele>
        <time>2020-01-11T14:28:42Z</time>
      </trkpt>
      <trkpt lat="48.68388" lon="1.96967">
        <ele>102.43</ele>
        <time>2020-01-11T14:28:47Z</time>
      </trkpt>
      <trkpt lat="48.68388" lon="1.96967">
        <ele>102.39</ele>
        <time>2020-01-11T14:28:52Z</time>
      </trkpt>
      <trkpt lat="48.68388" lon="1.96966">
        <ele>102.42</ele>
        <time>2020-01-11T14:28:57Z</time>
      </trkpt>
      <trkpt lat="48.68388" lon="1.96966">
        <ele>102.57</ele>
        <time>2020-01-11T14:29:02Z</time>
      </trkpt>
      <trkpt lat="48.68388" lon="1.96966">
        <ele>102.39</ele>
        <time>2020-01-11T14:29:07Z</time>
      </trkpt>
      <trkpt lat="48.68388" lon="1.96967">
        <ele>102.41</ele>
        <time>2020-01-11T14:29:12Z</time>
      </trkpt>
      <trkpt lat="48.68388" lon="1.96967">
        <ele>102.55</ele>
        <time>2020-01-11T14:29:17Z</time>
      </trkpt>
      <trkpt lat="48.68388" lon="1.96967">
        <ele>102.61</ele>
        <time>2020-01-11T14:29:22Z</time>
      </trkpt>
      <trkpt lat="48.68388" lon="1.96967">
        <ele>102.62</ele>
        <time>2020-01-11T14:29:27Z</time>
      </trkpt>
      <trkpt lat="48.68388" lon="1.96967">
        <ele>102.56</ele>
        <time>2020-01-11T14:29:32Z</time>
      </trkpt>
      <trkpt lat="48.68388" lon="1.96967">
        <ele>102.7</ele>
        <time>2020-01-11T14:29:37Z</time>
      </trkpt>
      <trkpt lat="48.68388" lon="1.96966">
        <ele>102.99</ele>
        <time>2020-01-11T14:29:42Z</time>
      </trkpt>
      <trkpt lat="48.68388" lon="1.96966">
        <ele>102.99</ele>
        <time>2020-01-11T14:29:47Z</time>
      </trkpt>
      <trkpt lat="48.68387" lon="1.96966">
        <ele>103.01</ele>
        <time>2020-01-11T14:29:52Z</time>
      </trkpt>
      <trkpt lat="48.68387" lon="1.96965">
        <ele>103.11</ele>
        <time>2020-01-11T14:29:57Z</time>
      </trkpt>
      <trkpt lat="48.68387" lon="1.96965">
        <ele>103.13</ele>
        <time>2020-01-11T14:30:02Z</time>
      </trkpt>
      <trkpt lat="48.68387" lon="1.96965">
        <ele>103.14</ele>
        <time>2020-01-11T14:30:07Z</time>
      </trkpt>
      <trkpt lat="48.68388" lon="1.96965">
        <ele>103.1</ele>
        <time>2020-01-11T14:30:12Z</time>
      </trkpt>
      <trkpt lat="48.68388" lon="1.96966">
        <ele>102.99</ele>
        <time>2020-01-11T14:30:17Z</time>
      </trkpt>
      <trkpt lat="48.68389" lon="1.96966">
        <ele>102.89</ele>
        <time>2020-01-11T14:30:22Z</time>
      </trkpt>
      <trkpt lat="48.6839" lon="1.96967">
        <ele>102.81</ele>
        <time>2020-01-11T14:30:27Z</time>
      </trkpt>
      <trkpt lat="48.68391" lon="1.96967">
        <ele>102.8</ele>
        <time>2020-01-11T14:30:32Z</time>
      </trkpt>
      <trkpt lat="48.68391" lon="1.96967">
        <ele>102.8</ele>
        <time>2020-01-11T14:30:37Z</time>
      </trkpt>
      <trkpt lat="48.68392" lon="1.96967">
        <ele>102.89</ele>
        <time>2020-01-11T14:30:42Z</time>
      </trkpt>
      <trkpt lat="48.68392" lon="1.96966">
        <ele>102.99</ele>
        <time>2020-01-11T14:30:47Z</time>
      </trkpt>
      <trkpt lat="48.68392" lon="1.96966">
        <ele>102.97</ele>
        <time>2020-01-11T14:30:52Z</time>
      </trkpt>
      <trkpt lat="48.68391" lon="1.96966">
        <ele>102.95</ele>
        <time>2020-01-11T14:30:57Z</time>
      </trkpt>
      <trkpt lat="48.68391" lon="1.96966">
        <ele>103.05</ele>
        <time>2020-01-11T14:31:02Z</time>
      </trkpt>
      <trkpt lat="48.68391" lon="1.96966">
        <ele>103.19</ele>
        <time>2020-01-11T14:31:07Z</time>
      </trkpt>
      <trkpt lat="48.68391" lon="1.96967">
        <ele>103.24</ele>
        <time>2020-01-11T14:31:12Z</time>
      </trkpt>
      <trkpt lat="48.68391" lon="1.96966">
        <ele>103.22</ele>
        <time>2020-01-11T14:31:17Z</time>
      </trkpt>
      <trkpt lat="48.68391" lon="1.96965">
        <ele>102.98</ele>
        <time>2020-01-11T14:31:22Z</time>
      </trkpt>
      <trkpt lat="48.68392" lon="1.9696">
        <ele>102.94</ele>
        <time>2020-01-11T14:31:27Z</time>
      </trkpt>
      <trkpt lat="48.68394" lon="1.96954">
        <ele>103.21</ele>
        <time>2020-01-11T14:31:32Z</time>
      </trkpt>
      <trkpt lat="48.68397" lon="1.96948">
        <ele>103.74</ele>
        <time>2020-01-11T14:31:37Z</time>
      </trkpt>
      <trkpt lat="48.684" lon="1.96943">
        <ele>104.14</ele>
        <time>2020-01-11T14:31:42Z</time>
      </trkpt>
      <trkpt lat="48.68403" lon="1.96936">
        <ele>104.65</ele>
        <time>2020-01-11T14:31:47Z</time>
      </trkpt>
      <trkpt lat="48.68406" lon="1.9693">
        <ele>105.12</ele>
        <time>2020-01-11T14:31:52Z</time>
      </trkpt>
      <trkpt lat="48.6841" lon="1.96923">
        <ele>105.68</ele>
        <time>2020-01-11T14:31:57Z</time>
      </trkpt>
      <trkpt lat="48.68413" lon="1.96917">
        <ele>106.11</ele>
        <time>2020-01-11T14:32:02Z</time>
      </trkpt>
      <trkpt lat="48.68416" lon="1.96911">
        <ele>106.4</ele>
        <time>2020-01-11T14:32:07Z</time>
      </trkpt>
      <trkpt lat="48.6842" lon="1.96904">
        <ele>106.84</ele>
        <time>2020-01-11T14:32:12Z</time>
      </trkpt>
      <trkpt lat="48.68424" lon="1.96898">
        <ele>107.26</ele>
        <time>2020-01-11T14:32:17Z</time>
      </trkpt>
      <trkpt lat="48.68427" lon="1.96892">
        <ele>107.7</ele>
        <time>2020-01-11T14:32:22Z</time>
      </trkpt>
      <trkpt lat="48.6843" lon="1.96886">
        <ele>108.04</ele>
        <time>2020-01-11T14:32:27Z</time>
      </trkpt>
      <trkpt lat="48.68433" lon="1.9688">
        <ele>108.32</ele>
        <time>2020-01-11T14:32:32Z</time>
      </trkpt>
      <trkpt lat="48.68437" lon="1.96874">
        <ele>108.53</ele>
        <time>2020-01-11T14:32:37Z</time>
      </trkpt>
      <trkpt lat="48.6844" lon="1.96868">
        <ele>108.9</ele>
        <time>2020-01-11T14:32:42Z</time>
      </trkpt>
      <trkpt lat="48.68443" lon="1.96862">
        <ele>109.3</ele>
        <time>2020-01-11T14:32:47Z</time>
      </trkpt>
      <trkpt lat="48.68446" lon="1.96855">
        <ele>109.43</ele>
        <time>2020-01-11T14:32:52Z</time>
      </trkpt>
      <trkpt lat="48.68449" lon="1.96849">
        <ele>109.85</ele>
        <time>2020-01-11T14:32:57Z</time>
      </trkpt>
      <trkpt lat="48.68452" lon="1.96843">
        <ele>110.17</ele>
        <time>2020-01-11T14:33:02Z</time>
      </trkpt>
      <trkpt lat="48.68456" lon="1.96837">
        <ele>110.41</ele>
        <time>2020-01-11T14:33:07Z</time>
      </trkpt>
      <trkpt lat="48.68459" lon="1.96831">
        <ele>110.75</ele>
        <time>2020-01-11T14:33:12Z</time>
      </trkpt>
      <trkpt lat="48.68462" lon="1.96825">
        <ele>111.01</ele>
        <time>2020-01-11T14:33:17Z</time>
      </trkpt>
      <trkpt lat="48.68465" lon="1.9682">
        <ele>111.36</ele>
        <time>2020-01-11T14:33:22Z</time>
      </trkpt>
      <trkpt lat="48.68468" lon="1.96813">
        <ele>111.48</ele>
        <time>2020-01-11T14:33:27Z</time>
      </trkpt>
      <trkpt lat="48.68471" lon="1.96808">
        <ele>111.68</ele>
        <time>2020-01-11T14:33:32Z</time>
      </trkpt>
      <trkpt lat="48.68475" lon="1.96802">
        <ele>112.17</ele>
        <time>2020-01-11T14:33:37Z</time>
      </trkpt>
      <trkpt lat="48.68478" lon="1.96796">
        <ele>112.65</ele>
        <time>2020-01-11T14:33:42Z</time>
      </trkpt>
      <trkpt lat="48.68481" lon="1.9679">
        <ele>113.16</ele>
        <time>2020-01-11T14:33:47Z</time>
      </trkpt>
      <trkpt lat="48.68485" lon="1.96783">
        <ele>113.47</ele>
        <time>2020-01-11T14:33:52Z</time>
      </trkpt>
      <trkpt lat="48.68488" lon="1.96778">
        <ele>113.61</ele>
        <time>2020-01-11T14:33:57Z</time>
      </trkpt>
      <trkpt lat="48.68491" lon="1.96772">
        <ele>113.81</ele>
        <time>2020-01-11T14:34:02Z</time>
      </trkpt>
      <trkpt lat="48.68494" lon="1.96767">
        <ele>114.03</ele>
        <time>2020-01-11T14:34:07Z</time>
      </trkpt>
      <trkpt lat="48.68498" lon="1.96762">
        <ele>114.29</ele>
        <time>2020-01-11T14:34:12Z</time>
      </trkpt>
      <trkpt lat="48.68502" lon="1.96761">
        <ele>114.45</ele>
        <time>2020-01-11T14:34:17Z</time>
      </trkpt>
      <trkpt lat="48.68505" lon="1.96757">
        <ele>114.51</ele>
        <time>2020-01-11T14:34:22Z</time>
      </trkpt>
      <trkpt lat="48.68507" lon="1.96753">
        <ele>114.58</ele>
        <time>2020-01-11T14:34:27Z</time>
      </trkpt>
      <trkpt lat="48.68506" lon="1.96749">
        <ele>114.62</ele>
        <time>2020-01-11T14:34:32Z</time>
      </trkpt>
      <trkpt lat="48.68504" lon="1.96745">
        <ele>114.86</ele>
        <time>2020-01-11T14:34:37Z</time>
      </trkpt>
      <trkpt lat="48.68502" lon="1.96739">
        <ele>115.24</ele>
        <time>2020-01-11T14:34:42Z</time>
      </trkpt>
      <trkpt lat="48.68501" lon="1.96733">
        <ele>115.43</ele>
        <time>2020-01-11T14:34:47Z</time>
      </trkpt>
      <trkpt lat="48.68499" lon="1.96727">
        <ele>115.87</ele>
        <time>2020-01-11T14:34:52Z</time>
      </trkpt>
      <trkpt lat="48.68498" lon="1.96721">
        <ele>116.3</ele>
        <time>2020-01-11T14:34:57Z</time>
      </trkpt>
      <trkpt lat="48.68496" lon="1.96716">
        <ele>116.66</ele>
        <time>2020-01-11T14:35:02Z</time>
      </trkpt>
      <trkpt lat="48.68495" lon="1.96713">
        <ele>116.93</ele>
        <time>2020-01-11T14:35:07Z</time>
      </trkpt>
      <trkpt lat="48.68493" lon="1.96704">
        <ele>117.19</ele>
        <time>2020-01-11T14:35:12Z</time>
      </trkpt>
      <trkpt lat="48.68491" lon="1.96697">
        <ele>117.56</ele>
        <time>2020-01-11T14:35:17Z</time>
      </trkpt>
      <trkpt lat="48.68488" lon="1.96688">
        <ele>118.02</ele>
        <time>2020-01-11T14:35:22Z</time>
      </trkpt>
      <trkpt lat="48.68485" lon="1.9668">
        <ele>118.69</ele>
        <time>2020-01-11T14:35:27Z</time>
      </trkpt>
      <trkpt lat="48.68484" lon="1.96673">
        <ele>119.22</ele>
        <time>2020-01-11T14:35:32Z</time>
      </trkpt>
      <trkpt lat="48.68482" lon="1.96665">
        <ele>119.54</ele>
        <time>2020-01-11T14:35:37Z</time>
      </trkpt>
      <trkpt lat="48.68478" lon="1.96658">
        <ele>120.01</ele>
        <time>2020-01-11T14:35:42Z</time>
      </trkpt>
      <trkpt lat="48.68477" lon="1.9665">
        <ele>120.38</ele>
        <time>2020-01-11T14:35:47Z</time>
      </trkpt>
      <trkpt lat="48.68475" lon="1.96639">
        <ele>120.69</ele>
        <time>2020-01-11T14:35:52Z</time>
      </trkpt>
      <trkpt lat="48.68473" lon="1.96633">
        <ele>120.86</ele>
        <time>2020-01-11T14:35:57Z</time>
      </trkpt>
      <trkpt lat="48.68472" lon="1.96626">
        <ele>120.95</ele>
        <time>2020-01-11T14:36:02Z</time>
      </trkpt>
      <trkpt lat="48.6847" lon="1.96621">
        <ele>121</ele>
        <time>2020-01-11T14:36:07Z</time>
      </trkpt>
      <trkpt lat="48.68468" lon="1.96611">
        <ele>121.16</ele>
        <time>2020-01-11T14:36:12Z</time>
      </trkpt>
      <trkpt lat="48.68467" lon="1.96604">
        <ele>121.53</ele>
        <time>2020-01-11T14:36:17Z</time>
      </trkpt>
      <trkpt lat="48.68465" lon="1.96597">
        <ele>121.71</ele>
        <time>2020-01-11T14:36:22Z</time>
      </trkpt>
      <trkpt lat="48.68463" lon="1.9659">
        <ele>121.98</ele>
        <time>2020-01-11T14:36:27Z</time>
      </trkpt>
      <trkpt lat="48.68461" lon="1.96584">
        <ele>122.13</ele>
        <time>2020-01-11T14:36:32Z</time>
      </trkpt>
      <trkpt lat="48.68458" lon="1.96574">
        <ele>122.53</ele>
        <time>2020-01-11T14:36:37Z</time>
      </trkpt>
      <trkpt lat="48.68455" lon="1.96566">
        <ele>122.81</ele>
        <time>2020-01-11T14:36:42Z</time>
      </trkpt>
      <trkpt lat="48.68453" lon="1.96559">
        <ele>123.14</ele>
        <time>2020-01-11T14:36:47Z</time>
      </trkpt>
      <trkpt lat="48.68452" lon="1.96554">
        <ele>123.26</ele>
        <time>2020-01-11T14:36:52Z</time>
      </trkpt>
      <trkpt lat="48.68452" lon="1.96548">
        <ele>123.46</ele>
        <time>2020-01-11T14:36:57Z</time>
      </trkpt>
      <trkpt lat="48.68451" lon="1.96538">
        <ele>123.78</ele>
        <time>2020-01-11T14:37:02Z</time>
      </trkpt>
      <trkpt lat="48.68453" lon="1.96528">
        <ele>124.27</ele>
        <time>2020-01-11T14:37:07Z</time>
      </trkpt>
      <trkpt lat="48.68454" lon="1.96526">
        <ele>124.9</ele>
        <time>2020-01-11T14:37:12Z</time>
      </trkpt>
      <trkpt lat="48.68456" lon="1.96522">
        <ele>125.04</ele>
        <time>2020-01-11T14:37:17Z</time>
      </trkpt>
      <trkpt lat="48.68457" lon="1.96514">
        <ele>125.48</ele>
        <time>2020-01-11T14:37:22Z</time>
      </trkpt>
      <trkpt lat="48.68457" lon="1.96507">
        <ele>126.16</ele>
        <time>2020-01-11T14:37:27Z</time>
      </trkpt>
      <trkpt lat="48.68458" lon="1.96501">
        <ele>126.65</ele>
        <time>2020-01-11T14:37:32Z</time>
      </trkpt>
      <trkpt lat="48.68457" lon="1.96491">
        <ele>127.09</ele>
        <time>2020-01-11T14:37:37Z</time>
      </trkpt>
      <trkpt lat="48.68456" lon="1.96482">
        <ele>127.62</ele>
        <time>2020-01-11T14:37:42Z</time>
      </trkpt>
      <trkpt lat="48.68455" lon="1.96472">
        <ele>128.29</ele>
        <time>2020-01-11T14:37:47Z</time>
      </trkpt>
      <trkpt lat="48.68454" lon="1.96461">
        <ele>128.54</ele>
        <time>2020-01-11T14:37:52Z</time>
      </trkpt>
      <trkpt lat="48.68453" lon="1.96453">
        <ele>128.78</ele>
        <time>2020-01-11T14:37:57Z</time>
      </trkpt>
      <trkpt lat="48.68453" lon="1.96442">
        <ele>129.14</ele>
        <time>2020-01-11T14:38:02Z</time>
      </trkpt>
      <trkpt lat="48.68452" lon="1.96433">
        <ele>129.44</ele>
        <time>2020-01-11T14:38:07Z</time>
      </trkpt>
      <trkpt lat="48.68452" lon="1.96428">
        <ele>129.78</ele>
        <time>2020-01-11T14:38:12Z</time>
      </trkpt>
      <trkpt lat="48.68451" lon="1.96423">
        <ele>130.16</ele>
        <time>2020-01-11T14:38:17Z</time>
      </trkpt>
      <trkpt lat="48.6845" lon="1.96418">
        <ele>130.55</ele>
        <time>2020-01-11T14:38:22Z</time>
      </trkpt>
      <trkpt lat="48.68452" lon="1.96411">
        <ele>130.78</ele>
        <time>2020-01-11T14:38:27Z</time>
      </trkpt>
      <trkpt lat="48.68453" lon="1.96407">
        <ele>131.12</ele>
        <time>2020-01-11T14:38:32Z</time>
      </trkpt>
      <trkpt lat="48.68456" lon="1.96402">
        <ele>131.04</ele>
        <time>2020-01-11T14:38:37Z</time>
      </trkpt>
      <trkpt lat="48.6846" lon="1.96403">
        <ele>130.29</ele>
        <time>2020-01-11T14:38:42Z</time>
      </trkpt>
      <trkpt lat="48.68465" lon="1.96402">
        <ele>130.04</ele>
        <time>2020-01-11T14:38:47Z</time>
      </trkpt>
      <trkpt lat="48.68471" lon="1.96403">
        <ele>129.62</ele>
        <time>2020-01-11T14:38:52Z</time>
      </trkpt>
      <trkpt lat="48.68473" lon="1.96401">
        <ele>128.95</ele>
        <time>2020-01-11T14:38:57Z</time>
      </trkpt>
      <trkpt lat="48.68477" lon="1.96399">
        <ele>128.35</ele>
        <time>2020-01-11T14:39:02Z</time>
      </trkpt>
      <trkpt lat="48.68482" lon="1.96396">
        <ele>127.67</ele>
        <time>2020-01-11T14:39:07Z</time>
      </trkpt>
      <trkpt lat="48.68484" lon="1.96396">
        <ele>127.17</ele>
        <time>2020-01-11T14:39:12Z</time>
      </trkpt>
      <trkpt lat="48.68487" lon="1.96393">
        <ele>126.83</ele>
        <time>2020-01-11T14:39:17Z</time>
      </trkpt>
      <trkpt lat="48.68491" lon="1.9639">
        <ele>126.45</ele>
        <time>2020-01-11T14:39:22Z</time>
      </trkpt>
      <trkpt lat="48.68496" lon="1.96385">
        <ele>126.12</ele>
        <time>2020-01-11T14:39:27Z</time>
      </trkpt>
      <trkpt lat="48.68501" lon="1.96381">
        <ele>125.84</ele>
        <time>2020-01-11T14:39:32Z</time>
      </trkpt>
      <trkpt lat="48.68504" lon="1.96379">
        <ele>125.34</ele>
        <time>2020-01-11T14:39:37Z</time>
      </trkpt>
      <trkpt lat="48.68507" lon="1.96381">
        <ele>124.77</ele>
        <time>2020-01-11T14:39:42Z</time>
      </trkpt>
      <trkpt lat="48.68511" lon="1.96384">
        <ele>124.2</ele>
        <time>2020-01-11T14:39:47Z</time>
      </trkpt>
      <trkpt lat="48.68515" lon="1.96387">
        <ele>123.56</ele>
        <time>2020-01-11T14:39:52Z</time>
      </trkpt>
      <trkpt lat="48.68519" lon="1.96385">
        <ele>122.33</ele>
        <time>2020-01-11T14:39:57Z</time>
      </trkpt>
      <trkpt lat="48.68523" lon="1.96383">
        <ele>121.56</ele>
        <time>2020-01-11T14:40:02Z</time>
      </trkpt>
      <trkpt lat="48.68528" lon="1.96383">
        <ele>121.14</ele>
        <time>2020-01-11T14:40:07Z</time>
      </trkpt>
      <trkpt lat="48.68533" lon="1.96383">
        <ele>120.95</ele>
        <time>2020-01-11T14:40:12Z</time>
      </trkpt>
      <trkpt lat="48.68537" lon="1.96381">
        <ele>120.92</ele>
        <time>2020-01-11T14:40:17Z</time>
      </trkpt>
      <trkpt lat="48.68543" lon="1.9638">
        <ele>121.33</ele>
        <time>2020-01-11T14:40:22Z</time>
      </trkpt>
      <trkpt lat="48.68549" lon="1.96379">
        <ele>121.83</ele>
        <time>2020-01-11T14:40:27Z</time>
      </trkpt>
      <trkpt lat="48.68556" lon="1.96378">
        <ele>122.56</ele>
        <time>2020-01-11T14:40:32Z</time>
      </trkpt>
      <trkpt lat="48.68561" lon="1.96376">
        <ele>123.54</ele>
        <time>2020-01-11T14:40:37Z</time>
      </trkpt>
      <trkpt lat="48.68566" lon="1.96374">
        <ele>124.21</ele>
        <time>2020-01-11T14:40:42Z</time>
      </trkpt>
      <trkpt lat="48.68571" lon="1.96372">
        <ele>125.05</ele>
        <time>2020-01-11T14:40:47Z</time>
      </trkpt>
      <trkpt lat="48.68575" lon="1.96369">
        <ele>125.64</ele>
        <time>2020-01-11T14:40:52Z</time>
      </trkpt>
      <trkpt lat="48.6858" lon="1.96366">
        <ele>126.23</ele>
        <time>2020-01-11T14:40:57Z</time>
      </trkpt>
      <trkpt lat="48.68585" lon="1.96364">
        <ele>126.6</ele>
        <time>2020-01-11T14:41:02Z</time>
      </trkpt>
      <trkpt lat="48.6859" lon="1.9636">
        <ele>126.78</ele>
        <time>2020-01-11T14:41:07Z</time>
      </trkpt>
      <trkpt lat="48.68596" lon="1.96356">
        <ele>127.26</ele>
        <time>2020-01-11T14:41:12Z</time>
      </trkpt>
      <trkpt lat="48.68602" lon="1.96353">
        <ele>127.88</ele>
        <time>2020-01-11T14:41:17Z</time>
      </trkpt>
      <trkpt lat="48.68607" lon="1.96351">
        <ele>128.49</ele>
        <time>2020-01-11T14:41:22Z</time>
      </trkpt>
      <trkpt lat="48.68612" lon="1.96352">
        <ele>128.95</ele>
        <time>2020-01-11T14:41:27Z</time>
      </trkpt>
      <trkpt lat="48.68617" lon="1.96353">
        <ele>129.68</ele>
        <time>2020-01-11T14:41:32Z</time>
      </trkpt>
      <trkpt lat="48.68622" lon="1.9635">
        <ele>130.61</ele>
        <time>2020-01-11T14:41:37Z</time>
      </trkpt>
      <trkpt lat="48.68627" lon="1.96347">
        <ele>131.28</ele>
        <time>2020-01-11T14:41:42Z</time>
      </trkpt>
      <trkpt lat="48.68631" lon="1.96342">
        <ele>131.79</ele>
        <time>2020-01-11T14:41:47Z</time>
      </trkpt>
      <trkpt lat="48.68635" lon="1.96337">
        <ele>132.68</ele>
        <time>2020-01-11T14:41:52Z</time>
      </trkpt>
      <trkpt lat="48.68639" lon="1.96333">
        <ele>133.61</ele>
        <time>2020-01-11T14:41:57Z</time>
      </trkpt>
      <trkpt lat="48.68643" lon="1.96331">
        <ele>134.89</ele>
        <time>2020-01-11T14:42:02Z</time>
      </trkpt>
      <trkpt lat="48.68648" lon="1.96328">
        <ele>135.7</ele>
        <time>2020-01-11T14:42:07Z</time>
      </trkpt>
      <trkpt lat="48.68653" lon="1.96326">
        <ele>136.44</ele>
        <time>2020-01-11T14:42:12Z</time>
      </trkpt>
      <trkpt lat="48.68657" lon="1.96323">
        <ele>137.24</ele>
        <time>2020-01-11T14:42:17Z</time>
      </trkpt>
      <trkpt lat="48.68661" lon="1.9632">
        <ele>137.83</ele>
        <time>2020-01-11T14:42:22Z</time>
      </trkpt>
      <trkpt lat="48.68666" lon="1.96316">
        <ele>138.85</ele>
        <time>2020-01-11T14:42:27Z</time>
      </trkpt>
      <trkpt lat="48.68669" lon="1.96313">
        <ele>139.8</ele>
        <time>2020-01-11T14:42:32Z</time>
      </trkpt>
      <trkpt lat="48.68669" lon="1.96307">
        <ele>140.3</ele>
        <time>2020-01-11T14:42:37Z</time>
      </trkpt>
      <trkpt lat="48.68668" lon="1.96302">
        <ele>140.68</ele>
        <time>2020-01-11T14:42:42Z</time>
      </trkpt>
      <trkpt lat="48.68666" lon="1.96297">
        <ele>140.91</ele>
        <time>2020-01-11T14:42:47Z</time>
      </trkpt>
      <trkpt lat="48.68664" lon="1.96291">
        <ele>141.21</ele>
        <time>2020-01-11T14:42:52Z</time>
      </trkpt>
      <trkpt lat="48.68663" lon="1.96285">
        <ele>141.62</ele>
        <time>2020-01-11T14:42:57Z</time>
      </trkpt>
      <trkpt lat="48.68661" lon="1.96279">
        <ele>142.14</ele>
        <time>2020-01-11T14:43:02Z</time>
      </trkpt>
      <trkpt lat="48.68661" lon="1.96271">
        <ele>142.83</ele>
        <time>2020-01-11T14:43:07Z</time>
      </trkpt>
      <trkpt lat="48.68659" lon="1.96265">
        <ele>143.64</ele>
        <time>2020-01-11T14:43:12Z</time>
      </trkpt>
      <trkpt lat="48.68655" lon="1.9626">
        <ele>144.49</ele>
        <time>2020-01-11T14:43:17Z</time>
      </trkpt>
      <trkpt lat="48.68653" lon="1.96252">
        <ele>145.36</ele>
        <time>2020-01-11T14:43:22Z</time>
      </trkpt>
      <trkpt lat="48.6865" lon="1.96246">
        <ele>146</ele>
        <time>2020-01-11T14:43:27Z</time>
      </trkpt>
      <trkpt lat="48.68648" lon="1.9624">
        <ele>146.65</ele>
        <time>2020-01-11T14:43:32Z</time>
      </trkpt>
      <trkpt lat="48.68646" lon="1.96231">
        <ele>147.49</ele>
        <time>2020-01-11T14:43:37Z</time>
      </trkpt>
      <trkpt lat="48.68645" lon="1.96224">
        <ele>148.49</ele>
        <time>2020-01-11T14:43:42Z</time>
      </trkpt>
      <trkpt lat="48.68643" lon="1.9622">
        <ele>149.42</ele>
        <time>2020-01-11T14:43:47Z</time>
      </trkpt>
      <trkpt lat="48.68639" lon="1.96215">
        <ele>150.19</ele>
        <time>2020-01-11T14:43:52Z</time>
      </trkpt>
      <trkpt lat="48.68636" lon="1.96211">
        <ele>151.04</ele>
        <time>2020-01-11T14:43:57Z</time>
      </trkpt>
      <trkpt lat="48.68633" lon="1.9621">
        <ele>151.96</ele>
        <time>2020-01-11T14:44:02Z</time>
      </trkpt>
      <trkpt lat="48.6863" lon="1.96207">
        <ele>153.17</ele>
        <time>2020-01-11T14:44:07Z</time>
      </trkpt>
      <trkpt lat="48.68628" lon="1.96203">
        <ele>153.95</ele>
        <time>2020-01-11T14:44:12Z</time>
      </trkpt>
      <trkpt lat="48.68625" lon="1.962">
        <ele>154.78</ele>
        <time>2020-01-11T14:44:17Z</time>
      </trkpt>
      <trkpt lat="48.68623" lon="1.96197">
        <ele>155.85</ele>
        <time>2020-01-11T14:44:22Z</time>
      </trkpt>
      <trkpt lat="48.68621" lon="1.96193">
        <ele>156.7</ele>
        <time>2020-01-11T14:44:27Z</time>
      </trkpt>
      <trkpt lat="48.68621" lon="1.96187">
        <ele>157.9</ele>
        <time>2020-01-11T14:44:32Z</time>
      </trkpt>
      <trkpt lat="48.68623" lon="1.96179">
        <ele>159.04</ele>
        <time>2020-01-11T14:44:37Z</time>
      </trkpt>
      <trkpt lat="48.68626" lon="1.96175">
        <ele>160.2</ele>
        <time>2020-01-11T14:44:42Z</time>
      </trkpt>
      <trkpt lat="48.68627" lon="1.96172">
        <ele>161.34</ele>
        <time>2020-01-11T14:44:47Z</time>
      </trkpt>
      <trkpt lat="48.68629" lon="1.9617">
        <ele>162.53</ele>
        <time>2020-01-11T14:44:52Z</time>
      </trkpt>
      <trkpt lat="48.6863" lon="1.96168">
        <ele>163.88</ele>
        <time>2020-01-11T14:44:57Z</time>
      </trkpt>
      <trkpt lat="48.68633" lon="1.96164">
        <ele>164.49</ele>
        <time>2020-01-11T14:45:02Z</time>
      </trkpt>
      <trkpt lat="48.68635" lon="1.9616">
        <ele>165.07</ele>
        <time>2020-01-11T14:45:07Z</time>
      </trkpt>
      <trkpt lat="48.68636" lon="1.96156">
        <ele>165.49</ele>
        <time>2020-01-11T14:45:12Z</time>
      </trkpt>
      <trkpt lat="48.68636" lon="1.96153">
        <ele>165.61</ele>
        <time>2020-01-11T14:45:17Z</time>
      </trkpt>
      <trkpt lat="48.68634" lon="1.96152">
        <ele>165.69</ele>
        <time>2020-01-11T14:45:22Z</time>
      </trkpt>
      <trkpt lat="48.68633" lon="1.96152">
        <ele>165.75</ele>
        <time>2020-01-11T14:45:27Z</time>
      </trkpt>
      <trkpt lat="48.68631" lon="1.96151">
        <ele>165.74</ele>
        <time>2020-01-11T14:45:32Z</time>
      </trkpt>
      <trkpt lat="48.68631" lon="1.9615">
        <ele>165.67</ele>
        <time>2020-01-11T14:45:37Z</time>
      </trkpt>
      <trkpt lat="48.68631" lon="1.96148">
        <ele>165.67</ele>
        <time>2020-01-11T14:45:42Z</time>
      </trkpt>
      <trkpt lat="48.68631" lon="1.96147">
        <ele>165.66</ele>
        <time>2020-01-11T14:45:47Z</time>
      </trkpt>
      <trkpt lat="48.68629" lon="1.96146">
        <ele>165.7</ele>
        <time>2020-01-11T14:45:52Z</time>
      </trkpt>
      <trkpt lat="48.68628" lon="1.96145">
        <ele>165.8</ele>
        <time>2020-01-11T14:45:57Z</time>
      </trkpt>
      <trkpt lat="48.68628" lon="1.96145">
        <ele>165.89</ele>
        <time>2020-01-11T14:46:02Z</time>
      </trkpt>
      <trkpt lat="48.68628" lon="1.96146">
        <ele>165.86</ele>
        <time>2020-01-11T14:46:07Z</time>
      </trkpt>
      <trkpt lat="48.68627" lon="1.96148">
        <ele>165.75</ele>
        <time>2020-01-11T14:46:12Z</time>
      </trkpt>
      <trkpt lat="48.68626" lon="1.9615">
        <ele>165.61</ele>
        <time>2020-01-11T14:46:17Z</time>
      </trkpt>
      <trkpt lat="48.68627" lon="1.96152">
        <ele>165.6</ele>
        <time>2020-01-11T14:46:22Z</time>
      </trkpt>
      <trkpt lat="48.68627" lon="1.96153">
        <ele>165.67</ele>
        <time>2020-01-11T14:46:27Z</time>
      </trkpt>
      <trkpt lat="48.68627" lon="1.96153">
        <ele>165.74</ele>
        <time>2020-01-11T14:46:32Z</time>
      </trkpt>
      <trkpt lat="48.68627" lon="1.96152">
        <ele>165.8</ele>
        <time>2020-01-11T14:46:37Z</time>
      </trkpt>
      <trkpt lat="48.68628" lon="1.96152">
        <ele>165.76</ele>
        <time>2020-01-11T14:46:42Z</time>
      </trkpt>
      <trkpt lat="48.68629" lon="1.96152">
        <ele>165.78</ele>
        <time>2020-01-11T14:46:47Z</time>
      </trkpt>
      <trkpt lat="48.6863" lon="1.96154">
        <ele>165.84</ele>
        <time>2020-01-11T14:46:52Z</time>
      </trkpt>
      <trkpt lat="48.6863" lon="1.96156">
        <ele>165.88</ele>
        <time>2020-01-11T14:46:57Z</time>
      </trkpt>
      <trkpt lat="48.68631" lon="1.96155">
        <ele>165.93</ele>
        <time>2020-01-11T14:47:02Z</time>
      </trkpt>
      <trkpt lat="48.6863" lon="1.96154">
        <ele>165.92</ele>
        <time>2020-01-11T14:47:07Z</time>
      </trkpt>
      <trkpt lat="48.6863" lon="1.96154">
        <ele>165.87</ele>
        <time>2020-01-11T14:47:12Z</time>
      </trkpt>
      <trkpt lat="48.68631" lon="1.96155">
        <ele>165.86</ele>
        <time>2020-01-11T14:47:17Z</time>
      </trkpt>
      <trkpt lat="48.68632" lon="1.96155">
        <ele>165.81</ele>
        <time>2020-01-11T14:47:22Z</time>
      </trkpt>
      <trkpt lat="48.68633" lon="1.96154">
        <ele>165.52</ele>
        <time>2020-01-11T14:47:27Z</time>
      </trkpt>
      <trkpt lat="48.68633" lon="1.96153">
        <ele>165.41</ele>
        <time>2020-01-11T14:47:32Z</time>
      </trkpt>
      <trkpt lat="48.68633" lon="1.96153">
        <ele>165.43</ele>
        <time>2020-01-11T14:47:37Z</time>
      </trkpt>
      <trkpt lat="48.68634" lon="1.96154">
        <ele>165.52</ele>
        <time>2020-01-11T14:47:42Z</time>
      </trkpt>
      <trkpt lat="48.68633" lon="1.96154">
        <ele>165.58</ele>
        <time>2020-01-11T14:47:47Z</time>
      </trkpt>
      <trkpt lat="48.68633" lon="1.96153">
        <ele>165.58</ele>
        <time>2020-01-11T14:47:52Z</time>
      </trkpt>
      <trkpt lat="48.68632" lon="1.96152">
        <ele>165.61</ele>
        <time>2020-01-11T14:47:57Z</time>
      </trkpt>
      <trkpt lat="48.68632" lon="1.9615">
        <ele>165.61</ele>
        <time>2020-01-11T14:48:02Z</time>
      </trkpt>
      <trkpt lat="48.68633" lon="1.96149">
        <ele>165.61</ele>
        <time>2020-01-11T14:48:07Z</time>
      </trkpt>
      <trkpt lat="48.68633" lon="1.96148">
        <ele>165.55</ele>
        <time>2020-01-11T14:48:12Z</time>
      </trkpt>
      <trkpt lat="48.68635" lon="1.96145">
        <ele>165.61</ele>
        <time>2020-01-11T14:48:17Z</time>
      </trkpt>
      <trkpt lat="48.68637" lon="1.96138">
        <ele>165.66</ele>
        <time>2020-01-11T14:48:22Z</time>
      </trkpt>
      <trkpt lat="48.6864" lon="1.96133">
        <ele>165.88</ele>
        <time>2020-01-11T14:48:27Z</time>
      </trkpt>
      <trkpt lat="48.68642" lon="1.96126">
        <ele>166.1</ele>
        <time>2020-01-11T14:48:32Z</time>
      </trkpt>
      <trkpt lat="48.68645" lon="1.9612">
        <ele>166.54</ele>
        <time>2020-01-11T14:48:37Z</time>
      </trkpt>
      <trkpt lat="48.68647" lon="1.96113">
        <ele>166.89</ele>
        <time>2020-01-11T14:48:42Z</time>
      </trkpt>
      <trkpt lat="48.68649" lon="1.96106">
        <ele>167.41</ele>
        <time>2020-01-11T14:48:47Z</time>
      </trkpt>
      <trkpt lat="48.68652" lon="1.961">
        <ele>167.71</ele>
        <time>2020-01-11T14:48:52Z</time>
      </trkpt>
      <trkpt lat="48.68654" lon="1.96094">
        <ele>167.82</ele>
        <time>2020-01-11T14:48:57Z</time>
      </trkpt>
      <trkpt lat="48.68656" lon="1.96086">
        <ele>167.89</ele>
        <time>2020-01-11T14:49:02Z</time>
      </trkpt>
      <trkpt lat="48.68657" lon="1.96076">
        <ele>168.12</ele>
        <time>2020-01-11T14:49:07Z</time>
      </trkpt>
      <trkpt lat="48.68657" lon="1.96068">
        <ele>168.31</ele>
        <time>2020-01-11T14:49:12Z</time>
      </trkpt>
      <trkpt lat="48.68656" lon="1.9606">
        <ele>168.3</ele>
        <time>2020-01-11T14:49:17Z</time>
      </trkpt>
      <trkpt lat="48.68655" lon="1.96053">
        <ele>168.15</ele>
        <time>2020-01-11T14:49:22Z</time>
      </trkpt>
      <trkpt lat="48.68655" lon="1.96046">
        <ele>168.1</ele>
        <time>2020-01-11T14:49:27Z</time>
      </trkpt>
      <trkpt lat="48.68654" lon="1.9604">
        <ele>168.21</ele>
        <time>2020-01-11T14:49:32Z</time>
      </trkpt>
      <trkpt lat="48.68655" lon="1.96032">
        <ele>168.26</ele>
        <time>2020-01-11T14:49:37Z</time>
      </trkpt>
      <trkpt lat="48.68655" lon="1.96024">
        <ele>168.11</ele>
        <time>2020-01-11T14:49:42Z</time>
      </trkpt>
      <trkpt lat="48.68656" lon="1.96018">
        <ele>167.9</ele>
        <time>2020-01-11T14:49:47Z</time>
      </trkpt>
      <trkpt lat="48.6866" lon="1.96012">
        <ele>168.12</ele>
        <time>2020-01-11T14:49:52Z</time>
      </trkpt>
      <trkpt lat="48.68663" lon="1.96006">
        <ele>168.36</ele>
        <time>2020-01-11T14:49:57Z</time>
      </trkpt>
      <trkpt lat="48.68665" lon="1.95998">
        <ele>168.36</ele>
        <time>2020-01-11T14:50:02Z</time>
      </trkpt>
      <trkpt lat="48.68665" lon="1.95989">
        <ele>168.41</ele>
        <time>2020-01-11T14:50:07Z</time>
      </trkpt>
      <trkpt lat="48.68666" lon="1.95977">
        <ele>168.51</ele>
        <time>2020-01-11T14:50:12Z</time>
      </trkpt>
      <trkpt lat="48.68667" lon="1.95966">
        <ele>168.63</ele>
        <time>2020-01-11T14:50:17Z</time>
      </trkpt>
      <trkpt lat="48.68666" lon="1.95956">
        <ele>168.57</ele>
        <time>2020-01-11T14:50:22Z</time>
      </trkpt>
      <trkpt lat="48.68666" lon="1.95948">
        <ele>168.52</ele>
        <time>2020-01-11T14:50:27Z</time>
      </trkpt>
      <trkpt lat="48.68663" lon="1.9594">
        <ele>168.49</ele>
        <time>2020-01-11T14:50:32Z</time>
      </trkpt>
      <trkpt lat="48.68659" lon="1.95937">
        <ele>168.43</ele>
        <time>2020-01-11T14:50:37Z</time>
      </trkpt>
      <trkpt lat="48.68654" lon="1.95932">
        <ele>168.32</ele>
        <time>2020-01-11T14:50:42Z</time>
      </trkpt>
      <trkpt lat="48.68649" lon="1.95926">
        <ele>168.19</ele>
        <time>2020-01-11T14:50:47Z</time>
      </trkpt>
      <trkpt lat="48.68644" lon="1.95925">
        <ele>168.08</ele>
        <time>2020-01-11T14:50:52Z</time>
      </trkpt>
      <trkpt lat="48.6864" lon="1.95922">
        <ele>167.96</ele>
        <time>2020-01-11T14:50:57Z</time>
      </trkpt>
      <trkpt lat="48.68634" lon="1.9592">
        <ele>167.67</ele>
        <time>2020-01-11T14:51:02Z</time>
      </trkpt>
      <trkpt lat="48.6863" lon="1.95915">
        <ele>167.3</ele>
        <time>2020-01-11T14:51:07Z</time>
      </trkpt>
      <trkpt lat="48.68626" lon="1.95911">
        <ele>166.85</ele>
        <time>2020-01-11T14:51:12Z</time>
      </trkpt>
      <trkpt lat="48.68621" lon="1.95909">
        <ele>166.49</ele>
        <time>2020-01-11T14:51:17Z</time>
      </trkpt>
      <trkpt lat="48.68615" lon="1.95909">
        <ele>166.17</ele>
        <time>2020-01-11T14:51:22Z</time>
      </trkpt>
      <trkpt lat="48.68609" lon="1.95909">
        <ele>165.7</ele>
        <time>2020-01-11T14:51:27Z</time>
      </trkpt>
      <trkpt lat="48.68601" lon="1.95911">
        <ele>165.04</ele>
        <time>2020-01-11T14:51:32Z</time>
      </trkpt>
      <trkpt lat="48.68596" lon="1.95911">
        <ele>164.37</ele>
        <time>2020-01-11T14:51:37Z</time>
      </trkpt>
      <trkpt lat="48.68591" lon="1.95907">
        <ele>164</ele>
        <time>2020-01-11T14:51:42Z</time>
      </trkpt>
      <trkpt lat="48.68585" lon="1.95904">
        <ele>163.61</ele>
        <time>2020-01-11T14:51:47Z</time>
      </trkpt>
      <trkpt lat="48.68579" lon="1.95901">
        <ele>163.21</ele>
        <time>2020-01-11T14:51:52Z</time>
      </trkpt>
      <trkpt lat="48.68575" lon="1.959">
        <ele>162.74</ele>
        <time>2020-01-11T14:51:57Z</time>
      </trkpt>
      <trkpt lat="48.6857" lon="1.95899">
        <ele>162.31</ele>
        <time>2020-01-11T14:52:02Z</time>
      </trkpt>
      <trkpt lat="48.68566" lon="1.95901">
        <ele>161.63</ele>
        <time>2020-01-11T14:52:07Z</time>
      </trkpt>
      <trkpt lat="48.68562" lon="1.95907">
        <ele>161.1</ele>
        <time>2020-01-11T14:52:12Z</time>
      </trkpt>
      <trkpt lat="48.68561" lon="1.95914">
        <ele>160.81</ele>
        <time>2020-01-11T14:52:17Z</time>
      </trkpt>
      <trkpt lat="48.6856" lon="1.95922">
        <ele>160.51</ele>
        <time>2020-01-11T14:52:22Z</time>
      </trkpt>
      <trkpt lat="48.68556" lon="1.9593">
        <ele>160.25</ele>
        <time>2020-01-11T14:52:27Z</time>
      </trkpt>
      <trkpt lat="48.68552" lon="1.95938">
        <ele>160.01</ele>
        <time>2020-01-11T14:52:32Z</time>
      </trkpt>
      <trkpt lat="48.68549" lon="1.95944">
        <ele>159.62</ele>
        <time>2020-01-11T14:52:37Z</time>
      </trkpt>
      <trkpt lat="48.68546" lon="1.9595">
        <ele>159.13</ele>
        <time>2020-01-11T14:52:42Z</time>
      </trkpt>
      <trkpt lat="48.68543" lon="1.95958">
        <ele>158.57</ele>
        <time>2020-01-11T14:52:47Z</time>
      </trkpt>
      <trkpt lat="48.68541" lon="1.95969">
        <ele>157.97</ele>
        <time>2020-01-11T14:52:52Z</time>
      </trkpt>
      <trkpt lat="48.68539" lon="1.95979">
        <ele>157.49</ele>
        <time>2020-01-11T14:52:57Z</time>
      </trkpt>
      <trkpt lat="48.68538" lon="1.95988">
        <ele>157.22</ele>
        <time>2020-01-11T14:53:02Z</time>
      </trkpt>
      <trkpt lat="48.68537" lon="1.95995">
        <ele>157.08</ele>
        <time>2020-01-11T14:53:07Z</time>
      </trkpt>
      <trkpt lat="48.68532" lon="1.96004">
        <ele>156.99</ele>
        <time>2020-01-11T14:53:12Z</time>
      </trkpt>
      <trkpt lat="48.68529" lon="1.96015">
        <ele>156.86</ele>
        <time>2020-01-11T14:53:17Z</time>
      </trkpt>
      <trkpt lat="48.68527" lon="1.96024">
        <ele>156.77</ele>
        <time>2020-01-11T14:53:22Z</time>
      </trkpt>
      <trkpt lat="48.68528" lon="1.96033">
        <ele>156.26</ele>
        <time>2020-01-11T14:53:27Z</time>
      </trkpt>
      <trkpt lat="48.68526" lon="1.9604">
        <ele>155.59</ele>
        <time>2020-01-11T14:53:32Z</time>
      </trkpt>
      <trkpt lat="48.68523" lon="1.96046">
        <ele>154.73</ele>
        <time>2020-01-11T14:53:37Z</time>
      </trkpt>
      <trkpt lat="48.68519" lon="1.96053">
        <ele>153.46</ele>
        <time>2020-01-11T14:53:42Z</time>
      </trkpt>
      <trkpt lat="48.68514" lon="1.96059">
        <ele>152.49</ele>
        <time>2020-01-11T14:53:47Z</time>
      </trkpt>
      <trkpt lat="48.6851" lon="1.96066">
        <ele>151.2</ele>
        <time>2020-01-11T14:53:52Z</time>
      </trkpt>
      <trkpt lat="48.68505" lon="1.96072">
        <ele>150.07</ele>
        <time>2020-01-11T14:53:57Z</time>
      </trkpt>
      <trkpt lat="48.68501" lon="1.96079">
        <ele>149.06</ele>
        <time>2020-01-11T14:54:02Z</time>
      </trkpt>
      <trkpt lat="48.68497" lon="1.96084">
        <ele>147.74</ele>
        <time>2020-01-11T14:54:07Z</time>
      </trkpt>
      <trkpt lat="48.68492" lon="1.96091">
        <ele>146.77</ele>
        <time>2020-01-11T14:54:12Z</time>
      </trkpt>
      <trkpt lat="48.68487" lon="1.96097">
        <ele>145.84</ele>
        <time>2020-01-11T14:54:17Z</time>
      </trkpt>
      <trkpt lat="48.68484" lon="1.96102">
        <ele>145.27</ele>
        <time>2020-01-11T14:54:22Z</time>
      </trkpt>
      <trkpt lat="48.68479" lon="1.96106">
        <ele>144.7</ele>
        <time>2020-01-11T14:54:27Z</time>
      </trkpt>
      <trkpt lat="48.68475" lon="1.96108">
        <ele>144.12</ele>
        <time>2020-01-11T14:54:32Z</time>
      </trkpt>
      <trkpt lat="48.68468" lon="1.96109">
        <ele>143.84</ele>
        <time>2020-01-11T14:54:37Z</time>
      </trkpt>
      <trkpt lat="48.68462" lon="1.96111">
        <ele>143.97</ele>
        <time>2020-01-11T14:54:42Z</time>
      </trkpt>
      <trkpt lat="48.68457" lon="1.96113">
        <ele>144.21</ele>
        <time>2020-01-11T14:54:47Z</time>
      </trkpt>
      <trkpt lat="48.68452" lon="1.96116">
        <ele>144.75</ele>
        <time>2020-01-11T14:54:52Z</time>
      </trkpt>
      <trkpt lat="48.68447" lon="1.96118">
        <ele>145.38</ele>
        <time>2020-01-11T14:54:57Z</time>
      </trkpt>
      <trkpt lat="48.68439" lon="1.96121">
        <ele>146.5</ele>
        <time>2020-01-11T14:55:02Z</time>
      </trkpt>
      <trkpt lat="48.68432" lon="1.96123">
        <ele>148.24</ele>
        <time>2020-01-11T14:55:07Z</time>
      </trkpt>
      <trkpt lat="48.68424" lon="1.96126">
        <ele>150.01</ele>
        <time>2020-01-11T14:55:12Z</time>
      </trkpt>
      <trkpt lat="48.68416" lon="1.96127">
        <ele>151.75</ele>
        <time>2020-01-11T14:55:17Z</time>
      </trkpt>
      <trkpt lat="48.68409" lon="1.96126">
        <ele>153.39</ele>
        <time>2020-01-11T14:55:22Z</time>
      </trkpt>
      <trkpt lat="48.68402" lon="1.96128">
        <ele>154.37</ele>
        <time>2020-01-11T14:55:27Z</time>
      </trkpt>
      <trkpt lat="48.68396" lon="1.9613">
        <ele>155.02</ele>
        <time>2020-01-11T14:55:32Z</time>
      </trkpt>
      <trkpt lat="48.6839" lon="1.96128">
        <ele>155.45</ele>
        <time>2020-01-11T14:55:37Z</time>
      </trkpt>
      <trkpt lat="48.68386" lon="1.96128">
        <ele>155.74</ele>
        <time>2020-01-11T14:55:42Z</time>
      </trkpt>
      <trkpt lat="48.6838" lon="1.96128">
        <ele>156.18</ele>
        <time>2020-01-11T14:55:47Z</time>
      </trkpt>
      <trkpt lat="48.68375" lon="1.96131">
        <ele>156.46</ele>
        <time>2020-01-11T14:55:52Z</time>
      </trkpt>
      <trkpt lat="48.6837" lon="1.96131">
        <ele>156.7</ele>
        <time>2020-01-11T14:55:57Z</time>
      </trkpt>
      <trkpt lat="48.68365" lon="1.96132">
        <ele>157.07</ele>
        <time>2020-01-11T14:56:02Z</time>
      </trkpt>
      <trkpt lat="48.68361" lon="1.96132">
        <ele>157.54</ele>
        <time>2020-01-11T14:56:07Z</time>
      </trkpt>
      <trkpt lat="48.68355" lon="1.96134">
        <ele>157.96</ele>
        <time>2020-01-11T14:56:12Z</time>
      </trkpt>
      <trkpt lat="48.68349" lon="1.96137">
        <ele>158.37</ele>
        <time>2020-01-11T14:56:17Z</time>
      </trkpt>
      <trkpt lat="48.68342" lon="1.96139">
        <ele>158.63</ele>
        <time>2020-01-11T14:56:22Z</time>
      </trkpt>
      <trkpt lat="48.68336" lon="1.96142">
        <ele>158.87</ele>
        <time>2020-01-11T14:56:27Z</time>
      </trkpt>
      <trkpt lat="48.68331" lon="1.96146">
        <ele>159.18</ele>
        <time>2020-01-11T14:56:32Z</time>
      </trkpt>
      <trkpt lat="48.68327" lon="1.96148">
        <ele>159.36</ele>
        <time>2020-01-11T14:56:37Z</time>
      </trkpt>
      <trkpt lat="48.68321" lon="1.9615">
        <ele>159.21</ele>
        <time>2020-01-11T14:56:42Z</time>
      </trkpt>
      <trkpt lat="48.68315" lon="1.96153">
        <ele>159.01</ele>
        <time>2020-01-11T14:56:47Z</time>
      </trkpt>
      <trkpt lat="48.68311" lon="1.96156">
        <ele>158.83</ele>
        <time>2020-01-11T14:56:52Z</time>
      </trkpt>
      <trkpt lat="48.68306" lon="1.96159">
        <ele>158.7</ele>
        <time>2020-01-11T14:56:57Z</time>
      </trkpt>
      <trkpt lat="48.683" lon="1.96162">
        <ele>158.74</ele>
        <time>2020-01-11T14:57:02Z</time>
      </trkpt>
      <trkpt lat="48.68295" lon="1.96165">
        <ele>158.86</ele>
        <time>2020-01-11T14:57:07Z</time>
      </trkpt>
      <trkpt lat="48.6829" lon="1.96169">
        <ele>159.12</ele>
        <time>2020-01-11T14:57:12Z</time>
      </trkpt>
      <trkpt lat="48.68285" lon="1.96171">
        <ele>159.42</ele>
        <time>2020-01-11T14:57:17Z</time>
      </trkpt>
      <trkpt lat="48.68278" lon="1.96176">
        <ele>159.57</ele>
        <time>2020-01-11T14:57:22Z</time>
      </trkpt>
      <trkpt lat="48.68272" lon="1.96182">
        <ele>159.65</ele>
        <time>2020-01-11T14:57:27Z</time>
      </trkpt>
      <trkpt lat="48.68266" lon="1.96184">
        <ele>159.7</ele>
        <time>2020-01-11T14:57:32Z</time>
      </trkpt>
      <trkpt lat="48.68262" lon="1.96186">
        <ele>159.66</ele>
        <time>2020-01-11T14:57:37Z</time>
      </trkpt>
      <trkpt lat="48.68257" lon="1.96188">
        <ele>159.61</ele>
        <time>2020-01-11T14:57:42Z</time>
      </trkpt>
      <trkpt lat="48.68251" lon="1.96191">
        <ele>159.8</ele>
        <time>2020-01-11T14:57:47Z</time>
      </trkpt>
      <trkpt lat="48.68245" lon="1.96194">
        <ele>159.86</ele>
        <time>2020-01-11T14:57:52Z</time>
      </trkpt>
      <trkpt lat="48.6824" lon="1.96198">
        <ele>159.76</ele>
        <time>2020-01-11T14:57:57Z</time>
      </trkpt>
      <trkpt lat="48.68234" lon="1.96204">
        <ele>159.67</ele>
        <time>2020-01-11T14:58:02Z</time>
      </trkpt>
      <trkpt lat="48.68229" lon="1.96206">
        <ele>159.7</ele>
        <time>2020-01-11T14:58:07Z</time>
      </trkpt>
      <trkpt lat="48.68222" lon="1.96209">
        <ele>159.47</ele>
        <time>2020-01-11T14:58:12Z</time>
      </trkpt>
      <trkpt lat="48.68217" lon="1.96211">
        <ele>159.25</ele>
        <time>2020-01-11T14:58:17Z</time>
      </trkpt>
      <trkpt lat="48.6821" lon="1.96217">
        <ele>159.08</ele>
        <time>2020-01-11T14:58:22Z</time>
      </trkpt>
      <trkpt lat="48.68203" lon="1.96223">
        <ele>158.65</ele>
        <time>2020-01-11T14:58:27Z</time>
      </trkpt>
      <trkpt lat="48.68198" lon="1.96226">
        <ele>158.3</ele>
        <time>2020-01-11T14:58:32Z</time>
      </trkpt>
      <trkpt lat="48.68192" lon="1.96231">
        <ele>157.97</ele>
        <time>2020-01-11T14:58:37Z</time>
      </trkpt>
      <trkpt lat="48.68188" lon="1.96232">
        <ele>157.2</ele>
        <time>2020-01-11T14:58:42Z</time>
      </trkpt>
      <trkpt lat="48.68183" lon="1.96234">
        <ele>156.76</ele>
        <time>2020-01-11T14:58:47Z</time>
      </trkpt>
      <trkpt lat="48.68179" lon="1.96238">
        <ele>156.61</ele>
        <time>2020-01-11T14:58:52Z</time>
      </trkpt>
      <trkpt lat="48.68174" lon="1.96242">
        <ele>156.57</ele>
        <time>2020-01-11T14:58:57Z</time>
      </trkpt>
      <trkpt lat="48.6817" lon="1.96246">
        <ele>156.84</ele>
        <time>2020-01-11T14:59:02Z</time>
      </trkpt>
      <trkpt lat="48.68166" lon="1.96253">
        <ele>156.77</ele>
        <time>2020-01-11T14:59:07Z</time>
      </trkpt>
      <trkpt lat="48.68163" lon="1.96259">
        <ele>156.23</ele>
        <time>2020-01-11T14:59:12Z</time>
      </trkpt>
      <trkpt lat="48.68162" lon="1.96266">
        <ele>155.36</ele>
        <time>2020-01-11T14:59:17Z</time>
      </trkpt>
      <trkpt lat="48.68158" lon="1.96271">
        <ele>154.01</ele>
        <time>2020-01-11T14:59:22Z</time>
      </trkpt>
      <trkpt lat="48.68153" lon="1.96274">
        <ele>153.4</ele>
        <time>2020-01-11T14:59:27Z</time>
      </trkpt>
      <trkpt lat="48.68146" lon="1.96275">
        <ele>153.26</ele>
        <time>2020-01-11T14:59:32Z</time>
      </trkpt>
      <trkpt lat="48.68141" lon="1.96274">
        <ele>153.39</ele>
        <time>2020-01-11T14:59:37Z</time>
      </trkpt>
      <trkpt lat="48.68137" lon="1.96272">
        <ele>153.73</ele>
        <time>2020-01-11T14:59:42Z</time>
      </trkpt>
      <trkpt lat="48.68133" lon="1.96272">
        <ele>154.08</ele>
        <time>2020-01-11T14:59:47Z</time>
      </trkpt>
      <trkpt lat="48.6813" lon="1.96271">
        <ele>154.36</ele>
        <time>2020-01-11T14:59:52Z</time>
      </trkpt>
      <trkpt lat="48.68123" lon="1.96272">
        <ele>154.53</ele>
        <time>2020-01-11T14:59:57Z</time>
      </trkpt>
      <trkpt lat="48.68117" lon="1.96273">
        <ele>154.99</ele>
        <time>2020-01-11T15:00:02Z</time>
      </trkpt>
      <trkpt lat="48.68112" lon="1.96274">
        <ele>155.42</ele>
        <time>2020-01-11T15:00:07Z</time>
      </trkpt>
      <trkpt lat="48.68105" lon="1.96273">
        <ele>155.93</ele>
        <time>2020-01-11T15:00:12Z</time>
      </trkpt>
      <trkpt lat="48.68101" lon="1.96272">
        <ele>156.64</ele>
        <time>2020-01-11T15:00:17Z</time>
      </trkpt>
      <trkpt lat="48.68096" lon="1.96274">
        <ele>157.26</ele>
        <time>2020-01-11T15:00:22Z</time>
      </trkpt>
      <trkpt lat="48.68091" lon="1.96276">
        <ele>157.72</ele>
        <time>2020-01-11T15:00:27Z</time>
      </trkpt>
      <trkpt lat="48.68085" lon="1.96277">
        <ele>158.09</ele>
        <time>2020-01-11T15:00:32Z</time>
      </trkpt>
      <trkpt lat="48.6808" lon="1.96277">
        <ele>158.23</ele>
        <time>2020-01-11T15:00:37Z</time>
      </trkpt>
      <trkpt lat="48.68075" lon="1.96278">
        <ele>158.23</ele>
        <time>2020-01-11T15:00:42Z</time>
      </trkpt>
      <trkpt lat="48.6807" lon="1.96278">
        <ele>158.11</ele>
        <time>2020-01-11T15:00:47Z</time>
      </trkpt>
      <trkpt lat="48.68064" lon="1.96281">
        <ele>157.9</ele>
        <time>2020-01-11T15:00:52Z</time>
      </trkpt>
      <trkpt lat="48.68059" lon="1.96281">
        <ele>157.54</ele>
        <time>2020-01-11T15:00:57Z</time>
      </trkpt>
      <trkpt lat="48.68055" lon="1.96281">
        <ele>157.38</ele>
        <time>2020-01-11T15:01:02Z</time>
      </trkpt>
      <trkpt lat="48.68049" lon="1.96282">
        <ele>157.23</ele>
        <time>2020-01-11T15:01:07Z</time>
      </trkpt>
      <trkpt lat="48.68044" lon="1.96285">
        <ele>156.92</ele>
        <time>2020-01-11T15:01:12Z</time>
      </trkpt>
      <trkpt lat="48.68038" lon="1.96288">
        <ele>156.49</ele>
        <time>2020-01-11T15:01:17Z</time>
      </trkpt>
      <trkpt lat="48.68033" lon="1.96287">
        <ele>156.2</ele>
        <time>2020-01-11T15:01:22Z</time>
      </trkpt>
      <trkpt lat="48.68028" lon="1.96288">
        <ele>156.08</ele>
        <time>2020-01-11T15:01:27Z</time>
      </trkpt>
      <trkpt lat="48.68023" lon="1.9629">
        <ele>156.02</ele>
        <time>2020-01-11T15:01:32Z</time>
      </trkpt>
      <trkpt lat="48.68016" lon="1.96291">
        <ele>156.12</ele>
        <time>2020-01-11T15:01:37Z</time>
      </trkpt>
      <trkpt lat="48.68012" lon="1.96293">
        <ele>156.35</ele>
        <time>2020-01-11T15:01:42Z</time>
      </trkpt>
      <trkpt lat="48.68006" lon="1.96297">
        <ele>156.42</ele>
        <time>2020-01-11T15:01:47Z</time>
      </trkpt>
      <trkpt lat="48.68001" lon="1.963">
        <ele>156.38</ele>
        <time>2020-01-11T15:01:52Z</time>
      </trkpt>
      <trkpt lat="48.67996" lon="1.96301">
        <ele>155.99</ele>
        <time>2020-01-11T15:01:57Z</time>
      </trkpt>
      <trkpt lat="48.6799" lon="1.96301">
        <ele>156.05</ele>
        <time>2020-01-11T15:02:02Z</time>
      </trkpt>
      <trkpt lat="48.67983" lon="1.96303">
        <ele>156.23</ele>
        <time>2020-01-11T15:02:07Z</time>
      </trkpt>
      <trkpt lat="48.67977" lon="1.96304">
        <ele>156.17</ele>
        <time>2020-01-11T15:02:12Z</time>
      </trkpt>
      <trkpt lat="48.67972" lon="1.96304">
        <ele>156.13</ele>
        <time>2020-01-11T15:02:17Z</time>
      </trkpt>
      <trkpt lat="48.67965" lon="1.96305">
        <ele>156.1</ele>
        <time>2020-01-11T15:02:22Z</time>
      </trkpt>
      <trkpt lat="48.67959" lon="1.96303">
        <ele>155.85</ele>
        <time>2020-01-11T15:02:27Z</time>
      </trkpt>
      <trkpt lat="48.67954" lon="1.96306">
        <ele>155.63</ele>
        <time>2020-01-11T15:02:32Z</time>
      </trkpt>
      <trkpt lat="48.67949" lon="1.96307">
        <ele>155.48</ele>
        <time>2020-01-11T15:02:37Z</time>
      </trkpt>
      <trkpt lat="48.67942" lon="1.96309">
        <ele>155.41</ele>
        <time>2020-01-11T15:02:42Z</time>
      </trkpt>
      <trkpt lat="48.67936" lon="1.96311">
        <ele>155.5</ele>
        <time>2020-01-11T15:02:47Z</time>
      </trkpt>
      <trkpt lat="48.6793" lon="1.96312">
        <ele>155.49</ele>
        <time>2020-01-11T15:02:52Z</time>
      </trkpt>
      <trkpt lat="48.67925" lon="1.96312">
        <ele>155.58</ele>
        <time>2020-01-11T15:02:57Z</time>
      </trkpt>
      <trkpt lat="48.67918" lon="1.96313">
        <ele>155.56</ele>
        <time>2020-01-11T15:03:02Z</time>
      </trkpt>
      <trkpt lat="48.67912" lon="1.96314">
        <ele>155.4</ele>
        <time>2020-01-11T15:03:07Z</time>
      </trkpt>
      <trkpt lat="48.67906" lon="1.96313">
        <ele>155.21</ele>
        <time>2020-01-11T15:03:12Z</time>
      </trkpt>
      <trkpt lat="48.67901" lon="1.96312">
        <ele>155</ele>
        <time>2020-01-11T15:03:17Z</time>
      </trkpt>
      <trkpt lat="48.67896" lon="1.96308">
        <ele>154.76</ele>
        <time>2020-01-11T15:03:22Z</time>
      </trkpt>
      <trkpt lat="48.6789" lon="1.96305">
        <ele>154.87</ele>
        <time>2020-01-11T15:03:27Z</time>
      </trkpt>
      <trkpt lat="48.67884" lon="1.96301">
        <ele>155.09</ele>
        <time>2020-01-11T15:03:32Z</time>
      </trkpt>
      <trkpt lat="48.6788" lon="1.96296">
        <ele>155.48</ele>
        <time>2020-01-11T15:03:37Z</time>
      </trkpt>
      <trkpt lat="48.67875" lon="1.96294">
        <ele>155.83</ele>
        <time>2020-01-11T15:03:42Z</time>
      </trkpt>
      <trkpt lat="48.6787" lon="1.96295">
        <ele>156.03</ele>
        <time>2020-01-11T15:03:47Z</time>
      </trkpt>
      <trkpt lat="48.67864" lon="1.96295">
        <ele>156.1</ele>
        <time>2020-01-11T15:03:52Z</time>
      </trkpt>
      <trkpt lat="48.67859" lon="1.96293">
        <ele>156.32</ele>
        <time>2020-01-11T15:03:57Z</time>
      </trkpt>
      <trkpt lat="48.67854" lon="1.9629">
        <ele>156.42</ele>
        <time>2020-01-11T15:04:02Z</time>
      </trkpt>
      <trkpt lat="48.67849" lon="1.96289">
        <ele>156.48</ele>
        <time>2020-01-11T15:04:07Z</time>
      </trkpt>
      <trkpt lat="48.67844" lon="1.96286">
        <ele>156.25</ele>
        <time>2020-01-11T15:04:12Z</time>
      </trkpt>
      <trkpt lat="48.67839" lon="1.96281">
        <ele>155.94</ele>
        <time>2020-01-11T15:04:17Z</time>
      </trkpt>
      <trkpt lat="48.67835" lon="1.96279">
        <ele>155.77</ele>
        <time>2020-01-11T15:04:22Z</time>
      </trkpt>
      <trkpt lat="48.67833" lon="1.96278">
        <ele>155.92</ele>
        <time>2020-01-11T15:04:27Z</time>
      </trkpt>
      <trkpt lat="48.67832" lon="1.96278">
        <ele>155.9</ele>
        <time>2020-01-11T15:04:32Z</time>
      </trkpt>
      <trkpt lat="48.67832" lon="1.96276">
        <ele>155.78</ele>
        <time>2020-01-11T15:04:37Z</time>
      </trkpt>
      <trkpt lat="48.67832" lon="1.96274">
        <ele>155.69</ele>
        <time>2020-01-11T15:04:42Z</time>
      </trkpt>
      <trkpt lat="48.67833" lon="1.96274">
        <ele>155.76</ele>
        <time>2020-01-11T15:04:47Z</time>
      </trkpt>
      <trkpt lat="48.67834" lon="1.96275">
        <ele>155.82</ele>
        <time>2020-01-11T15:04:52Z</time>
      </trkpt>
      <trkpt lat="48.67835" lon="1.96275">
        <ele>155.86</ele>
        <time>2020-01-11T15:04:57Z</time>
      </trkpt>
      <trkpt lat="48.67835" lon="1.96275">
        <ele>155.82</ele>
        <time>2020-01-11T15:05:02Z</time>
      </trkpt>
      <trkpt lat="48.67835" lon="1.96274">
        <ele>155.7</ele>
        <time>2020-01-11T15:05:07Z</time>
      </trkpt>
      <trkpt lat="48.67835" lon="1.96274">
        <ele>155.72</ele>
        <time>2020-01-11T15:05:12Z</time>
      </trkpt>
      <trkpt lat="48.67835" lon="1.96274">
        <ele>155.75</ele>
        <time>2020-01-11T15:05:17Z</time>
      </trkpt>
      <trkpt lat="48.67835" lon="1.96275">
        <ele>155.84</ele>
        <time>2020-01-11T15:05:22Z</time>
      </trkpt>
      <trkpt lat="48.67835" lon="1.96275">
        <ele>155.82</ele>
        <time>2020-01-11T15:05:27Z</time>
      </trkpt>
      <trkpt lat="48.67833" lon="1.96275">
        <ele>155.85</ele>
        <time>2020-01-11T15:05:32Z</time>
      </trkpt>
      <trkpt lat="48.67833" lon="1.96275">
        <ele>155.69</ele>
        <time>2020-01-11T15:05:37Z</time>
      </trkpt>
      <trkpt lat="48.67833" lon="1.96275">
        <ele>155.67</ele>
        <time>2020-01-11T15:05:42Z</time>
      </trkpt>
      <trkpt lat="48.67833" lon="1.96276">
        <ele>155.79</ele>
        <time>2020-01-11T15:05:47Z</time>
      </trkpt>
      <trkpt lat="48.67832" lon="1.96277">
        <ele>155.98</ele>
        <time>2020-01-11T15:05:52Z</time>
      </trkpt>
      <trkpt lat="48.67832" lon="1.96278">
        <ele>155.84</ele>
        <time>2020-01-11T15:05:57Z</time>
      </trkpt>
      <trkpt lat="48.67831" lon="1.96279">
        <ele>155.71</ele>
        <time>2020-01-11T15:06:02Z</time>
      </trkpt>
      <trkpt lat="48.67831" lon="1.9628">
        <ele>155.64</ele>
        <time>2020-01-11T15:06:07Z</time>
      </trkpt>
      <trkpt lat="48.67831" lon="1.96281">
        <ele>155.66</ele>
        <time>2020-01-11T15:06:12Z</time>
      </trkpt>
      <trkpt lat="48.67831" lon="1.96282">
        <ele>155.75</ele>
        <time>2020-01-11T15:06:17Z</time>
      </trkpt>
      <trkpt lat="48.6783" lon="1.96282">
        <ele>155.84</ele>
        <time>2020-01-11T15:06:22Z</time>
      </trkpt>
      <trkpt lat="48.6783" lon="1.96283">
        <ele>155.88</ele>
        <time>2020-01-11T15:06:27Z</time>
      </trkpt>
      <trkpt lat="48.67829" lon="1.96285">
        <ele>155.73</ele>
        <time>2020-01-11T15:06:32Z</time>
      </trkpt>
      <trkpt lat="48.67829" lon="1.96285">
        <ele>155.59</ele>
        <time>2020-01-11T15:06:37Z</time>
      </trkpt>
      <trkpt lat="48.67829" lon="1.96285">
        <ele>155.67</ele>
        <time>2020-01-11T15:06:42Z</time>
      </trkpt>
      <trkpt lat="48.67829" lon="1.96285">
        <ele>155.91</ele>
        <time>2020-01-11T15:06:47Z</time>
      </trkpt>
      <trkpt lat="48.67829" lon="1.96284">
        <ele>156.02</ele>
        <time>2020-01-11T15:06:52Z</time>
      </trkpt>
      <trkpt lat="48.67829" lon="1.96284">
        <ele>155.92</ele>
        <time>2020-01-11T15:06:57Z</time>
      </trkpt>
      <trkpt lat="48.67828" lon="1.96284">
        <ele>155.67</ele>
        <time>2020-01-11T15:07:02Z</time>
      </trkpt>
      <trkpt lat="48.67828" lon="1.96284">
        <ele>155.57</ele>
        <time>2020-01-11T15:07:07Z</time>
      </trkpt>
      <trkpt lat="48.67829" lon="1.96284">
        <ele>155.62</ele>
        <time>2020-01-11T15:07:12Z</time>
      </trkpt>
      <trkpt lat="48.67829" lon="1.96283">
        <ele>155.67</ele>
        <time>2020-01-11T15:07:17Z</time>
      </trkpt>
      <trkpt lat="48.6783" lon="1.96283">
        <ele>155.71</ele>
        <time>2020-01-11T15:07:22Z</time>
      </trkpt>
      <trkpt lat="48.6783" lon="1.96283">
        <ele>155.71</ele>
        <time>2020-01-11T15:07:27Z</time>
      </trkpt>
      <trkpt lat="48.67829" lon="1.96283">
        <ele>155.6</ele>
        <time>2020-01-11T15:07:32Z</time>
      </trkpt>
      <trkpt lat="48.67828" lon="1.96283">
        <ele>155.64</ele>
        <time>2020-01-11T15:07:37Z</time>
      </trkpt>
      <trkpt lat="48.67828" lon="1.96284">
        <ele>155.77</ele>
        <time>2020-01-11T15:07:42Z</time>
      </trkpt>
      <trkpt lat="48.67828" lon="1.96285">
        <ele>155.72</ele>
        <time>2020-01-11T15:07:47Z</time>
      </trkpt>
      <trkpt lat="48.67828" lon="1.96283">
        <ele>155.47</ele>
        <time>2020-01-11T15:07:52Z</time>
      </trkpt>
      <trkpt lat="48.67827" lon="1.96283">
        <ele>155.55</ele>
        <time>2020-01-11T15:07:57Z</time>
      </trkpt>
      <trkpt lat="48.67828" lon="1.96284">
        <ele>155.56</ele>
        <time>2020-01-11T15:08:02Z</time>
      </trkpt>
      <trkpt lat="48.67829" lon="1.96284">
        <ele>155.71</ele>
        <time>2020-01-11T15:08:07Z</time>
      </trkpt>
      <trkpt lat="48.6783" lon="1.96284">
        <ele>155.78</ele>
        <time>2020-01-11T15:08:12Z</time>
      </trkpt>
      <trkpt lat="48.6783" lon="1.96284">
        <ele>155.79</ele>
        <time>2020-01-11T15:08:17Z</time>
      </trkpt>
      <trkpt lat="48.67831" lon="1.96284">
        <ele>155.79</ele>
        <time>2020-01-11T15:08:22Z</time>
      </trkpt>
      <trkpt lat="48.67832" lon="1.96283">
        <ele>155.85</ele>
        <time>2020-01-11T15:08:27Z</time>
      </trkpt>
      <trkpt lat="48.67831" lon="1.96284">
        <ele>155.81</ele>
        <time>2020-01-11T15:08:32Z</time>
      </trkpt>
      <trkpt lat="48.6783" lon="1.96284">
        <ele>155.8</ele>
        <time>2020-01-11T15:08:37Z</time>
      </trkpt>
      <trkpt lat="48.67831" lon="1.96285">
        <ele>155.91</ele>
        <time>2020-01-11T15:08:42Z</time>
      </trkpt>
      <trkpt lat="48.67831" lon="1.96284">
        <ele>155.93</ele>
        <time>2020-01-11T15:08:47Z</time>
      </trkpt>
      <trkpt lat="48.67832" lon="1.96284">
        <ele>155.96</ele>
        <time>2020-01-11T15:08:52Z</time>
      </trkpt>
      <trkpt lat="48.67831" lon="1.96284">
        <ele>156.14</ele>
        <time>2020-01-11T15:08:57Z</time>
      </trkpt>
      <trkpt lat="48.6783" lon="1.96284">
        <ele>156.2</ele>
        <time>2020-01-11T15:09:02Z</time>
      </trkpt>
      <trkpt lat="48.6783" lon="1.96287">
        <ele>156.27</ele>
        <time>2020-01-11T15:09:07Z</time>
      </trkpt>
      <trkpt lat="48.6783" lon="1.96287">
        <ele>156.28</ele>
        <time>2020-01-11T15:09:12Z</time>
      </trkpt>
      <trkpt lat="48.6783" lon="1.96287">
        <ele>156.17</ele>
        <time>2020-01-11T15:09:17Z</time>
      </trkpt>
      <trkpt lat="48.67831" lon="1.96285">
        <ele>156.3</ele>
        <time>2020-01-11T15:09:22Z</time>
      </trkpt>
      <trkpt lat="48.67832" lon="1.96283">
        <ele>156.26</ele>
        <time>2020-01-11T15:09:27Z</time>
      </trkpt>
      <trkpt lat="48.6783" lon="1.96281">
        <ele>155.99</ele>
        <time>2020-01-11T15:09:32Z</time>
      </trkpt>
      <trkpt lat="48.6783" lon="1.96281">
        <ele>155.87</ele>
        <time>2020-01-11T15:09:37Z</time>
      </trkpt>
      <trkpt lat="48.6783" lon="1.9628">
        <ele>155.89</ele>
        <time>2020-01-11T15:09:42Z</time>
      </trkpt>
      <trkpt lat="48.6783" lon="1.96279">
        <ele>155.83</ele>
        <time>2020-01-11T15:09:47Z</time>
      </trkpt>
      <trkpt lat="48.67829" lon="1.96279">
        <ele>155.88</ele>
        <time>2020-01-11T15:09:52Z</time>
      </trkpt>
      <trkpt lat="48.6783" lon="1.9628">
        <ele>155.97</ele>
        <time>2020-01-11T15:09:57Z</time>
      </trkpt>
      <trkpt lat="48.6783" lon="1.9628">
        <ele>156.04</ele>
        <time>2020-01-11T15:10:02Z</time>
      </trkpt>
      <trkpt lat="48.67832" lon="1.96282">
        <ele>156.15</ele>
        <time>2020-01-11T15:10:07Z</time>
      </trkpt>
      <trkpt lat="48.67832" lon="1.96282">
        <ele>156.15</ele>
        <time>2020-01-11T15:10:12Z</time>
      </trkpt>
      <trkpt lat="48.67832" lon="1.96283">
        <ele>156.18</ele>
        <time>2020-01-11T15:10:17Z</time>
      </trkpt>
      <trkpt lat="48.67832" lon="1.96284">
        <ele>156.2</ele>
        <time>2020-01-11T15:10:22Z</time>
      </trkpt>
      <trkpt lat="48.6783" lon="1.96285">
        <ele>156.16</ele>
        <time>2020-01-11T15:10:27Z</time>
      </trkpt>
      <trkpt lat="48.67829" lon="1.96281">
        <ele>156.2</ele>
        <time>2020-01-11T15:10:32Z</time>
      </trkpt>
      <trkpt lat="48.67826" lon="1.96276">
        <ele>156.18</ele>
        <time>2020-01-11T15:10:37Z</time>
      </trkpt>
      <trkpt lat="48.67825" lon="1.96271">
        <ele>156.23</ele>
        <time>2020-01-11T15:10:42Z</time>
      </trkpt>
      <trkpt lat="48.67823" lon="1.96266">
        <ele>156.28</ele>
        <time>2020-01-11T15:10:47Z</time>
      </trkpt>
      <trkpt lat="48.67821" lon="1.96263">
        <ele>156.1</ele>
        <time>2020-01-11T15:10:52Z</time>
      </trkpt>
      <trkpt lat="48.6782" lon="1.96259">
        <ele>155.88</ele>
        <time>2020-01-11T15:10:57Z</time>
      </trkpt>
      <trkpt lat="48.67817" lon="1.96253">
        <ele>155.44</ele>
        <time>2020-01-11T15:11:02Z</time>
      </trkpt>
      <trkpt lat="48.67813" lon="1.96247">
        <ele>155.15</ele>
        <time>2020-01-11T15:11:07Z</time>
      </trkpt>
      <trkpt lat="48.67811" lon="1.96237">
        <ele>154.92</ele>
        <time>2020-01-11T15:11:12Z</time>
      </trkpt>
      <trkpt lat="48.67807" lon="1.9623">
        <ele>154.74</ele>
        <time>2020-01-11T15:11:17Z</time>
      </trkpt>
      <trkpt lat="48.67804" lon="1.96223">
        <ele>154.46</ele>
        <time>2020-01-11T15:11:22Z</time>
      </trkpt>
      <trkpt lat="48.67801" lon="1.96215">
        <ele>153.84</ele>
        <time>2020-01-11T15:11:27Z</time>
      </trkpt>
      <trkpt lat="48.67799" lon="1.96209">
        <ele>153.39</ele>
        <time>2020-01-11T15:11:32Z</time>
      </trkpt>
      <trkpt lat="48.67799" lon="1.96203">
        <ele>152.9</ele>
        <time>2020-01-11T15:11:37Z</time>
      </trkpt>
      <trkpt lat="48.67798" lon="1.96197">
        <ele>152.52</ele>
        <time>2020-01-11T15:11:42Z</time>
      </trkpt>
      <trkpt lat="48.67796" lon="1.96192">
        <ele>152.63</ele>
        <time>2020-01-11T15:11:47Z</time>
      </trkpt>
      <trkpt lat="48.67793" lon="1.96187">
        <ele>152.76</ele>
        <time>2020-01-11T15:11:52Z</time>
      </trkpt>
      <trkpt lat="48.67791" lon="1.96182">
        <ele>153.18</ele>
        <time>2020-01-11T15:11:57Z</time>
      </trkpt>
      <trkpt lat="48.6779" lon="1.96178">
        <ele>153.55</ele>
        <time>2020-01-11T15:12:02Z</time>
      </trkpt>
      <trkpt lat="48.67788" lon="1.96174">
        <ele>153.76</ele>
        <time>2020-01-11T15:12:07Z</time>
      </trkpt>
      <trkpt lat="48.67785" lon="1.96169">
        <ele>153.97</ele>
        <time>2020-01-11T15:12:12Z</time>
      </trkpt>
      <trkpt lat="48.67785" lon="1.96162">
        <ele>154.25</ele>
        <time>2020-01-11T15:12:17Z</time>
      </trkpt>
      <trkpt lat="48.67785" lon="1.96157">
        <ele>154.2</ele>
        <time>2020-01-11T15:12:22Z</time>
      </trkpt>
      <trkpt lat="48.67786" lon="1.96152">
        <ele>154.04</ele>
        <time>2020-01-11T15:12:27Z</time>
      </trkpt>
      <trkpt lat="48.67788" lon="1.96146">
        <ele>153.98</ele>
        <time>2020-01-11T15:12:32Z</time>
      </trkpt>
      <trkpt lat="48.67789" lon="1.9614">
        <ele>153.99</ele>
        <time>2020-01-11T15:12:37Z</time>
      </trkpt>
      <trkpt lat="48.6779" lon="1.96134">
        <ele>153.99</ele>
        <time>2020-01-11T15:12:42Z</time>
      </trkpt>
      <trkpt lat="48.67792" lon="1.96129">
        <ele>153.93</ele>
        <time>2020-01-11T15:12:47Z</time>
      </trkpt>
      <trkpt lat="48.67794" lon="1.96125">
        <ele>153.9</ele>
        <time>2020-01-11T15:12:52Z</time>
      </trkpt>
      <trkpt lat="48.67795" lon="1.96119">
        <ele>153.9</ele>
        <time>2020-01-11T15:12:57Z</time>
      </trkpt>
      <trkpt lat="48.67796" lon="1.96116">
        <ele>153.91</ele>
        <time>2020-01-11T15:13:02Z</time>
      </trkpt>
      <trkpt lat="48.67797" lon="1.96111">
        <ele>154.52</ele>
        <time>2020-01-11T15:13:07Z</time>
      </trkpt>
      <trkpt lat="48.678" lon="1.96107">
        <ele>154.86</ele>
        <time>2020-01-11T15:13:12Z</time>
      </trkpt>
      <trkpt lat="48.678" lon="1.96101">
        <ele>155.05</ele>
        <time>2020-01-11T15:13:17Z</time>
      </trkpt>
      <trkpt lat="48.678" lon="1.96095">
        <ele>154.94</ele>
        <time>2020-01-11T15:13:22Z</time>
      </trkpt>
      <trkpt lat="48.67801" lon="1.96092">
        <ele>154.76</ele>
        <time>2020-01-11T15:13:27Z</time>
      </trkpt>
      <trkpt lat="48.67803" lon="1.96089">
        <ele>154.74</ele>
        <time>2020-01-11T15:13:32Z</time>
      </trkpt>
      <trkpt lat="48.67805" lon="1.96083">
        <ele>154.57</ele>
        <time>2020-01-11T15:13:37Z</time>
      </trkpt>
      <trkpt lat="48.67806" lon="1.96078">
        <ele>154.25</ele>
        <time>2020-01-11T15:13:42Z</time>
      </trkpt>
      <trkpt lat="48.67808" lon="1.96069">
        <ele>153.63</ele>
        <time>2020-01-11T15:13:47Z</time>
      </trkpt>
      <trkpt lat="48.67809" lon="1.9606">
        <ele>152.82</ele>
        <time>2020-01-11T15:13:52Z</time>
      </trkpt>
      <trkpt lat="48.67812" lon="1.96055">
        <ele>152.39</ele>
        <time>2020-01-11T15:13:57Z</time>
      </trkpt>
      <trkpt lat="48.67815" lon="1.96051">
        <ele>152.17</ele>
        <time>2020-01-11T15:14:02Z</time>
      </trkpt>
      <trkpt lat="48.67819" lon="1.96047">
        <ele>152.29</ele>
        <time>2020-01-11T15:14:07Z</time>
      </trkpt>
      <trkpt lat="48.67822" lon="1.96046">
        <ele>152.63</ele>
        <time>2020-01-11T15:14:12Z</time>
      </trkpt>
      <trkpt lat="48.67825" lon="1.96039">
        <ele>153.05</ele>
        <time>2020-01-11T15:14:17Z</time>
      </trkpt>
      <trkpt lat="48.67827" lon="1.96035">
        <ele>153.14</ele>
        <time>2020-01-11T15:14:22Z</time>
      </trkpt>
      <trkpt lat="48.6783" lon="1.96032">
        <ele>153.1</ele>
        <time>2020-01-11T15:14:27Z</time>
      </trkpt>
      <trkpt lat="48.67834" lon="1.96025">
        <ele>153.19</ele>
        <time>2020-01-11T15:14:32Z</time>
      </trkpt>
      <trkpt lat="48.67837" lon="1.96019">
        <ele>153.38</ele>
        <time>2020-01-11T15:14:37Z</time>
      </trkpt>
      <trkpt lat="48.6784" lon="1.96016">
        <ele>153.48</ele>
        <time>2020-01-11T15:14:42Z</time>
      </trkpt>
      <trkpt lat="48.67844" lon="1.96011">
        <ele>153.57</ele>
        <time>2020-01-11T15:14:47Z</time>
      </trkpt>
      <trkpt lat="48.67848" lon="1.96005">
        <ele>153.58</ele>
        <time>2020-01-11T15:14:52Z</time>
      </trkpt>
      <trkpt lat="48.67852" lon="1.96002">
        <ele>153.65</ele>
        <time>2020-01-11T15:14:57Z</time>
      </trkpt>
      <trkpt lat="48.67855" lon="1.96">
        <ele>153.6</ele>
        <time>2020-01-11T15:15:02Z</time>
      </trkpt>
      <trkpt lat="48.67857" lon="1.95997">
        <ele>153.76</ele>
        <time>2020-01-11T15:15:07Z</time>
      </trkpt>
      <trkpt lat="48.6786" lon="1.95993">
        <ele>153.9</ele>
        <time>2020-01-11T15:15:12Z</time>
      </trkpt>
      <trkpt lat="48.67863" lon="1.95988">
        <ele>154.1</ele>
        <time>2020-01-11T15:15:17Z</time>
      </trkpt>
      <trkpt lat="48.67867" lon="1.95981">
        <ele>154.32</ele>
        <time>2020-01-11T15:15:22Z</time>
      </trkpt>
      <trkpt lat="48.67869" lon="1.95973">
        <ele>154.43</ele>
        <time>2020-01-11T15:15:27Z</time>
      </trkpt>
      <trkpt lat="48.67871" lon="1.95969">
        <ele>154.64</ele>
        <time>2020-01-11T15:15:32Z</time>
      </trkpt>
      <trkpt lat="48.67874" lon="1.95965">
        <ele>154.88</ele>
        <time>2020-01-11T15:15:37Z</time>
      </trkpt>
      <trkpt lat="48.67877" lon="1.95959">
        <ele>154.98</ele>
        <time>2020-01-11T15:15:42Z</time>
      </trkpt>
      <trkpt lat="48.67881" lon="1.95954">
        <ele>155.17</ele>
        <time>2020-01-11T15:15:47Z</time>
      </trkpt>
      <trkpt lat="48.67884" lon="1.95948">
        <ele>155.37</ele>
        <time>2020-01-11T15:15:52Z</time>
      </trkpt>
      <trkpt lat="48.67886" lon="1.95939">
        <ele>155.57</ele>
        <time>2020-01-11T15:15:57Z</time>
      </trkpt>
      <trkpt lat="48.67889" lon="1.95932">
        <ele>155.7</ele>
        <time>2020-01-11T15:16:02Z</time>
      </trkpt>
      <trkpt lat="48.67892" lon="1.95926">
        <ele>155.82</ele>
        <time>2020-01-11T15:16:07Z</time>
      </trkpt>
      <trkpt lat="48.67896" lon="1.9592">
        <ele>156.04</ele>
        <time>2020-01-11T15:16:12Z</time>
      </trkpt>
      <trkpt lat="48.67898" lon="1.95915">
        <ele>156.13</ele>
        <time>2020-01-11T15:16:17Z</time>
      </trkpt>
      <trkpt lat="48.67899" lon="1.9591">
        <ele>156.29</ele>
        <time>2020-01-11T15:16:22Z</time>
      </trkpt>
      <trkpt lat="48.67902" lon="1.95905">
        <ele>156.43</ele>
        <time>2020-01-11T15:16:27Z</time>
      </trkpt>
      <trkpt lat="48.67904" lon="1.95899">
        <ele>156.56</ele>
        <time>2020-01-11T15:16:32Z</time>
      </trkpt>
      <trkpt lat="48.67907" lon="1.95896">
        <ele>156.67</ele>
        <time>2020-01-11T15:16:37Z</time>
      </trkpt>
      <trkpt lat="48.6791" lon="1.95892">
        <ele>156.82</ele>
        <time>2020-01-11T15:16:42Z</time>
      </trkpt>
      <trkpt lat="48.67913" lon="1.95888">
        <ele>157.03</ele>
        <time>2020-01-11T15:16:47Z</time>
      </trkpt>
      <trkpt lat="48.67915" lon="1.95883">
        <ele>157.1</ele>
        <time>2020-01-11T15:16:52Z</time>
      </trkpt>
      <trkpt lat="48.67917" lon="1.9588">
        <ele>157.35</ele>
        <time>2020-01-11T15:16:57Z</time>
      </trkpt>
      <trkpt lat="48.6792" lon="1.95877">
        <ele>157.46</ele>
        <time>2020-01-11T15:17:02Z</time>
      </trkpt>
      <trkpt lat="48.67923" lon="1.95873">
        <ele>157.67</ele>
        <time>2020-01-11T15:17:07Z</time>
      </trkpt>
      <trkpt lat="48.67925" lon="1.95867">
        <ele>157.53</ele>
        <time>2020-01-11T15:17:12Z</time>
      </trkpt>
      <trkpt lat="48.67927" lon="1.95861">
        <ele>157.57</ele>
        <time>2020-01-11T15:17:17Z</time>
      </trkpt>
      <trkpt lat="48.6793" lon="1.95851">
        <ele>157.53</ele>
        <time>2020-01-11T15:17:22Z</time>
      </trkpt>
      <trkpt lat="48.67932" lon="1.95841">
        <ele>157.38</ele>
        <time>2020-01-11T15:17:27Z</time>
      </trkpt>
      <trkpt lat="48.67934" lon="1.95834">
        <ele>157.39</ele>
        <time>2020-01-11T15:17:32Z</time>
      </trkpt>
      <trkpt lat="48.67936" lon="1.95832">
        <ele>157.28</ele>
        <time>2020-01-11T15:17:37Z</time>
      </trkpt>
      <trkpt lat="48.67941" lon="1.95824">
        <ele>156.99</ele>
        <time>2020-01-11T15:17:42Z</time>
      </trkpt>
      <trkpt lat="48.67944" lon="1.95818">
        <ele>156.35</ele>
        <time>2020-01-11T15:17:47Z</time>
      </trkpt>
      <trkpt lat="48.67946" lon="1.95807">
        <ele>155.92</ele>
        <time>2020-01-11T15:17:52Z</time>
      </trkpt>
      <trkpt lat="48.67949" lon="1.958">
        <ele>155.48</ele>
        <time>2020-01-11T15:17:57Z</time>
      </trkpt>
      <trkpt lat="48.67952" lon="1.95792">
        <ele>154.97</ele>
        <time>2020-01-11T15:18:02Z</time>
      </trkpt>
      <trkpt lat="48.67956" lon="1.95785">
        <ele>154.54</ele>
        <time>2020-01-11T15:18:07Z</time>
      </trkpt>
      <trkpt lat="48.67959" lon="1.95777">
        <ele>154.14</ele>
        <time>2020-01-11T15:18:12Z</time>
      </trkpt>
      <trkpt lat="48.67963" lon="1.95767">
        <ele>153.71</ele>
        <time>2020-01-11T15:18:17Z</time>
      </trkpt>
      <trkpt lat="48.67965" lon="1.9576">
        <ele>153.39</ele>
        <time>2020-01-11T15:18:22Z</time>
      </trkpt>
      <trkpt lat="48.67965" lon="1.95744">
        <ele>153.11</ele>
        <time>2020-01-11T15:18:27Z</time>
      </trkpt>
      <trkpt lat="48.67967" lon="1.95733">
        <ele>152.83</ele>
        <time>2020-01-11T15:18:32Z</time>
      </trkpt>
      <trkpt lat="48.67972" lon="1.95728">
        <ele>152.97</ele>
        <time>2020-01-11T15:18:37Z</time>
      </trkpt>
      <trkpt lat="48.67976" lon="1.95719">
        <ele>152.8</ele>
        <time>2020-01-11T15:18:42Z</time>
      </trkpt>
      <trkpt lat="48.67981" lon="1.95712">
        <ele>152.51</ele>
        <time>2020-01-11T15:18:47Z</time>
      </trkpt>
      <trkpt lat="48.67985" lon="1.95706">
        <ele>152.29</ele>
        <time>2020-01-11T15:18:52Z</time>
      </trkpt>
      <trkpt lat="48.6799" lon="1.957">
        <ele>151.99</ele>
        <time>2020-01-11T15:18:57Z</time>
      </trkpt>
      <trkpt lat="48.67994" lon="1.95685">
        <ele>151.53</ele>
        <time>2020-01-11T15:19:02Z</time>
      </trkpt>
      <trkpt lat="48.67997" lon="1.95669">
        <ele>151.1</ele>
        <time>2020-01-11T15:19:07Z</time>
      </trkpt>
      <trkpt lat="48.68" lon="1.95664">
        <ele>150.77</ele>
        <time>2020-01-11T15:19:12Z</time>
      </trkpt>
      <trkpt lat="48.68001" lon="1.9565">
        <ele>150.47</ele>
        <time>2020-01-11T15:19:17Z</time>
      </trkpt>
      <trkpt lat="48.68004" lon="1.95636">
        <ele>150.15</ele>
        <time>2020-01-11T15:19:22Z</time>
      </trkpt>
      <trkpt lat="48.68008" lon="1.95625">
        <ele>149.61</ele>
        <time>2020-01-11T15:19:27Z</time>
      </trkpt>
      <trkpt lat="48.68011" lon="1.95619">
        <ele>149.07</ele>
        <time>2020-01-11T15:19:32Z</time>
      </trkpt>
      <trkpt lat="48.68012" lon="1.9561">
        <ele>148.79</ele>
        <time>2020-01-11T15:19:37Z</time>
      </trkpt>
      <trkpt lat="48.68014" lon="1.95599">
        <ele>148.61</ele>
        <time>2020-01-11T15:19:42Z</time>
      </trkpt>
      <trkpt lat="48.68018" lon="1.95585">
        <ele>148.22</ele>
        <time>2020-01-11T15:19:47Z</time>
      </trkpt>
      <trkpt lat="48.68022" lon="1.95578">
        <ele>147.72</ele>
        <time>2020-01-11T15:19:52Z</time>
      </trkpt>
      <trkpt lat="48.68026" lon="1.95574">
        <ele>147.57</ele>
        <time>2020-01-11T15:19:57Z</time>
      </trkpt>
      <trkpt lat="48.68029" lon="1.95567">
        <ele>147.49</ele>
        <time>2020-01-11T15:20:02Z</time>
      </trkpt>
      <trkpt lat="48.68029" lon="1.95548">
        <ele>147.5</ele>
        <time>2020-01-11T15:20:07Z</time>
      </trkpt>
      <trkpt lat="48.68031" lon="1.95535">
        <ele>147.79</ele>
        <time>2020-01-11T15:20:12Z</time>
      </trkpt>
      <trkpt lat="48.68033" lon="1.95522">
        <ele>148.2</ele>
        <time>2020-01-11T15:20:17Z</time>
      </trkpt>
      <trkpt lat="48.68034" lon="1.95511">
        <ele>148.5</ele>
        <time>2020-01-11T15:20:22Z</time>
      </trkpt>
      <trkpt lat="48.68035" lon="1.95496">
        <ele>148.69</ele>
        <time>2020-01-11T15:20:27Z</time>
      </trkpt>
      <trkpt lat="48.68036" lon="1.95488">
        <ele>148.6</ele>
        <time>2020-01-11T15:20:32Z</time>
      </trkpt>
      <trkpt lat="48.68036" lon="1.95476">
        <ele>148.52</ele>
        <time>2020-01-11T15:20:37Z</time>
      </trkpt>
      <trkpt lat="48.68039" lon="1.95467">
        <ele>148.38</ele>
        <time>2020-01-11T15:20:42Z</time>
      </trkpt>
      <trkpt lat="48.68042" lon="1.95455">
        <ele>148.21</ele>
        <time>2020-01-11T15:20:47Z</time>
      </trkpt>
      <trkpt lat="48.68042" lon="1.9544">
        <ele>147.91</ele>
        <time>2020-01-11T15:20:52Z</time>
      </trkpt>
      <trkpt lat="48.68046" lon="1.95432">
        <ele>147.66</ele>
        <time>2020-01-11T15:20:57Z</time>
      </trkpt>
      <trkpt lat="48.68053" lon="1.95417">
        <ele>147.37</ele>
        <time>2020-01-11T15:21:02Z</time>
      </trkpt>
      <trkpt lat="48.68058" lon="1.95404">
        <ele>147.07</ele>
        <time>2020-01-11T15:21:07Z</time>
      </trkpt>
      <trkpt lat="48.68063" lon="1.95394">
        <ele>146.7</ele>
        <time>2020-01-11T15:21:12Z</time>
      </trkpt>
      <trkpt lat="48.68067" lon="1.95378">
        <ele>146.34</ele>
        <time>2020-01-11T15:21:17Z</time>
      </trkpt>
      <trkpt lat="48.68073" lon="1.95366">
        <ele>146.02</ele>
        <time>2020-01-11T15:21:22Z</time>
      </trkpt>
      <trkpt lat="48.68075" lon="1.95354">
        <ele>145.86</ele>
        <time>2020-01-11T15:21:27Z</time>
      </trkpt>
      <trkpt lat="48.68078" lon="1.9534">
        <ele>145.72</ele>
        <time>2020-01-11T15:21:32Z</time>
      </trkpt>
      <trkpt lat="48.68082" lon="1.95328">
        <ele>145.5</ele>
        <time>2020-01-11T15:21:37Z</time>
      </trkpt>
      <trkpt lat="48.68085" lon="1.9532">
        <ele>145.54</ele>
        <time>2020-01-11T15:21:42Z</time>
      </trkpt>
      <trkpt lat="48.68089" lon="1.9531">
        <ele>145.6</ele>
        <time>2020-01-11T15:21:47Z</time>
      </trkpt>
      <trkpt lat="48.68092" lon="1.953">
        <ele>145.86</ele>
        <time>2020-01-11T15:21:52Z</time>
      </trkpt>
      <trkpt lat="48.68094" lon="1.9529">
        <ele>146.19</ele>
        <time>2020-01-11T15:21:57Z</time>
      </trkpt>
      <trkpt lat="48.68098" lon="1.95284">
        <ele>146.1</ele>
        <time>2020-01-11T15:22:02Z</time>
      </trkpt>
      <trkpt lat="48.68101" lon="1.95276">
        <ele>146.01</ele>
        <time>2020-01-11T15:22:07Z</time>
      </trkpt>
      <trkpt lat="48.68105" lon="1.95266">
        <ele>146.05</ele>
        <time>2020-01-11T15:22:12Z</time>
      </trkpt>
      <trkpt lat="48.68109" lon="1.9526">
        <ele>146.09</ele>
        <time>2020-01-11T15:22:17Z</time>
      </trkpt>
      <trkpt lat="48.68113" lon="1.95251">
        <ele>146.14</ele>
        <time>2020-01-11T15:22:22Z</time>
      </trkpt>
      <trkpt lat="48.68115" lon="1.95241">
        <ele>145.96</ele>
        <time>2020-01-11T15:22:27Z</time>
      </trkpt>
      <trkpt lat="48.6812" lon="1.95235">
        <ele>145.8</ele>
        <time>2020-01-11T15:22:32Z</time>
      </trkpt>
      <trkpt lat="48.68124" lon="1.95229">
        <ele>145.73</ele>
        <time>2020-01-11T15:22:37Z</time>
      </trkpt>
      <trkpt lat="48.68128" lon="1.95225">
        <ele>145.5</ele>
        <time>2020-01-11T15:22:42Z</time>
      </trkpt>
      <trkpt lat="48.68133" lon="1.9522">
        <ele>145.52</ele>
        <time>2020-01-11T15:22:47Z</time>
      </trkpt>
      <trkpt lat="48.68136" lon="1.95212">
        <ele>145.69</ele>
        <time>2020-01-11T15:22:52Z</time>
      </trkpt>
      <trkpt lat="48.68137" lon="1.95203">
        <ele>145.87</ele>
        <time>2020-01-11T15:22:57Z</time>
      </trkpt>
      <trkpt lat="48.68138" lon="1.95195">
        <ele>145.96</ele>
        <time>2020-01-11T15:23:02Z</time>
      </trkpt>
      <trkpt lat="48.68138" lon="1.95183">
        <ele>146.01</ele>
        <time>2020-01-11T15:23:07Z</time>
      </trkpt>
      <trkpt lat="48.68136" lon="1.95174">
        <ele>146.05</ele>
        <time>2020-01-11T15:23:12Z</time>
      </trkpt>
      <trkpt lat="48.68136" lon="1.95165">
        <ele>146.02</ele>
        <time>2020-01-11T15:23:17Z</time>
      </trkpt>
      <trkpt lat="48.68136" lon="1.95156">
        <ele>145.92</ele>
        <time>2020-01-11T15:23:22Z</time>
      </trkpt>
      <trkpt lat="48.68138" lon="1.95147">
        <ele>145.72</ele>
        <time>2020-01-11T15:23:27Z</time>
      </trkpt>
      <trkpt lat="48.6814" lon="1.95138">
        <ele>145.51</ele>
        <time>2020-01-11T15:23:32Z</time>
      </trkpt>
      <trkpt lat="48.68142" lon="1.95129">
        <ele>145.17</ele>
        <time>2020-01-11T15:23:37Z</time>
      </trkpt>
      <trkpt lat="48.68145" lon="1.95119">
        <ele>144.68</ele>
        <time>2020-01-11T15:23:42Z</time>
      </trkpt>
      <trkpt lat="48.68147" lon="1.95109">
        <ele>144.31</ele>
        <time>2020-01-11T15:23:47Z</time>
      </trkpt>
      <trkpt lat="48.68152" lon="1.95102">
        <ele>144.01</ele>
        <time>2020-01-11T15:23:52Z</time>
      </trkpt>
      <trkpt lat="48.68156" lon="1.95091">
        <ele>143.7</ele>
        <time>2020-01-11T15:23:57Z</time>
      </trkpt>
      <trkpt lat="48.6816" lon="1.95079">
        <ele>143.72</ele>
        <time>2020-01-11T15:24:02Z</time>
      </trkpt>
      <trkpt lat="48.68165" lon="1.95067">
        <ele>143.87</ele>
        <time>2020-01-11T15:24:07Z</time>
      </trkpt>
      <trkpt lat="48.68169" lon="1.95057">
        <ele>143.83</ele>
        <time>2020-01-11T15:24:12Z</time>
      </trkpt>
      <trkpt lat="48.68172" lon="1.95047">
        <ele>143.98</ele>
        <time>2020-01-11T15:24:17Z</time>
      </trkpt>
      <trkpt lat="48.68177" lon="1.95039">
        <ele>143.98</ele>
        <time>2020-01-11T15:24:22Z</time>
      </trkpt>
      <trkpt lat="48.68181" lon="1.95026">
        <ele>144.13</ele>
        <time>2020-01-11T15:24:27Z</time>
      </trkpt>
      <trkpt lat="48.68187" lon="1.95014">
        <ele>144.07</ele>
        <time>2020-01-11T15:24:32Z</time>
      </trkpt>
      <trkpt lat="48.68193" lon="1.95005">
        <ele>143.83</ele>
        <time>2020-01-11T15:24:37Z</time>
      </trkpt>
      <trkpt lat="48.68199" lon="1.94997">
        <ele>143.94</ele>
        <time>2020-01-11T15:24:42Z</time>
      </trkpt>
      <trkpt lat="48.68204" lon="1.94987">
        <ele>143.63</ele>
        <time>2020-01-11T15:24:47Z</time>
      </trkpt>
      <trkpt lat="48.68209" lon="1.94977">
        <ele>143.47</ele>
        <time>2020-01-11T15:24:52Z</time>
      </trkpt>
      <trkpt lat="48.68213" lon="1.9497">
        <ele>143.33</ele>
        <time>2020-01-11T15:24:57Z</time>
      </trkpt>
      <trkpt lat="48.68218" lon="1.94963">
        <ele>143.27</ele>
        <time>2020-01-11T15:25:02Z</time>
      </trkpt>
      <trkpt lat="48.68223" lon="1.94959">
        <ele>143.45</ele>
        <time>2020-01-11T15:25:07Z</time>
      </trkpt>
      <trkpt lat="48.68229" lon="1.94954">
        <ele>143.53</ele>
        <time>2020-01-11T15:25:12Z</time>
      </trkpt>
      <trkpt lat="48.68235" lon="1.94949">
        <ele>143.72</ele>
        <time>2020-01-11T15:25:17Z</time>
      </trkpt>
      <trkpt lat="48.68243" lon="1.94942">
        <ele>143.96</ele>
        <time>2020-01-11T15:25:22Z</time>
      </trkpt>
      <trkpt lat="48.68249" lon="1.94939">
        <ele>144</ele>
        <time>2020-01-11T15:25:27Z</time>
      </trkpt>
      <trkpt lat="48.68255" lon="1.94933">
        <ele>144.14</ele>
        <time>2020-01-11T15:25:32Z</time>
      </trkpt>
      <trkpt lat="48.68262" lon="1.94926">
        <ele>144.08</ele>
        <time>2020-01-11T15:25:37Z</time>
      </trkpt>
      <trkpt lat="48.6827" lon="1.9492">
        <ele>144.13</ele>
        <time>2020-01-11T15:25:42Z</time>
      </trkpt>
      <trkpt lat="48.68277" lon="1.94914">
        <ele>144.42</ele>
        <time>2020-01-11T15:25:47Z</time>
      </trkpt>
      <trkpt lat="48.68282" lon="1.9491">
        <ele>144.34</ele>
        <time>2020-01-11T15:25:52Z</time>
      </trkpt>
      <trkpt lat="48.68287" lon="1.94907">
        <ele>144.26</ele>
        <time>2020-01-11T15:25:57Z</time>
      </trkpt>
      <trkpt lat="48.68295" lon="1.94903">
        <ele>144.22</ele>
        <time>2020-01-11T15:26:02Z</time>
      </trkpt>
      <trkpt lat="48.68303" lon="1.94897">
        <ele>143.97</ele>
        <time>2020-01-11T15:26:07Z</time>
      </trkpt>
      <trkpt lat="48.6831" lon="1.94889">
        <ele>143.61</ele>
        <time>2020-01-11T15:26:12Z</time>
      </trkpt>
      <trkpt lat="48.68315" lon="1.94883">
        <ele>143.15</ele>
        <time>2020-01-11T15:26:17Z</time>
      </trkpt>
      <trkpt lat="48.6832" lon="1.94873">
        <ele>142.84</ele>
        <time>2020-01-11T15:26:22Z</time>
      </trkpt>
      <trkpt lat="48.68323" lon="1.94866">
        <ele>142.65</ele>
        <time>2020-01-11T15:26:27Z</time>
      </trkpt>
      <trkpt lat="48.68326" lon="1.94859">
        <ele>142.75</ele>
        <time>2020-01-11T15:26:32Z</time>
      </trkpt>
      <trkpt lat="48.68329" lon="1.94853">
        <ele>142.93</ele>
        <time>2020-01-11T15:26:37Z</time>
      </trkpt>
      <trkpt lat="48.68333" lon="1.94848">
        <ele>143.21</ele>
        <time>2020-01-11T15:26:42Z</time>
      </trkpt>
      <trkpt lat="48.68336" lon="1.94842">
        <ele>143.83</ele>
        <time>2020-01-11T15:26:47Z</time>
      </trkpt>
      <trkpt lat="48.68339" lon="1.94833">
        <ele>144.06</ele>
        <time>2020-01-11T15:26:52Z</time>
      </trkpt>
      <trkpt lat="48.68342" lon="1.94827">
        <ele>144.38</ele>
        <time>2020-01-11T15:26:57Z</time>
      </trkpt>
      <trkpt lat="48.68345" lon="1.94822">
        <ele>144.7</ele>
        <time>2020-01-11T15:27:02Z</time>
      </trkpt>
      <trkpt lat="48.68347" lon="1.94816">
        <ele>144.92</ele>
        <time>2020-01-11T15:27:07Z</time>
      </trkpt>
      <trkpt lat="48.68351" lon="1.94808">
        <ele>145.18</ele>
        <time>2020-01-11T15:27:12Z</time>
      </trkpt>
      <trkpt lat="48.68352" lon="1.948">
        <ele>145.66</ele>
        <time>2020-01-11T15:27:17Z</time>
      </trkpt>
      <trkpt lat="48.68355" lon="1.94793">
        <ele>146.08</ele>
        <time>2020-01-11T15:27:22Z</time>
      </trkpt>
      <trkpt lat="48.6836" lon="1.94784">
        <ele>146.29</ele>
        <time>2020-01-11T15:27:27Z</time>
      </trkpt>
      <trkpt lat="48.68367" lon="1.94773">
        <ele>146.46</ele>
        <time>2020-01-11T15:27:32Z</time>
      </trkpt>
      <trkpt lat="48.68372" lon="1.94761">
        <ele>146.65</ele>
        <time>2020-01-11T15:27:37Z</time>
      </trkpt>
      <trkpt lat="48.68375" lon="1.9475">
        <ele>146.82</ele>
        <time>2020-01-11T15:27:42Z</time>
      </trkpt>
      <trkpt lat="48.68379" lon="1.94737">
        <ele>147.06</ele>
        <time>2020-01-11T15:27:47Z</time>
      </trkpt>
      <trkpt lat="48.68382" lon="1.94729">
        <ele>147.13</ele>
        <time>2020-01-11T15:27:52Z</time>
      </trkpt>
      <trkpt lat="48.68386" lon="1.94723">
        <ele>147.27</ele>
        <time>2020-01-11T15:27:57Z</time>
      </trkpt>
      <trkpt lat="48.68389" lon="1.94717">
        <ele>147.45</ele>
        <time>2020-01-11T15:28:02Z</time>
      </trkpt>
      <trkpt lat="48.68392" lon="1.9471">
        <ele>147.5</ele>
        <time>2020-01-11T15:28:07Z</time>
      </trkpt>
      <trkpt lat="48.68393" lon="1.94704">
        <ele>147.56</ele>
        <time>2020-01-11T15:28:12Z</time>
      </trkpt>
      <trkpt lat="48.68396" lon="1.94696">
        <ele>147.57</ele>
        <time>2020-01-11T15:28:17Z</time>
      </trkpt>
      <trkpt lat="48.684" lon="1.94689">
        <ele>147.45</ele>
        <time>2020-01-11T15:28:22Z</time>
      </trkpt>
      <trkpt lat="48.68403" lon="1.94683">
        <ele>147.25</ele>
        <time>2020-01-11T15:28:27Z</time>
      </trkpt>
      <trkpt lat="48.68405" lon="1.94674">
        <ele>146.94</ele>
        <time>2020-01-11T15:28:32Z</time>
      </trkpt>
      <trkpt lat="48.68409" lon="1.94667">
        <ele>146.39</ele>
        <time>2020-01-11T15:28:37Z</time>
      </trkpt>
      <trkpt lat="48.68414" lon="1.94661">
        <ele>146.03</ele>
        <time>2020-01-11T15:28:42Z</time>
      </trkpt>
      <trkpt lat="48.68418" lon="1.94649">
        <ele>145.7</ele>
        <time>2020-01-11T15:28:47Z</time>
      </trkpt>
      <trkpt lat="48.68423" lon="1.94641">
        <ele>145.21</ele>
        <time>2020-01-11T15:28:52Z</time>
      </trkpt>
      <trkpt lat="48.68427" lon="1.94637">
        <ele>145.08</ele>
        <time>2020-01-11T15:28:57Z</time>
      </trkpt>
      <trkpt lat="48.6843" lon="1.94629">
        <ele>145.3</ele>
        <time>2020-01-11T15:29:02Z</time>
      </trkpt>
      <trkpt lat="48.68433" lon="1.9462">
        <ele>145.43</ele>
        <time>2020-01-11T15:29:07Z</time>
      </trkpt>
      <trkpt lat="48.68436" lon="1.94611">
        <ele>145.45</ele>
        <time>2020-01-11T15:29:12Z</time>
      </trkpt>
      <trkpt lat="48.68438" lon="1.94602">
        <ele>145.52</ele>
        <time>2020-01-11T15:29:17Z</time>
      </trkpt>
      <trkpt lat="48.68444" lon="1.94593">
        <ele>145.66</ele>
        <time>2020-01-11T15:29:22Z</time>
      </trkpt>
      <trkpt lat="48.68447" lon="1.94586">
        <ele>145.93</ele>
        <time>2020-01-11T15:29:27Z</time>
      </trkpt>
      <trkpt lat="48.68449" lon="1.94576">
        <ele>146.49</ele>
        <time>2020-01-11T15:29:32Z</time>
      </trkpt>
      <trkpt lat="48.68452" lon="1.94565">
        <ele>146.86</ele>
        <time>2020-01-11T15:29:37Z</time>
      </trkpt>
      <trkpt lat="48.68455" lon="1.94554">
        <ele>147.18</ele>
        <time>2020-01-11T15:29:42Z</time>
      </trkpt>
      <trkpt lat="48.68458" lon="1.94545">
        <ele>147.41</ele>
        <time>2020-01-11T15:29:47Z</time>
      </trkpt>
      <trkpt lat="48.68462" lon="1.94535">
        <ele>147.47</ele>
        <time>2020-01-11T15:29:52Z</time>
      </trkpt>
      <trkpt lat="48.68467" lon="1.9453">
        <ele>147.49</ele>
        <time>2020-01-11T15:29:57Z</time>
      </trkpt>
      <trkpt lat="48.68472" lon="1.94521">
        <ele>147.55</ele>
        <time>2020-01-11T15:30:02Z</time>
      </trkpt>
      <trkpt lat="48.68476" lon="1.94512">
        <ele>147.62</ele>
        <time>2020-01-11T15:30:07Z</time>
      </trkpt>
      <trkpt lat="48.68479" lon="1.94501">
        <ele>147.63</ele>
        <time>2020-01-11T15:30:12Z</time>
      </trkpt>
      <trkpt lat="48.68482" lon="1.94492">
        <ele>147.54</ele>
        <time>2020-01-11T15:30:17Z</time>
      </trkpt>
      <trkpt lat="48.68486" lon="1.94482">
        <ele>147.54</ele>
        <time>2020-01-11T15:30:22Z</time>
      </trkpt>
      <trkpt lat="48.68489" lon="1.94471">
        <ele>147.57</ele>
        <time>2020-01-11T15:30:27Z</time>
      </trkpt>
      <trkpt lat="48.68494" lon="1.94462">
        <ele>147.62</ele>
        <time>2020-01-11T15:30:32Z</time>
      </trkpt>
      <trkpt lat="48.68498" lon="1.94454">
        <ele>147.49</ele>
        <time>2020-01-11T15:30:37Z</time>
      </trkpt>
      <trkpt lat="48.68501" lon="1.94445">
        <ele>147.46</ele>
        <time>2020-01-11T15:30:42Z</time>
      </trkpt>
      <trkpt lat="48.68504" lon="1.94436">
        <ele>147.38</ele>
        <time>2020-01-11T15:30:47Z</time>
      </trkpt>
      <trkpt lat="48.68509" lon="1.94426">
        <ele>147.27</ele>
        <time>2020-01-11T15:30:52Z</time>
      </trkpt>
      <trkpt lat="48.68514" lon="1.94417">
        <ele>147.07</ele>
        <time>2020-01-11T15:30:57Z</time>
      </trkpt>
      <trkpt lat="48.68518" lon="1.9441">
        <ele>146.78</ele>
        <time>2020-01-11T15:31:02Z</time>
      </trkpt>
      <trkpt lat="48.68521" lon="1.944">
        <ele>146.44</ele>
        <time>2020-01-11T15:31:07Z</time>
      </trkpt>
      <trkpt lat="48.68524" lon="1.94393">
        <ele>146.09</ele>
        <time>2020-01-11T15:31:12Z</time>
      </trkpt>
      <trkpt lat="48.68528" lon="1.94385">
        <ele>145.79</ele>
        <time>2020-01-11T15:31:17Z</time>
      </trkpt>
      <trkpt lat="48.68531" lon="1.94377">
        <ele>145.16</ele>
        <time>2020-01-11T15:31:22Z</time>
      </trkpt>
      <trkpt lat="48.68534" lon="1.94369">
        <ele>144.43</ele>
        <time>2020-01-11T15:31:27Z</time>
      </trkpt>
      <trkpt lat="48.68539" lon="1.94357">
        <ele>143.58</ele>
        <time>2020-01-11T15:31:32Z</time>
      </trkpt>
      <trkpt lat="48.68544" lon="1.94347">
        <ele>143.04</ele>
        <time>2020-01-11T15:31:37Z</time>
      </trkpt>
      <trkpt lat="48.68548" lon="1.94339">
        <ele>142.79</ele>
        <time>2020-01-11T15:31:42Z</time>
      </trkpt>
      <trkpt lat="48.68551" lon="1.94328">
        <ele>142.67</ele>
        <time>2020-01-11T15:31:47Z</time>
      </trkpt>
      <trkpt lat="48.68554" lon="1.9432">
        <ele>142.82</ele>
        <time>2020-01-11T15:31:52Z</time>
      </trkpt>
      <trkpt lat="48.68559" lon="1.9431">
        <ele>143.1</ele>
        <time>2020-01-11T15:31:57Z</time>
      </trkpt>
      <trkpt lat="48.68564" lon="1.94303">
        <ele>143.13</ele>
        <time>2020-01-11T15:32:02Z</time>
      </trkpt>
      <trkpt lat="48.6857" lon="1.94299">
        <ele>143.13</ele>
        <time>2020-01-11T15:32:07Z</time>
      </trkpt>
      <trkpt lat="48.68573" lon="1.94294">
        <ele>143.27</ele>
        <time>2020-01-11T15:32:12Z</time>
      </trkpt>
      <trkpt lat="48.68576" lon="1.94289">
        <ele>142.99</ele>
        <time>2020-01-11T15:32:17Z</time>
      </trkpt>
      <trkpt lat="48.68578" lon="1.94284">
        <ele>142.33</ele>
        <time>2020-01-11T15:32:22Z</time>
      </trkpt>
      <trkpt lat="48.6858" lon="1.94279">
        <ele>141.28</ele>
        <time>2020-01-11T15:32:27Z</time>
      </trkpt>
      <trkpt lat="48.68581" lon="1.94274">
        <ele>140.15</ele>
        <time>2020-01-11T15:32:32Z</time>
      </trkpt>
      <trkpt lat="48.68582" lon="1.94269">
        <ele>139</ele>
        <time>2020-01-11T15:32:37Z</time>
      </trkpt>
      <trkpt lat="48.68583" lon="1.94262">
        <ele>137.47</ele>
        <time>2020-01-11T15:32:42Z</time>
      </trkpt>
      <trkpt lat="48.68584" lon="1.94255">
        <ele>135.75</ele>
        <time>2020-01-11T15:32:47Z</time>
      </trkpt>
      <trkpt lat="48.68586" lon="1.94247">
        <ele>134.65</ele>
        <time>2020-01-11T15:32:52Z</time>
      </trkpt>
      <trkpt lat="48.68589" lon="1.9424">
        <ele>134.24</ele>
        <time>2020-01-11T15:32:57Z</time>
      </trkpt>
      <trkpt lat="48.68593" lon="1.94237">
        <ele>134.18</ele>
        <time>2020-01-11T15:33:02Z</time>
      </trkpt>
      <trkpt lat="48.68596" lon="1.94232">
        <ele>134.48</ele>
        <time>2020-01-11T15:33:07Z</time>
      </trkpt>
      <trkpt lat="48.68599" lon="1.94224">
        <ele>136.2</ele>
        <time>2020-01-11T15:33:12Z</time>
      </trkpt>
      <trkpt lat="48.68603" lon="1.94217">
        <ele>137.87</ele>
        <time>2020-01-11T15:33:17Z</time>
      </trkpt>
      <trkpt lat="48.68607" lon="1.94209">
        <ele>139.24</ele>
        <time>2020-01-11T15:33:22Z</time>
      </trkpt>
      <trkpt lat="48.68612" lon="1.94201">
        <ele>140.65</ele>
        <time>2020-01-11T15:33:27Z</time>
      </trkpt>
      <trkpt lat="48.68614" lon="1.94195">
        <ele>141.74</ele>
        <time>2020-01-11T15:33:32Z</time>
      </trkpt>
      <trkpt lat="48.68616" lon="1.94187">
        <ele>142.99</ele>
        <time>2020-01-11T15:33:37Z</time>
      </trkpt>
      <trkpt lat="48.68618" lon="1.94179">
        <ele>143.52</ele>
        <time>2020-01-11T15:33:42Z</time>
      </trkpt>
      <trkpt lat="48.6862" lon="1.94171">
        <ele>143.8</ele>
        <time>2020-01-11T15:33:47Z</time>
      </trkpt>
      <trkpt lat="48.68623" lon="1.94166">
        <ele>144.24</ele>
        <time>2020-01-11T15:33:52Z</time>
      </trkpt>
      <trkpt lat="48.68626" lon="1.9416">
        <ele>144.61</ele>
        <time>2020-01-11T15:33:57Z</time>
      </trkpt>
      <trkpt lat="48.68629" lon="1.94154">
        <ele>144.7</ele>
        <time>2020-01-11T15:34:02Z</time>
      </trkpt>
      <trkpt lat="48.68633" lon="1.94145">
        <ele>144.83</ele>
        <time>2020-01-11T15:34:07Z</time>
      </trkpt>
      <trkpt lat="48.68635" lon="1.94136">
        <ele>145.12</ele>
        <time>2020-01-11T15:34:12Z</time>
      </trkpt>
      <trkpt lat="48.68638" lon="1.94128">
        <ele>145.25</ele>
        <time>2020-01-11T15:34:17Z</time>
      </trkpt>
      <trkpt lat="48.68642" lon="1.94121">
        <ele>145.26</ele>
        <time>2020-01-11T15:34:22Z</time>
      </trkpt>
      <trkpt lat="48.68645" lon="1.94115">
        <ele>145.36</ele>
        <time>2020-01-11T15:34:27Z</time>
      </trkpt>
      <trkpt lat="48.68652" lon="1.94108">
        <ele>145.16</ele>
        <time>2020-01-11T15:34:32Z</time>
      </trkpt>
      <trkpt lat="48.68655" lon="1.94099">
        <ele>144.89</ele>
        <time>2020-01-11T15:34:37Z</time>
      </trkpt>
      <trkpt lat="48.68658" lon="1.94091">
        <ele>144.67</ele>
        <time>2020-01-11T15:34:42Z</time>
      </trkpt>
      <trkpt lat="48.68661" lon="1.94085">
        <ele>144.35</ele>
        <time>2020-01-11T15:34:47Z</time>
      </trkpt>
      <trkpt lat="48.68664" lon="1.94077">
        <ele>143.98</ele>
        <time>2020-01-11T15:34:52Z</time>
      </trkpt>
      <trkpt lat="48.68665" lon="1.94066">
        <ele>143.47</ele>
        <time>2020-01-11T15:34:57Z</time>
      </trkpt>
      <trkpt lat="48.6867" lon="1.94057">
        <ele>142.69</ele>
        <time>2020-01-11T15:35:02Z</time>
      </trkpt>
      <trkpt lat="48.68674" lon="1.94048">
        <ele>141.75</ele>
        <time>2020-01-11T15:35:07Z</time>
      </trkpt>
      <trkpt lat="48.68679" lon="1.94042">
        <ele>140.69</ele>
        <time>2020-01-11T15:35:12Z</time>
      </trkpt>
      <trkpt lat="48.68681" lon="1.94035">
        <ele>139.25</ele>
        <time>2020-01-11T15:35:17Z</time>
      </trkpt>
      <trkpt lat="48.68683" lon="1.94029">
        <ele>138.32</ele>
        <time>2020-01-11T15:35:22Z</time>
      </trkpt>
      <trkpt lat="48.68686" lon="1.94022">
        <ele>138.17</ele>
        <time>2020-01-11T15:35:27Z</time>
      </trkpt>
      <trkpt lat="48.68691" lon="1.94018">
        <ele>138.75</ele>
        <time>2020-01-11T15:35:32Z</time>
      </trkpt>
      <trkpt lat="48.68694" lon="1.94014">
        <ele>139.35</ele>
        <time>2020-01-11T15:35:37Z</time>
      </trkpt>
      <trkpt lat="48.68697" lon="1.94008">
        <ele>139.56</ele>
        <time>2020-01-11T15:35:42Z</time>
      </trkpt>
      <trkpt lat="48.68701" lon="1.94002">
        <ele>140.26</ele>
        <time>2020-01-11T15:35:47Z</time>
      </trkpt>
      <trkpt lat="48.68705" lon="1.93997">
        <ele>140.8</ele>
        <time>2020-01-11T15:35:52Z</time>
      </trkpt>
      <trkpt lat="48.68708" lon="1.93991">
        <ele>141.12</ele>
        <time>2020-01-11T15:35:57Z</time>
      </trkpt>
      <trkpt lat="48.68712" lon="1.93984">
        <ele>141.89</ele>
        <time>2020-01-11T15:36:02Z</time>
      </trkpt>
      <trkpt lat="48.68712" lon="1.93976">
        <ele>142.75</ele>
        <time>2020-01-11T15:36:07Z</time>
      </trkpt>
      <trkpt lat="48.68714" lon="1.93971">
        <ele>143.55</ele>
        <time>2020-01-11T15:36:12Z</time>
      </trkpt>
      <trkpt lat="48.68716" lon="1.93964">
        <ele>144.21</ele>
        <time>2020-01-11T15:36:17Z</time>
      </trkpt>
      <trkpt lat="48.68715" lon="1.93956">
        <ele>144.81</ele>
        <time>2020-01-11T15:36:22Z</time>
      </trkpt>
      <trkpt lat="48.68713" lon="1.93946">
        <ele>145.06</ele>
        <time>2020-01-11T15:36:27Z</time>
      </trkpt>
      <trkpt lat="48.68713" lon="1.93942">
        <ele>145.12</ele>
        <time>2020-01-11T15:36:32Z</time>
      </trkpt>
      <trkpt lat="48.68712" lon="1.93939">
        <ele>145.27</ele>
        <time>2020-01-11T15:36:37Z</time>
      </trkpt>
      <trkpt lat="48.68712" lon="1.93938">
        <ele>145.53</ele>
        <time>2020-01-11T15:36:42Z</time>
      </trkpt>
      <trkpt lat="48.68714" lon="1.93937">
        <ele>145.68</ele>
        <time>2020-01-11T15:36:47Z</time>
      </trkpt>
      <trkpt lat="48.68714" lon="1.93936">
        <ele>145.72</ele>
        <time>2020-01-11T15:36:52Z</time>
      </trkpt>
      <trkpt lat="48.68716" lon="1.93935">
        <ele>145.55</ele>
        <time>2020-01-11T15:36:57Z</time>
      </trkpt>
      <trkpt lat="48.68715" lon="1.93935">
        <ele>145.51</ele>
        <time>2020-01-11T15:37:02Z</time>
      </trkpt>
      <trkpt lat="48.68715" lon="1.93935">
        <ele>145.48</ele>
        <time>2020-01-11T15:37:07Z</time>
      </trkpt>
      <trkpt lat="48.68713" lon="1.93935">
        <ele>145.48</ele>
        <time>2020-01-11T15:37:12Z</time>
      </trkpt>
      <trkpt lat="48.68712" lon="1.93935">
        <ele>145.53</ele>
        <time>2020-01-11T15:37:17Z</time>
      </trkpt>
      <trkpt lat="48.68713" lon="1.93934">
        <ele>145.68</ele>
        <time>2020-01-11T15:37:22Z</time>
      </trkpt>
      <trkpt lat="48.68712" lon="1.93934">
        <ele>145.81</ele>
        <time>2020-01-11T15:37:27Z</time>
      </trkpt>
      <trkpt lat="48.68713" lon="1.93933">
        <ele>145.8</ele>
        <time>2020-01-11T15:37:32Z</time>
      </trkpt>
      <trkpt lat="48.68714" lon="1.93933">
        <ele>145.6</ele>
        <time>2020-01-11T15:37:37Z</time>
      </trkpt>
      <trkpt lat="48.68715" lon="1.93932">
        <ele>145.5</ele>
        <time>2020-01-11T15:37:42Z</time>
      </trkpt>
      <trkpt lat="48.68717" lon="1.93932">
        <ele>145.55</ele>
        <time>2020-01-11T15:37:47Z</time>
      </trkpt>
      <trkpt lat="48.68716" lon="1.93933">
        <ele>145.62</ele>
        <time>2020-01-11T15:37:52Z</time>
      </trkpt>
      <trkpt lat="48.68717" lon="1.93933">
        <ele>145.67</ele>
        <time>2020-01-11T15:37:57Z</time>
      </trkpt>
      <trkpt lat="48.68716" lon="1.93932">
        <ele>145.74</ele>
        <time>2020-01-11T15:38:02Z</time>
      </trkpt>
      <trkpt lat="48.68716" lon="1.93932">
        <ele>145.72</ele>
        <time>2020-01-11T15:38:07Z</time>
      </trkpt>
      <trkpt lat="48.68716" lon="1.93932">
        <ele>145.8</ele>
        <time>2020-01-11T15:38:12Z</time>
      </trkpt>
      <trkpt lat="48.68715" lon="1.93931">
        <ele>145.78</ele>
        <time>2020-01-11T15:38:17Z</time>
      </trkpt>
      <trkpt lat="48.68715" lon="1.93932">
        <ele>145.76</ele>
        <time>2020-01-11T15:38:22Z</time>
      </trkpt>
      <trkpt lat="48.68714" lon="1.93933">
        <ele>145.71</ele>
        <time>2020-01-11T15:38:27Z</time>
      </trkpt>
      <trkpt lat="48.68714" lon="1.93933">
        <ele>145.71</ele>
        <time>2020-01-11T15:38:32Z</time>
      </trkpt>
      <trkpt lat="48.68714" lon="1.93933">
        <ele>145.63</ele>
        <time>2020-01-11T15:38:37Z</time>
      </trkpt>
      <trkpt lat="48.68714" lon="1.93932">
        <ele>145.59</ele>
        <time>2020-01-11T15:38:42Z</time>
      </trkpt>
      <trkpt lat="48.68715" lon="1.93931">
        <ele>145.67</ele>
        <time>2020-01-11T15:38:47Z</time>
      </trkpt>
      <trkpt lat="48.68715" lon="1.93931">
        <ele>145.67</ele>
        <time>2020-01-11T15:38:52Z</time>
      </trkpt>
      <trkpt lat="48.68714" lon="1.9393">
        <ele>145.69</ele>
        <time>2020-01-11T15:38:57Z</time>
      </trkpt>
      <trkpt lat="48.68714" lon="1.9393">
        <ele>145.67</ele>
        <time>2020-01-11T15:39:02Z</time>
      </trkpt>
      <trkpt lat="48.68714" lon="1.93929">
        <ele>145.64</ele>
        <time>2020-01-11T15:39:07Z</time>
      </trkpt>
      <trkpt lat="48.68716" lon="1.93927">
        <ele>145.73</ele>
        <time>2020-01-11T15:39:12Z</time>
      </trkpt>
      <trkpt lat="48.68717" lon="1.93925">
        <ele>145.93</ele>
        <time>2020-01-11T15:39:17Z</time>
      </trkpt>
      <trkpt lat="48.68715" lon="1.93926">
        <ele>146.03</ele>
        <time>2020-01-11T15:39:22Z</time>
      </trkpt>
      <trkpt lat="48.68717" lon="1.93924">
        <ele>146</ele>
        <time>2020-01-11T15:39:27Z</time>
      </trkpt>
      <trkpt lat="48.68718" lon="1.93924">
        <ele>145.98</ele>
        <time>2020-01-11T15:39:32Z</time>
      </trkpt>
      <trkpt lat="48.68719" lon="1.93925">
        <ele>145.99</ele>
        <time>2020-01-11T15:39:37Z</time>
      </trkpt>
      <trkpt lat="48.6872" lon="1.93926">
        <ele>145.9</ele>
        <time>2020-01-11T15:39:42Z</time>
      </trkpt>
      <trkpt lat="48.68721" lon="1.93928">
        <ele>145.88</ele>
        <time>2020-01-11T15:39:47Z</time>
      </trkpt>
      <trkpt lat="48.68719" lon="1.9393">
        <ele>146.04</ele>
        <time>2020-01-11T15:39:52Z</time>
      </trkpt>
      <trkpt lat="48.68717" lon="1.93932">
        <ele>146.03</ele>
        <time>2020-01-11T15:39:57Z</time>
      </trkpt>
      <trkpt lat="48.68716" lon="1.93932">
        <ele>146.03</ele>
        <time>2020-01-11T15:40:02Z</time>
      </trkpt>
      <trkpt lat="48.68715" lon="1.93931">
        <ele>145.93</ele>
        <time>2020-01-11T15:40:07Z</time>
      </trkpt>
      <trkpt lat="48.68715" lon="1.93931">
        <ele>145.9</ele>
        <time>2020-01-11T15:40:12Z</time>
      </trkpt>
      <trkpt lat="48.68715" lon="1.93932">
        <ele>145.98</ele>
        <time>2020-01-11T15:40:17Z</time>
      </trkpt>
      <trkpt lat="48.68715" lon="1.93934">
        <ele>145.93</ele>
        <time>2020-01-11T15:40:22Z</time>
      </trkpt>
      <trkpt lat="48.68716" lon="1.93934">
        <ele>145.93</ele>
        <time>2020-01-11T15:40:27Z</time>
      </trkpt>
      <trkpt lat="48.68716" lon="1.93934">
        <ele>146.09</ele>
        <time>2020-01-11T15:40:32Z</time>
      </trkpt>
      <trkpt lat="48.68716" lon="1.93935">
        <ele>146.04</ele>
        <time>2020-01-11T15:40:37Z</time>
      </trkpt>
      <trkpt lat="48.68717" lon="1.93935">
        <ele>146.11</ele>
        <time>2020-01-11T15:40:42Z</time>
      </trkpt>
      <trkpt lat="48.68717" lon="1.93934">
        <ele>145.76</ele>
        <time>2020-01-11T15:40:47Z</time>
      </trkpt>
      <trkpt lat="48.68718" lon="1.93934">
        <ele>145.67</ele>
        <time>2020-01-11T15:40:52Z</time>
      </trkpt>
      <trkpt lat="48.68717" lon="1.93933">
        <ele>145.72</ele>
        <time>2020-01-11T15:40:57Z</time>
      </trkpt>
      <trkpt lat="48.68716" lon="1.93935">
        <ele>145.73</ele>
        <time>2020-01-11T15:41:02Z</time>
      </trkpt>
      <trkpt lat="48.68715" lon="1.93935">
        <ele>145.82</ele>
        <time>2020-01-11T15:41:07Z</time>
      </trkpt>
      <trkpt lat="48.68716" lon="1.93935">
        <ele>145.88</ele>
        <time>2020-01-11T15:41:12Z</time>
      </trkpt>
      <trkpt lat="48.68715" lon="1.93933">
        <ele>145.97</ele>
        <time>2020-01-11T15:41:17Z</time>
      </trkpt>
      <trkpt lat="48.68715" lon="1.93933">
        <ele>146.16</ele>
        <time>2020-01-11T15:41:22Z</time>
      </trkpt>
      <trkpt lat="48.68715" lon="1.93932">
        <ele>146.26</ele>
        <time>2020-01-11T15:41:27Z</time>
      </trkpt>
      <trkpt lat="48.68715" lon="1.93932">
        <ele>146.28</ele>
        <time>2020-01-11T15:41:32Z</time>
      </trkpt>
      <trkpt lat="48.68715" lon="1.93932">
        <ele>146.35</ele>
        <time>2020-01-11T15:41:37Z</time>
      </trkpt>
      <trkpt lat="48.68715" lon="1.93931">
        <ele>146.41</ele>
        <time>2020-01-11T15:41:42Z</time>
      </trkpt>
      <trkpt lat="48.68715" lon="1.93931">
        <ele>146.52</ele>
        <time>2020-01-11T15:41:47Z</time>
      </trkpt>
      <trkpt lat="48.68715" lon="1.9393">
        <ele>146.55</ele>
        <time>2020-01-11T15:41:52Z</time>
      </trkpt>
      <trkpt lat="48.68714" lon="1.93929">
        <ele>146.55</ele>
        <time>2020-01-11T15:41:57Z</time>
      </trkpt>
      <trkpt lat="48.68714" lon="1.93927">
        <ele>146.55</ele>
        <time>2020-01-11T15:42:02Z</time>
      </trkpt>
      <trkpt lat="48.68714" lon="1.93927">
        <ele>146.68</ele>
        <time>2020-01-11T15:42:07Z</time>
      </trkpt>
      <trkpt lat="48.68714" lon="1.93928">
        <ele>146.8</ele>
        <time>2020-01-11T15:42:12Z</time>
      </trkpt>
      <trkpt lat="48.68714" lon="1.93928">
        <ele>146.85</ele>
        <time>2020-01-11T15:42:17Z</time>
      </trkpt>
      <trkpt lat="48.68713" lon="1.93928">
        <ele>146.94</ele>
        <time>2020-01-11T15:42:22Z</time>
      </trkpt>
      <trkpt lat="48.68714" lon="1.93928">
        <ele>147.04</ele>
        <time>2020-01-11T15:42:27Z</time>
      </trkpt>
      <trkpt lat="48.68714" lon="1.93928">
        <ele>146.93</ele>
        <time>2020-01-11T15:42:32Z</time>
      </trkpt>
      <trkpt lat="48.68714" lon="1.93928">
        <ele>146.99</ele>
        <time>2020-01-11T15:42:37Z</time>
      </trkpt>
      <trkpt lat="48.68714" lon="1.93928">
        <ele>147.2</ele>
        <time>2020-01-11T15:42:42Z</time>
      </trkpt>
      <trkpt lat="48.68715" lon="1.93929">
        <ele>147.36</ele>
        <time>2020-01-11T15:42:47Z</time>
      </trkpt>
      <trkpt lat="48.68716" lon="1.9393">
        <ele>147.44</ele>
        <time>2020-01-11T15:42:52Z</time>
      </trkpt>
      <trkpt lat="48.68716" lon="1.93932">
        <ele>147.45</ele>
        <time>2020-01-11T15:42:57Z</time>
      </trkpt>
      <trkpt lat="48.68716" lon="1.93932">
        <ele>147.49</ele>
        <time>2020-01-11T15:43:02Z</time>
      </trkpt>
      <trkpt lat="48.68715" lon="1.93933">
        <ele>147.35</ele>
        <time>2020-01-11T15:43:07Z</time>
      </trkpt>
      <trkpt lat="48.68715" lon="1.93933">
        <ele>147.32</ele>
        <time>2020-01-11T15:43:12Z</time>
      </trkpt>
      <trkpt lat="48.68716" lon="1.93933">
        <ele>147.52</ele>
        <time>2020-01-11T15:43:17Z</time>
      </trkpt>
      <trkpt lat="48.68715" lon="1.93932">
        <ele>147.69</ele>
        <time>2020-01-11T15:43:22Z</time>
      </trkpt>
      <trkpt lat="48.68713" lon="1.9393">
        <ele>147.77</ele>
        <time>2020-01-11T15:43:27Z</time>
      </trkpt>
      <trkpt lat="48.68709" lon="1.93929">
        <ele>147.81</ele>
        <time>2020-01-11T15:43:32Z</time>
      </trkpt>
      <trkpt lat="48.68705" lon="1.93928">
        <ele>147.91</ele>
        <time>2020-01-11T15:43:37Z</time>
      </trkpt>
      <trkpt lat="48.687" lon="1.93926">
        <ele>147.75</ele>
        <time>2020-01-11T15:43:42Z</time>
      </trkpt>
      <trkpt lat="48.68697" lon="1.93925">
        <ele>147.56</ele>
        <time>2020-01-11T15:43:47Z</time>
      </trkpt>
      <trkpt lat="48.68695" lon="1.93923">
        <ele>147.42</ele>
        <time>2020-01-11T15:43:52Z</time>
      </trkpt>
      <trkpt lat="48.6869" lon="1.93922">
        <ele>147.22</ele>
        <time>2020-01-11T15:43:57Z</time>
      </trkpt>
      <trkpt lat="48.68685" lon="1.93921">
        <ele>147.1</ele>
        <time>2020-01-11T15:44:02Z</time>
      </trkpt>
      <trkpt lat="48.6868" lon="1.9392">
        <ele>147.06</ele>
        <time>2020-01-11T15:44:07Z</time>
      </trkpt>
      <trkpt lat="48.68674" lon="1.93918">
        <ele>147.04</ele>
        <time>2020-01-11T15:44:12Z</time>
      </trkpt>
      <trkpt lat="48.68669" lon="1.93917">
        <ele>146.86</ele>
        <time>2020-01-11T15:44:17Z</time>
      </trkpt>
      <trkpt lat="48.68663" lon="1.93916">
        <ele>147.04</ele>
        <time>2020-01-11T15:44:22Z</time>
      </trkpt>
      <trkpt lat="48.68658" lon="1.93912">
        <ele>147.01</ele>
        <time>2020-01-11T15:44:27Z</time>
      </trkpt>
      <trkpt lat="48.68653" lon="1.93907">
        <ele>146.83</ele>
        <time>2020-01-11T15:44:32Z</time>
      </trkpt>
      <trkpt lat="48.68649" lon="1.93903">
        <ele>146.69</ele>
        <time>2020-01-11T15:44:37Z</time>
      </trkpt>
      <trkpt lat="48.68644" lon="1.939">
        <ele>146.46</ele>
        <time>2020-01-11T15:44:42Z</time>
      </trkpt>
      <trkpt lat="48.68638" lon="1.939">
        <ele>146.43</ele>
        <time>2020-01-11T15:44:47Z</time>
      </trkpt>
      <trkpt lat="48.68633" lon="1.93899">
        <ele>146.65</ele>
        <time>2020-01-11T15:44:52Z</time>
      </trkpt>
      <trkpt lat="48.68629" lon="1.939">
        <ele>146.65</ele>
        <time>2020-01-11T15:44:57Z</time>
      </trkpt>
      <trkpt lat="48.68625" lon="1.93901">
        <ele>146.73</ele>
        <time>2020-01-11T15:45:02Z</time>
      </trkpt>
      <trkpt lat="48.68622" lon="1.93902">
        <ele>146.83</ele>
        <time>2020-01-11T15:45:07Z</time>
      </trkpt>
      <trkpt lat="48.6862" lon="1.93903">
        <ele>146.77</ele>
        <time>2020-01-11T15:45:12Z</time>
      </trkpt>
      <trkpt lat="48.68617" lon="1.93905">
        <ele>146.65</ele>
        <time>2020-01-11T15:45:17Z</time>
      </trkpt>
      <trkpt lat="48.68614" lon="1.93907">
        <ele>146.84</ele>
        <time>2020-01-11T15:45:22Z</time>
      </trkpt>
      <trkpt lat="48.68611" lon="1.93912">
        <ele>146.76</ele>
        <time>2020-01-11T15:45:27Z</time>
      </trkpt>
      <trkpt lat="48.68607" lon="1.93915">
        <ele>146.68</ele>
        <time>2020-01-11T15:45:32Z</time>
      </trkpt>
      <trkpt lat="48.68601" lon="1.93919">
        <ele>146.3</ele>
        <time>2020-01-11T15:45:37Z</time>
      </trkpt>
      <trkpt lat="48.68597" lon="1.93921">
        <ele>145.86</ele>
        <time>2020-01-11T15:45:42Z</time>
      </trkpt>
      <trkpt lat="48.68594" lon="1.93922">
        <ele>145.68</ele>
        <time>2020-01-11T15:45:47Z</time>
      </trkpt>
      <trkpt lat="48.68588" lon="1.93925">
        <ele>145.97</ele>
        <time>2020-01-11T15:45:52Z</time>
      </trkpt>
      <trkpt lat="48.68583" lon="1.93925">
        <ele>145.81</ele>
        <time>2020-01-11T15:45:57Z</time>
      </trkpt>
      <trkpt lat="48.68579" lon="1.93926">
        <ele>145.54</ele>
        <time>2020-01-11T15:46:02Z</time>
      </trkpt>
      <trkpt lat="48.68575" lon="1.93931">
        <ele>145.21</ele>
        <time>2020-01-11T15:46:07Z</time>
      </trkpt>
      <trkpt lat="48.68571" lon="1.93932">
        <ele>144.88</ele>
        <time>2020-01-11T15:46:12Z</time>
      </trkpt>
      <trkpt lat="48.68565" lon="1.93938">
        <ele>144.44</ele>
        <time>2020-01-11T15:46:17Z</time>
      </trkpt>
      <trkpt lat="48.6856" lon="1.93944">
        <ele>144.03</ele>
        <time>2020-01-11T15:46:22Z</time>
      </trkpt>
      <trkpt lat="48.68555" lon="1.93949">
        <ele>143.6</ele>
        <time>2020-01-11T15:46:27Z</time>
      </trkpt>
      <trkpt lat="48.6855" lon="1.93959">
        <ele>142.88</ele>
        <time>2020-01-11T15:46:32Z</time>
      </trkpt>
      <trkpt lat="48.68545" lon="1.93964">
        <ele>142.08</ele>
        <time>2020-01-11T15:46:37Z</time>
      </trkpt>
      <trkpt lat="48.68541" lon="1.9397">
        <ele>141.45</ele>
        <time>2020-01-11T15:46:42Z</time>
      </trkpt>
      <trkpt lat="48.68537" lon="1.93975">
        <ele>140.89</ele>
        <time>2020-01-11T15:46:47Z</time>
      </trkpt>
      <trkpt lat="48.68533" lon="1.93982">
        <ele>140.51</ele>
        <time>2020-01-11T15:46:52Z</time>
      </trkpt>
      <trkpt lat="48.68527" lon="1.93985">
        <ele>140.32</ele>
        <time>2020-01-11T15:46:57Z</time>
      </trkpt>
      <trkpt lat="48.68523" lon="1.93987">
        <ele>140.09</ele>
        <time>2020-01-11T15:47:02Z</time>
      </trkpt>
      <trkpt lat="48.68519" lon="1.93991">
        <ele>139.92</ele>
        <time>2020-01-11T15:47:07Z</time>
      </trkpt>
      <trkpt lat="48.68514" lon="1.93995">
        <ele>139.82</ele>
        <time>2020-01-11T15:47:12Z</time>
      </trkpt>
      <trkpt lat="48.6851" lon="1.93998">
        <ele>139.81</ele>
        <time>2020-01-11T15:47:17Z</time>
      </trkpt>
      <trkpt lat="48.68507" lon="1.94002">
        <ele>140.02</ele>
        <time>2020-01-11T15:47:22Z</time>
      </trkpt>
      <trkpt lat="48.68501" lon="1.94002">
        <ele>140.21</ele>
        <time>2020-01-11T15:47:27Z</time>
      </trkpt>
      <trkpt lat="48.68498" lon="1.94002">
        <ele>140.35</ele>
        <time>2020-01-11T15:47:32Z</time>
      </trkpt>
      <trkpt lat="48.68497" lon="1.93999">
        <ele>140.38</ele>
        <time>2020-01-11T15:47:37Z</time>
      </trkpt>
      <trkpt lat="48.68498" lon="1.93994">
        <ele>140.09</ele>
        <time>2020-01-11T15:47:42Z</time>
      </trkpt>
      <trkpt lat="48.68499" lon="1.93989">
        <ele>139.27</ele>
        <time>2020-01-11T15:47:47Z</time>
      </trkpt>
      <trkpt lat="48.68497" lon="1.93986">
        <ele>138.43</ele>
        <time>2020-01-11T15:47:52Z</time>
      </trkpt>
      <trkpt lat="48.68495" lon="1.93983">
        <ele>137.24</ele>
        <time>2020-01-11T15:47:57Z</time>
      </trkpt>
      <trkpt lat="48.68492" lon="1.9398">
        <ele>136.29</ele>
        <time>2020-01-11T15:48:02Z</time>
      </trkpt>
      <trkpt lat="48.6849" lon="1.93978">
        <ele>135.15</ele>
        <time>2020-01-11T15:48:07Z</time>
      </trkpt>
      <trkpt lat="48.68487" lon="1.93977">
        <ele>133.49</ele>
        <time>2020-01-11T15:48:12Z</time>
      </trkpt>
      <trkpt lat="48.68483" lon="1.93977">
        <ele>131.76</ele>
        <time>2020-01-11T15:48:17Z</time>
      </trkpt>
      <trkpt lat="48.68478" lon="1.93977">
        <ele>130</ele>
        <time>2020-01-11T15:48:22Z</time>
      </trkpt>
      <trkpt lat="48.68474" lon="1.93977">
        <ele>128.18</ele>
        <time>2020-01-11T15:48:27Z</time>
      </trkpt>
      <trkpt lat="48.68472" lon="1.93976">
        <ele>126.59</ele>
        <time>2020-01-11T15:48:32Z</time>
      </trkpt>
      <trkpt lat="48.68469" lon="1.93973">
        <ele>125.26</ele>
        <time>2020-01-11T15:48:37Z</time>
      </trkpt>
      <trkpt lat="48.68467" lon="1.93967">
        <ele>124.01</ele>
        <time>2020-01-11T15:48:42Z</time>
      </trkpt>
      <trkpt lat="48.68467" lon="1.93963">
        <ele>122.41</ele>
        <time>2020-01-11T15:48:47Z</time>
      </trkpt>
      <trkpt lat="48.68468" lon="1.9396">
        <ele>121.19</ele>
        <time>2020-01-11T15:48:52Z</time>
      </trkpt>
      <trkpt lat="48.68469" lon="1.93958">
        <ele>120.03</ele>
        <time>2020-01-11T15:48:57Z</time>
      </trkpt>
      <trkpt lat="48.68469" lon="1.93955">
        <ele>118.83</ele>
        <time>2020-01-11T15:49:02Z</time>
      </trkpt>
      <trkpt lat="48.68468" lon="1.93954">
        <ele>117.81</ele>
        <time>2020-01-11T15:49:07Z</time>
      </trkpt>
      <trkpt lat="48.68469" lon="1.9395">
        <ele>116.66</ele>
        <time>2020-01-11T15:49:12Z</time>
      </trkpt>
      <trkpt lat="48.6847" lon="1.93945">
        <ele>115.65</ele>
        <time>2020-01-11T15:49:17Z</time>
      </trkpt>
      <trkpt lat="48.68471" lon="1.93939">
        <ele>114.64</ele>
        <time>2020-01-11T15:49:22Z</time>
      </trkpt>
      <trkpt lat="48.68474" lon="1.93935">
        <ele>113.92</ele>
        <time>2020-01-11T15:49:27Z</time>
      </trkpt>
      <trkpt lat="48.68476" lon="1.93931">
        <ele>114.16</ele>
        <time>2020-01-11T15:49:32Z</time>
      </trkpt>
      <trkpt lat="48.68478" lon="1.93928">
        <ele>114.97</ele>
        <time>2020-01-11T15:49:37Z</time>
      </trkpt>
      <trkpt lat="48.68479" lon="1.93926">
        <ele>116</ele>
        <time>2020-01-11T15:49:42Z</time>
      </trkpt>
      <trkpt lat="48.6848" lon="1.93922">
        <ele>117.3</ele>
        <time>2020-01-11T15:49:47Z</time>
      </trkpt>
      <trkpt lat="48.68481" lon="1.93917">
        <ele>118.11</ele>
        <time>2020-01-11T15:49:52Z</time>
      </trkpt>
      <trkpt lat="48.68483" lon="1.93913">
        <ele>118.27</ele>
        <time>2020-01-11T15:49:57Z</time>
      </trkpt>
      <trkpt lat="48.68487" lon="1.93909">
        <ele>117.86</ele>
        <time>2020-01-11T15:50:02Z</time>
      </trkpt>
      <trkpt lat="48.68489" lon="1.93909">
        <ele>117.4</ele>
        <time>2020-01-11T15:50:07Z</time>
      </trkpt>
      <trkpt lat="48.6849" lon="1.93904">
        <ele>117.38</ele>
        <time>2020-01-11T15:50:12Z</time>
      </trkpt>
      <trkpt lat="48.68495" lon="1.93897">
        <ele>117.56</ele>
        <time>2020-01-11T15:50:17Z</time>
      </trkpt>
      <trkpt lat="48.68501" lon="1.93893">
        <ele>118.15</ele>
        <time>2020-01-11T15:50:22Z</time>
      </trkpt>
      <trkpt lat="48.68506" lon="1.9389">
        <ele>119.1</ele>
        <time>2020-01-11T15:50:27Z</time>
      </trkpt>
      <trkpt lat="48.6851" lon="1.93886">
        <ele>119.77</ele>
        <time>2020-01-11T15:50:32Z</time>
      </trkpt>
      <trkpt lat="48.68516" lon="1.93884">
        <ele>120.04</ele>
        <time>2020-01-11T15:50:37Z</time>
      </trkpt>
      <trkpt lat="48.6852" lon="1.9388">
        <ele>120.52</ele>
        <time>2020-01-11T15:50:42Z</time>
      </trkpt>
      <trkpt lat="48.68525" lon="1.93877">
        <ele>121.04</ele>
        <time>2020-01-11T15:50:47Z</time>
      </trkpt>
      <trkpt lat="48.6853" lon="1.93879">
        <ele>121.14</ele>
        <time>2020-01-11T15:50:52Z</time>
      </trkpt>
      <trkpt lat="48.68535" lon="1.93874">
        <ele>120.94</ele>
        <time>2020-01-11T15:50:57Z</time>
      </trkpt>
      <trkpt lat="48.68538" lon="1.93869">
        <ele>120.76</ele>
        <time>2020-01-11T15:51:02Z</time>
      </trkpt>
      <trkpt lat="48.68543" lon="1.93866">
        <ele>121.42</ele>
        <time>2020-01-11T15:51:07Z</time>
      </trkpt>
      <trkpt lat="48.68547" lon="1.93859">
        <ele>122.53</ele>
        <time>2020-01-11T15:51:12Z</time>
      </trkpt>
      <trkpt lat="48.6855" lon="1.9385">
        <ele>123.05</ele>
        <time>2020-01-11T15:51:17Z</time>
      </trkpt>
      <trkpt lat="48.68553" lon="1.93843">
        <ele>123.18</ele>
        <time>2020-01-11T15:51:22Z</time>
      </trkpt>
      <trkpt lat="48.68556" lon="1.93836">
        <ele>123.51</ele>
        <time>2020-01-11T15:51:27Z</time>
      </trkpt>
      <trkpt lat="48.6856" lon="1.93827">
        <ele>124.36</ele>
        <time>2020-01-11T15:51:32Z</time>
      </trkpt>
      <trkpt lat="48.68562" lon="1.93822">
        <ele>125.37</ele>
        <time>2020-01-11T15:51:37Z</time>
      </trkpt>
      <trkpt lat="48.68564" lon="1.93817">
        <ele>126.17</ele>
        <time>2020-01-11T15:51:42Z</time>
      </trkpt>
      <trkpt lat="48.68567" lon="1.93812">
        <ele>126.44</ele>
        <time>2020-01-11T15:51:47Z</time>
      </trkpt>
      <trkpt lat="48.68566" lon="1.93813">
        <ele>126.29</ele>
        <time>2020-01-11T15:51:52Z</time>
      </trkpt>
      <trkpt lat="48.68568" lon="1.93807">
        <ele>125.85</ele>
        <time>2020-01-11T15:51:57Z</time>
      </trkpt>
      <trkpt lat="48.6857" lon="1.938">
        <ele>125.46</ele>
        <time>2020-01-11T15:52:02Z</time>
      </trkpt>
      <trkpt lat="48.68574" lon="1.93797">
        <ele>124.73</ele>
        <time>2020-01-11T15:52:07Z</time>
      </trkpt>
      <trkpt lat="48.68576" lon="1.93792">
        <ele>124.25</ele>
        <time>2020-01-11T15:52:12Z</time>
      </trkpt>
      <trkpt lat="48.68584" lon="1.93788">
        <ele>123.87</ele>
        <time>2020-01-11T15:52:17Z</time>
      </trkpt>
      <trkpt lat="48.68588" lon="1.9378">
        <ele>123.23</ele>
        <time>2020-01-11T15:52:22Z</time>
      </trkpt>
      <trkpt lat="48.68593" lon="1.93777">
        <ele>122.24</ele>
        <time>2020-01-11T15:52:27Z</time>
      </trkpt>
      <trkpt lat="48.68597" lon="1.93769">
        <ele>121.25</ele>
        <time>2020-01-11T15:52:32Z</time>
      </trkpt>
      <trkpt lat="48.68599" lon="1.93762">
        <ele>119.81</ele>
        <time>2020-01-11T15:52:37Z</time>
      </trkpt>
      <trkpt lat="48.68598" lon="1.93756">
        <ele>118.44</ele>
        <time>2020-01-11T15:52:42Z</time>
      </trkpt>
      <trkpt lat="48.68596" lon="1.93751">
        <ele>117.09</ele>
        <time>2020-01-11T15:52:47Z</time>
      </trkpt>
      <trkpt lat="48.68592" lon="1.93745">
        <ele>116.06</ele>
        <time>2020-01-11T15:52:52Z</time>
      </trkpt>
      <trkpt lat="48.68588" lon="1.9374">
        <ele>114.86</ele>
        <time>2020-01-11T15:52:57Z</time>
      </trkpt>
      <trkpt lat="48.68584" lon="1.93737">
        <ele>113.58</ele>
        <time>2020-01-11T15:53:02Z</time>
      </trkpt>
      <trkpt lat="48.68579" lon="1.93735">
        <ele>112.59</ele>
        <time>2020-01-11T15:53:07Z</time>
      </trkpt>
      <trkpt lat="48.68575" lon="1.93731">
        <ele>111.75</ele>
        <time>2020-01-11T15:53:12Z</time>
      </trkpt>
      <trkpt lat="48.68573" lon="1.93729">
        <ele>111.12</ele>
        <time>2020-01-11T15:53:17Z</time>
      </trkpt>
      <trkpt lat="48.6857" lon="1.93723">
        <ele>110.55</ele>
        <time>2020-01-11T15:53:22Z</time>
      </trkpt>
      <trkpt lat="48.68569" lon="1.93718">
        <ele>109.6</ele>
        <time>2020-01-11T15:53:27Z</time>
      </trkpt>
      <trkpt lat="48.68566" lon="1.93711">
        <ele>108.28</ele>
        <time>2020-01-11T15:53:32Z</time>
      </trkpt>
      <trkpt lat="48.68563" lon="1.9371">
        <ele>106.38</ele>
        <time>2020-01-11T15:53:37Z</time>
      </trkpt>
      <trkpt lat="48.68559" lon="1.93711">
        <ele>104.65</ele>
        <time>2020-01-11T15:53:42Z</time>
      </trkpt>
      <trkpt lat="48.68553" lon="1.93711">
        <ele>102.88</ele>
        <time>2020-01-11T15:53:47Z</time>
      </trkpt>
      <trkpt lat="48.68548" lon="1.93713">
        <ele>101.73</ele>
        <time>2020-01-11T15:53:52Z</time>
      </trkpt>
      <trkpt lat="48.68542" lon="1.93712">
        <ele>100.58</ele>
        <time>2020-01-11T15:53:57Z</time>
      </trkpt>
      <trkpt lat="48.68538" lon="1.93713">
        <ele>99.73</ele>
        <time>2020-01-11T15:54:02Z</time>
      </trkpt>
      <trkpt lat="48.68533" lon="1.93717">
        <ele>98.99</ele>
        <time>2020-01-11T15:54:07Z</time>
      </trkpt>
      <trkpt lat="48.6853" lon="1.93717">
        <ele>98.28</ele>
        <time>2020-01-11T15:54:12Z</time>
      </trkpt>
      <trkpt lat="48.68527" lon="1.93712">
        <ele>97.88</ele>
        <time>2020-01-11T15:54:17Z</time>
      </trkpt>
      <trkpt lat="48.68523" lon="1.93708">
        <ele>97.31</ele>
        <time>2020-01-11T15:54:22Z</time>
      </trkpt>
      <trkpt lat="48.68521" lon="1.93708">
        <ele>96.89</ele>
        <time>2020-01-11T15:54:27Z</time>
      </trkpt>
      <trkpt lat="48.68517" lon="1.93711">
        <ele>96.77</ele>
        <time>2020-01-11T15:54:32Z</time>
      </trkpt>
      <trkpt lat="48.68513" lon="1.93713">
        <ele>96.58</ele>
        <time>2020-01-11T15:54:37Z</time>
      </trkpt>
      <trkpt lat="48.68509" lon="1.9371">
        <ele>96.66</ele>
        <time>2020-01-11T15:54:42Z</time>
      </trkpt>
      <trkpt lat="48.68507" lon="1.93706">
        <ele>96.68</ele>
        <time>2020-01-11T15:54:47Z</time>
      </trkpt>
      <trkpt lat="48.68506" lon="1.93702">
        <ele>96.67</ele>
        <time>2020-01-11T15:54:52Z</time>
      </trkpt>
      <trkpt lat="48.68508" lon="1.937">
        <ele>96.65</ele>
        <time>2020-01-11T15:54:57Z</time>
      </trkpt>
      <trkpt lat="48.68509" lon="1.93701">
        <ele>96.61</ele>
        <time>2020-01-11T15:55:02Z</time>
      </trkpt>
      <trkpt lat="48.6851" lon="1.93699">
        <ele>96.58</ele>
        <time>2020-01-11T15:55:07Z</time>
      </trkpt>
      <trkpt lat="48.68511" lon="1.93698">
        <ele>96.6</ele>
        <time>2020-01-11T15:55:12Z</time>
      </trkpt>
      <trkpt lat="48.68511" lon="1.93699">
        <ele>96.57</ele>
        <time>2020-01-11T15:55:17Z</time>
      </trkpt>
      <trkpt lat="48.68511" lon="1.937">
        <ele>96.64</ele>
        <time>2020-01-11T15:55:22Z</time>
      </trkpt>
      <trkpt lat="48.68511" lon="1.937">
        <ele>96.66</ele>
        <time>2020-01-11T15:55:27Z</time>
      </trkpt>
      <trkpt lat="48.68511" lon="1.937">
        <ele>96.67</ele>
        <time>2020-01-11T15:55:32Z</time>
      </trkpt>
      <trkpt lat="48.68512" lon="1.937">
        <ele>96.6</ele>
        <time>2020-01-11T15:55:37Z</time>
      </trkpt>
      <trkpt lat="48.68512" lon="1.937">
        <ele>96.61</ele>
        <time>2020-01-11T15:55:42Z</time>
      </trkpt>
      <trkpt lat="48.68511" lon="1.937">
        <ele>96.62</ele>
        <time>2020-01-11T15:55:47Z</time>
      </trkpt>
      <trkpt lat="48.68511" lon="1.937">
        <ele>96.67</ele>
        <time>2020-01-11T15:55:52Z</time>
      </trkpt>
      <trkpt lat="48.68511" lon="1.93699">
        <ele>96.65</ele>
        <time>2020-01-11T15:55:57Z</time>
      </trkpt>
      <trkpt lat="48.68511" lon="1.93698">
        <ele>96.65</ele>
        <time>2020-01-11T15:56:02Z</time>
      </trkpt>
      <trkpt lat="48.68512" lon="1.93696">
        <ele>96.75</ele>
        <time>2020-01-11T15:56:07Z</time>
      </trkpt>
      <trkpt lat="48.68512" lon="1.93695">
        <ele>96.88</ele>
        <time>2020-01-11T15:56:12Z</time>
      </trkpt>
      <trkpt lat="48.68512" lon="1.93693">
        <ele>96.88</ele>
        <time>2020-01-11T15:56:17Z</time>
      </trkpt>
      <trkpt lat="48.68512" lon="1.93691">
        <ele>96.8</ele>
        <time>2020-01-11T15:56:22Z</time>
      </trkpt>
      <trkpt lat="48.68513" lon="1.9369">
        <ele>96.57</ele>
        <time>2020-01-11T15:56:27Z</time>
      </trkpt>
      <trkpt lat="48.68512" lon="1.9369">
        <ele>96.57</ele>
        <time>2020-01-11T15:56:32Z</time>
      </trkpt>
      <trkpt lat="48.68513" lon="1.93687">
        <ele>96.54</ele>
        <time>2020-01-11T15:56:37Z</time>
      </trkpt>
      <trkpt lat="48.68514" lon="1.93687">
        <ele>96.7</ele>
        <time>2020-01-11T15:56:42Z</time>
      </trkpt>
      <trkpt lat="48.68515" lon="1.93686">
        <ele>96.84</ele>
        <time>2020-01-11T15:56:47Z</time>
      </trkpt>
      <trkpt lat="48.68515" lon="1.93686">
        <ele>97.02</ele>
        <time>2020-01-11T15:56:52Z</time>
      </trkpt>
      <trkpt lat="48.68515" lon="1.93684">
        <ele>97.05</ele>
        <time>2020-01-11T15:56:57Z</time>
      </trkpt>
      <trkpt lat="48.68516" lon="1.93681">
        <ele>97.08</ele>
        <time>2020-01-11T15:57:02Z</time>
      </trkpt>
      <trkpt lat="48.68515" lon="1.93675">
        <ele>97.16</ele>
        <time>2020-01-11T15:57:07Z</time>
      </trkpt>
      <trkpt lat="48.68516" lon="1.93668">
        <ele>97.29</ele>
        <time>2020-01-11T15:57:12Z</time>
      </trkpt>
      <trkpt lat="48.68517" lon="1.93662">
        <ele>97.44</ele>
        <time>2020-01-11T15:57:17Z</time>
      </trkpt>
      <trkpt lat="48.68519" lon="1.93654">
        <ele>97.44</ele>
        <time>2020-01-11T15:57:22Z</time>
      </trkpt>
      <trkpt lat="48.68521" lon="1.93645">
        <ele>97.54</ele>
        <time>2020-01-11T15:57:27Z</time>
      </trkpt>
      <trkpt lat="48.68523" lon="1.93636">
        <ele>97.66</ele>
        <time>2020-01-11T15:57:32Z</time>
      </trkpt>
      <trkpt lat="48.68525" lon="1.93627">
        <ele>97.58</ele>
        <time>2020-01-11T15:57:37Z</time>
      </trkpt>
      <trkpt lat="48.68527" lon="1.9362">
        <ele>97.58</ele>
        <time>2020-01-11T15:57:42Z</time>
      </trkpt>
      <trkpt lat="48.68531" lon="1.93615">
        <ele>97.61</ele>
        <time>2020-01-11T15:57:47Z</time>
      </trkpt>
      <trkpt lat="48.68537" lon="1.93609">
        <ele>97.86</ele>
        <time>2020-01-11T15:57:52Z</time>
      </trkpt>
      <trkpt lat="48.6854" lon="1.93602">
        <ele>98.05</ele>
        <time>2020-01-11T15:57:57Z</time>
      </trkpt>
      <trkpt lat="48.68544" lon="1.93598">
        <ele>98.12</ele>
        <time>2020-01-11T15:58:02Z</time>
      </trkpt>
      <trkpt lat="48.68548" lon="1.93591">
        <ele>98.08</ele>
        <time>2020-01-11T15:58:07Z</time>
      </trkpt>
      <trkpt lat="48.68553" lon="1.93584">
        <ele>97.99</ele>
        <time>2020-01-11T15:58:12Z</time>
      </trkpt>
      <trkpt lat="48.68556" lon="1.93573">
        <ele>98.1</ele>
        <time>2020-01-11T15:58:17Z</time>
      </trkpt>
      <trkpt lat="48.6856" lon="1.93563">
        <ele>98.3</ele>
        <time>2020-01-11T15:58:22Z</time>
      </trkpt>
      <trkpt lat="48.68563" lon="1.93555">
        <ele>98.62</ele>
        <time>2020-01-11T15:58:27Z</time>
      </trkpt>
      <trkpt lat="48.68567" lon="1.93552">
        <ele>98.95</ele>
        <time>2020-01-11T15:58:32Z</time>
      </trkpt>
      <trkpt lat="48.68568" lon="1.9355">
        <ele>99</ele>
        <time>2020-01-11T15:58:37Z</time>
      </trkpt>
      <trkpt lat="48.68569" lon="1.93547">
        <ele>99.17</ele>
        <time>2020-01-11T15:58:42Z</time>
      </trkpt>
      <trkpt lat="48.68569" lon="1.93547">
        <ele>99.28</ele>
        <time>2020-01-11T15:58:47Z</time>
      </trkpt>
      <trkpt lat="48.68569" lon="1.93547">
        <ele>99.45</ele>
        <time>2020-01-11T15:58:52Z</time>
      </trkpt>
      <trkpt lat="48.68571" lon="1.93548">
        <ele>99.42</ele>
        <time>2020-01-11T15:58:57Z</time>
      </trkpt>
      <trkpt lat="48.68572" lon="1.93549">
        <ele>99.36</ele>
        <time>2020-01-11T15:59:02Z</time>
      </trkpt>
      <trkpt lat="48.68574" lon="1.93548">
        <ele>99.36</ele>
        <time>2020-01-11T15:59:07Z</time>
      </trkpt>
      <trkpt lat="48.68572" lon="1.93545">
        <ele>99.36</ele>
        <time>2020-01-11T15:59:12Z</time>
      </trkpt>
      <trkpt lat="48.68573" lon="1.9354">
        <ele>99.56</ele>
        <time>2020-01-11T15:59:17Z</time>
      </trkpt>
      <trkpt lat="48.68572" lon="1.93534">
        <ele>99.92</ele>
        <time>2020-01-11T15:59:22Z</time>
      </trkpt>
      <trkpt lat="48.68573" lon="1.93528">
        <ele>100.37</ele>
        <time>2020-01-11T15:59:27Z</time>
      </trkpt>
      <trkpt lat="48.68574" lon="1.9352">
        <ele>100.78</ele>
        <time>2020-01-11T15:59:32Z</time>
      </trkpt>
      <trkpt lat="48.68574" lon="1.93513">
        <ele>101.07</ele>
        <time>2020-01-11T15:59:37Z</time>
      </trkpt>
      <trkpt lat="48.68574" lon="1.93502">
        <ele>101.56</ele>
        <time>2020-01-11T15:59:42Z</time>
      </trkpt>
      <trkpt lat="48.68575" lon="1.93495">
        <ele>101.81</ele>
        <time>2020-01-11T15:59:47Z</time>
      </trkpt>
      <trkpt lat="48.68576" lon="1.9349">
        <ele>101.93</ele>
        <time>2020-01-11T15:59:52Z</time>
      </trkpt>
      <trkpt lat="48.68577" lon="1.93485">
        <ele>102.1</ele>
        <time>2020-01-11T15:59:57Z</time>
      </trkpt>
      <trkpt lat="48.6858" lon="1.93479">
        <ele>102.55</ele>
        <time>2020-01-11T16:00:02Z</time>
      </trkpt>
      <trkpt lat="48.68583" lon="1.93474">
        <ele>102.88</ele>
        <time>2020-01-11T16:00:07Z</time>
      </trkpt>
      <trkpt lat="48.68587" lon="1.93468">
        <ele>103.22</ele>
        <time>2020-01-11T16:00:12Z</time>
      </trkpt>
      <trkpt lat="48.6859" lon="1.93462">
        <ele>103.87</ele>
        <time>2020-01-11T16:00:17Z</time>
      </trkpt>
      <trkpt lat="48.68593" lon="1.93457">
        <ele>104.44</ele>
        <time>2020-01-11T16:00:22Z</time>
      </trkpt>
      <trkpt lat="48.68596" lon="1.93452">
        <ele>104.83</ele>
        <time>2020-01-11T16:00:27Z</time>
      </trkpt>
      <trkpt lat="48.68598" lon="1.93447">
        <ele>105.3</ele>
        <time>2020-01-11T16:00:32Z</time>
      </trkpt>
      <trkpt lat="48.68601" lon="1.93443">
        <ele>105.94</ele>
        <time>2020-01-11T16:00:37Z</time>
      </trkpt>
      <trkpt lat="48.68605" lon="1.93436">
        <ele>106.38</ele>
        <time>2020-01-11T16:00:42Z</time>
      </trkpt>
      <trkpt lat="48.68609" lon="1.93432">
        <ele>106.83</ele>
        <time>2020-01-11T16:00:47Z</time>
      </trkpt>
      <trkpt lat="48.68614" lon="1.93425">
        <ele>107.5</ele>
        <time>2020-01-11T16:00:52Z</time>
      </trkpt>
      <trkpt lat="48.68618" lon="1.93417">
        <ele>108.09</ele>
        <time>2020-01-11T16:00:57Z</time>
      </trkpt>
      <trkpt lat="48.6862" lon="1.93412">
        <ele>108.77</ele>
        <time>2020-01-11T16:01:02Z</time>
      </trkpt>
      <trkpt lat="48.68622" lon="1.93403">
        <ele>109.19</ele>
        <time>2020-01-11T16:01:07Z</time>
      </trkpt>
      <trkpt lat="48.68627" lon="1.93394">
        <ele>109.41</ele>
        <time>2020-01-11T16:01:12Z</time>
      </trkpt>
      <trkpt lat="48.68633" lon="1.93388">
        <ele>109.43</ele>
        <time>2020-01-11T16:01:17Z</time>
      </trkpt>
      <trkpt lat="48.68637" lon="1.93387">
        <ele>109.45</ele>
        <time>2020-01-11T16:01:22Z</time>
      </trkpt>
      <trkpt lat="48.68641" lon="1.93384">
        <ele>109.22</ele>
        <time>2020-01-11T16:01:27Z</time>
      </trkpt>
      <trkpt lat="48.68646" lon="1.93381">
        <ele>108.72</ele>
        <time>2020-01-11T16:01:32Z</time>
      </trkpt>
      <trkpt lat="48.6865" lon="1.93381">
        <ele>108.21</ele>
        <time>2020-01-11T16:01:37Z</time>
      </trkpt>
      <trkpt lat="48.68654" lon="1.93376">
        <ele>107.82</ele>
        <time>2020-01-11T16:01:42Z</time>
      </trkpt>
      <trkpt lat="48.6866" lon="1.93372">
        <ele>107.47</ele>
        <time>2020-01-11T16:01:47Z</time>
      </trkpt>
      <trkpt lat="48.68664" lon="1.9336">
        <ele>107.2</ele>
        <time>2020-01-11T16:01:52Z</time>
      </trkpt>
      <trkpt lat="48.68665" lon="1.93347">
        <ele>106.95</ele>
        <time>2020-01-11T16:01:57Z</time>
      </trkpt>
      <trkpt lat="48.68666" lon="1.93338">
        <ele>106.78</ele>
        <time>2020-01-11T16:02:02Z</time>
      </trkpt>
      <trkpt lat="48.68665" lon="1.93331">
        <ele>106.79</ele>
        <time>2020-01-11T16:02:07Z</time>
      </trkpt>
      <trkpt lat="48.68661" lon="1.93319">
        <ele>106.82</ele>
        <time>2020-01-11T16:02:12Z</time>
      </trkpt>
      <trkpt lat="48.68661" lon="1.93309">
        <ele>106.74</ele>
        <time>2020-01-11T16:02:17Z</time>
      </trkpt>
      <trkpt lat="48.6866" lon="1.93299">
        <ele>106.57</ele>
        <time>2020-01-11T16:02:22Z</time>
      </trkpt>
      <trkpt lat="48.6866" lon="1.93292">
        <ele>106.49</ele>
        <time>2020-01-11T16:02:27Z</time>
      </trkpt>
      <trkpt lat="48.68658" lon="1.93285">
        <ele>106.63</ele>
        <time>2020-01-11T16:02:32Z</time>
      </trkpt>
      <trkpt lat="48.68655" lon="1.93276">
        <ele>106.74</ele>
        <time>2020-01-11T16:02:37Z</time>
      </trkpt>
      <trkpt lat="48.68653" lon="1.93266">
        <ele>107.09</ele>
        <time>2020-01-11T16:02:42Z</time>
      </trkpt>
      <trkpt lat="48.68651" lon="1.93255">
        <ele>107.49</ele>
        <time>2020-01-11T16:02:47Z</time>
      </trkpt>
      <trkpt lat="48.68649" lon="1.93249">
        <ele>107.62</ele>
        <time>2020-01-11T16:02:52Z</time>
      </trkpt>
      <trkpt lat="48.68647" lon="1.93238">
        <ele>107.63</ele>
        <time>2020-01-11T16:02:57Z</time>
      </trkpt>
      <trkpt lat="48.68647" lon="1.9323">
        <ele>107.95</ele>
        <time>2020-01-11T16:03:02Z</time>
      </trkpt>
      <trkpt lat="48.68646" lon="1.93222">
        <ele>108.22</ele>
        <time>2020-01-11T16:03:07Z</time>
      </trkpt>
      <trkpt lat="48.68648" lon="1.93215">
        <ele>108.41</ele>
        <time>2020-01-11T16:03:12Z</time>
      </trkpt>
      <trkpt lat="48.6865" lon="1.93207">
        <ele>108.4</ele>
        <time>2020-01-11T16:03:17Z</time>
      </trkpt>
      <trkpt lat="48.6865" lon="1.93199">
        <ele>108.51</ele>
        <time>2020-01-11T16:03:22Z</time>
      </trkpt>
      <trkpt lat="48.68651" lon="1.93188">
        <ele>108.72</ele>
        <time>2020-01-11T16:03:27Z</time>
      </trkpt>
      <trkpt lat="48.68652" lon="1.93179">
        <ele>108.93</ele>
        <time>2020-01-11T16:03:32Z</time>
      </trkpt>
      <trkpt lat="48.68656" lon="1.93169">
        <ele>109.01</ele>
        <time>2020-01-11T16:03:37Z</time>
      </trkpt>
      <trkpt lat="48.68657" lon="1.93162">
        <ele>109.01</ele>
        <time>2020-01-11T16:03:42Z</time>
      </trkpt>
      <trkpt lat="48.6866" lon="1.93153">
        <ele>109.23</ele>
        <time>2020-01-11T16:03:47Z</time>
      </trkpt>
      <trkpt lat="48.68662" lon="1.93145">
        <ele>109.34</ele>
        <time>2020-01-11T16:03:52Z</time>
      </trkpt>
      <trkpt lat="48.68665" lon="1.93138">
        <ele>109.36</ele>
        <time>2020-01-11T16:03:57Z</time>
      </trkpt>
      <trkpt lat="48.68667" lon="1.93127">
        <ele>109.23</ele>
        <time>2020-01-11T16:04:02Z</time>
      </trkpt>
      <trkpt lat="48.68667" lon="1.93114">
        <ele>109.01</ele>
        <time>2020-01-11T16:04:07Z</time>
      </trkpt>
      <trkpt lat="48.68667" lon="1.93106">
        <ele>108.76</ele>
        <time>2020-01-11T16:04:12Z</time>
      </trkpt>
      <trkpt lat="48.68669" lon="1.93099">
        <ele>108.39</ele>
        <time>2020-01-11T16:04:17Z</time>
      </trkpt>
      <trkpt lat="48.68671" lon="1.9309">
        <ele>108.33</ele>
        <time>2020-01-11T16:04:22Z</time>
      </trkpt>
      <trkpt lat="48.68673" lon="1.93081">
        <ele>108.32</ele>
        <time>2020-01-11T16:04:27Z</time>
      </trkpt>
      <trkpt lat="48.68675" lon="1.93074">
        <ele>108.44</ele>
        <time>2020-01-11T16:04:32Z</time>
      </trkpt>
      <trkpt lat="48.68674" lon="1.93065">
        <ele>108.23</ele>
        <time>2020-01-11T16:04:37Z</time>
      </trkpt>
      <trkpt lat="48.68674" lon="1.93055">
        <ele>108.32</ele>
        <time>2020-01-11T16:04:42Z</time>
      </trkpt>
      <trkpt lat="48.68674" lon="1.93045">
        <ele>108.19</ele>
        <time>2020-01-11T16:04:47Z</time>
      </trkpt>
      <trkpt lat="48.68677" lon="1.93036">
        <ele>108.07</ele>
        <time>2020-01-11T16:04:52Z</time>
      </trkpt>
      <trkpt lat="48.68679" lon="1.93028">
        <ele>108.09</ele>
        <time>2020-01-11T16:04:57Z</time>
      </trkpt>
      <trkpt lat="48.68681" lon="1.93022">
        <ele>108.08</ele>
        <time>2020-01-11T16:05:02Z</time>
      </trkpt>
      <trkpt lat="48.68682" lon="1.93013">
        <ele>108.07</ele>
        <time>2020-01-11T16:05:07Z</time>
      </trkpt>
      <trkpt lat="48.68684" lon="1.93004">
        <ele>107.83</ele>
        <time>2020-01-11T16:05:12Z</time>
      </trkpt>
      <trkpt lat="48.68688" lon="1.92996">
        <ele>107.49</ele>
        <time>2020-01-11T16:05:17Z</time>
      </trkpt>
      <trkpt lat="48.6869" lon="1.92986">
        <ele>107.03</ele>
        <time>2020-01-11T16:05:22Z</time>
      </trkpt>
      <trkpt lat="48.68692" lon="1.92978">
        <ele>106.71</ele>
        <time>2020-01-11T16:05:27Z</time>
      </trkpt>
      <trkpt lat="48.68694" lon="1.92971">
        <ele>106.43</ele>
        <time>2020-01-11T16:05:32Z</time>
      </trkpt>
      <trkpt lat="48.68696" lon="1.92966">
        <ele>106.15</ele>
        <time>2020-01-11T16:05:37Z</time>
      </trkpt>
      <trkpt lat="48.68698" lon="1.92959">
        <ele>106</ele>
        <time>2020-01-11T16:05:42Z</time>
      </trkpt>
      <trkpt lat="48.68703" lon="1.92947">
        <ele>105.98</ele>
        <time>2020-01-11T16:05:47Z</time>
      </trkpt>
      <trkpt lat="48.68707" lon="1.92938">
        <ele>105.75</ele>
        <time>2020-01-11T16:05:52Z</time>
      </trkpt>
      <trkpt lat="48.68714" lon="1.92927">
        <ele>105.61</ele>
        <time>2020-01-11T16:05:57Z</time>
      </trkpt>
      <trkpt lat="48.68718" lon="1.92918">
        <ele>105.55</ele>
        <time>2020-01-11T16:06:02Z</time>
      </trkpt>
      <trkpt lat="48.68721" lon="1.92904">
        <ele>105.64</ele>
        <time>2020-01-11T16:06:07Z</time>
      </trkpt>
      <trkpt lat="48.68723" lon="1.92893">
        <ele>105.69</ele>
        <time>2020-01-11T16:06:12Z</time>
      </trkpt>
      <trkpt lat="48.68725" lon="1.92882">
        <ele>105.82</ele>
        <time>2020-01-11T16:06:17Z</time>
      </trkpt>
      <trkpt lat="48.68727" lon="1.92872">
        <ele>105.94</ele>
        <time>2020-01-11T16:06:22Z</time>
      </trkpt>
      <trkpt lat="48.6873" lon="1.92862">
        <ele>106.07</ele>
        <time>2020-01-11T16:06:27Z</time>
      </trkpt>
      <trkpt lat="48.68733" lon="1.92853">
        <ele>106.13</ele>
        <time>2020-01-11T16:06:32Z</time>
      </trkpt>
      <trkpt lat="48.68735" lon="1.92846">
        <ele>106.22</ele>
        <time>2020-01-11T16:06:37Z</time>
      </trkpt>
      <trkpt lat="48.6874" lon="1.92838">
        <ele>106.33</ele>
        <time>2020-01-11T16:06:42Z</time>
      </trkpt>
      <trkpt lat="48.68743" lon="1.92831">
        <ele>106.54</ele>
        <time>2020-01-11T16:06:47Z</time>
      </trkpt>
      <trkpt lat="48.68747" lon="1.92822">
        <ele>106.68</ele>
        <time>2020-01-11T16:06:52Z</time>
      </trkpt>
      <trkpt lat="48.68749" lon="1.92815">
        <ele>106.82</ele>
        <time>2020-01-11T16:06:57Z</time>
      </trkpt>
      <trkpt lat="48.68753" lon="1.92808">
        <ele>107.01</ele>
        <time>2020-01-11T16:07:02Z</time>
      </trkpt>
      <trkpt lat="48.68756" lon="1.92802">
        <ele>107.1</ele>
        <time>2020-01-11T16:07:07Z</time>
      </trkpt>
      <trkpt lat="48.6876" lon="1.92794">
        <ele>107.28</ele>
        <time>2020-01-11T16:07:12Z</time>
      </trkpt>
      <trkpt lat="48.68763" lon="1.92784">
        <ele>107.3</ele>
        <time>2020-01-11T16:07:17Z</time>
      </trkpt>
      <trkpt lat="48.68767" lon="1.92774">
        <ele>107.23</ele>
        <time>2020-01-11T16:07:22Z</time>
      </trkpt>
      <trkpt lat="48.68769" lon="1.92765">
        <ele>107.26</ele>
        <time>2020-01-11T16:07:27Z</time>
      </trkpt>
      <trkpt lat="48.68773" lon="1.92756">
        <ele>107.41</ele>
        <time>2020-01-11T16:07:32Z</time>
      </trkpt>
      <trkpt lat="48.68777" lon="1.92747">
        <ele>107.46</ele>
        <time>2020-01-11T16:07:37Z</time>
      </trkpt>
      <trkpt lat="48.6878" lon="1.92736">
        <ele>107.53</ele>
        <time>2020-01-11T16:07:42Z</time>
      </trkpt>
      <trkpt lat="48.68782" lon="1.92728">
        <ele>107.68</ele>
        <time>2020-01-11T16:07:47Z</time>
      </trkpt>
      <trkpt lat="48.68785" lon="1.92717">
        <ele>107.89</ele>
        <time>2020-01-11T16:07:52Z</time>
      </trkpt>
      <trkpt lat="48.68786" lon="1.92709">
        <ele>107.94</ele>
        <time>2020-01-11T16:07:57Z</time>
      </trkpt>
      <trkpt lat="48.68787" lon="1.92701">
        <ele>107.96</ele>
        <time>2020-01-11T16:08:02Z</time>
      </trkpt>
      <trkpt lat="48.68788" lon="1.92692">
        <ele>108.07</ele>
        <time>2020-01-11T16:08:07Z</time>
      </trkpt>
      <trkpt lat="48.68792" lon="1.92684">
        <ele>108.2</ele>
        <time>2020-01-11T16:08:12Z</time>
      </trkpt>
      <trkpt lat="48.68796" lon="1.92678">
        <ele>108.25</ele>
        <time>2020-01-11T16:08:17Z</time>
      </trkpt>
      <trkpt lat="48.688" lon="1.92669">
        <ele>108.33</ele>
        <time>2020-01-11T16:08:22Z</time>
      </trkpt>
      <trkpt lat="48.68804" lon="1.92663">
        <ele>108.47</ele>
        <time>2020-01-11T16:08:27Z</time>
      </trkpt>
      <trkpt lat="48.68809" lon="1.92657">
        <ele>108.73</ele>
        <time>2020-01-11T16:08:32Z</time>
      </trkpt>
      <trkpt lat="48.68812" lon="1.9265">
        <ele>108.79</ele>
        <time>2020-01-11T16:08:37Z</time>
      </trkpt>
      <trkpt lat="48.68817" lon="1.92644">
        <ele>108.87</ele>
        <time>2020-01-11T16:08:42Z</time>
      </trkpt>
      <trkpt lat="48.68822" lon="1.92636">
        <ele>109.01</ele>
        <time>2020-01-11T16:08:47Z</time>
      </trkpt>
      <trkpt lat="48.68826" lon="1.9263">
        <ele>108.98</ele>
        <time>2020-01-11T16:08:52Z</time>
      </trkpt>
      <trkpt lat="48.68832" lon="1.92623">
        <ele>109.1</ele>
        <time>2020-01-11T16:08:57Z</time>
      </trkpt>
      <trkpt lat="48.68837" lon="1.92618">
        <ele>109.01</ele>
        <time>2020-01-11T16:09:02Z</time>
      </trkpt>
      <trkpt lat="48.68842" lon="1.92616">
        <ele>109.17</ele>
        <time>2020-01-11T16:09:07Z</time>
      </trkpt>
      <trkpt lat="48.68846" lon="1.92615">
        <ele>109.49</ele>
        <time>2020-01-11T16:09:12Z</time>
      </trkpt>
      <trkpt lat="48.68851" lon="1.92615">
        <ele>109.94</ele>
        <time>2020-01-11T16:09:17Z</time>
      </trkpt>
      <trkpt lat="48.68857" lon="1.92615">
        <ele>110.38</ele>
        <time>2020-01-11T16:09:22Z</time>
      </trkpt>
      <trkpt lat="48.68862" lon="1.92616">
        <ele>110.81</ele>
        <time>2020-01-11T16:09:27Z</time>
      </trkpt>
      <trkpt lat="48.68866" lon="1.9262">
        <ele>111.35</ele>
        <time>2020-01-11T16:09:32Z</time>
      </trkpt>
      <trkpt lat="48.6887" lon="1.92623">
        <ele>111.93</ele>
        <time>2020-01-11T16:09:37Z</time>
      </trkpt>
      <trkpt lat="48.68877" lon="1.92626">
        <ele>112.38</ele>
        <time>2020-01-11T16:09:42Z</time>
      </trkpt>
      <trkpt lat="48.68881" lon="1.92629">
        <ele>113.03</ele>
        <time>2020-01-11T16:09:47Z</time>
      </trkpt>
      <trkpt lat="48.68887" lon="1.92632">
        <ele>113.75</ele>
        <time>2020-01-11T16:09:52Z</time>
      </trkpt>
      <trkpt lat="48.68891" lon="1.92635">
        <ele>114.29</ele>
        <time>2020-01-11T16:09:57Z</time>
      </trkpt>
      <trkpt lat="48.68897" lon="1.92638">
        <ele>114.87</ele>
        <time>2020-01-11T16:10:02Z</time>
      </trkpt>
      <trkpt lat="48.68902" lon="1.92642">
        <ele>115.55</ele>
        <time>2020-01-11T16:10:07Z</time>
      </trkpt>
      <trkpt lat="48.68906" lon="1.92649">
        <ele>116.22</ele>
        <time>2020-01-11T16:10:12Z</time>
      </trkpt>
      <trkpt lat="48.68912" lon="1.92654">
        <ele>116.92</ele>
        <time>2020-01-11T16:10:17Z</time>
      </trkpt>
      <trkpt lat="48.68918" lon="1.92662">
        <ele>117.55</ele>
        <time>2020-01-11T16:10:22Z</time>
      </trkpt>
      <trkpt lat="48.68924" lon="1.92667">
        <ele>118.23</ele>
        <time>2020-01-11T16:10:27Z</time>
      </trkpt>
      <trkpt lat="48.68927" lon="1.92674">
        <ele>118.95</ele>
        <time>2020-01-11T16:10:32Z</time>
      </trkpt>
      <trkpt lat="48.6893" lon="1.92681">
        <ele>119.43</ele>
        <time>2020-01-11T16:10:37Z</time>
      </trkpt>
      <trkpt lat="48.68932" lon="1.92689">
        <ele>120.06</ele>
        <time>2020-01-11T16:10:42Z</time>
      </trkpt>
      <trkpt lat="48.68937" lon="1.92698">
        <ele>120.68</ele>
        <time>2020-01-11T16:10:47Z</time>
      </trkpt>
      <trkpt lat="48.6894" lon="1.92703">
        <ele>121.1</ele>
        <time>2020-01-11T16:10:52Z</time>
      </trkpt>
      <trkpt lat="48.68945" lon="1.92709">
        <ele>121.63</ele>
        <time>2020-01-11T16:10:57Z</time>
      </trkpt>
      <trkpt lat="48.68948" lon="1.92713">
        <ele>122.13</ele>
        <time>2020-01-11T16:11:02Z</time>
      </trkpt>
      <trkpt lat="48.68951" lon="1.92722">
        <ele>122.95</ele>
        <time>2020-01-11T16:11:07Z</time>
      </trkpt>
      <trkpt lat="48.68955" lon="1.92729">
        <ele>123.6</ele>
        <time>2020-01-11T16:11:12Z</time>
      </trkpt>
      <trkpt lat="48.68959" lon="1.92739">
        <ele>124.02</ele>
        <time>2020-01-11T16:11:17Z</time>
      </trkpt>
      <trkpt lat="48.68962" lon="1.92745">
        <ele>124.53</ele>
        <time>2020-01-11T16:11:22Z</time>
      </trkpt>
      <trkpt lat="48.68966" lon="1.92752">
        <ele>125</ele>
        <time>2020-01-11T16:11:27Z</time>
      </trkpt>
      <trkpt lat="48.6897" lon="1.92758">
        <ele>125.58</ele>
        <time>2020-01-11T16:11:32Z</time>
      </trkpt>
      <trkpt lat="48.68973" lon="1.92764">
        <ele>126.06</ele>
        <time>2020-01-11T16:11:37Z</time>
      </trkpt>
      <trkpt lat="48.68978" lon="1.92766">
        <ele>126.74</ele>
        <time>2020-01-11T16:11:42Z</time>
      </trkpt>
      <trkpt lat="48.68982" lon="1.92771">
        <ele>127.34</ele>
        <time>2020-01-11T16:11:47Z</time>
      </trkpt>
      <trkpt lat="48.68987" lon="1.92776">
        <ele>127.91</ele>
        <time>2020-01-11T16:11:52Z</time>
      </trkpt>
      <trkpt lat="48.68993" lon="1.9278">
        <ele>128.48</ele>
        <time>2020-01-11T16:11:57Z</time>
      </trkpt>
      <trkpt lat="48.68997" lon="1.92784">
        <ele>128.96</ele>
        <time>2020-01-11T16:12:02Z</time>
      </trkpt>
      <trkpt lat="48.69002" lon="1.92787">
        <ele>129.33</ele>
        <time>2020-01-11T16:12:07Z</time>
      </trkpt>
      <trkpt lat="48.69006" lon="1.92794">
        <ele>130.04</ele>
        <time>2020-01-11T16:12:12Z</time>
      </trkpt>
      <trkpt lat="48.69008" lon="1.92801">
        <ele>130.57</ele>
        <time>2020-01-11T16:12:17Z</time>
      </trkpt>
      <trkpt lat="48.69012" lon="1.92807">
        <ele>131.06</ele>
        <time>2020-01-11T16:12:22Z</time>
      </trkpt>
      <trkpt lat="48.69015" lon="1.92812">
        <ele>131.53</ele>
        <time>2020-01-11T16:12:27Z</time>
      </trkpt>
      <trkpt lat="48.69022" lon="1.92812">
        <ele>131.9</ele>
        <time>2020-01-11T16:12:32Z</time>
      </trkpt>
      <trkpt lat="48.69029" lon="1.92815">
        <ele>132.28</ele>
        <time>2020-01-11T16:12:37Z</time>
      </trkpt>
      <trkpt lat="48.69035" lon="1.9281">
        <ele>132.74</ele>
        <time>2020-01-11T16:12:42Z</time>
      </trkpt>
      <trkpt lat="48.6904" lon="1.92807">
        <ele>133.21</ele>
        <time>2020-01-11T16:12:47Z</time>
      </trkpt>
      <trkpt lat="48.69047" lon="1.92802">
        <ele>133.79</ele>
        <time>2020-01-11T16:12:52Z</time>
      </trkpt>
      <trkpt lat="48.69054" lon="1.92798">
        <ele>134.17</ele>
        <time>2020-01-11T16:12:57Z</time>
      </trkpt>
      <trkpt lat="48.69058" lon="1.92791">
        <ele>134.52</ele>
        <time>2020-01-11T16:13:02Z</time>
      </trkpt>
      <trkpt lat="48.69062" lon="1.92787">
        <ele>135.22</ele>
        <time>2020-01-11T16:13:07Z</time>
      </trkpt>
      <trkpt lat="48.69067" lon="1.92781">
        <ele>135.63</ele>
        <time>2020-01-11T16:13:12Z</time>
      </trkpt>
      <trkpt lat="48.69072" lon="1.92778">
        <ele>136.19</ele>
        <time>2020-01-11T16:13:17Z</time>
      </trkpt>
      <trkpt lat="48.69076" lon="1.92777">
        <ele>136.62</ele>
        <time>2020-01-11T16:13:22Z</time>
      </trkpt>
      <trkpt lat="48.69081" lon="1.92776">
        <ele>137.07</ele>
        <time>2020-01-11T16:13:27Z</time>
      </trkpt>
      <trkpt lat="48.69085" lon="1.92777">
        <ele>137.74</ele>
        <time>2020-01-11T16:13:32Z</time>
      </trkpt>
      <trkpt lat="48.6909" lon="1.92775">
        <ele>138.4</ele>
        <time>2020-01-11T16:13:37Z</time>
      </trkpt>
      <trkpt lat="48.69097" lon="1.92774">
        <ele>138.68</ele>
        <time>2020-01-11T16:13:42Z</time>
      </trkpt>
      <trkpt lat="48.69103" lon="1.92774">
        <ele>139.07</ele>
        <time>2020-01-11T16:13:47Z</time>
      </trkpt>
      <trkpt lat="48.69111" lon="1.92776">
        <ele>139.5</ele>
        <time>2020-01-11T16:13:52Z</time>
      </trkpt>
      <trkpt lat="48.69119" lon="1.92777">
        <ele>140.08</ele>
        <time>2020-01-11T16:13:57Z</time>
      </trkpt>
      <trkpt lat="48.69127" lon="1.92777">
        <ele>140.64</ele>
        <time>2020-01-11T16:14:02Z</time>
      </trkpt>
      <trkpt lat="48.69133" lon="1.92776">
        <ele>141</ele>
        <time>2020-01-11T16:14:07Z</time>
      </trkpt>
      <trkpt lat="48.69139" lon="1.92774">
        <ele>141.35</ele>
        <time>2020-01-11T16:14:12Z</time>
      </trkpt>
      <trkpt lat="48.69144" lon="1.92773">
        <ele>141.77</ele>
        <time>2020-01-11T16:14:17Z</time>
      </trkpt>
      <trkpt lat="48.6915" lon="1.92771">
        <ele>142.14</ele>
        <time>2020-01-11T16:14:22Z</time>
      </trkpt>
      <trkpt lat="48.69156" lon="1.92771">
        <ele>142.69</ele>
        <time>2020-01-11T16:14:27Z</time>
      </trkpt>
      <trkpt lat="48.69163" lon="1.92768">
        <ele>143.06</ele>
        <time>2020-01-11T16:14:32Z</time>
      </trkpt>
      <trkpt lat="48.69169" lon="1.92766">
        <ele>143.34</ele>
        <time>2020-01-11T16:14:37Z</time>
      </trkpt>
      <trkpt lat="48.69175" lon="1.92761">
        <ele>143.88</ele>
        <time>2020-01-11T16:14:42Z</time>
      </trkpt>
      <trkpt lat="48.69177" lon="1.92754">
        <ele>144.38</ele>
        <time>2020-01-11T16:14:47Z</time>
      </trkpt>
      <trkpt lat="48.69178" lon="1.92753">
        <ele>144.97</ele>
        <time>2020-01-11T16:14:52Z</time>
      </trkpt>
      <trkpt lat="48.69178" lon="1.92752">
        <ele>145.18</ele>
        <time>2020-01-11T16:14:57Z</time>
      </trkpt>
      <trkpt lat="48.69176" lon="1.92752">
        <ele>145.41</ele>
        <time>2020-01-11T16:15:02Z</time>
      </trkpt>
      <trkpt lat="48.69175" lon="1.92752">
        <ele>145.51</ele>
        <time>2020-01-11T16:15:07Z</time>
      </trkpt>
      <trkpt lat="48.69174" lon="1.92751">
        <ele>145.52</ele>
        <time>2020-01-11T16:15:12Z</time>
      </trkpt>
      <trkpt lat="48.69175" lon="1.92749">
        <ele>145.5</ele>
        <time>2020-01-11T16:15:17Z</time>
      </trkpt>
      <trkpt lat="48.69175" lon="1.92746">
        <ele>145.6</ele>
        <time>2020-01-11T16:15:22Z</time>
      </trkpt>
      <trkpt lat="48.69174" lon="1.9274">
        <ele>145.87</ele>
        <time>2020-01-11T16:15:27Z</time>
      </trkpt>
      <trkpt lat="48.69175" lon="1.92738">
        <ele>146.24</ele>
        <time>2020-01-11T16:15:32Z</time>
      </trkpt>
      <trkpt lat="48.69179" lon="1.92737">
        <ele>146.79</ele>
        <time>2020-01-11T16:15:37Z</time>
      </trkpt>
      <trkpt lat="48.69182" lon="1.92735">
        <ele>147.08</ele>
        <time>2020-01-11T16:15:42Z</time>
      </trkpt>
      <trkpt lat="48.69184" lon="1.92733">
        <ele>147.29</ele>
        <time>2020-01-11T16:15:47Z</time>
      </trkpt>
      <trkpt lat="48.69185" lon="1.92733">
        <ele>147.49</ele>
        <time>2020-01-11T16:15:52Z</time>
      </trkpt>
      <trkpt lat="48.69186" lon="1.92733">
        <ele>147.56</ele>
        <time>2020-01-11T16:15:57Z</time>
      </trkpt>
      <trkpt lat="48.69184" lon="1.92733">
        <ele>147.7</ele>
        <time>2020-01-11T16:16:02Z</time>
      </trkpt>
      <trkpt lat="48.69182" lon="1.92731">
        <ele>147.63</ele>
        <time>2020-01-11T16:16:07Z</time>
      </trkpt>
      <trkpt lat="48.69179" lon="1.92727">
        <ele>148.05</ele>
        <time>2020-01-11T16:16:12Z</time>
      </trkpt>
      <trkpt lat="48.69175" lon="1.92723">
        <ele>148.59</ele>
        <time>2020-01-11T16:16:17Z</time>
      </trkpt>
      <trkpt lat="48.69173" lon="1.92718">
        <ele>149.07</ele>
        <time>2020-01-11T16:16:22Z</time>
      </trkpt>
      <trkpt lat="48.69169" lon="1.92716">
        <ele>149.63</ele>
        <time>2020-01-11T16:16:27Z</time>
      </trkpt>
      <trkpt lat="48.69166" lon="1.92711">
        <ele>150.48</ele>
        <time>2020-01-11T16:16:32Z</time>
      </trkpt>
      <trkpt lat="48.69163" lon="1.92705">
        <ele>151.34</ele>
        <time>2020-01-11T16:16:37Z</time>
      </trkpt>
      <trkpt lat="48.69161" lon="1.927">
        <ele>151.83</ele>
        <time>2020-01-11T16:16:42Z</time>
      </trkpt>
      <trkpt lat="48.69158" lon="1.92693">
        <ele>152.37</ele>
        <time>2020-01-11T16:16:47Z</time>
      </trkpt>
      <trkpt lat="48.69154" lon="1.92686">
        <ele>152.75</ele>
        <time>2020-01-11T16:16:52Z</time>
      </trkpt>
      <trkpt lat="48.69149" lon="1.92683">
        <ele>152.99</ele>
        <time>2020-01-11T16:16:57Z</time>
      </trkpt>
      <trkpt lat="48.69146" lon="1.92679">
        <ele>153.08</ele>
        <time>2020-01-11T16:17:02Z</time>
      </trkpt>
      <trkpt lat="48.69143" lon="1.92674">
        <ele>153.08</ele>
        <time>2020-01-11T16:17:07Z</time>
      </trkpt>
      <trkpt lat="48.69141" lon="1.92668">
        <ele>153.07</ele>
        <time>2020-01-11T16:17:12Z</time>
      </trkpt>
      <trkpt lat="48.69138" lon="1.92664">
        <ele>153.3</ele>
        <time>2020-01-11T16:17:17Z</time>
      </trkpt>
      <trkpt lat="48.69132" lon="1.9266">
        <ele>153.54</ele>
        <time>2020-01-11T16:17:22Z</time>
      </trkpt>
      <trkpt lat="48.69126" lon="1.92657">
        <ele>153.63</ele>
        <time>2020-01-11T16:17:27Z</time>
      </trkpt>
      <trkpt lat="48.69122" lon="1.92653">
        <ele>153.62</ele>
        <time>2020-01-11T16:17:32Z</time>
      </trkpt>
      <trkpt lat="48.69117" lon="1.92652">
        <ele>153.62</ele>
        <time>2020-01-11T16:17:37Z</time>
      </trkpt>
      <trkpt lat="48.69112" lon="1.92652">
        <ele>153.53</ele>
        <time>2020-01-11T16:17:42Z</time>
      </trkpt>
      <trkpt lat="48.69107" lon="1.92649">
        <ele>153.46</ele>
        <time>2020-01-11T16:17:47Z</time>
      </trkpt>
      <trkpt lat="48.69102" lon="1.92647">
        <ele>153.42</ele>
        <time>2020-01-11T16:17:52Z</time>
      </trkpt>
      <trkpt lat="48.69097" lon="1.92644">
        <ele>153.54</ele>
        <time>2020-01-11T16:17:57Z</time>
      </trkpt>
      <trkpt lat="48.69092" lon="1.92639">
        <ele>153.69</ele>
        <time>2020-01-11T16:18:02Z</time>
      </trkpt>
      <trkpt lat="48.69088" lon="1.92635">
        <ele>154.04</ele>
        <time>2020-01-11T16:18:07Z</time>
      </trkpt>
      <trkpt lat="48.69083" lon="1.92632">
        <ele>154.36</ele>
        <time>2020-01-11T16:18:12Z</time>
      </trkpt>
      <trkpt lat="48.69078" lon="1.92626">
        <ele>154.6</ele>
        <time>2020-01-11T16:18:17Z</time>
      </trkpt>
      <trkpt lat="48.69073" lon="1.92623">
        <ele>154.62</ele>
        <time>2020-01-11T16:18:22Z</time>
      </trkpt>
      <trkpt lat="48.69069" lon="1.92618">
        <ele>154.84</ele>
        <time>2020-01-11T16:18:27Z</time>
      </trkpt>
      <trkpt lat="48.69065" lon="1.92615">
        <ele>155.12</ele>
        <time>2020-01-11T16:18:32Z</time>
      </trkpt>
      <trkpt lat="48.69059" lon="1.92615">
        <ele>155.43</ele>
        <time>2020-01-11T16:18:37Z</time>
      </trkpt>
      <trkpt lat="48.69053" lon="1.92612">
        <ele>155.67</ele>
        <time>2020-01-11T16:18:42Z</time>
      </trkpt>
      <trkpt lat="48.69049" lon="1.92605">
        <ele>155.91</ele>
        <time>2020-01-11T16:18:47Z</time>
      </trkpt>
      <trkpt lat="48.69044" lon="1.92599">
        <ele>156</ele>
        <time>2020-01-11T16:18:52Z</time>
      </trkpt>
      <trkpt lat="48.6904" lon="1.92592">
        <ele>156.18</ele>
        <time>2020-01-11T16:18:57Z</time>
      </trkpt>
      <trkpt lat="48.69037" lon="1.92584">
        <ele>156.06</ele>
        <time>2020-01-11T16:19:02Z</time>
      </trkpt>
      <trkpt lat="48.69036" lon="1.92576">
        <ele>155.74</ele>
        <time>2020-01-11T16:19:07Z</time>
      </trkpt>
      <trkpt lat="48.69037" lon="1.9257">
        <ele>155.6</ele>
        <time>2020-01-11T16:19:12Z</time>
      </trkpt>
      <trkpt lat="48.6904" lon="1.92564">
        <ele>155.63</ele>
        <time>2020-01-11T16:19:17Z</time>
      </trkpt>
      <trkpt lat="48.69043" lon="1.92558">
        <ele>155.3</ele>
        <time>2020-01-11T16:19:22Z</time>
      </trkpt>
      <trkpt lat="48.69045" lon="1.9255">
        <ele>154.93</ele>
        <time>2020-01-11T16:19:27Z</time>
      </trkpt>
      <trkpt lat="48.69049" lon="1.92543">
        <ele>154.75</ele>
        <time>2020-01-11T16:19:32Z</time>
      </trkpt>
      <trkpt lat="48.69053" lon="1.92537">
        <ele>154.69</ele>
        <time>2020-01-11T16:19:37Z</time>
      </trkpt>
      <trkpt lat="48.69056" lon="1.92531">
        <ele>154.44</ele>
        <time>2020-01-11T16:19:42Z</time>
      </trkpt>
      <trkpt lat="48.6906" lon="1.92522">
        <ele>154.34</ele>
        <time>2020-01-11T16:19:47Z</time>
      </trkpt>
      <trkpt lat="48.69062" lon="1.92514">
        <ele>154.34</ele>
        <time>2020-01-11T16:19:52Z</time>
      </trkpt>
      <trkpt lat="48.69064" lon="1.92509">
        <ele>154.08</ele>
        <time>2020-01-11T16:19:57Z</time>
      </trkpt>
      <trkpt lat="48.69067" lon="1.92502">
        <ele>153.82</ele>
        <time>2020-01-11T16:20:02Z</time>
      </trkpt>
      <trkpt lat="48.69069" lon="1.92495">
        <ele>153.89</ele>
        <time>2020-01-11T16:20:07Z</time>
      </trkpt>
      <trkpt lat="48.69071" lon="1.92487">
        <ele>153.91</ele>
        <time>2020-01-11T16:20:12Z</time>
      </trkpt>
      <trkpt lat="48.69073" lon="1.92477">
        <ele>153.98</ele>
        <time>2020-01-11T16:20:17Z</time>
      </trkpt>
      <trkpt lat="48.69076" lon="1.92467">
        <ele>154.03</ele>
        <time>2020-01-11T16:20:22Z</time>
      </trkpt>
      <trkpt lat="48.69079" lon="1.92459">
        <ele>154.07</ele>
        <time>2020-01-11T16:20:27Z</time>
      </trkpt>
      <trkpt lat="48.69081" lon="1.9245">
        <ele>154.12</ele>
        <time>2020-01-11T16:20:32Z</time>
      </trkpt>
      <trkpt lat="48.69084" lon="1.92441">
        <ele>154.08</ele>
        <time>2020-01-11T16:20:37Z</time>
      </trkpt>
      <trkpt lat="48.69086" lon="1.92433">
        <ele>153.9</ele>
        <time>2020-01-11T16:20:42Z</time>
      </trkpt>
      <trkpt lat="48.69089" lon="1.92426">
        <ele>153.65</ele>
        <time>2020-01-11T16:20:47Z</time>
      </trkpt>
      <trkpt lat="48.69091" lon="1.92419">
        <ele>153.02</ele>
        <time>2020-01-11T16:20:52Z</time>
      </trkpt>
      <trkpt lat="48.69093" lon="1.92412">
        <ele>152.26</ele>
        <time>2020-01-11T16:20:57Z</time>
      </trkpt>
      <trkpt lat="48.69095" lon="1.92404">
        <ele>151.54</ele>
        <time>2020-01-11T16:21:02Z</time>
      </trkpt>
      <trkpt lat="48.69096" lon="1.92397">
        <ele>151.26</ele>
        <time>2020-01-11T16:21:07Z</time>
      </trkpt>
      <trkpt lat="48.69099" lon="1.92392">
        <ele>151.47</ele>
        <time>2020-01-11T16:21:12Z</time>
      </trkpt>
      <trkpt lat="48.69102" lon="1.92384">
        <ele>151.81</ele>
        <time>2020-01-11T16:21:17Z</time>
      </trkpt>
      <trkpt lat="48.69106" lon="1.92376">
        <ele>152.17</ele>
        <time>2020-01-11T16:21:22Z</time>
      </trkpt>
      <trkpt lat="48.69108" lon="1.92369">
        <ele>152.34</ele>
        <time>2020-01-11T16:21:27Z</time>
      </trkpt>
      <trkpt lat="48.69111" lon="1.92361">
        <ele>152.36</ele>
        <time>2020-01-11T16:21:32Z</time>
      </trkpt>
      <trkpt lat="48.69115" lon="1.92355">
        <ele>152.09</ele>
        <time>2020-01-11T16:21:37Z</time>
      </trkpt>
      <trkpt lat="48.69118" lon="1.9235">
        <ele>151.66</ele>
        <time>2020-01-11T16:21:42Z</time>
      </trkpt>
      <trkpt lat="48.6912" lon="1.92343">
        <ele>150.77</ele>
        <time>2020-01-11T16:21:47Z</time>
      </trkpt>
      <trkpt lat="48.6912" lon="1.92336">
        <ele>149.65</ele>
        <time>2020-01-11T16:21:52Z</time>
      </trkpt>
      <trkpt lat="48.6912" lon="1.92325">
        <ele>148.29</ele>
        <time>2020-01-11T16:21:57Z</time>
      </trkpt>
      <trkpt lat="48.6912" lon="1.92317">
        <ele>146.91</ele>
        <time>2020-01-11T16:22:02Z</time>
      </trkpt>
      <trkpt lat="48.69119" lon="1.92312">
        <ele>146.09</ele>
        <time>2020-01-11T16:22:07Z</time>
      </trkpt>
      <trkpt lat="48.6912" lon="1.92306">
        <ele>145.82</ele>
        <time>2020-01-11T16:22:12Z</time>
      </trkpt>
      <trkpt lat="48.6912" lon="1.92298">
        <ele>145.85</ele>
        <time>2020-01-11T16:22:17Z</time>
      </trkpt>
      <trkpt lat="48.69119" lon="1.9229">
        <ele>145.88</ele>
        <time>2020-01-11T16:22:22Z</time>
      </trkpt>
      <trkpt lat="48.6912" lon="1.92281">
        <ele>145.8</ele>
        <time>2020-01-11T16:22:27Z</time>
      </trkpt>
      <trkpt lat="48.6912" lon="1.92274">
        <ele>145.52</ele>
        <time>2020-01-11T16:22:32Z</time>
      </trkpt>
      <trkpt lat="48.69122" lon="1.92266">
        <ele>144.82</ele>
        <time>2020-01-11T16:22:37Z</time>
      </trkpt>
      <trkpt lat="48.69125" lon="1.9226">
        <ele>144.44</ele>
        <time>2020-01-11T16:22:42Z</time>
      </trkpt>
      <trkpt lat="48.69128" lon="1.92251">
        <ele>144.68</ele>
        <time>2020-01-11T16:22:47Z</time>
      </trkpt>
      <trkpt lat="48.69129" lon="1.92242">
        <ele>145.56</ele>
        <time>2020-01-11T16:22:52Z</time>
      </trkpt>
      <trkpt lat="48.69129" lon="1.92232">
        <ele>147.09</ele>
        <time>2020-01-11T16:22:57Z</time>
      </trkpt>
      <trkpt lat="48.6913" lon="1.92224">
        <ele>149.16</ele>
        <time>2020-01-11T16:23:02Z</time>
      </trkpt>
      <trkpt lat="48.6913" lon="1.92215">
        <ele>150.67</ele>
        <time>2020-01-11T16:23:07Z</time>
      </trkpt>
      <trkpt lat="48.6913" lon="1.92207">
        <ele>152.11</ele>
        <time>2020-01-11T16:23:12Z</time>
      </trkpt>
      <trkpt lat="48.69129" lon="1.92201">
        <ele>153.07</ele>
        <time>2020-01-11T16:23:17Z</time>
      </trkpt>
      <trkpt lat="48.69129" lon="1.92196">
        <ele>153.99</ele>
        <time>2020-01-11T16:23:22Z</time>
      </trkpt>
      <trkpt lat="48.69129" lon="1.9219">
        <ele>154.86</ele>
        <time>2020-01-11T16:23:27Z</time>
      </trkpt>
      <trkpt lat="48.6913" lon="1.92184">
        <ele>155.3</ele>
        <time>2020-01-11T16:23:32Z</time>
      </trkpt>
      <trkpt lat="48.6913" lon="1.92177">
        <ele>155.59</ele>
        <time>2020-01-11T16:23:37Z</time>
      </trkpt>
      <trkpt lat="48.69132" lon="1.92172">
        <ele>155.97</ele>
        <time>2020-01-11T16:23:42Z</time>
      </trkpt>
      <trkpt lat="48.69132" lon="1.92166">
        <ele>156.41</ele>
        <time>2020-01-11T16:23:47Z</time>
      </trkpt>
      <trkpt lat="48.69132" lon="1.92158">
        <ele>156.75</ele>
        <time>2020-01-11T16:23:52Z</time>
      </trkpt>
      <trkpt lat="48.69132" lon="1.92151">
        <ele>156.86</ele>
        <time>2020-01-11T16:23:57Z</time>
      </trkpt>
      <trkpt lat="48.69133" lon="1.92141">
        <ele>156.81</ele>
        <time>2020-01-11T16:24:02Z</time>
      </trkpt>
      <trkpt lat="48.69136" lon="1.92131">
        <ele>156.79</ele>
        <time>2020-01-11T16:24:07Z</time>
      </trkpt>
      <trkpt lat="48.69137" lon="1.92121">
        <ele>156.79</ele>
        <time>2020-01-11T16:24:12Z</time>
      </trkpt>
      <trkpt lat="48.69138" lon="1.92114">
        <ele>156.97</ele>
        <time>2020-01-11T16:24:17Z</time>
      </trkpt>
      <trkpt lat="48.69141" lon="1.92109">
        <ele>157.11</ele>
        <time>2020-01-11T16:24:22Z</time>
      </trkpt>
      <trkpt lat="48.69142" lon="1.92105">
        <ele>157.23</ele>
        <time>2020-01-11T16:24:27Z</time>
      </trkpt>
      <trkpt lat="48.69143" lon="1.92099">
        <ele>157.48</ele>
        <time>2020-01-11T16:24:32Z</time>
      </trkpt>
      <trkpt lat="48.69145" lon="1.92093">
        <ele>157.52</ele>
        <time>2020-01-11T16:24:37Z</time>
      </trkpt>
      <trkpt lat="48.69149" lon="1.92085">
        <ele>157.5</ele>
        <time>2020-01-11T16:24:42Z</time>
      </trkpt>
      <trkpt lat="48.69153" lon="1.92076">
        <ele>157.41</ele>
        <time>2020-01-11T16:24:47Z</time>
      </trkpt>
      <trkpt lat="48.69157" lon="1.92069">
        <ele>157.45</ele>
        <time>2020-01-11T16:24:52Z</time>
      </trkpt>
      <trkpt lat="48.6916" lon="1.92063">
        <ele>157.48</ele>
        <time>2020-01-11T16:24:57Z</time>
      </trkpt>
      <trkpt lat="48.69163" lon="1.92058">
        <ele>157.43</ele>
        <time>2020-01-11T16:25:02Z</time>
      </trkpt>
      <trkpt lat="48.69166" lon="1.92055">
        <ele>157.14</ele>
        <time>2020-01-11T16:25:07Z</time>
      </trkpt>
      <trkpt lat="48.69168" lon="1.92051">
        <ele>157.03</ele>
        <time>2020-01-11T16:25:12Z</time>
      </trkpt>
      <trkpt lat="48.69174" lon="1.92047">
        <ele>156.99</ele>
        <time>2020-01-11T16:25:17Z</time>
      </trkpt>
      <trkpt lat="48.69179" lon="1.92045">
        <ele>156.85</ele>
        <time>2020-01-11T16:25:22Z</time>
      </trkpt>
      <trkpt lat="48.69184" lon="1.92045">
        <ele>156.72</ele>
        <time>2020-01-11T16:25:27Z</time>
      </trkpt>
      <trkpt lat="48.69188" lon="1.92044">
        <ele>156.72</ele>
        <time>2020-01-11T16:25:32Z</time>
      </trkpt>
      <trkpt lat="48.69194" lon="1.92047">
        <ele>156.49</ele>
        <time>2020-01-11T16:25:37Z</time>
      </trkpt>
      <trkpt lat="48.69199" lon="1.92049">
        <ele>156.23</ele>
        <time>2020-01-11T16:25:42Z</time>
      </trkpt>
      <trkpt lat="48.69204" lon="1.9205">
        <ele>156.06</ele>
        <time>2020-01-11T16:25:47Z</time>
      </trkpt>
      <trkpt lat="48.69209" lon="1.92051">
        <ele>155.86</ele>
        <time>2020-01-11T16:25:52Z</time>
      </trkpt>
      <trkpt lat="48.69214" lon="1.92051">
        <ele>155.67</ele>
        <time>2020-01-11T16:25:57Z</time>
      </trkpt>
      <trkpt lat="48.69219" lon="1.92052">
        <ele>155.34</ele>
        <time>2020-01-11T16:26:02Z</time>
      </trkpt>
      <trkpt lat="48.69224" lon="1.92054">
        <ele>154.86</ele>
        <time>2020-01-11T16:26:07Z</time>
      </trkpt>
      <trkpt lat="48.69227" lon="1.92056">
        <ele>154.32</ele>
        <time>2020-01-11T16:26:12Z</time>
      </trkpt>
      <trkpt lat="48.6923" lon="1.92054">
        <ele>153.68</ele>
        <time>2020-01-11T16:26:17Z</time>
      </trkpt>
      <trkpt lat="48.69233" lon="1.92051">
        <ele>153.08</ele>
        <time>2020-01-11T16:26:22Z</time>
      </trkpt>
      <trkpt lat="48.69236" lon="1.92048">
        <ele>152.56</ele>
        <time>2020-01-11T16:26:27Z</time>
      </trkpt>
      <trkpt lat="48.6924" lon="1.92044">
        <ele>152.19</ele>
        <time>2020-01-11T16:26:32Z</time>
      </trkpt>
      <trkpt lat="48.69244" lon="1.92041">
        <ele>152.01</ele>
        <time>2020-01-11T16:26:37Z</time>
      </trkpt>
      <trkpt lat="48.69252" lon="1.92037">
        <ele>152.1</ele>
        <time>2020-01-11T16:26:42Z</time>
      </trkpt>
      <trkpt lat="48.6926" lon="1.92031">
        <ele>152.43</ele>
        <time>2020-01-11T16:26:47Z</time>
      </trkpt>
      <trkpt lat="48.69265" lon="1.92028">
        <ele>153.34</ele>
        <time>2020-01-11T16:26:52Z</time>
      </trkpt>
      <trkpt lat="48.6927" lon="1.92021">
        <ele>153.9</ele>
        <time>2020-01-11T16:26:57Z</time>
      </trkpt>
      <trkpt lat="48.69274" lon="1.92016">
        <ele>154.77</ele>
        <time>2020-01-11T16:27:02Z</time>
      </trkpt>
      <trkpt lat="48.69277" lon="1.92011">
        <ele>155.39</ele>
        <time>2020-01-11T16:27:07Z</time>
      </trkpt>
      <trkpt lat="48.69278" lon="1.92005">
        <ele>155.71</ele>
        <time>2020-01-11T16:27:12Z</time>
      </trkpt>
      <trkpt lat="48.6928" lon="1.91997">
        <ele>155.64</ele>
        <time>2020-01-11T16:27:17Z</time>
      </trkpt>
      <trkpt lat="48.69283" lon="1.91989">
        <ele>155.35</ele>
        <time>2020-01-11T16:27:22Z</time>
      </trkpt>
      <trkpt lat="48.69288" lon="1.91981">
        <ele>155.04</ele>
        <time>2020-01-11T16:27:27Z</time>
      </trkpt>
      <trkpt lat="48.6929" lon="1.91973">
        <ele>154.74</ele>
        <time>2020-01-11T16:27:32Z</time>
      </trkpt>
      <trkpt lat="48.6929" lon="1.91966">
        <ele>154.6</ele>
        <time>2020-01-11T16:27:37Z</time>
      </trkpt>
      <trkpt lat="48.69292" lon="1.91959">
        <ele>154.57</ele>
        <time>2020-01-11T16:27:42Z</time>
      </trkpt>
      <trkpt lat="48.69295" lon="1.91951">
        <ele>154.73</ele>
        <time>2020-01-11T16:27:47Z</time>
      </trkpt>
      <trkpt lat="48.69294" lon="1.9194">
        <ele>155.03</ele>
        <time>2020-01-11T16:27:52Z</time>
      </trkpt>
      <trkpt lat="48.69297" lon="1.91931">
        <ele>155.73</ele>
        <time>2020-01-11T16:27:57Z</time>
      </trkpt>
      <trkpt lat="48.69297" lon="1.91921">
        <ele>156.21</ele>
        <time>2020-01-11T16:28:02Z</time>
      </trkpt>
      <trkpt lat="48.693" lon="1.91913">
        <ele>156.48</ele>
        <time>2020-01-11T16:28:07Z</time>
      </trkpt>
      <trkpt lat="48.69302" lon="1.91906">
        <ele>156.66</ele>
        <time>2020-01-11T16:28:12Z</time>
      </trkpt>
      <trkpt lat="48.69303" lon="1.91896">
        <ele>156.94</ele>
        <time>2020-01-11T16:28:17Z</time>
      </trkpt>
      <trkpt lat="48.69303" lon="1.91886">
        <ele>157.04</ele>
        <time>2020-01-11T16:28:22Z</time>
      </trkpt>
      <trkpt lat="48.69306" lon="1.91878">
        <ele>156.97</ele>
        <time>2020-01-11T16:28:27Z</time>
      </trkpt>
      <trkpt lat="48.69305" lon="1.91868">
        <ele>157.14</ele>
        <time>2020-01-11T16:28:32Z</time>
      </trkpt>
      <trkpt lat="48.69306" lon="1.91857">
        <ele>157.3</ele>
        <time>2020-01-11T16:28:37Z</time>
      </trkpt>
      <trkpt lat="48.69308" lon="1.91848">
        <ele>157.66</ele>
        <time>2020-01-11T16:28:42Z</time>
      </trkpt>
      <trkpt lat="48.6931" lon="1.9184">
        <ele>158.03</ele>
        <time>2020-01-11T16:28:47Z</time>
      </trkpt>
      <trkpt lat="48.69316" lon="1.91832">
        <ele>158.14</ele>
        <time>2020-01-11T16:28:52Z</time>
      </trkpt>
      <trkpt lat="48.6932" lon="1.91822">
        <ele>158.11</ele>
        <time>2020-01-11T16:28:57Z</time>
      </trkpt>
      <trkpt lat="48.69324" lon="1.91812">
        <ele>158.08</ele>
        <time>2020-01-11T16:29:02Z</time>
      </trkpt>
      <trkpt lat="48.69327" lon="1.91803">
        <ele>158.05</ele>
        <time>2020-01-11T16:29:07Z</time>
      </trkpt>
      <trkpt lat="48.6933" lon="1.91795">
        <ele>158.14</ele>
        <time>2020-01-11T16:29:12Z</time>
      </trkpt>
      <trkpt lat="48.69332" lon="1.91785">
        <ele>158.21</ele>
        <time>2020-01-11T16:29:17Z</time>
      </trkpt>
      <trkpt lat="48.69334" lon="1.91776">
        <ele>158.17</ele>
        <time>2020-01-11T16:29:22Z</time>
      </trkpt>
      <trkpt lat="48.69337" lon="1.91771">
        <ele>158.08</ele>
        <time>2020-01-11T16:29:27Z</time>
      </trkpt>
      <trkpt lat="48.6934" lon="1.91764">
        <ele>158.25</ele>
        <time>2020-01-11T16:29:32Z</time>
      </trkpt>
      <trkpt lat="48.69344" lon="1.91757">
        <ele>158.56</ele>
        <time>2020-01-11T16:29:37Z</time>
      </trkpt>
      <trkpt lat="48.69347" lon="1.91752">
        <ele>158.61</ele>
        <time>2020-01-11T16:29:42Z</time>
      </trkpt>
      <trkpt lat="48.69349" lon="1.91746">
        <ele>158.5</ele>
        <time>2020-01-11T16:29:47Z</time>
      </trkpt>
      <trkpt lat="48.69352" lon="1.9174">
        <ele>158.36</ele>
        <time>2020-01-11T16:29:52Z</time>
      </trkpt>
      <trkpt lat="48.69354" lon="1.91734">
        <ele>158.08</ele>
        <time>2020-01-11T16:29:57Z</time>
      </trkpt>
      <trkpt lat="48.69357" lon="1.91729">
        <ele>157.36</ele>
        <time>2020-01-11T16:30:02Z</time>
      </trkpt>
      <trkpt lat="48.69359" lon="1.91723">
        <ele>156.34</ele>
        <time>2020-01-11T16:30:07Z</time>
      </trkpt>
      <trkpt lat="48.6936" lon="1.91718">
        <ele>155.33</ele>
        <time>2020-01-11T16:30:12Z</time>
      </trkpt>
      <trkpt lat="48.69362" lon="1.91711">
        <ele>154.06</ele>
        <time>2020-01-11T16:30:17Z</time>
      </trkpt>
      <trkpt lat="48.69362" lon="1.91705">
        <ele>152.71</ele>
        <time>2020-01-11T16:30:22Z</time>
      </trkpt>
      <trkpt lat="48.69361" lon="1.91697">
        <ele>151.46</ele>
        <time>2020-01-11T16:30:27Z</time>
      </trkpt>
      <trkpt lat="48.69363" lon="1.91691">
        <ele>150.38</ele>
        <time>2020-01-11T16:30:32Z</time>
      </trkpt>
      <trkpt lat="48.69364" lon="1.91686">
        <ele>149.69</ele>
        <time>2020-01-11T16:30:37Z</time>
      </trkpt>
      <trkpt lat="48.69364" lon="1.91683">
        <ele>149.09</ele>
        <time>2020-01-11T16:30:42Z</time>
      </trkpt>
      <trkpt lat="48.69363" lon="1.9168">
        <ele>148.68</ele>
        <time>2020-01-11T16:30:47Z</time>
      </trkpt>
      <trkpt lat="48.69364" lon="1.91675">
        <ele>148.38</ele>
        <time>2020-01-11T16:30:52Z</time>
      </trkpt>
      <trkpt lat="48.69366" lon="1.91669">
        <ele>147.8</ele>
        <time>2020-01-11T16:30:57Z</time>
      </trkpt>
      <trkpt lat="48.69367" lon="1.91663">
        <ele>147.16</ele>
        <time>2020-01-11T16:31:02Z</time>
      </trkpt>
      <trkpt lat="48.69366" lon="1.91652">
        <ele>146.62</ele>
        <time>2020-01-11T16:31:07Z</time>
      </trkpt>
      <trkpt lat="48.69367" lon="1.91643">
        <ele>145.85</ele>
        <time>2020-01-11T16:31:12Z</time>
      </trkpt>
      <trkpt lat="48.69368" lon="1.91635">
        <ele>144.85</ele>
        <time>2020-01-11T16:31:17Z</time>
      </trkpt>
      <trkpt lat="48.69371" lon="1.91629">
        <ele>144.28</ele>
        <time>2020-01-11T16:31:22Z</time>
      </trkpt>
      <trkpt lat="48.69371" lon="1.91623">
        <ele>143.59</ele>
        <time>2020-01-11T16:31:27Z</time>
      </trkpt>
      <trkpt lat="48.69371" lon="1.91616">
        <ele>142.73</ele>
        <time>2020-01-11T16:31:32Z</time>
      </trkpt>
      <trkpt lat="48.69371" lon="1.91609">
        <ele>141.49</ele>
        <time>2020-01-11T16:31:37Z</time>
      </trkpt>
      <trkpt lat="48.69371" lon="1.91602">
        <ele>140.15</ele>
        <time>2020-01-11T16:31:42Z</time>
      </trkpt>
      <trkpt lat="48.69371" lon="1.91596">
        <ele>139.21</ele>
        <time>2020-01-11T16:31:47Z</time>
      </trkpt>
      <trkpt lat="48.69371" lon="1.91591">
        <ele>138.14</ele>
        <time>2020-01-11T16:31:52Z</time>
      </trkpt>
      <trkpt lat="48.6937" lon="1.91587">
        <ele>136.83</ele>
        <time>2020-01-11T16:31:57Z</time>
      </trkpt>
      <trkpt lat="48.69369" lon="1.91583">
        <ele>135.57</ele>
        <time>2020-01-11T16:32:02Z</time>
      </trkpt>
      <trkpt lat="48.69367" lon="1.91579">
        <ele>134.08</ele>
        <time>2020-01-11T16:32:07Z</time>
      </trkpt>
      <trkpt lat="48.69366" lon="1.91578">
        <ele>133.16</ele>
        <time>2020-01-11T16:32:12Z</time>
      </trkpt>
      <trkpt lat="48.69365" lon="1.91577">
        <ele>132.65</ele>
        <time>2020-01-11T16:32:17Z</time>
      </trkpt>
      <trkpt lat="48.69365" lon="1.91576">
        <ele>132.48</ele>
        <time>2020-01-11T16:32:22Z</time>
      </trkpt>
      <trkpt lat="48.69365" lon="1.91573">
        <ele>132.22</ele>
        <time>2020-01-11T16:32:27Z</time>
      </trkpt>
      <trkpt lat="48.69364" lon="1.9157">
        <ele>131.54</ele>
        <time>2020-01-11T16:32:32Z</time>
      </trkpt>
      <trkpt lat="48.69361" lon="1.91567">
        <ele>130.49</ele>
        <time>2020-01-11T16:32:37Z</time>
      </trkpt>
      <trkpt lat="48.6936" lon="1.91562">
        <ele>129.4</ele>
        <time>2020-01-11T16:32:42Z</time>
      </trkpt>
      <trkpt lat="48.69361" lon="1.91558">
        <ele>128.29</ele>
        <time>2020-01-11T16:32:47Z</time>
      </trkpt>
      <trkpt lat="48.69361" lon="1.91554">
        <ele>127.27</ele>
        <time>2020-01-11T16:32:52Z</time>
      </trkpt>
      <trkpt lat="48.69361" lon="1.91549">
        <ele>126.04</ele>
        <time>2020-01-11T16:32:57Z</time>
      </trkpt>
      <trkpt lat="48.69362" lon="1.91546">
        <ele>124.75</ele>
        <time>2020-01-11T16:33:02Z</time>
      </trkpt>
      <trkpt lat="48.69363" lon="1.91543">
        <ele>123.46</ele>
        <time>2020-01-11T16:33:07Z</time>
      </trkpt>
      <trkpt lat="48.69365" lon="1.91538">
        <ele>122.32</ele>
        <time>2020-01-11T16:33:12Z</time>
      </trkpt>
      <trkpt lat="48.69365" lon="1.91532">
        <ele>121.13</ele>
        <time>2020-01-11T16:33:17Z</time>
      </trkpt>
      <trkpt lat="48.69366" lon="1.91527">
        <ele>119.94</ele>
        <time>2020-01-11T16:33:22Z</time>
      </trkpt>
      <trkpt lat="48.69368" lon="1.91525">
        <ele>118.4</ele>
        <time>2020-01-11T16:33:27Z</time>
      </trkpt>
      <trkpt lat="48.6937" lon="1.9152">
        <ele>117.1</ele>
        <time>2020-01-11T16:33:32Z</time>
      </trkpt>
      <trkpt lat="48.6937" lon="1.91515">
        <ele>115.84</ele>
        <time>2020-01-11T16:33:37Z</time>
      </trkpt>
      <trkpt lat="48.69371" lon="1.91507">
        <ele>115.32</ele>
        <time>2020-01-11T16:33:42Z</time>
      </trkpt>
      <trkpt lat="48.6937" lon="1.91499">
        <ele>115.09</ele>
        <time>2020-01-11T16:33:47Z</time>
      </trkpt>
      <trkpt lat="48.69369" lon="1.9149">
        <ele>114.74</ele>
        <time>2020-01-11T16:33:52Z</time>
      </trkpt>
      <trkpt lat="48.69366" lon="1.9148">
        <ele>114.67</ele>
        <time>2020-01-11T16:33:57Z</time>
      </trkpt>
      <trkpt lat="48.69362" lon="1.91473">
        <ele>114.7</ele>
        <time>2020-01-11T16:34:02Z</time>
      </trkpt>
      <trkpt lat="48.6936" lon="1.91466">
        <ele>114.53</ele>
        <time>2020-01-11T16:34:07Z</time>
      </trkpt>
      <trkpt lat="48.69358" lon="1.9146">
        <ele>114.38</ele>
        <time>2020-01-11T16:34:12Z</time>
      </trkpt>
      <trkpt lat="48.69356" lon="1.91452">
        <ele>114.47</ele>
        <time>2020-01-11T16:34:17Z</time>
      </trkpt>
      <trkpt lat="48.69354" lon="1.91446">
        <ele>114.04</ele>
        <time>2020-01-11T16:34:22Z</time>
      </trkpt>
      <trkpt lat="48.69352" lon="1.91441">
        <ele>114.17</ele>
        <time>2020-01-11T16:34:27Z</time>
      </trkpt>
      <trkpt lat="48.69349" lon="1.91432">
        <ele>114.36</ele>
        <time>2020-01-11T16:34:32Z</time>
      </trkpt>
      <trkpt lat="48.69343" lon="1.91422">
        <ele>114.53</ele>
        <time>2020-01-11T16:34:37Z</time>
      </trkpt>
      <trkpt lat="48.69339" lon="1.91416">
        <ele>114.59</ele>
        <time>2020-01-11T16:34:42Z</time>
      </trkpt>
      <trkpt lat="48.69336" lon="1.91407">
        <ele>114.77</ele>
        <time>2020-01-11T16:34:47Z</time>
      </trkpt>
      <trkpt lat="48.69332" lon="1.91397">
        <ele>115.01</ele>
        <time>2020-01-11T16:34:52Z</time>
      </trkpt>
      <trkpt lat="48.69328" lon="1.91388">
        <ele>115.33</ele>
        <time>2020-01-11T16:34:57Z</time>
      </trkpt>
      <trkpt lat="48.69324" lon="1.91379">
        <ele>115.7</ele>
        <time>2020-01-11T16:35:02Z</time>
      </trkpt>
      <trkpt lat="48.69321" lon="1.91372">
        <ele>116.25</ele>
        <time>2020-01-11T16:35:07Z</time>
      </trkpt>
      <trkpt lat="48.69317" lon="1.91364">
        <ele>116.47</ele>
        <time>2020-01-11T16:35:12Z</time>
      </trkpt>
      <trkpt lat="48.69315" lon="1.91356">
        <ele>116.85</ele>
        <time>2020-01-11T16:35:17Z</time>
      </trkpt>
      <trkpt lat="48.69311" lon="1.91351">
        <ele>117.26</ele>
        <time>2020-01-11T16:35:22Z</time>
      </trkpt>
      <trkpt lat="48.69308" lon="1.91344">
        <ele>117.62</ele>
        <time>2020-01-11T16:35:27Z</time>
      </trkpt>
      <trkpt lat="48.69306" lon="1.91338">
        <ele>117.99</ele>
        <time>2020-01-11T16:35:32Z</time>
      </trkpt>
      <trkpt lat="48.69302" lon="1.9133">
        <ele>118.37</ele>
        <time>2020-01-11T16:35:37Z</time>
      </trkpt>
      <trkpt lat="48.69299" lon="1.91322">
        <ele>118.59</ele>
        <time>2020-01-11T16:35:42Z</time>
      </trkpt>
      <trkpt lat="48.69295" lon="1.91314">
        <ele>118.83</ele>
        <time>2020-01-11T16:35:47Z</time>
      </trkpt>
      <trkpt lat="48.69292" lon="1.91309">
        <ele>119.05</ele>
        <time>2020-01-11T16:35:52Z</time>
      </trkpt>
      <trkpt lat="48.6929" lon="1.91303">
        <ele>119.17</ele>
        <time>2020-01-11T16:35:57Z</time>
      </trkpt>
      <trkpt lat="48.69286" lon="1.91295">
        <ele>119.47</ele>
        <time>2020-01-11T16:36:02Z</time>
      </trkpt>
      <trkpt lat="48.69285" lon="1.9129">
        <ele>119.77</ele>
        <time>2020-01-11T16:36:07Z</time>
      </trkpt>
      <trkpt lat="48.69283" lon="1.91281">
        <ele>119.99</ele>
        <time>2020-01-11T16:36:12Z</time>
      </trkpt>
      <trkpt lat="48.69282" lon="1.91275">
        <ele>120.14</ele>
        <time>2020-01-11T16:36:17Z</time>
      </trkpt>
      <trkpt lat="48.69279" lon="1.9127">
        <ele>120.19</ele>
        <time>2020-01-11T16:36:22Z</time>
      </trkpt>
      <trkpt lat="48.69277" lon="1.91264">
        <ele>120.35</ele>
        <time>2020-01-11T16:36:27Z</time>
      </trkpt>
      <trkpt lat="48.69275" lon="1.91259">
        <ele>120.52</ele>
        <time>2020-01-11T16:36:32Z</time>
      </trkpt>
      <trkpt lat="48.69271" lon="1.91252">
        <ele>120.68</ele>
        <time>2020-01-11T16:36:37Z</time>
      </trkpt>
      <trkpt lat="48.69268" lon="1.91245">
        <ele>120.72</ele>
        <time>2020-01-11T16:36:42Z</time>
      </trkpt>
      <trkpt lat="48.69265" lon="1.91241">
        <ele>120.88</ele>
        <time>2020-01-11T16:36:47Z</time>
      </trkpt>
      <trkpt lat="48.69265" lon="1.91236">
        <ele>121.29</ele>
        <time>2020-01-11T16:36:52Z</time>
      </trkpt>
      <trkpt lat="48.69264" lon="1.91231">
        <ele>121.58</ele>
        <time>2020-01-11T16:36:57Z</time>
      </trkpt>
      <trkpt lat="48.69264" lon="1.91225">
        <ele>121.87</ele>
        <time>2020-01-11T16:37:02Z</time>
      </trkpt>
      <trkpt lat="48.69262" lon="1.91219">
        <ele>122.36</ele>
        <time>2020-01-11T16:37:07Z</time>
      </trkpt>
      <trkpt lat="48.69259" lon="1.9121">
        <ele>122.6</ele>
        <time>2020-01-11T16:37:12Z</time>
      </trkpt>
      <trkpt lat="48.69255" lon="1.91203">
        <ele>122.76</ele>
        <time>2020-01-11T16:37:17Z</time>
      </trkpt>
      <trkpt lat="48.6925" lon="1.91197">
        <ele>122.99</ele>
        <time>2020-01-11T16:37:22Z</time>
      </trkpt>
      <trkpt lat="48.69246" lon="1.91191">
        <ele>123.1</ele>
        <time>2020-01-11T16:37:27Z</time>
      </trkpt>
      <trkpt lat="48.69242" lon="1.91186">
        <ele>123.25</ele>
        <time>2020-01-11T16:37:32Z</time>
      </trkpt>
      <trkpt lat="48.69239" lon="1.91181">
        <ele>123.37</ele>
        <time>2020-01-11T16:37:37Z</time>
      </trkpt>
      <trkpt lat="48.69238" lon="1.91174">
        <ele>123.61</ele>
        <time>2020-01-11T16:37:42Z</time>
      </trkpt>
      <trkpt lat="48.69235" lon="1.91169">
        <ele>123.91</ele>
        <time>2020-01-11T16:37:47Z</time>
      </trkpt>
      <trkpt lat="48.69233" lon="1.91161">
        <ele>124.1</ele>
        <time>2020-01-11T16:37:52Z</time>
      </trkpt>
      <trkpt lat="48.69229" lon="1.91154">
        <ele>124.36</ele>
        <time>2020-01-11T16:37:57Z</time>
      </trkpt>
      <trkpt lat="48.69226" lon="1.91147">
        <ele>124.79</ele>
        <time>2020-01-11T16:38:02Z</time>
      </trkpt>
      <trkpt lat="48.69225" lon="1.91141">
        <ele>125.21</ele>
        <time>2020-01-11T16:38:07Z</time>
      </trkpt>
      <trkpt lat="48.69222" lon="1.91135">
        <ele>125.52</ele>
        <time>2020-01-11T16:38:12Z</time>
      </trkpt>
      <trkpt lat="48.69219" lon="1.91125">
        <ele>125.94</ele>
        <time>2020-01-11T16:38:17Z</time>
      </trkpt>
      <trkpt lat="48.69214" lon="1.91116">
        <ele>126.23</ele>
        <time>2020-01-11T16:38:22Z</time>
      </trkpt>
      <trkpt lat="48.69212" lon="1.91108">
        <ele>126.59</ele>
        <time>2020-01-11T16:38:27Z</time>
      </trkpt>
      <trkpt lat="48.6921" lon="1.91102">
        <ele>126.86</ele>
        <time>2020-01-11T16:38:32Z</time>
      </trkpt>
      <trkpt lat="48.69207" lon="1.91095">
        <ele>127.01</ele>
        <time>2020-01-11T16:38:37Z</time>
      </trkpt>
      <trkpt lat="48.69204" lon="1.91087">
        <ele>127.04</ele>
        <time>2020-01-11T16:38:42Z</time>
      </trkpt>
      <trkpt lat="48.69202" lon="1.91079">
        <ele>127.17</ele>
        <time>2020-01-11T16:38:47Z</time>
      </trkpt>
      <trkpt lat="48.69199" lon="1.91069">
        <ele>127.33</ele>
        <time>2020-01-11T16:38:52Z</time>
      </trkpt>
      <trkpt lat="48.69196" lon="1.9106">
        <ele>127.47</ele>
        <time>2020-01-11T16:38:57Z</time>
      </trkpt>
      <trkpt lat="48.6919" lon="1.91051">
        <ele>127.3</ele>
        <time>2020-01-11T16:39:02Z</time>
      </trkpt>
      <trkpt lat="48.69185" lon="1.91039">
        <ele>126.96</ele>
        <time>2020-01-11T16:39:07Z</time>
      </trkpt>
      <trkpt lat="48.69181" lon="1.91029">
        <ele>126.71</ele>
        <time>2020-01-11T16:39:12Z</time>
      </trkpt>
      <trkpt lat="48.69181" lon="1.91018">
        <ele>126.32</ele>
        <time>2020-01-11T16:39:17Z</time>
      </trkpt>
      <trkpt lat="48.69182" lon="1.91007">
        <ele>126.07</ele>
        <time>2020-01-11T16:39:22Z</time>
      </trkpt>
      <trkpt lat="48.69183" lon="1.90997">
        <ele>126.13</ele>
        <time>2020-01-11T16:39:27Z</time>
      </trkpt>
      <trkpt lat="48.69183" lon="1.90986">
        <ele>126.07</ele>
        <time>2020-01-11T16:39:32Z</time>
      </trkpt>
      <trkpt lat="48.69186" lon="1.90977">
        <ele>125.98</ele>
        <time>2020-01-11T16:39:37Z</time>
      </trkpt>
      <trkpt lat="48.6919" lon="1.90972">
        <ele>126.08</ele>
        <time>2020-01-11T16:39:42Z</time>
      </trkpt>
      <trkpt lat="48.69195" lon="1.90968">
        <ele>126.33</ele>
        <time>2020-01-11T16:39:47Z</time>
      </trkpt>
      <trkpt lat="48.69201" lon="1.90964">
        <ele>126.49</ele>
        <time>2020-01-11T16:39:52Z</time>
      </trkpt>
      <trkpt lat="48.69205" lon="1.90958">
        <ele>126.6</ele>
        <time>2020-01-11T16:39:57Z</time>
      </trkpt>
      <trkpt lat="48.69211" lon="1.90952">
        <ele>126.7</ele>
        <time>2020-01-11T16:40:02Z</time>
      </trkpt>
      <trkpt lat="48.69216" lon="1.90944">
        <ele>126.88</ele>
        <time>2020-01-11T16:40:07Z</time>
      </trkpt>
      <trkpt lat="48.69219" lon="1.90937">
        <ele>127.17</ele>
        <time>2020-01-11T16:40:12Z</time>
      </trkpt>
      <trkpt lat="48.69222" lon="1.90929">
        <ele>127.28</ele>
        <time>2020-01-11T16:40:17Z</time>
      </trkpt>
      <trkpt lat="48.69226" lon="1.90922">
        <ele>127.43</ele>
        <time>2020-01-11T16:40:22Z</time>
      </trkpt>
      <trkpt lat="48.69229" lon="1.90916">
        <ele>127.77</ele>
        <time>2020-01-11T16:40:27Z</time>
      </trkpt>
      <trkpt lat="48.69233" lon="1.9091">
        <ele>128.05</ele>
        <time>2020-01-11T16:40:32Z</time>
      </trkpt>
      <trkpt lat="48.69237" lon="1.90906">
        <ele>128.13</ele>
        <time>2020-01-11T16:40:37Z</time>
      </trkpt>
      <trkpt lat="48.69241" lon="1.90901">
        <ele>128.34</ele>
        <time>2020-01-11T16:40:42Z</time>
      </trkpt>
      <trkpt lat="48.69244" lon="1.90896">
        <ele>128.66</ele>
        <time>2020-01-11T16:40:47Z</time>
      </trkpt>
      <trkpt lat="48.69248" lon="1.90893">
        <ele>128.96</ele>
        <time>2020-01-11T16:40:52Z</time>
      </trkpt>
      <trkpt lat="48.69253" lon="1.90889">
        <ele>129.49</ele>
        <time>2020-01-11T16:40:57Z</time>
      </trkpt>
      <trkpt lat="48.69257" lon="1.90884">
        <ele>129.91</ele>
        <time>2020-01-11T16:41:02Z</time>
      </trkpt>
      <trkpt lat="48.6926" lon="1.90877">
        <ele>130.25</ele>
        <time>2020-01-11T16:41:07Z</time>
      </trkpt>
      <trkpt lat="48.69264" lon="1.90871">
        <ele>130.66</ele>
        <time>2020-01-11T16:41:12Z</time>
      </trkpt>
      <trkpt lat="48.69266" lon="1.90864">
        <ele>130.98</ele>
        <time>2020-01-11T16:41:17Z</time>
      </trkpt>
      <trkpt lat="48.69268" lon="1.90857">
        <ele>130.94</ele>
        <time>2020-01-11T16:41:22Z</time>
      </trkpt>
      <trkpt lat="48.69272" lon="1.90849">
        <ele>130.86</ele>
        <time>2020-01-11T16:41:27Z</time>
      </trkpt>
      <trkpt lat="48.69275" lon="1.90843">
        <ele>130.58</ele>
        <time>2020-01-11T16:41:32Z</time>
      </trkpt>
      <trkpt lat="48.69279" lon="1.90837">
        <ele>130.31</ele>
        <time>2020-01-11T16:41:37Z</time>
      </trkpt>
      <trkpt lat="48.69281" lon="1.90831">
        <ele>130.17</ele>
        <time>2020-01-11T16:41:42Z</time>
      </trkpt>
      <trkpt lat="48.69286" lon="1.90827">
        <ele>130.17</ele>
        <time>2020-01-11T16:41:47Z</time>
      </trkpt>
      <trkpt lat="48.69291" lon="1.90824">
        <ele>130.3</ele>
        <time>2020-01-11T16:41:52Z</time>
      </trkpt>
      <trkpt lat="48.69296" lon="1.90821">
        <ele>130.5</ele>
        <time>2020-01-11T16:41:57Z</time>
      </trkpt>
      <trkpt lat="48.69299" lon="1.90819">
        <ele>130.67</ele>
        <time>2020-01-11T16:42:02Z</time>
      </trkpt>
      <trkpt lat="48.693" lon="1.90819">
        <ele>130.77</ele>
        <time>2020-01-11T16:42:07Z</time>
      </trkpt>
      <trkpt lat="48.693" lon="1.90818">
        <ele>130.75</ele>
        <time>2020-01-11T16:42:12Z</time>
      </trkpt>
      <trkpt lat="48.693" lon="1.90818">
        <ele>130.75</ele>
        <time>2020-01-11T16:42:17Z</time>
      </trkpt>
      <trkpt lat="48.69301" lon="1.90818">
        <ele>130.81</ele>
        <time>2020-01-11T16:42:22Z</time>
      </trkpt>
      <trkpt lat="48.69301" lon="1.90818">
        <ele>131.08</ele>
        <time>2020-01-11T16:42:27Z</time>
      </trkpt>
      <trkpt lat="48.69301" lon="1.90817">
        <ele>104.87</ele>
        <time>2020-01-11T16:42:31Z</time>
      </trkpt>
    </trkseg>
  </trk>
</gpx>